<?xml version="1.0" encoding="UTF-8" standalone="no" ?>
<gpx xmlns="http://www.topografix.com/GPX/1/1" xmlns:xsi="http://www.w3.org/2001/XMLSchema-instance" xsi:schemaLocation="http://www.topografix.com/GPX/1/1 http://www.topografix.com/GPX/1/1/gpx.xsd" version="1.1" creator="VisuGPX - https://www.visugpx.com">
  <metadata>
    <name>31/05/2020 Couraduque</name>
    <desc><![CDATA[boucle au départ du col de Couraduque puis au pied du col de Bazes, col de Cantau jusqu'au col de Soulor, retour par le col de Soum et retour à Couraduque par le col de la Serre]]></desc>
  </metadata>
  <trk>
    <name><![CDATA[31/05/2020 08:28:57]]></name>
    <trkseg>
      <trkpt lat="42.99063" lon="-0.20221">
        <ele>1356.8000488281</ele>
        <time>2020-05-31T06:28:57Z</time>
      </trkpt>
      <trkpt lat="42.99063" lon="-0.20222">
        <ele>1356.8000488281</ele>
        <time>2020-05-31T06:29:00Z</time>
      </trkpt>
      <trkpt lat="42.99063" lon="-0.20222">
        <ele>1356.4000244141</ele>
        <time>2020-05-31T06:29:01Z</time>
      </trkpt>
      <trkpt lat="42.99063" lon="-0.20222">
        <ele>1356.4000244141</ele>
        <time>2020-05-31T06:29:15Z</time>
      </trkpt>
      <trkpt lat="42.99061" lon="-0.20224">
        <ele>1356.4000244141</ele>
        <time>2020-05-31T06:29:22Z</time>
      </trkpt>
      <trkpt lat="42.99061" lon="-0.20237">
        <ele>1356.4000244141</ele>
        <time>2020-05-31T06:29:28Z</time>
      </trkpt>
      <trkpt lat="42.99063" lon="-0.20246">
        <ele>1356.4000244141</ele>
        <time>2020-05-31T06:29:31Z</time>
      </trkpt>
      <trkpt lat="42.99067" lon="-0.2025">
        <ele>1356.4000244141</ele>
        <time>2020-05-31T06:29:33Z</time>
      </trkpt>
      <trkpt lat="42.99088" lon="-0.20264">
        <ele>1356.4000244141</ele>
        <time>2020-05-31T06:29:40Z</time>
      </trkpt>
      <trkpt lat="42.99101" lon="-0.20282">
        <ele>1356.4000244141</ele>
        <time>2020-05-31T06:29:45Z</time>
      </trkpt>
      <trkpt lat="42.99109" lon="-0.20295">
        <ele>1356.4000244141</ele>
        <time>2020-05-31T06:29:50Z</time>
      </trkpt>
      <trkpt lat="42.99118" lon="-0.20299">
        <ele>1356.4000244141</ele>
        <time>2020-05-31T06:29:55Z</time>
      </trkpt>
      <trkpt lat="42.99123" lon="-0.20309">
        <ele>1356.4000244141</ele>
        <time>2020-05-31T06:29:59Z</time>
      </trkpt>
      <trkpt lat="42.99123" lon="-0.20315">
        <ele>1356.4000244141</ele>
        <time>2020-05-31T06:30:01Z</time>
      </trkpt>
      <trkpt lat="42.99122" lon="-0.20322">
        <ele>1356.4000244141</ele>
        <time>2020-05-31T06:30:04Z</time>
      </trkpt>
      <trkpt lat="42.99125" lon="-0.20338">
        <ele>1357</ele>
        <time>2020-05-31T06:30:11Z</time>
      </trkpt>
      <trkpt lat="42.99126" lon="-0.20339">
        <ele>1357.4000244141</ele>
        <time>2020-05-31T06:30:12Z</time>
      </trkpt>
      <trkpt lat="42.99127" lon="-0.2034">
        <ele>1357.8000488281</ele>
        <time>2020-05-31T06:30:13Z</time>
      </trkpt>
      <trkpt lat="42.99128" lon="-0.20341">
        <ele>1358.1999511719</ele>
        <time>2020-05-31T06:30:14Z</time>
      </trkpt>
      <trkpt lat="42.9913" lon="-0.20342">
        <ele>1358.5999755859</ele>
        <time>2020-05-31T06:30:15Z</time>
      </trkpt>
      <trkpt lat="42.99132" lon="-0.20343">
        <ele>1358.5999755859</ele>
        <time>2020-05-31T06:30:17Z</time>
      </trkpt>
      <trkpt lat="42.9914" lon="-0.20344">
        <ele>1358.5999755859</ele>
        <time>2020-05-31T06:30:25Z</time>
      </trkpt>
      <trkpt lat="42.99142" lon="-0.20343">
        <ele>1358.5999755859</ele>
        <time>2020-05-31T06:30:36Z</time>
      </trkpt>
      <trkpt lat="42.99147" lon="-0.20343">
        <ele>1358.5999755859</ele>
        <time>2020-05-31T06:30:41Z</time>
      </trkpt>
      <trkpt lat="42.99154" lon="-0.20342">
        <ele>1359</ele>
        <time>2020-05-31T06:30:47Z</time>
      </trkpt>
      <trkpt lat="42.99156" lon="-0.20341">
        <ele>1359.4000244141</ele>
        <time>2020-05-31T06:30:48Z</time>
      </trkpt>
      <trkpt lat="42.99157" lon="-0.2034">
        <ele>1360.1999511719</ele>
        <time>2020-05-31T06:30:49Z</time>
      </trkpt>
      <trkpt lat="42.99158" lon="-0.2034">
        <ele>1360.5999755859</ele>
        <time>2020-05-31T06:30:50Z</time>
      </trkpt>
      <trkpt lat="42.9916" lon="-0.20342">
        <ele>1360.5999755859</ele>
        <time>2020-05-31T06:30:52Z</time>
      </trkpt>
      <trkpt lat="42.99161" lon="-0.20348">
        <ele>1360.5999755859</ele>
        <time>2020-05-31T06:30:54Z</time>
      </trkpt>
      <trkpt lat="42.99163" lon="-0.20353">
        <ele>1360.5999755859</ele>
        <time>2020-05-31T06:30:56Z</time>
      </trkpt>
      <trkpt lat="42.99167" lon="-0.20358">
        <ele>1360.5999755859</ele>
        <time>2020-05-31T06:31:00Z</time>
      </trkpt>
      <trkpt lat="42.99171" lon="-0.20362">
        <ele>1361</ele>
        <time>2020-05-31T06:31:03Z</time>
      </trkpt>
      <trkpt lat="42.99172" lon="-0.20363">
        <ele>1361.4000244141</ele>
        <time>2020-05-31T06:31:04Z</time>
      </trkpt>
      <trkpt lat="42.99173" lon="-0.20364">
        <ele>1361.8000488281</ele>
        <time>2020-05-31T06:31:05Z</time>
      </trkpt>
      <trkpt lat="42.99174" lon="-0.20366">
        <ele>1362.1999511719</ele>
        <time>2020-05-31T06:31:06Z</time>
      </trkpt>
      <trkpt lat="42.99176" lon="-0.20368">
        <ele>1362.5999755859</ele>
        <time>2020-05-31T06:31:07Z</time>
      </trkpt>
      <trkpt lat="42.99177" lon="-0.20369">
        <ele>1362.5999755859</ele>
        <time>2020-05-31T06:31:08Z</time>
      </trkpt>
      <trkpt lat="42.99178" lon="-0.20371">
        <ele>1362.5999755859</ele>
        <time>2020-05-31T06:31:09Z</time>
      </trkpt>
      <trkpt lat="42.99184" lon="-0.20375">
        <ele>1362.5999755859</ele>
        <time>2020-05-31T06:31:13Z</time>
      </trkpt>
      <trkpt lat="42.99186" lon="-0.20376">
        <ele>1363.5999755859</ele>
        <time>2020-05-31T06:31:14Z</time>
      </trkpt>
      <trkpt lat="42.99188" lon="-0.20378">
        <ele>1364</ele>
        <time>2020-05-31T06:31:15Z</time>
      </trkpt>
      <trkpt lat="42.9919" lon="-0.2038">
        <ele>1364.4000244141</ele>
        <time>2020-05-31T06:31:16Z</time>
      </trkpt>
      <trkpt lat="42.99192" lon="-0.20381">
        <ele>1364.8000488281</ele>
        <time>2020-05-31T06:31:17Z</time>
      </trkpt>
      <trkpt lat="42.99196" lon="-0.20384">
        <ele>1364.8000488281</ele>
        <time>2020-05-31T06:31:19Z</time>
      </trkpt>
      <trkpt lat="42.99207" lon="-0.2039">
        <ele>1364.8000488281</ele>
        <time>2020-05-31T06:31:25Z</time>
      </trkpt>
      <trkpt lat="42.99209" lon="-0.20392">
        <ele>1365.1999511719</ele>
        <time>2020-05-31T06:31:26Z</time>
      </trkpt>
      <trkpt lat="42.99211" lon="-0.20393">
        <ele>1365.5999755859</ele>
        <time>2020-05-31T06:31:27Z</time>
      </trkpt>
      <trkpt lat="42.99213" lon="-0.20395">
        <ele>1366</ele>
        <time>2020-05-31T06:31:28Z</time>
      </trkpt>
      <trkpt lat="42.99215" lon="-0.20395">
        <ele>1366.4000244141</ele>
        <time>2020-05-31T06:31:29Z</time>
      </trkpt>
      <trkpt lat="42.99216" lon="-0.20396">
        <ele>1366.8000488281</ele>
        <time>2020-05-31T06:31:30Z</time>
      </trkpt>
      <trkpt lat="42.9922" lon="-0.20397">
        <ele>1366.8000488281</ele>
        <time>2020-05-31T06:31:32Z</time>
      </trkpt>
      <trkpt lat="42.99223" lon="-0.20399">
        <ele>1367.1999511719</ele>
        <time>2020-05-31T06:31:34Z</time>
      </trkpt>
      <trkpt lat="42.99224" lon="-0.204">
        <ele>1367.5999755859</ele>
        <time>2020-05-31T06:31:35Z</time>
      </trkpt>
      <trkpt lat="42.99226" lon="-0.20403">
        <ele>1368</ele>
        <time>2020-05-31T06:31:36Z</time>
      </trkpt>
      <trkpt lat="42.99228" lon="-0.20405">
        <ele>1368.4000244141</ele>
        <time>2020-05-31T06:31:37Z</time>
      </trkpt>
      <trkpt lat="42.9923" lon="-0.20406">
        <ele>1368.8000488281</ele>
        <time>2020-05-31T06:31:38Z</time>
      </trkpt>
      <trkpt lat="42.99231" lon="-0.20407">
        <ele>1368.8000488281</ele>
        <time>2020-05-31T06:31:39Z</time>
      </trkpt>
      <trkpt lat="42.99233" lon="-0.20409">
        <ele>1368.8000488281</ele>
        <time>2020-05-31T06:31:40Z</time>
      </trkpt>
      <trkpt lat="42.99239" lon="-0.20416">
        <ele>1369.1999511719</ele>
        <time>2020-05-31T06:31:44Z</time>
      </trkpt>
      <trkpt lat="42.99241" lon="-0.20417">
        <ele>1369.5999755859</ele>
        <time>2020-05-31T06:31:45Z</time>
      </trkpt>
      <trkpt lat="42.99242" lon="-0.20419">
        <ele>1370</ele>
        <time>2020-05-31T06:31:46Z</time>
      </trkpt>
      <trkpt lat="42.99243" lon="-0.20421">
        <ele>1370.4000244141</ele>
        <time>2020-05-31T06:31:47Z</time>
      </trkpt>
      <trkpt lat="42.99244" lon="-0.20423">
        <ele>1370.8000488281</ele>
        <time>2020-05-31T06:31:48Z</time>
      </trkpt>
      <trkpt lat="42.99247" lon="-0.20429">
        <ele>1370.8000488281</ele>
        <time>2020-05-31T06:31:52Z</time>
      </trkpt>
      <trkpt lat="42.99248" lon="-0.2043">
        <ele>1371.4000244141</ele>
        <time>2020-05-31T06:31:53Z</time>
      </trkpt>
      <trkpt lat="42.99249" lon="-0.20431">
        <ele>1371.8000488281</ele>
        <time>2020-05-31T06:31:54Z</time>
      </trkpt>
      <trkpt lat="42.99249" lon="-0.20432">
        <ele>1372.1999511719</ele>
        <time>2020-05-31T06:31:55Z</time>
      </trkpt>
      <trkpt lat="42.9925" lon="-0.20433">
        <ele>1372.5999755859</ele>
        <time>2020-05-31T06:31:56Z</time>
      </trkpt>
      <trkpt lat="42.99252" lon="-0.20435">
        <ele>1373</ele>
        <time>2020-05-31T06:31:57Z</time>
      </trkpt>
      <trkpt lat="42.99255" lon="-0.20439">
        <ele>1373</ele>
        <time>2020-05-31T06:32:00Z</time>
      </trkpt>
      <trkpt lat="42.9926" lon="-0.20446">
        <ele>1373</ele>
        <time>2020-05-31T06:32:04Z</time>
      </trkpt>
      <trkpt lat="42.99262" lon="-0.20449">
        <ele>1373</ele>
        <time>2020-05-31T06:32:06Z</time>
      </trkpt>
      <trkpt lat="42.99266" lon="-0.20454">
        <ele>1373.4000244141</ele>
        <time>2020-05-31T06:32:09Z</time>
      </trkpt>
      <trkpt lat="42.99267" lon="-0.20455">
        <ele>1373.8000488281</ele>
        <time>2020-05-31T06:32:10Z</time>
      </trkpt>
      <trkpt lat="42.99269" lon="-0.20457">
        <ele>1374.1999511719</ele>
        <time>2020-05-31T06:32:11Z</time>
      </trkpt>
      <trkpt lat="42.99271" lon="-0.20458">
        <ele>1374.5999755859</ele>
        <time>2020-05-31T06:32:12Z</time>
      </trkpt>
      <trkpt lat="42.99272" lon="-0.20459">
        <ele>1375</ele>
        <time>2020-05-31T06:32:13Z</time>
      </trkpt>
      <trkpt lat="42.99283" lon="-0.20462">
        <ele>1375</ele>
        <time>2020-05-31T06:32:19Z</time>
      </trkpt>
      <trkpt lat="42.99293" lon="-0.20467">
        <ele>1375.4000244141</ele>
        <time>2020-05-31T06:32:22Z</time>
      </trkpt>
      <trkpt lat="42.99296" lon="-0.20467">
        <ele>1376</ele>
        <time>2020-05-31T06:32:23Z</time>
      </trkpt>
      <trkpt lat="42.99298" lon="-0.20467">
        <ele>1376.4000244141</ele>
        <time>2020-05-31T06:32:24Z</time>
      </trkpt>
      <trkpt lat="42.993" lon="-0.20467">
        <ele>1376.8000488281</ele>
        <time>2020-05-31T06:32:25Z</time>
      </trkpt>
      <trkpt lat="42.99302" lon="-0.20467">
        <ele>1377.1999511719</ele>
        <time>2020-05-31T06:32:26Z</time>
      </trkpt>
      <trkpt lat="42.99313" lon="-0.20466">
        <ele>1377.1999511719</ele>
        <time>2020-05-31T06:32:32Z</time>
      </trkpt>
      <trkpt lat="42.99321" lon="-0.20465">
        <ele>1377.5999755859</ele>
        <time>2020-05-31T06:32:36Z</time>
      </trkpt>
      <trkpt lat="42.99323" lon="-0.20465">
        <ele>1378</ele>
        <time>2020-05-31T06:32:37Z</time>
      </trkpt>
      <trkpt lat="42.99325" lon="-0.20465">
        <ele>1378.4000244141</ele>
        <time>2020-05-31T06:32:38Z</time>
      </trkpt>
      <trkpt lat="42.99327" lon="-0.20464">
        <ele>1378.8000488281</ele>
        <time>2020-05-31T06:32:39Z</time>
      </trkpt>
      <trkpt lat="42.99329" lon="-0.20463">
        <ele>1379.1999511719</ele>
        <time>2020-05-31T06:32:40Z</time>
      </trkpt>
      <trkpt lat="42.99336" lon="-0.2046">
        <ele>1379.1999511719</ele>
        <time>2020-05-31T06:32:43Z</time>
      </trkpt>
      <trkpt lat="42.99349" lon="-0.20462">
        <ele>1379.1999511719</ele>
        <time>2020-05-31T06:32:48Z</time>
      </trkpt>
      <trkpt lat="42.99363" lon="-0.20476">
        <ele>1379.1999511719</ele>
        <time>2020-05-31T06:32:52Z</time>
      </trkpt>
      <trkpt lat="42.99383" lon="-0.20506">
        <ele>1379.1999511719</ele>
        <time>2020-05-31T06:32:58Z</time>
      </trkpt>
      <trkpt lat="42.99388" lon="-0.20516">
        <ele>1379.1999511719</ele>
        <time>2020-05-31T06:33:00Z</time>
      </trkpt>
      <trkpt lat="42.99391" lon="-0.20526">
        <ele>1379.1999511719</ele>
        <time>2020-05-31T06:33:02Z</time>
      </trkpt>
      <trkpt lat="42.99396" lon="-0.20533">
        <ele>1379.1999511719</ele>
        <time>2020-05-31T06:33:04Z</time>
      </trkpt>
      <trkpt lat="42.99404" lon="-0.20547">
        <ele>1379.1999511719</ele>
        <time>2020-05-31T06:33:07Z</time>
      </trkpt>
      <trkpt lat="42.99415" lon="-0.20564">
        <ele>1379.1999511719</ele>
        <time>2020-05-31T06:33:13Z</time>
      </trkpt>
      <trkpt lat="42.99418" lon="-0.20567">
        <ele>1379.1999511719</ele>
        <time>2020-05-31T06:33:15Z</time>
      </trkpt>
      <trkpt lat="42.99424" lon="-0.20573">
        <ele>1379.1999511719</ele>
        <time>2020-05-31T06:33:18Z</time>
      </trkpt>
      <trkpt lat="42.99432" lon="-0.20579">
        <ele>1379.1999511719</ele>
        <time>2020-05-31T06:33:21Z</time>
      </trkpt>
      <trkpt lat="42.99439" lon="-0.20584">
        <ele>1379.1999511719</ele>
        <time>2020-05-31T06:33:24Z</time>
      </trkpt>
      <trkpt lat="42.99458" lon="-0.2059">
        <ele>1379.1999511719</ele>
        <time>2020-05-31T06:33:29Z</time>
      </trkpt>
      <trkpt lat="42.99483" lon="-0.20599">
        <ele>1379.1999511719</ele>
        <time>2020-05-31T06:33:34Z</time>
      </trkpt>
      <trkpt lat="42.99486" lon="-0.20599">
        <ele>1379.5999755859</ele>
        <time>2020-05-31T06:33:35Z</time>
      </trkpt>
      <trkpt lat="42.99489" lon="-0.20599">
        <ele>1380</ele>
        <time>2020-05-31T06:33:36Z</time>
      </trkpt>
      <trkpt lat="42.99492" lon="-0.20599">
        <ele>1380.4000244141</ele>
        <time>2020-05-31T06:33:37Z</time>
      </trkpt>
      <trkpt lat="42.99495" lon="-0.20598">
        <ele>1381</ele>
        <time>2020-05-31T06:33:38Z</time>
      </trkpt>
      <trkpt lat="42.99496" lon="-0.20598">
        <ele>1381.4000244141</ele>
        <time>2020-05-31T06:33:39Z</time>
      </trkpt>
      <trkpt lat="42.99507" lon="-0.20592">
        <ele>1381.4000244141</ele>
        <time>2020-05-31T06:33:44Z</time>
      </trkpt>
      <trkpt lat="42.99526" lon="-0.20584">
        <ele>1381.8000488281</ele>
        <time>2020-05-31T06:33:50Z</time>
      </trkpt>
      <trkpt lat="42.99529" lon="-0.20581">
        <ele>1382.1999511719</ele>
        <time>2020-05-31T06:33:51Z</time>
      </trkpt>
      <trkpt lat="42.99531" lon="-0.20578">
        <ele>1382.5999755859</ele>
        <time>2020-05-31T06:33:52Z</time>
      </trkpt>
      <trkpt lat="42.99532" lon="-0.20576">
        <ele>1383</ele>
        <time>2020-05-31T06:33:53Z</time>
      </trkpt>
      <trkpt lat="42.99534" lon="-0.20573">
        <ele>1383.4000244141</ele>
        <time>2020-05-31T06:33:54Z</time>
      </trkpt>
      <trkpt lat="42.99537" lon="-0.20567">
        <ele>1383.4000244141</ele>
        <time>2020-05-31T06:33:56Z</time>
      </trkpt>
      <trkpt lat="42.99548" lon="-0.20541">
        <ele>1383.4000244141</ele>
        <time>2020-05-31T06:34:03Z</time>
      </trkpt>
      <trkpt lat="42.99558" lon="-0.20517">
        <ele>1383.4000244141</ele>
        <time>2020-05-31T06:34:09Z</time>
      </trkpt>
      <trkpt lat="42.9957" lon="-0.20502">
        <ele>1383.4000244141</ele>
        <time>2020-05-31T06:34:13Z</time>
      </trkpt>
      <trkpt lat="42.99574" lon="-0.20497">
        <ele>1383.4000244141</ele>
        <time>2020-05-31T06:34:14Z</time>
      </trkpt>
      <trkpt lat="42.99585" lon="-0.20487">
        <ele>1383</ele>
        <time>2020-05-31T06:34:16Z</time>
      </trkpt>
      <trkpt lat="42.99592" lon="-0.20482">
        <ele>1382.5999755859</ele>
        <time>2020-05-31T06:34:17Z</time>
      </trkpt>
      <trkpt lat="42.99599" lon="-0.20476">
        <ele>1382.1999511719</ele>
        <time>2020-05-31T06:34:18Z</time>
      </trkpt>
      <trkpt lat="42.99605" lon="-0.20471">
        <ele>1381.5999755859</ele>
        <time>2020-05-31T06:34:19Z</time>
      </trkpt>
      <trkpt lat="42.99611" lon="-0.20465">
        <ele>1381.1999511719</ele>
        <time>2020-05-31T06:34:20Z</time>
      </trkpt>
      <trkpt lat="42.99617" lon="-0.2046">
        <ele>1380.8000488281</ele>
        <time>2020-05-31T06:34:21Z</time>
      </trkpt>
      <trkpt lat="42.99623" lon="-0.20454">
        <ele>1380.4000244141</ele>
        <time>2020-05-31T06:34:22Z</time>
      </trkpt>
      <trkpt lat="42.99628" lon="-0.20448">
        <ele>1380</ele>
        <time>2020-05-31T06:34:23Z</time>
      </trkpt>
      <trkpt lat="42.99633" lon="-0.20442">
        <ele>1379.5999755859</ele>
        <time>2020-05-31T06:34:24Z</time>
      </trkpt>
      <trkpt lat="42.99637" lon="-0.20436">
        <ele>1379</ele>
        <time>2020-05-31T06:34:25Z</time>
      </trkpt>
      <trkpt lat="42.99645" lon="-0.20428">
        <ele>1379</ele>
        <time>2020-05-31T06:34:27Z</time>
      </trkpt>
      <trkpt lat="42.99657" lon="-0.20428">
        <ele>1379</ele>
        <time>2020-05-31T06:34:30Z</time>
      </trkpt>
      <trkpt lat="42.99663" lon="-0.20433">
        <ele>1379</ele>
        <time>2020-05-31T06:34:32Z</time>
      </trkpt>
      <trkpt lat="42.99668" lon="-0.20438">
        <ele>1379</ele>
        <time>2020-05-31T06:34:34Z</time>
      </trkpt>
      <trkpt lat="42.99685" lon="-0.20447">
        <ele>1379</ele>
        <time>2020-05-31T06:34:40Z</time>
      </trkpt>
      <trkpt lat="42.99694" lon="-0.20451">
        <ele>1379</ele>
        <time>2020-05-31T06:34:42Z</time>
      </trkpt>
      <trkpt lat="42.99699" lon="-0.20455">
        <ele>1378.5999755859</ele>
        <time>2020-05-31T06:34:43Z</time>
      </trkpt>
      <trkpt lat="42.99704" lon="-0.20458">
        <ele>1378.1999511719</ele>
        <time>2020-05-31T06:34:44Z</time>
      </trkpt>
      <trkpt lat="42.9971" lon="-0.20461">
        <ele>1377.8000488281</ele>
        <time>2020-05-31T06:34:45Z</time>
      </trkpt>
      <trkpt lat="42.99714" lon="-0.20464">
        <ele>1377.1999511719</ele>
        <time>2020-05-31T06:34:46Z</time>
      </trkpt>
      <trkpt lat="42.99718" lon="-0.20467">
        <ele>1376.8000488281</ele>
        <time>2020-05-31T06:34:47Z</time>
      </trkpt>
      <trkpt lat="42.99723" lon="-0.20468">
        <ele>1376.8000488281</ele>
        <time>2020-05-31T06:34:48Z</time>
      </trkpt>
      <trkpt lat="42.99728" lon="-0.20471">
        <ele>1376.8000488281</ele>
        <time>2020-05-31T06:34:49Z</time>
      </trkpt>
      <trkpt lat="42.99737" lon="-0.20475">
        <ele>1376.8000488281</ele>
        <time>2020-05-31T06:34:51Z</time>
      </trkpt>
      <trkpt lat="42.99752" lon="-0.20479">
        <ele>1376.8000488281</ele>
        <time>2020-05-31T06:34:54Z</time>
      </trkpt>
      <trkpt lat="42.99783" lon="-0.20489">
        <ele>1376.8000488281</ele>
        <time>2020-05-31T06:35:00Z</time>
      </trkpt>
      <trkpt lat="42.99788" lon="-0.20491">
        <ele>1376.8000488281</ele>
        <time>2020-05-31T06:35:01Z</time>
      </trkpt>
      <trkpt lat="42.99797" lon="-0.20497">
        <ele>1376.8000488281</ele>
        <time>2020-05-31T06:35:03Z</time>
      </trkpt>
      <trkpt lat="42.99802" lon="-0.20499">
        <ele>1377.1999511719</ele>
        <time>2020-05-31T06:35:04Z</time>
      </trkpt>
      <trkpt lat="42.99806" lon="-0.20501">
        <ele>1377.5999755859</ele>
        <time>2020-05-31T06:35:05Z</time>
      </trkpt>
      <trkpt lat="42.9981" lon="-0.20502">
        <ele>1378</ele>
        <time>2020-05-31T06:35:06Z</time>
      </trkpt>
      <trkpt lat="42.99814" lon="-0.20504">
        <ele>1378.5999755859</ele>
        <time>2020-05-31T06:35:07Z</time>
      </trkpt>
      <trkpt lat="42.99819" lon="-0.20505">
        <ele>1379</ele>
        <time>2020-05-31T06:35:08Z</time>
      </trkpt>
      <trkpt lat="42.99825" lon="-0.20508">
        <ele>1379</ele>
        <time>2020-05-31T06:35:09Z</time>
      </trkpt>
      <trkpt lat="42.9983" lon="-0.2051">
        <ele>1379</ele>
        <time>2020-05-31T06:35:10Z</time>
      </trkpt>
      <trkpt lat="42.99835" lon="-0.20511">
        <ele>1379</ele>
        <time>2020-05-31T06:35:11Z</time>
      </trkpt>
      <trkpt lat="42.99856" lon="-0.20512">
        <ele>1379</ele>
        <time>2020-05-31T06:35:15Z</time>
      </trkpt>
      <trkpt lat="42.99869" lon="-0.20503">
        <ele>1379.4000244141</ele>
        <time>2020-05-31T06:35:19Z</time>
      </trkpt>
      <trkpt lat="42.99872" lon="-0.205">
        <ele>1380.1999511719</ele>
        <time>2020-05-31T06:35:20Z</time>
      </trkpt>
      <trkpt lat="42.99874" lon="-0.20497">
        <ele>1380.5999755859</ele>
        <time>2020-05-31T06:35:21Z</time>
      </trkpt>
      <trkpt lat="42.99878" lon="-0.20494">
        <ele>1381.1999511719</ele>
        <time>2020-05-31T06:35:22Z</time>
      </trkpt>
      <trkpt lat="42.99885" lon="-0.20491">
        <ele>1381.1999511719</ele>
        <time>2020-05-31T06:35:25Z</time>
      </trkpt>
      <trkpt lat="42.99888" lon="-0.20496">
        <ele>1381.1999511719</ele>
        <time>2020-05-31T06:35:27Z</time>
      </trkpt>
      <trkpt lat="42.99892" lon="-0.20503">
        <ele>1381.1999511719</ele>
        <time>2020-05-31T06:35:28Z</time>
      </trkpt>
      <trkpt lat="42.99893" lon="-0.20522">
        <ele>1381.1999511719</ele>
        <time>2020-05-31T06:35:32Z</time>
      </trkpt>
      <trkpt lat="42.99892" lon="-0.20529">
        <ele>1381.1999511719</ele>
        <time>2020-05-31T06:35:34Z</time>
      </trkpt>
      <trkpt lat="42.99891" lon="-0.20532">
        <ele>1381.5999755859</ele>
        <time>2020-05-31T06:35:35Z</time>
      </trkpt>
      <trkpt lat="42.99891" lon="-0.20536">
        <ele>1382</ele>
        <time>2020-05-31T06:35:36Z</time>
      </trkpt>
      <trkpt lat="42.99889" lon="-0.20539">
        <ele>1382.4000244141</ele>
        <time>2020-05-31T06:35:37Z</time>
      </trkpt>
      <trkpt lat="42.99888" lon="-0.20543">
        <ele>1382.8000488281</ele>
        <time>2020-05-31T06:35:38Z</time>
      </trkpt>
      <trkpt lat="42.99888" lon="-0.20546">
        <ele>1383.1999511719</ele>
        <time>2020-05-31T06:35:39Z</time>
      </trkpt>
      <trkpt lat="42.99887" lon="-0.20571">
        <ele>1383.1999511719</ele>
        <time>2020-05-31T06:35:45Z</time>
      </trkpt>
      <trkpt lat="42.99884" lon="-0.20599">
        <ele>1383.1999511719</ele>
        <time>2020-05-31T06:35:50Z</time>
      </trkpt>
      <trkpt lat="42.99877" lon="-0.20639">
        <ele>1383.1999511719</ele>
        <time>2020-05-31T06:35:56Z</time>
      </trkpt>
      <trkpt lat="42.99871" lon="-0.20666">
        <ele>1382.8000488281</ele>
        <time>2020-05-31T06:35:59Z</time>
      </trkpt>
      <trkpt lat="42.9987" lon="-0.20675">
        <ele>1382.4000244141</ele>
        <time>2020-05-31T06:36:00Z</time>
      </trkpt>
      <trkpt lat="42.99869" lon="-0.20685">
        <ele>1381.8000488281</ele>
        <time>2020-05-31T06:36:01Z</time>
      </trkpt>
      <trkpt lat="42.99868" lon="-0.20695">
        <ele>1381.1999511719</ele>
        <time>2020-05-31T06:36:02Z</time>
      </trkpt>
      <trkpt lat="42.99868" lon="-0.20705">
        <ele>1380.5999755859</ele>
        <time>2020-05-31T06:36:03Z</time>
      </trkpt>
      <trkpt lat="42.99868" lon="-0.20715">
        <ele>1380</ele>
        <time>2020-05-31T06:36:04Z</time>
      </trkpt>
      <trkpt lat="42.99869" lon="-0.20725">
        <ele>1379.4000244141</ele>
        <time>2020-05-31T06:36:05Z</time>
      </trkpt>
      <trkpt lat="42.99871" lon="-0.20736">
        <ele>1378.8000488281</ele>
        <time>2020-05-31T06:36:06Z</time>
      </trkpt>
      <trkpt lat="42.99871" lon="-0.20747">
        <ele>1378.4000244141</ele>
        <time>2020-05-31T06:36:07Z</time>
      </trkpt>
      <trkpt lat="42.9987" lon="-0.20757">
        <ele>1378</ele>
        <time>2020-05-31T06:36:08Z</time>
      </trkpt>
      <trkpt lat="42.99869" lon="-0.20766">
        <ele>1377.5999755859</ele>
        <time>2020-05-31T06:36:09Z</time>
      </trkpt>
      <trkpt lat="42.99868" lon="-0.20775">
        <ele>1376.5999755859</ele>
        <time>2020-05-31T06:36:10Z</time>
      </trkpt>
      <trkpt lat="42.99868" lon="-0.20797">
        <ele>1376.5999755859</ele>
        <time>2020-05-31T06:36:13Z</time>
      </trkpt>
      <trkpt lat="42.99868" lon="-0.20804">
        <ele>1376.5999755859</ele>
        <time>2020-05-31T06:36:14Z</time>
      </trkpt>
      <trkpt lat="42.99867" lon="-0.20818">
        <ele>1377</ele>
        <time>2020-05-31T06:36:16Z</time>
      </trkpt>
      <trkpt lat="42.99867" lon="-0.20824">
        <ele>1377.4000244141</ele>
        <time>2020-05-31T06:36:17Z</time>
      </trkpt>
      <trkpt lat="42.99867" lon="-0.20831">
        <ele>1377.8000488281</ele>
        <time>2020-05-31T06:36:18Z</time>
      </trkpt>
      <trkpt lat="42.99867" lon="-0.20838">
        <ele>1378.1999511719</ele>
        <time>2020-05-31T06:36:19Z</time>
      </trkpt>
      <trkpt lat="42.99868" lon="-0.20845">
        <ele>1378.5999755859</ele>
        <time>2020-05-31T06:36:20Z</time>
      </trkpt>
      <trkpt lat="42.99872" lon="-0.20873">
        <ele>1379.1999511719</ele>
        <time>2020-05-31T06:36:25Z</time>
      </trkpt>
      <trkpt lat="42.99872" lon="-0.20876">
        <ele>1379.5999755859</ele>
        <time>2020-05-31T06:36:26Z</time>
      </trkpt>
      <trkpt lat="42.99873" lon="-0.2088">
        <ele>1380</ele>
        <time>2020-05-31T06:36:27Z</time>
      </trkpt>
      <trkpt lat="42.99874" lon="-0.20884">
        <ele>1380.5999755859</ele>
        <time>2020-05-31T06:36:28Z</time>
      </trkpt>
      <trkpt lat="42.99875" lon="-0.20887">
        <ele>1381</ele>
        <time>2020-05-31T06:36:29Z</time>
      </trkpt>
      <trkpt lat="42.99876" lon="-0.20892">
        <ele>1381</ele>
        <time>2020-05-31T06:36:31Z</time>
      </trkpt>
      <trkpt lat="42.99876" lon="-0.20895">
        <ele>1381.4000244141</ele>
        <time>2020-05-31T06:36:32Z</time>
      </trkpt>
      <trkpt lat="42.99877" lon="-0.20897">
        <ele>1381.8000488281</ele>
        <time>2020-05-31T06:36:33Z</time>
      </trkpt>
      <trkpt lat="42.99877" lon="-0.209">
        <ele>1382.8000488281</ele>
        <time>2020-05-31T06:36:34Z</time>
      </trkpt>
      <trkpt lat="42.99878" lon="-0.20903">
        <ele>1383.1999511719</ele>
        <time>2020-05-31T06:36:35Z</time>
      </trkpt>
      <trkpt lat="42.9988" lon="-0.20908">
        <ele>1383.1999511719</ele>
        <time>2020-05-31T06:36:37Z</time>
      </trkpt>
      <trkpt lat="42.99881" lon="-0.20909">
        <ele>1383.5999755859</ele>
        <time>2020-05-31T06:36:38Z</time>
      </trkpt>
      <trkpt lat="42.99882" lon="-0.2091">
        <ele>1384</ele>
        <time>2020-05-31T06:36:39Z</time>
      </trkpt>
      <trkpt lat="42.99882" lon="-0.20912">
        <ele>1384.4000244141</ele>
        <time>2020-05-31T06:36:40Z</time>
      </trkpt>
      <trkpt lat="42.99883" lon="-0.20914">
        <ele>1384.8000488281</ele>
        <time>2020-05-31T06:36:41Z</time>
      </trkpt>
      <trkpt lat="42.99884" lon="-0.20916">
        <ele>1385.4000244141</ele>
        <time>2020-05-31T06:36:42Z</time>
      </trkpt>
      <trkpt lat="42.99887" lon="-0.20923">
        <ele>1385.4000244141</ele>
        <time>2020-05-31T06:36:45Z</time>
      </trkpt>
      <trkpt lat="42.99888" lon="-0.20927">
        <ele>1385.8000488281</ele>
        <time>2020-05-31T06:36:47Z</time>
      </trkpt>
      <trkpt lat="42.99889" lon="-0.20929">
        <ele>1386.1999511719</ele>
        <time>2020-05-31T06:36:48Z</time>
      </trkpt>
      <trkpt lat="42.99889" lon="-0.20931">
        <ele>1386.5999755859</ele>
        <time>2020-05-31T06:36:49Z</time>
      </trkpt>
      <trkpt lat="42.99889" lon="-0.20933">
        <ele>1387.1999511719</ele>
        <time>2020-05-31T06:36:50Z</time>
      </trkpt>
      <trkpt lat="42.9989" lon="-0.20936">
        <ele>1387.5999755859</ele>
        <time>2020-05-31T06:36:51Z</time>
      </trkpt>
      <trkpt lat="42.99888" lon="-0.20954">
        <ele>1387.5999755859</ele>
        <time>2020-05-31T06:36:57Z</time>
      </trkpt>
      <trkpt lat="42.99886" lon="-0.2096">
        <ele>1388.4000244141</ele>
        <time>2020-05-31T06:36:59Z</time>
      </trkpt>
      <trkpt lat="42.99885" lon="-0.20962">
        <ele>1388.8000488281</ele>
        <time>2020-05-31T06:37:00Z</time>
      </trkpt>
      <trkpt lat="42.99883" lon="-0.20964">
        <ele>1389.1999511719</ele>
        <time>2020-05-31T06:37:01Z</time>
      </trkpt>
      <trkpt lat="42.99881" lon="-0.20967">
        <ele>1389.5999755859</ele>
        <time>2020-05-31T06:37:02Z</time>
      </trkpt>
      <trkpt lat="42.99879" lon="-0.2097">
        <ele>1389.5999755859</ele>
        <time>2020-05-31T06:37:03Z</time>
      </trkpt>
      <trkpt lat="42.99867" lon="-0.2099">
        <ele>1389.5999755859</ele>
        <time>2020-05-31T06:37:09Z</time>
      </trkpt>
      <trkpt lat="42.99849" lon="-0.2101">
        <ele>1389.5999755859</ele>
        <time>2020-05-31T06:37:15Z</time>
      </trkpt>
      <trkpt lat="42.99826" lon="-0.21028">
        <ele>1389.5999755859</ele>
        <time>2020-05-31T06:37:22Z</time>
      </trkpt>
      <trkpt lat="42.99815" lon="-0.21034">
        <ele>1389.5999755859</ele>
        <time>2020-05-31T06:37:25Z</time>
      </trkpt>
      <trkpt lat="42.998" lon="-0.21042">
        <ele>1389.5999755859</ele>
        <time>2020-05-31T06:37:29Z</time>
      </trkpt>
      <trkpt lat="42.99782" lon="-0.21046">
        <ele>1389.5999755859</ele>
        <time>2020-05-31T06:37:34Z</time>
      </trkpt>
      <trkpt lat="42.99766" lon="-0.21052">
        <ele>1389.5999755859</ele>
        <time>2020-05-31T06:37:39Z</time>
      </trkpt>
      <trkpt lat="42.9976" lon="-0.21054">
        <ele>1390.1999511719</ele>
        <time>2020-05-31T06:37:41Z</time>
      </trkpt>
      <trkpt lat="42.99757" lon="-0.21055">
        <ele>1390.5999755859</ele>
        <time>2020-05-31T06:37:42Z</time>
      </trkpt>
      <trkpt lat="42.99753" lon="-0.21055">
        <ele>1391</ele>
        <time>2020-05-31T06:37:43Z</time>
      </trkpt>
      <trkpt lat="42.9975" lon="-0.21057">
        <ele>1391.4000244141</ele>
        <time>2020-05-31T06:37:44Z</time>
      </trkpt>
      <trkpt lat="42.99748" lon="-0.21057">
        <ele>1391.8000488281</ele>
        <time>2020-05-31T06:37:45Z</time>
      </trkpt>
      <trkpt lat="42.99739" lon="-0.21065">
        <ele>1391.8000488281</ele>
        <time>2020-05-31T06:37:49Z</time>
      </trkpt>
      <trkpt lat="42.99737" lon="-0.21067">
        <ele>1392.1999511719</ele>
        <time>2020-05-31T06:37:50Z</time>
      </trkpt>
      <trkpt lat="42.99735" lon="-0.2107">
        <ele>1392.5999755859</ele>
        <time>2020-05-31T06:37:51Z</time>
      </trkpt>
      <trkpt lat="42.99732" lon="-0.21072">
        <ele>1393</ele>
        <time>2020-05-31T06:37:52Z</time>
      </trkpt>
      <trkpt lat="42.9973" lon="-0.21073">
        <ele>1393.4000244141</ele>
        <time>2020-05-31T06:37:53Z</time>
      </trkpt>
      <trkpt lat="42.99727" lon="-0.21075">
        <ele>1393.8000488281</ele>
        <time>2020-05-31T06:37:54Z</time>
      </trkpt>
      <trkpt lat="42.99712" lon="-0.21088">
        <ele>1393.8000488281</ele>
        <time>2020-05-31T06:38:00Z</time>
      </trkpt>
      <trkpt lat="42.9971" lon="-0.2109">
        <ele>1394.1999511719</ele>
        <time>2020-05-31T06:38:01Z</time>
      </trkpt>
      <trkpt lat="42.99707" lon="-0.21092">
        <ele>1394.5999755859</ele>
        <time>2020-05-31T06:38:02Z</time>
      </trkpt>
      <trkpt lat="42.99705" lon="-0.21094">
        <ele>1395</ele>
        <time>2020-05-31T06:38:03Z</time>
      </trkpt>
      <trkpt lat="42.99702" lon="-0.21097">
        <ele>1395.4000244141</ele>
        <time>2020-05-31T06:38:04Z</time>
      </trkpt>
      <trkpt lat="42.997" lon="-0.21099">
        <ele>1395.8000488281</ele>
        <time>2020-05-31T06:38:05Z</time>
      </trkpt>
      <trkpt lat="42.99697" lon="-0.21102">
        <ele>1395.8000488281</ele>
        <time>2020-05-31T06:38:06Z</time>
      </trkpt>
      <trkpt lat="42.99691" lon="-0.21106">
        <ele>1395.8000488281</ele>
        <time>2020-05-31T06:38:08Z</time>
      </trkpt>
      <trkpt lat="42.9968" lon="-0.21127">
        <ele>1395.8000488281</ele>
        <time>2020-05-31T06:38:13Z</time>
      </trkpt>
      <trkpt lat="42.99663" lon="-0.21159">
        <ele>1395.8000488281</ele>
        <time>2020-05-31T06:38:21Z</time>
      </trkpt>
      <trkpt lat="42.99647" lon="-0.2117">
        <ele>1395.8000488281</ele>
        <time>2020-05-31T06:38:27Z</time>
      </trkpt>
      <trkpt lat="42.99632" lon="-0.21174">
        <ele>1396.1999511719</ele>
        <time>2020-05-31T06:38:32Z</time>
      </trkpt>
      <trkpt lat="42.9963" lon="-0.21175">
        <ele>1396.5999755859</ele>
        <time>2020-05-31T06:38:33Z</time>
      </trkpt>
      <trkpt lat="42.99627" lon="-0.21175">
        <ele>1397.1999511719</ele>
        <time>2020-05-31T06:38:34Z</time>
      </trkpt>
      <trkpt lat="42.99625" lon="-0.21176">
        <ele>1397.5999755859</ele>
        <time>2020-05-31T06:38:35Z</time>
      </trkpt>
      <trkpt lat="42.99623" lon="-0.21177">
        <ele>1398</ele>
        <time>2020-05-31T06:38:36Z</time>
      </trkpt>
      <trkpt lat="42.99616" lon="-0.21177">
        <ele>1398</ele>
        <time>2020-05-31T06:38:39Z</time>
      </trkpt>
      <trkpt lat="42.99607" lon="-0.21174">
        <ele>1398.4000244141</ele>
        <time>2020-05-31T06:38:43Z</time>
      </trkpt>
      <trkpt lat="42.99605" lon="-0.21174">
        <ele>1398.8000488281</ele>
        <time>2020-05-31T06:38:44Z</time>
      </trkpt>
      <trkpt lat="42.99603" lon="-0.21174">
        <ele>1399.1999511719</ele>
        <time>2020-05-31T06:38:45Z</time>
      </trkpt>
      <trkpt lat="42.99601" lon="-0.21173">
        <ele>1399.5999755859</ele>
        <time>2020-05-31T06:38:46Z</time>
      </trkpt>
      <trkpt lat="42.99598" lon="-0.21173">
        <ele>1400</ele>
        <time>2020-05-31T06:38:47Z</time>
      </trkpt>
      <trkpt lat="42.99591" lon="-0.2117">
        <ele>1400</ele>
        <time>2020-05-31T06:38:51Z</time>
      </trkpt>
      <trkpt lat="42.99589" lon="-0.2117">
        <ele>1400.4000244141</ele>
        <time>2020-05-31T06:38:52Z</time>
      </trkpt>
      <trkpt lat="42.99587" lon="-0.2117">
        <ele>1400.8000488281</ele>
        <time>2020-05-31T06:38:53Z</time>
      </trkpt>
      <trkpt lat="42.99584" lon="-0.21169">
        <ele>1401.1999511719</ele>
        <time>2020-05-31T06:38:54Z</time>
      </trkpt>
      <trkpt lat="42.99582" lon="-0.21168">
        <ele>1401.5999755859</ele>
        <time>2020-05-31T06:38:55Z</time>
      </trkpt>
      <trkpt lat="42.9958" lon="-0.21167">
        <ele>1402</ele>
        <time>2020-05-31T06:38:56Z</time>
      </trkpt>
      <trkpt lat="42.99577" lon="-0.21167">
        <ele>1402</ele>
        <time>2020-05-31T06:38:57Z</time>
      </trkpt>
      <trkpt lat="42.99564" lon="-0.21163">
        <ele>1402</ele>
        <time>2020-05-31T06:39:03Z</time>
      </trkpt>
      <trkpt lat="42.99554" lon="-0.2116">
        <ele>1402.4000244141</ele>
        <time>2020-05-31T06:39:07Z</time>
      </trkpt>
      <trkpt lat="42.99551" lon="-0.2116">
        <ele>1402.8000488281</ele>
        <time>2020-05-31T06:39:08Z</time>
      </trkpt>
      <trkpt lat="42.99549" lon="-0.21159">
        <ele>1403.1999511719</ele>
        <time>2020-05-31T06:39:09Z</time>
      </trkpt>
      <trkpt lat="42.99547" lon="-0.21159">
        <ele>1403.5999755859</ele>
        <time>2020-05-31T06:39:10Z</time>
      </trkpt>
      <trkpt lat="42.99544" lon="-0.21158">
        <ele>1404.1999511719</ele>
        <time>2020-05-31T06:39:11Z</time>
      </trkpt>
      <trkpt lat="42.9954" lon="-0.21156">
        <ele>1404.1999511719</ele>
        <time>2020-05-31T06:39:13Z</time>
      </trkpt>
      <trkpt lat="42.99537" lon="-0.21156">
        <ele>1404.1999511719</ele>
        <time>2020-05-31T06:39:14Z</time>
      </trkpt>
      <trkpt lat="42.99522" lon="-0.21151">
        <ele>1404.1999511719</ele>
        <time>2020-05-31T06:39:21Z</time>
      </trkpt>
      <trkpt lat="42.99519" lon="-0.2115">
        <ele>1404.5999755859</ele>
        <time>2020-05-31T06:39:23Z</time>
      </trkpt>
      <trkpt lat="42.99517" lon="-0.21149">
        <ele>1405</ele>
        <time>2020-05-31T06:39:24Z</time>
      </trkpt>
      <trkpt lat="42.99514" lon="-0.21148">
        <ele>1405.8000488281</ele>
        <time>2020-05-31T06:39:25Z</time>
      </trkpt>
      <trkpt lat="42.99512" lon="-0.21148">
        <ele>1406.4000244141</ele>
        <time>2020-05-31T06:39:26Z</time>
      </trkpt>
      <trkpt lat="42.9951" lon="-0.21146">
        <ele>1406.4000244141</ele>
        <time>2020-05-31T06:39:27Z</time>
      </trkpt>
      <trkpt lat="42.99499" lon="-0.2114">
        <ele>1406.8000488281</ele>
        <time>2020-05-31T06:39:32Z</time>
      </trkpt>
      <trkpt lat="42.99497" lon="-0.21139">
        <ele>1407.1999511719</ele>
        <time>2020-05-31T06:39:33Z</time>
      </trkpt>
      <trkpt lat="42.99496" lon="-0.21138">
        <ele>1407.5999755859</ele>
        <time>2020-05-31T06:39:34Z</time>
      </trkpt>
      <trkpt lat="42.99494" lon="-0.21136">
        <ele>1408</ele>
        <time>2020-05-31T06:39:35Z</time>
      </trkpt>
      <trkpt lat="42.99492" lon="-0.21135">
        <ele>1408.4000244141</ele>
        <time>2020-05-31T06:39:36Z</time>
      </trkpt>
      <trkpt lat="42.99488" lon="-0.2113">
        <ele>1408.4000244141</ele>
        <time>2020-05-31T06:39:39Z</time>
      </trkpt>
      <trkpt lat="42.99486" lon="-0.21129">
        <ele>1408.8000488281</ele>
        <time>2020-05-31T06:39:40Z</time>
      </trkpt>
      <trkpt lat="42.99484" lon="-0.21127">
        <ele>1409.4000244141</ele>
        <time>2020-05-31T06:39:41Z</time>
      </trkpt>
      <trkpt lat="42.99483" lon="-0.21126">
        <ele>1409.8000488281</ele>
        <time>2020-05-31T06:39:42Z</time>
      </trkpt>
      <trkpt lat="42.99481" lon="-0.21125">
        <ele>1410.1999511719</ele>
        <time>2020-05-31T06:39:43Z</time>
      </trkpt>
      <trkpt lat="42.99479" lon="-0.21123">
        <ele>1410.5999755859</ele>
        <time>2020-05-31T06:39:44Z</time>
      </trkpt>
      <trkpt lat="42.99475" lon="-0.21121">
        <ele>1410.5999755859</ele>
        <time>2020-05-31T06:39:46Z</time>
      </trkpt>
      <trkpt lat="42.99469" lon="-0.21116">
        <ele>1411</ele>
        <time>2020-05-31T06:39:50Z</time>
      </trkpt>
      <trkpt lat="42.99467" lon="-0.21116">
        <ele>1411.4000244141</ele>
        <time>2020-05-31T06:39:51Z</time>
      </trkpt>
      <trkpt lat="42.99465" lon="-0.21117">
        <ele>1411.8000488281</ele>
        <time>2020-05-31T06:39:52Z</time>
      </trkpt>
      <trkpt lat="42.99463" lon="-0.21117">
        <ele>1412.1999511719</ele>
        <time>2020-05-31T06:39:53Z</time>
      </trkpt>
      <trkpt lat="42.99461" lon="-0.21118">
        <ele>1412.5999755859</ele>
        <time>2020-05-31T06:39:54Z</time>
      </trkpt>
      <trkpt lat="42.99453" lon="-0.21119">
        <ele>1412.5999755859</ele>
        <time>2020-05-31T06:39:58Z</time>
      </trkpt>
      <trkpt lat="42.99438" lon="-0.21122">
        <ele>1412.5999755859</ele>
        <time>2020-05-31T06:40:07Z</time>
      </trkpt>
      <trkpt lat="42.99433" lon="-0.21123">
        <ele>1412.5999755859</ele>
        <time>2020-05-31T06:40:12Z</time>
      </trkpt>
      <trkpt lat="42.99432" lon="-0.21123">
        <ele>1412.5999755859</ele>
        <time>2020-05-31T06:40:13Z</time>
      </trkpt>
      <trkpt lat="42.99418" lon="-0.21125">
        <ele>1412.5999755859</ele>
        <time>2020-05-31T06:40:20Z</time>
      </trkpt>
      <trkpt lat="42.99396" lon="-0.21126">
        <ele>1412</ele>
        <time>2020-05-31T06:40:25Z</time>
      </trkpt>
      <trkpt lat="42.9939" lon="-0.21126">
        <ele>1411.5999755859</ele>
        <time>2020-05-31T06:40:26Z</time>
      </trkpt>
      <trkpt lat="42.99384" lon="-0.21126">
        <ele>1411</ele>
        <time>2020-05-31T06:40:27Z</time>
      </trkpt>
      <trkpt lat="42.99377" lon="-0.21126">
        <ele>1410.4000244141</ele>
        <time>2020-05-31T06:40:28Z</time>
      </trkpt>
      <trkpt lat="42.9937" lon="-0.21125">
        <ele>1410</ele>
        <time>2020-05-31T06:40:29Z</time>
      </trkpt>
      <trkpt lat="42.99362" lon="-0.21124">
        <ele>1409.4000244141</ele>
        <time>2020-05-31T06:40:30Z</time>
      </trkpt>
      <trkpt lat="42.99355" lon="-0.21124">
        <ele>1409</ele>
        <time>2020-05-31T06:40:31Z</time>
      </trkpt>
      <trkpt lat="42.99347" lon="-0.21124">
        <ele>1408.5999755859</ele>
        <time>2020-05-31T06:40:32Z</time>
      </trkpt>
      <trkpt lat="42.99339" lon="-0.21122">
        <ele>1408</ele>
        <time>2020-05-31T06:40:33Z</time>
      </trkpt>
      <trkpt lat="42.99331" lon="-0.2112">
        <ele>1407.4000244141</ele>
        <time>2020-05-31T06:40:34Z</time>
      </trkpt>
      <trkpt lat="42.99324" lon="-0.21119">
        <ele>1406.8000488281</ele>
        <time>2020-05-31T06:40:35Z</time>
      </trkpt>
      <trkpt lat="42.99317" lon="-0.21118">
        <ele>1406.1999511719</ele>
        <time>2020-05-31T06:40:36Z</time>
      </trkpt>
      <trkpt lat="42.9931" lon="-0.21117">
        <ele>1405.5999755859</ele>
        <time>2020-05-31T06:40:37Z</time>
      </trkpt>
      <trkpt lat="42.99296" lon="-0.21118">
        <ele>1405.5999755859</ele>
        <time>2020-05-31T06:40:39Z</time>
      </trkpt>
      <trkpt lat="42.99288" lon="-0.21119">
        <ele>1405</ele>
        <time>2020-05-31T06:40:40Z</time>
      </trkpt>
      <trkpt lat="42.9928" lon="-0.21121">
        <ele>1404.4000244141</ele>
        <time>2020-05-31T06:40:41Z</time>
      </trkpt>
      <trkpt lat="42.99272" lon="-0.21121">
        <ele>1404</ele>
        <time>2020-05-31T06:40:42Z</time>
      </trkpt>
      <trkpt lat="42.99264" lon="-0.21123">
        <ele>1403.4000244141</ele>
        <time>2020-05-31T06:40:43Z</time>
      </trkpt>
      <trkpt lat="42.99257" lon="-0.21123">
        <ele>1402.8000488281</ele>
        <time>2020-05-31T06:40:44Z</time>
      </trkpt>
      <trkpt lat="42.9925" lon="-0.21121">
        <ele>1402.8000488281</ele>
        <time>2020-05-31T06:40:45Z</time>
      </trkpt>
      <trkpt lat="42.99232" lon="-0.21125">
        <ele>1402.8000488281</ele>
        <time>2020-05-31T06:40:48Z</time>
      </trkpt>
      <trkpt lat="42.99223" lon="-0.21133">
        <ele>1402.8000488281</ele>
        <time>2020-05-31T06:40:51Z</time>
      </trkpt>
      <trkpt lat="42.99218" lon="-0.21141">
        <ele>1402.8000488281</ele>
        <time>2020-05-31T06:40:53Z</time>
      </trkpt>
      <trkpt lat="42.99216" lon="-0.21145">
        <ele>1403.4000244141</ele>
        <time>2020-05-31T06:40:54Z</time>
      </trkpt>
      <trkpt lat="42.99214" lon="-0.21148">
        <ele>1403.8000488281</ele>
        <time>2020-05-31T06:40:55Z</time>
      </trkpt>
      <trkpt lat="42.99213" lon="-0.21151">
        <ele>1404.1999511719</ele>
        <time>2020-05-31T06:40:56Z</time>
      </trkpt>
      <trkpt lat="42.99211" lon="-0.21154">
        <ele>1404.5999755859</ele>
        <time>2020-05-31T06:40:57Z</time>
      </trkpt>
      <trkpt lat="42.9921" lon="-0.21156">
        <ele>1405</ele>
        <time>2020-05-31T06:40:58Z</time>
      </trkpt>
      <trkpt lat="42.99208" lon="-0.21164">
        <ele>1405</ele>
        <time>2020-05-31T06:41:01Z</time>
      </trkpt>
      <trkpt lat="42.99206" lon="-0.21168">
        <ele>1405.4000244141</ele>
        <time>2020-05-31T06:41:02Z</time>
      </trkpt>
      <trkpt lat="42.99204" lon="-0.21171">
        <ele>1405.8000488281</ele>
        <time>2020-05-31T06:41:03Z</time>
      </trkpt>
      <trkpt lat="42.99202" lon="-0.21174">
        <ele>1406.5999755859</ele>
        <time>2020-05-31T06:41:04Z</time>
      </trkpt>
      <trkpt lat="42.99201" lon="-0.21176">
        <ele>1407</ele>
        <time>2020-05-31T06:41:05Z</time>
      </trkpt>
      <trkpt lat="42.99191" lon="-0.21188">
        <ele>1407</ele>
        <time>2020-05-31T06:41:11Z</time>
      </trkpt>
      <trkpt lat="42.99179" lon="-0.212">
        <ele>1407</ele>
        <time>2020-05-31T06:41:17Z</time>
      </trkpt>
      <trkpt lat="42.99177" lon="-0.21202">
        <ele>1407.5999755859</ele>
        <time>2020-05-31T06:41:18Z</time>
      </trkpt>
      <trkpt lat="42.99175" lon="-0.21204">
        <ele>1408</ele>
        <time>2020-05-31T06:41:19Z</time>
      </trkpt>
      <trkpt lat="42.99173" lon="-0.21206">
        <ele>1408.4000244141</ele>
        <time>2020-05-31T06:41:20Z</time>
      </trkpt>
      <trkpt lat="42.99171" lon="-0.21208">
        <ele>1408.8000488281</ele>
        <time>2020-05-31T06:41:21Z</time>
      </trkpt>
      <trkpt lat="42.99169" lon="-0.2121">
        <ele>1409.1999511719</ele>
        <time>2020-05-31T06:41:22Z</time>
      </trkpt>
      <trkpt lat="42.99167" lon="-0.21213">
        <ele>1409.1999511719</ele>
        <time>2020-05-31T06:41:23Z</time>
      </trkpt>
      <trkpt lat="42.99154" lon="-0.21236">
        <ele>1409.1999511719</ele>
        <time>2020-05-31T06:41:31Z</time>
      </trkpt>
      <trkpt lat="42.99151" lon="-0.21241">
        <ele>1409.5999755859</ele>
        <time>2020-05-31T06:41:33Z</time>
      </trkpt>
      <trkpt lat="42.9915" lon="-0.21243">
        <ele>1410</ele>
        <time>2020-05-31T06:41:34Z</time>
      </trkpt>
      <trkpt lat="42.99148" lon="-0.21245">
        <ele>1410.4000244141</ele>
        <time>2020-05-31T06:41:35Z</time>
      </trkpt>
      <trkpt lat="42.99147" lon="-0.21248">
        <ele>1410.8000488281</ele>
        <time>2020-05-31T06:41:36Z</time>
      </trkpt>
      <trkpt lat="42.99145" lon="-0.21251">
        <ele>1411.1999511719</ele>
        <time>2020-05-31T06:41:37Z</time>
      </trkpt>
      <trkpt lat="42.99144" lon="-0.21253">
        <ele>1411.1999511719</ele>
        <time>2020-05-31T06:41:38Z</time>
      </trkpt>
      <trkpt lat="42.99134" lon="-0.21272">
        <ele>1411.1999511719</ele>
        <time>2020-05-31T06:41:45Z</time>
      </trkpt>
      <trkpt lat="42.99127" lon="-0.21295">
        <ele>1411.1999511719</ele>
        <time>2020-05-31T06:41:51Z</time>
      </trkpt>
      <trkpt lat="42.99126" lon="-0.213">
        <ele>1411.1999511719</ele>
        <time>2020-05-31T06:41:52Z</time>
      </trkpt>
      <trkpt lat="42.99122" lon="-0.21318">
        <ele>1411.1999511719</ele>
        <time>2020-05-31T06:41:55Z</time>
      </trkpt>
      <trkpt lat="42.99121" lon="-0.21325">
        <ele>1411.1999511719</ele>
        <time>2020-05-31T06:41:56Z</time>
      </trkpt>
      <trkpt lat="42.99119" lon="-0.2134">
        <ele>1410.8000488281</ele>
        <time>2020-05-31T06:41:58Z</time>
      </trkpt>
      <trkpt lat="42.99118" lon="-0.21348">
        <ele>1410.4000244141</ele>
        <time>2020-05-31T06:41:59Z</time>
      </trkpt>
      <trkpt lat="42.99117" lon="-0.21355">
        <ele>1410</ele>
        <time>2020-05-31T06:42:00Z</time>
      </trkpt>
      <trkpt lat="42.99116" lon="-0.21363">
        <ele>1409.4000244141</ele>
        <time>2020-05-31T06:42:01Z</time>
      </trkpt>
      <trkpt lat="42.99114" lon="-0.21371">
        <ele>1409</ele>
        <time>2020-05-31T06:42:02Z</time>
      </trkpt>
      <trkpt lat="42.99112" lon="-0.21384">
        <ele>1408.5999755859</ele>
        <time>2020-05-31T06:42:04Z</time>
      </trkpt>
      <trkpt lat="42.9911" lon="-0.21391">
        <ele>1408.1999511719</ele>
        <time>2020-05-31T06:42:05Z</time>
      </trkpt>
      <trkpt lat="42.99109" lon="-0.21398">
        <ele>1407.5999755859</ele>
        <time>2020-05-31T06:42:06Z</time>
      </trkpt>
      <trkpt lat="42.99108" lon="-0.21404">
        <ele>1407.1999511719</ele>
        <time>2020-05-31T06:42:07Z</time>
      </trkpt>
      <trkpt lat="42.99106" lon="-0.21411">
        <ele>1406.5999755859</ele>
        <time>2020-05-31T06:42:08Z</time>
      </trkpt>
      <trkpt lat="42.99103" lon="-0.21423">
        <ele>1406.1999511719</ele>
        <time>2020-05-31T06:42:10Z</time>
      </trkpt>
      <trkpt lat="42.99102" lon="-0.21428">
        <ele>1405.8000488281</ele>
        <time>2020-05-31T06:42:11Z</time>
      </trkpt>
      <trkpt lat="42.99101" lon="-0.21433">
        <ele>1405.4000244141</ele>
        <time>2020-05-31T06:42:12Z</time>
      </trkpt>
      <trkpt lat="42.99099" lon="-0.21437">
        <ele>1404.8000488281</ele>
        <time>2020-05-31T06:42:13Z</time>
      </trkpt>
      <trkpt lat="42.99098" lon="-0.21442">
        <ele>1404.4000244141</ele>
        <time>2020-05-31T06:42:14Z</time>
      </trkpt>
      <trkpt lat="42.99092" lon="-0.21459">
        <ele>1404</ele>
        <time>2020-05-31T06:42:18Z</time>
      </trkpt>
      <trkpt lat="42.9909" lon="-0.21465">
        <ele>1403.5999755859</ele>
        <time>2020-05-31T06:42:19Z</time>
      </trkpt>
      <trkpt lat="42.99089" lon="-0.21469">
        <ele>1403.1999511719</ele>
        <time>2020-05-31T06:42:20Z</time>
      </trkpt>
      <trkpt lat="42.99088" lon="-0.21474">
        <ele>1402.8000488281</ele>
        <time>2020-05-31T06:42:21Z</time>
      </trkpt>
      <trkpt lat="42.99087" lon="-0.2148">
        <ele>1402.4000244141</ele>
        <time>2020-05-31T06:42:22Z</time>
      </trkpt>
      <trkpt lat="42.99085" lon="-0.21493">
        <ele>1402.4000244141</ele>
        <time>2020-05-31T06:42:24Z</time>
      </trkpt>
      <trkpt lat="42.99083" lon="-0.21508">
        <ele>1401.8000488281</ele>
        <time>2020-05-31T06:42:26Z</time>
      </trkpt>
      <trkpt lat="42.99082" lon="-0.21516">
        <ele>1401.4000244141</ele>
        <time>2020-05-31T06:42:27Z</time>
      </trkpt>
      <trkpt lat="42.99082" lon="-0.21525">
        <ele>1401</ele>
        <time>2020-05-31T06:42:28Z</time>
      </trkpt>
      <trkpt lat="42.99081" lon="-0.21534">
        <ele>1400.4000244141</ele>
        <time>2020-05-31T06:42:29Z</time>
      </trkpt>
      <trkpt lat="42.9908" lon="-0.21544">
        <ele>1399.8000488281</ele>
        <time>2020-05-31T06:42:30Z</time>
      </trkpt>
      <trkpt lat="42.9908" lon="-0.21553">
        <ele>1399.1999511719</ele>
        <time>2020-05-31T06:42:31Z</time>
      </trkpt>
      <trkpt lat="42.9908" lon="-0.21564">
        <ele>1398.5999755859</ele>
        <time>2020-05-31T06:42:32Z</time>
      </trkpt>
      <trkpt lat="42.9908" lon="-0.21574">
        <ele>1398</ele>
        <time>2020-05-31T06:42:33Z</time>
      </trkpt>
      <trkpt lat="42.9908" lon="-0.21583">
        <ele>1397.5999755859</ele>
        <time>2020-05-31T06:42:34Z</time>
      </trkpt>
      <trkpt lat="42.9908" lon="-0.21592">
        <ele>1397</ele>
        <time>2020-05-31T06:42:35Z</time>
      </trkpt>
      <trkpt lat="42.9908" lon="-0.21601">
        <ele>1396.4000244141</ele>
        <time>2020-05-31T06:42:36Z</time>
      </trkpt>
      <trkpt lat="42.99081" lon="-0.21609">
        <ele>1396</ele>
        <time>2020-05-31T06:42:37Z</time>
      </trkpt>
      <trkpt lat="42.99081" lon="-0.21618">
        <ele>1395.4000244141</ele>
        <time>2020-05-31T06:42:38Z</time>
      </trkpt>
      <trkpt lat="42.99081" lon="-0.21626">
        <ele>1395.4000244141</ele>
        <time>2020-05-31T06:42:39Z</time>
      </trkpt>
      <trkpt lat="42.99081" lon="-0.21634">
        <ele>1395</ele>
        <time>2020-05-31T06:42:40Z</time>
      </trkpt>
      <trkpt lat="42.99082" lon="-0.21642">
        <ele>1394.5999755859</ele>
        <time>2020-05-31T06:42:41Z</time>
      </trkpt>
      <trkpt lat="42.99082" lon="-0.21649">
        <ele>1394.1999511719</ele>
        <time>2020-05-31T06:42:42Z</time>
      </trkpt>
      <trkpt lat="42.99082" lon="-0.21655">
        <ele>1393.1999511719</ele>
        <time>2020-05-31T06:42:43Z</time>
      </trkpt>
      <trkpt lat="42.99082" lon="-0.2166">
        <ele>1393.1999511719</ele>
        <time>2020-05-31T06:42:44Z</time>
      </trkpt>
      <trkpt lat="42.99082" lon="-0.21676">
        <ele>1392.8000488281</ele>
        <time>2020-05-31T06:42:47Z</time>
      </trkpt>
      <trkpt lat="42.99081" lon="-0.2168">
        <ele>1392.4000244141</ele>
        <time>2020-05-31T06:42:48Z</time>
      </trkpt>
      <trkpt lat="42.9908" lon="-0.21685">
        <ele>1392</ele>
        <time>2020-05-31T06:42:49Z</time>
      </trkpt>
      <trkpt lat="42.99081" lon="-0.21688">
        <ele>1391.5999755859</ele>
        <time>2020-05-31T06:42:50Z</time>
      </trkpt>
      <trkpt lat="42.99082" lon="-0.21691">
        <ele>1391</ele>
        <time>2020-05-31T06:42:51Z</time>
      </trkpt>
      <trkpt lat="42.99087" lon="-0.21691">
        <ele>1391</ele>
        <time>2020-05-31T06:42:53Z</time>
      </trkpt>
      <trkpt lat="42.99091" lon="-0.21681">
        <ele>1391</ele>
        <time>2020-05-31T06:42:56Z</time>
      </trkpt>
      <trkpt lat="42.99091" lon="-0.21672">
        <ele>1390.5999755859</ele>
        <time>2020-05-31T06:42:58Z</time>
      </trkpt>
      <trkpt lat="42.99092" lon="-0.21667">
        <ele>1390.1999511719</ele>
        <time>2020-05-31T06:42:59Z</time>
      </trkpt>
      <trkpt lat="42.99094" lon="-0.21661">
        <ele>1389.8000488281</ele>
        <time>2020-05-31T06:43:00Z</time>
      </trkpt>
      <trkpt lat="42.99095" lon="-0.21656">
        <ele>1389.1999511719</ele>
        <time>2020-05-31T06:43:01Z</time>
      </trkpt>
      <trkpt lat="42.99096" lon="-0.2165">
        <ele>1388.8000488281</ele>
        <time>2020-05-31T06:43:02Z</time>
      </trkpt>
      <trkpt lat="42.99097" lon="-0.21643">
        <ele>1388.1999511719</ele>
        <time>2020-05-31T06:43:03Z</time>
      </trkpt>
      <trkpt lat="42.99098" lon="-0.21637">
        <ele>1387.8000488281</ele>
        <time>2020-05-31T06:43:04Z</time>
      </trkpt>
      <trkpt lat="42.99099" lon="-0.21631">
        <ele>1387.1999511719</ele>
        <time>2020-05-31T06:43:05Z</time>
      </trkpt>
      <trkpt lat="42.99099" lon="-0.21625">
        <ele>1386.8000488281</ele>
        <time>2020-05-31T06:43:06Z</time>
      </trkpt>
      <trkpt lat="42.99099" lon="-0.21619">
        <ele>1386.8000488281</ele>
        <time>2020-05-31T06:43:07Z</time>
      </trkpt>
      <trkpt lat="42.991" lon="-0.21614">
        <ele>1386.4000244141</ele>
        <time>2020-05-31T06:43:08Z</time>
      </trkpt>
      <trkpt lat="42.99101" lon="-0.21609">
        <ele>1386</ele>
        <time>2020-05-31T06:43:09Z</time>
      </trkpt>
      <trkpt lat="42.99102" lon="-0.21603">
        <ele>1385.4000244141</ele>
        <time>2020-05-31T06:43:10Z</time>
      </trkpt>
      <trkpt lat="42.99102" lon="-0.21598">
        <ele>1385</ele>
        <time>2020-05-31T06:43:11Z</time>
      </trkpt>
      <trkpt lat="42.99103" lon="-0.21595">
        <ele>1384.5999755859</ele>
        <time>2020-05-31T06:43:12Z</time>
      </trkpt>
      <trkpt lat="42.99104" lon="-0.21592">
        <ele>1384.5999755859</ele>
        <time>2020-05-31T06:43:13Z</time>
      </trkpt>
      <trkpt lat="42.99105" lon="-0.21591">
        <ele>1384.5999755859</ele>
        <time>2020-05-31T06:43:14Z</time>
      </trkpt>
      <trkpt lat="42.99108" lon="-0.21594">
        <ele>1384.5999755859</ele>
        <time>2020-05-31T06:43:16Z</time>
      </trkpt>
      <trkpt lat="42.99109" lon="-0.21602">
        <ele>1384.5999755859</ele>
        <time>2020-05-31T06:43:19Z</time>
      </trkpt>
      <trkpt lat="42.99109" lon="-0.21606">
        <ele>1384.5999755859</ele>
        <time>2020-05-31T06:43:20Z</time>
      </trkpt>
      <trkpt lat="42.9911" lon="-0.21618">
        <ele>1384</ele>
        <time>2020-05-31T06:43:22Z</time>
      </trkpt>
      <trkpt lat="42.9911" lon="-0.21625">
        <ele>1383.5999755859</ele>
        <time>2020-05-31T06:43:23Z</time>
      </trkpt>
      <trkpt lat="42.9911" lon="-0.21632">
        <ele>1383</ele>
        <time>2020-05-31T06:43:24Z</time>
      </trkpt>
      <trkpt lat="42.99109" lon="-0.21641">
        <ele>1382.4000244141</ele>
        <time>2020-05-31T06:43:25Z</time>
      </trkpt>
      <trkpt lat="42.99109" lon="-0.2165">
        <ele>1381.8000488281</ele>
        <time>2020-05-31T06:43:26Z</time>
      </trkpt>
      <trkpt lat="42.99109" lon="-0.21659">
        <ele>1381.1999511719</ele>
        <time>2020-05-31T06:43:27Z</time>
      </trkpt>
      <trkpt lat="42.99108" lon="-0.21668">
        <ele>1380.5999755859</ele>
        <time>2020-05-31T06:43:28Z</time>
      </trkpt>
      <trkpt lat="42.99108" lon="-0.21676">
        <ele>1380</ele>
        <time>2020-05-31T06:43:29Z</time>
      </trkpt>
      <trkpt lat="42.99107" lon="-0.21685">
        <ele>1379.4000244141</ele>
        <time>2020-05-31T06:43:30Z</time>
      </trkpt>
      <trkpt lat="42.99106" lon="-0.21693">
        <ele>1378.8000488281</ele>
        <time>2020-05-31T06:43:31Z</time>
      </trkpt>
      <trkpt lat="42.99106" lon="-0.21701">
        <ele>1378.4000244141</ele>
        <time>2020-05-31T06:43:32Z</time>
      </trkpt>
      <trkpt lat="42.99106" lon="-0.21709">
        <ele>1377.8000488281</ele>
        <time>2020-05-31T06:43:33Z</time>
      </trkpt>
      <trkpt lat="42.99105" lon="-0.21716">
        <ele>1377.8000488281</ele>
        <time>2020-05-31T06:43:34Z</time>
      </trkpt>
      <trkpt lat="42.99104" lon="-0.2173">
        <ele>1377.8000488281</ele>
        <time>2020-05-31T06:43:36Z</time>
      </trkpt>
      <trkpt lat="42.99102" lon="-0.21757">
        <ele>1377.8000488281</ele>
        <time>2020-05-31T06:43:40Z</time>
      </trkpt>
      <trkpt lat="42.99109" lon="-0.2176">
        <ele>1377.8000488281</ele>
        <time>2020-05-31T06:43:42Z</time>
      </trkpt>
      <trkpt lat="42.99118" lon="-0.21755">
        <ele>1377.8000488281</ele>
        <time>2020-05-31T06:43:45Z</time>
      </trkpt>
      <trkpt lat="42.99122" lon="-0.2175">
        <ele>1377.8000488281</ele>
        <time>2020-05-31T06:43:47Z</time>
      </trkpt>
      <trkpt lat="42.99129" lon="-0.21743">
        <ele>1377.8000488281</ele>
        <time>2020-05-31T06:43:50Z</time>
      </trkpt>
      <trkpt lat="42.99142" lon="-0.21731">
        <ele>1377.8000488281</ele>
        <time>2020-05-31T06:43:56Z</time>
      </trkpt>
      <trkpt lat="42.9915" lon="-0.21726">
        <ele>1378.1999511719</ele>
        <time>2020-05-31T06:44:01Z</time>
      </trkpt>
      <trkpt lat="42.99152" lon="-0.21725">
        <ele>1378.5999755859</ele>
        <time>2020-05-31T06:44:02Z</time>
      </trkpt>
      <trkpt lat="42.99153" lon="-0.21724">
        <ele>1379</ele>
        <time>2020-05-31T06:44:03Z</time>
      </trkpt>
      <trkpt lat="42.99155" lon="-0.21724">
        <ele>1379.4000244141</ele>
        <time>2020-05-31T06:44:04Z</time>
      </trkpt>
      <trkpt lat="42.99156" lon="-0.21723">
        <ele>1379.8000488281</ele>
        <time>2020-05-31T06:44:05Z</time>
      </trkpt>
      <trkpt lat="42.99159" lon="-0.21721">
        <ele>1379.8000488281</ele>
        <time>2020-05-31T06:44:07Z</time>
      </trkpt>
      <trkpt lat="42.99161" lon="-0.21721">
        <ele>1379.8000488281</ele>
        <time>2020-05-31T06:44:08Z</time>
      </trkpt>
      <trkpt lat="42.99167" lon="-0.2172">
        <ele>1379.8000488281</ele>
        <time>2020-05-31T06:44:11Z</time>
      </trkpt>
      <trkpt lat="42.99175" lon="-0.21721">
        <ele>1380.1999511719</ele>
        <time>2020-05-31T06:44:14Z</time>
      </trkpt>
      <trkpt lat="42.99178" lon="-0.21721">
        <ele>1380.5999755859</ele>
        <time>2020-05-31T06:44:15Z</time>
      </trkpt>
      <trkpt lat="42.9918" lon="-0.21721">
        <ele>1381</ele>
        <time>2020-05-31T06:44:16Z</time>
      </trkpt>
      <trkpt lat="42.99183" lon="-0.21722">
        <ele>1381.5999755859</ele>
        <time>2020-05-31T06:44:17Z</time>
      </trkpt>
      <trkpt lat="42.99185" lon="-0.21722">
        <ele>1382</ele>
        <time>2020-05-31T06:44:18Z</time>
      </trkpt>
      <trkpt lat="42.99193" lon="-0.21724">
        <ele>1382.8000488281</ele>
        <time>2020-05-31T06:44:23Z</time>
      </trkpt>
      <trkpt lat="42.99195" lon="-0.21724">
        <ele>1383.1999511719</ele>
        <time>2020-05-31T06:44:24Z</time>
      </trkpt>
      <trkpt lat="42.99197" lon="-0.21725">
        <ele>1383.5999755859</ele>
        <time>2020-05-31T06:44:25Z</time>
      </trkpt>
      <trkpt lat="42.99199" lon="-0.21727">
        <ele>1384</ele>
        <time>2020-05-31T06:44:26Z</time>
      </trkpt>
      <trkpt lat="42.99208" lon="-0.21736">
        <ele>1384</ele>
        <time>2020-05-31T06:44:32Z</time>
      </trkpt>
      <trkpt lat="42.99209" lon="-0.21737">
        <ele>1384.4000244141</ele>
        <time>2020-05-31T06:44:33Z</time>
      </trkpt>
      <trkpt lat="42.99211" lon="-0.21739">
        <ele>1384.8000488281</ele>
        <time>2020-05-31T06:44:34Z</time>
      </trkpt>
      <trkpt lat="42.99212" lon="-0.2174">
        <ele>1385.4000244141</ele>
        <time>2020-05-31T06:44:35Z</time>
      </trkpt>
      <trkpt lat="42.99213" lon="-0.21742">
        <ele>1385.8000488281</ele>
        <time>2020-05-31T06:44:36Z</time>
      </trkpt>
      <trkpt lat="42.99213" lon="-0.21744">
        <ele>1386.1999511719</ele>
        <time>2020-05-31T06:44:37Z</time>
      </trkpt>
      <trkpt lat="42.99215" lon="-0.21748">
        <ele>1386.1999511719</ele>
        <time>2020-05-31T06:44:39Z</time>
      </trkpt>
      <trkpt lat="42.99225" lon="-0.21759">
        <ele>1386.1999511719</ele>
        <time>2020-05-31T06:44:44Z</time>
      </trkpt>
      <trkpt lat="42.99233" lon="-0.21759">
        <ele>1386.1999511719</ele>
        <time>2020-05-31T06:44:48Z</time>
      </trkpt>
      <trkpt lat="42.99249" lon="-0.2176">
        <ele>1386.1999511719</ele>
        <time>2020-05-31T06:44:55Z</time>
      </trkpt>
      <trkpt lat="42.99255" lon="-0.21761">
        <ele>1386.1999511719</ele>
        <time>2020-05-31T06:44:58Z</time>
      </trkpt>
      <trkpt lat="42.99259" lon="-0.21762">
        <ele>1386.1999511719</ele>
        <time>2020-05-31T06:45:00Z</time>
      </trkpt>
      <trkpt lat="42.99263" lon="-0.21762">
        <ele>1386.1999511719</ele>
        <time>2020-05-31T06:45:03Z</time>
      </trkpt>
      <trkpt lat="42.99272" lon="-0.21762">
        <ele>1386.1999511719</ele>
        <time>2020-05-31T06:45:07Z</time>
      </trkpt>
      <trkpt lat="42.99275" lon="-0.21762">
        <ele>1386.5999755859</ele>
        <time>2020-05-31T06:45:09Z</time>
      </trkpt>
      <trkpt lat="42.99276" lon="-0.21762">
        <ele>1387</ele>
        <time>2020-05-31T06:45:10Z</time>
      </trkpt>
      <trkpt lat="42.99277" lon="-0.21762">
        <ele>1387.4000244141</ele>
        <time>2020-05-31T06:45:11Z</time>
      </trkpt>
      <trkpt lat="42.99279" lon="-0.21763">
        <ele>1388.1999511719</ele>
        <time>2020-05-31T06:45:12Z</time>
      </trkpt>
      <trkpt lat="42.99282" lon="-0.21763">
        <ele>1388.1999511719</ele>
        <time>2020-05-31T06:45:14Z</time>
      </trkpt>
      <trkpt lat="42.99289" lon="-0.21763">
        <ele>1388.1999511719</ele>
        <time>2020-05-31T06:45:19Z</time>
      </trkpt>
      <trkpt lat="42.99291" lon="-0.21763">
        <ele>1388.1999511719</ele>
        <time>2020-05-31T06:45:20Z</time>
      </trkpt>
      <trkpt lat="42.99296" lon="-0.21766">
        <ele>1388.8000488281</ele>
        <time>2020-05-31T06:45:23Z</time>
      </trkpt>
      <trkpt lat="42.99297" lon="-0.21767">
        <ele>1389.1999511719</ele>
        <time>2020-05-31T06:45:24Z</time>
      </trkpt>
      <trkpt lat="42.993" lon="-0.21768">
        <ele>1389.5999755859</ele>
        <time>2020-05-31T06:45:25Z</time>
      </trkpt>
      <trkpt lat="42.99302" lon="-0.21769">
        <ele>1390</ele>
        <time>2020-05-31T06:45:26Z</time>
      </trkpt>
      <trkpt lat="42.99304" lon="-0.2177">
        <ele>1390.4000244141</ele>
        <time>2020-05-31T06:45:27Z</time>
      </trkpt>
      <trkpt lat="42.99309" lon="-0.21776">
        <ele>1390.4000244141</ele>
        <time>2020-05-31T06:45:33Z</time>
      </trkpt>
      <trkpt lat="42.99312" lon="-0.21779">
        <ele>1390.4000244141</ele>
        <time>2020-05-31T06:45:36Z</time>
      </trkpt>
      <trkpt lat="42.99313" lon="-0.21781">
        <ele>1390.8000488281</ele>
        <time>2020-05-31T06:45:37Z</time>
      </trkpt>
      <trkpt lat="42.99314" lon="-0.21782">
        <ele>1391.4000244141</ele>
        <time>2020-05-31T06:45:38Z</time>
      </trkpt>
      <trkpt lat="42.99315" lon="-0.21782">
        <ele>1391.8000488281</ele>
        <time>2020-05-31T06:45:39Z</time>
      </trkpt>
      <trkpt lat="42.99318" lon="-0.21783">
        <ele>1392.1999511719</ele>
        <time>2020-05-31T06:45:40Z</time>
      </trkpt>
      <trkpt lat="42.99319" lon="-0.21784">
        <ele>1392.5999755859</ele>
        <time>2020-05-31T06:45:41Z</time>
      </trkpt>
      <trkpt lat="42.99323" lon="-0.21788">
        <ele>1392.5999755859</ele>
        <time>2020-05-31T06:45:44Z</time>
      </trkpt>
      <trkpt lat="42.9934" lon="-0.218">
        <ele>1393</ele>
        <time>2020-05-31T06:45:52Z</time>
      </trkpt>
      <trkpt lat="42.99343" lon="-0.21801">
        <ele>1393.4000244141</ele>
        <time>2020-05-31T06:45:53Z</time>
      </trkpt>
      <trkpt lat="42.99344" lon="-0.21803">
        <ele>1394</ele>
        <time>2020-05-31T06:45:54Z</time>
      </trkpt>
      <trkpt lat="42.99346" lon="-0.21804">
        <ele>1394.4000244141</ele>
        <time>2020-05-31T06:45:55Z</time>
      </trkpt>
      <trkpt lat="42.99348" lon="-0.21806">
        <ele>1394.8000488281</ele>
        <time>2020-05-31T06:45:56Z</time>
      </trkpt>
      <trkpt lat="42.9935" lon="-0.21812">
        <ele>1394.8000488281</ele>
        <time>2020-05-31T06:45:58Z</time>
      </trkpt>
      <trkpt lat="42.99352" lon="-0.21824">
        <ele>1394.8000488281</ele>
        <time>2020-05-31T06:46:03Z</time>
      </trkpt>
      <trkpt lat="42.99349" lon="-0.21838">
        <ele>1395.1999511719</ele>
        <time>2020-05-31T06:46:09Z</time>
      </trkpt>
      <trkpt lat="42.99348" lon="-0.2184">
        <ele>1395.5999755859</ele>
        <time>2020-05-31T06:46:10Z</time>
      </trkpt>
      <trkpt lat="42.99347" lon="-0.21843">
        <ele>1396</ele>
        <time>2020-05-31T06:46:11Z</time>
      </trkpt>
      <trkpt lat="42.99346" lon="-0.21845">
        <ele>1396.4000244141</ele>
        <time>2020-05-31T06:46:12Z</time>
      </trkpt>
      <trkpt lat="42.99345" lon="-0.21847">
        <ele>1396.8000488281</ele>
        <time>2020-05-31T06:46:13Z</time>
      </trkpt>
      <trkpt lat="42.99341" lon="-0.21855">
        <ele>1396.8000488281</ele>
        <time>2020-05-31T06:46:17Z</time>
      </trkpt>
      <trkpt lat="42.99339" lon="-0.21866">
        <ele>1397.1999511719</ele>
        <time>2020-05-31T06:46:22Z</time>
      </trkpt>
      <trkpt lat="42.99337" lon="-0.21869">
        <ele>1397.5999755859</ele>
        <time>2020-05-31T06:46:23Z</time>
      </trkpt>
      <trkpt lat="42.99337" lon="-0.21871">
        <ele>1398.1999511719</ele>
        <time>2020-05-31T06:46:24Z</time>
      </trkpt>
      <trkpt lat="42.99336" lon="-0.21873">
        <ele>1399</ele>
        <time>2020-05-31T06:46:25Z</time>
      </trkpt>
      <trkpt lat="42.99333" lon="-0.21886">
        <ele>1399</ele>
        <time>2020-05-31T06:46:31Z</time>
      </trkpt>
      <trkpt lat="42.9933" lon="-0.21896">
        <ele>1399.4000244141</ele>
        <time>2020-05-31T06:46:35Z</time>
      </trkpt>
      <trkpt lat="42.9933" lon="-0.21897">
        <ele>1399.8000488281</ele>
        <time>2020-05-31T06:46:36Z</time>
      </trkpt>
      <trkpt lat="42.9933" lon="-0.21899">
        <ele>1400.1999511719</ele>
        <time>2020-05-31T06:46:37Z</time>
      </trkpt>
      <trkpt lat="42.9933" lon="-0.21901">
        <ele>1400.5999755859</ele>
        <time>2020-05-31T06:46:38Z</time>
      </trkpt>
      <trkpt lat="42.99329" lon="-0.21904">
        <ele>1401</ele>
        <time>2020-05-31T06:46:39Z</time>
      </trkpt>
      <trkpt lat="42.99328" lon="-0.21913">
        <ele>1401</ele>
        <time>2020-05-31T06:46:43Z</time>
      </trkpt>
      <trkpt lat="42.99324" lon="-0.21925">
        <ele>1401.4000244141</ele>
        <time>2020-05-31T06:46:49Z</time>
      </trkpt>
      <trkpt lat="42.99323" lon="-0.21928">
        <ele>1401.8000488281</ele>
        <time>2020-05-31T06:46:50Z</time>
      </trkpt>
      <trkpt lat="42.99322" lon="-0.2193">
        <ele>1402.1999511719</ele>
        <time>2020-05-31T06:46:51Z</time>
      </trkpt>
      <trkpt lat="42.99322" lon="-0.21932">
        <ele>1402.5999755859</ele>
        <time>2020-05-31T06:46:52Z</time>
      </trkpt>
      <trkpt lat="42.99321" lon="-0.21934">
        <ele>1403.1999511719</ele>
        <time>2020-05-31T06:46:53Z</time>
      </trkpt>
      <trkpt lat="42.9932" lon="-0.21938">
        <ele>1403.1999511719</ele>
        <time>2020-05-31T06:46:55Z</time>
      </trkpt>
      <trkpt lat="42.99316" lon="-0.21954">
        <ele>1403.1999511719</ele>
        <time>2020-05-31T06:47:02Z</time>
      </trkpt>
      <trkpt lat="42.99314" lon="-0.2196">
        <ele>1403.5999755859</ele>
        <time>2020-05-31T06:47:05Z</time>
      </trkpt>
      <trkpt lat="42.99314" lon="-0.21962">
        <ele>1404</ele>
        <time>2020-05-31T06:47:06Z</time>
      </trkpt>
      <trkpt lat="42.99313" lon="-0.21965">
        <ele>1404.4000244141</ele>
        <time>2020-05-31T06:47:07Z</time>
      </trkpt>
      <trkpt lat="42.99313" lon="-0.21967">
        <ele>1404.8000488281</ele>
        <time>2020-05-31T06:47:08Z</time>
      </trkpt>
      <trkpt lat="42.99312" lon="-0.21969">
        <ele>1405.1999511719</ele>
        <time>2020-05-31T06:47:09Z</time>
      </trkpt>
      <trkpt lat="42.99307" lon="-0.21985">
        <ele>1405.5999755859</ele>
        <time>2020-05-31T06:47:17Z</time>
      </trkpt>
      <trkpt lat="42.99306" lon="-0.21988">
        <ele>1406</ele>
        <time>2020-05-31T06:47:18Z</time>
      </trkpt>
      <trkpt lat="42.99306" lon="-0.2199">
        <ele>1406.4000244141</ele>
        <time>2020-05-31T06:47:19Z</time>
      </trkpt>
      <trkpt lat="42.99305" lon="-0.21991">
        <ele>1406.8000488281</ele>
        <time>2020-05-31T06:47:20Z</time>
      </trkpt>
      <trkpt lat="42.99305" lon="-0.21993">
        <ele>1407.1999511719</ele>
        <time>2020-05-31T06:47:21Z</time>
      </trkpt>
      <trkpt lat="42.99302" lon="-0.22">
        <ele>1407.1999511719</ele>
        <time>2020-05-31T06:47:25Z</time>
      </trkpt>
      <trkpt lat="42.99297" lon="-0.22011">
        <ele>1407.5999755859</ele>
        <time>2020-05-31T06:47:31Z</time>
      </trkpt>
      <trkpt lat="42.99296" lon="-0.22013">
        <ele>1408</ele>
        <time>2020-05-31T06:47:32Z</time>
      </trkpt>
      <trkpt lat="42.99296" lon="-0.22015">
        <ele>1408.5999755859</ele>
        <time>2020-05-31T06:47:33Z</time>
      </trkpt>
      <trkpt lat="42.99295" lon="-0.22017">
        <ele>1409</ele>
        <time>2020-05-31T06:47:34Z</time>
      </trkpt>
      <trkpt lat="42.99295" lon="-0.2202">
        <ele>1409.4000244141</ele>
        <time>2020-05-31T06:47:35Z</time>
      </trkpt>
      <trkpt lat="42.99294" lon="-0.22025">
        <ele>1409.4000244141</ele>
        <time>2020-05-31T06:47:38Z</time>
      </trkpt>
      <trkpt lat="42.99292" lon="-0.22028">
        <ele>1409.4000244141</ele>
        <time>2020-05-31T06:47:40Z</time>
      </trkpt>
      <trkpt lat="42.99287" lon="-0.22028">
        <ele>1409.8000488281</ele>
        <time>2020-05-31T06:47:44Z</time>
      </trkpt>
      <trkpt lat="42.99285" lon="-0.22026">
        <ele>1410.1999511719</ele>
        <time>2020-05-31T06:47:45Z</time>
      </trkpt>
      <trkpt lat="42.99284" lon="-0.22024">
        <ele>1410.5999755859</ele>
        <time>2020-05-31T06:47:46Z</time>
      </trkpt>
      <trkpt lat="42.99283" lon="-0.22021">
        <ele>1411</ele>
        <time>2020-05-31T06:47:47Z</time>
      </trkpt>
      <trkpt lat="42.99283" lon="-0.22019">
        <ele>1411.4000244141</ele>
        <time>2020-05-31T06:47:48Z</time>
      </trkpt>
      <trkpt lat="42.99283" lon="-0.22015">
        <ele>1411.4000244141</ele>
        <time>2020-05-31T06:47:50Z</time>
      </trkpt>
      <trkpt lat="42.99286" lon="-0.22003">
        <ele>1411.4000244141</ele>
        <time>2020-05-31T06:47:55Z</time>
      </trkpt>
      <trkpt lat="42.99285" lon="-0.21984">
        <ele>1411.4000244141</ele>
        <time>2020-05-31T06:48:02Z</time>
      </trkpt>
      <trkpt lat="42.99285" lon="-0.21981">
        <ele>1412.1999511719</ele>
        <time>2020-05-31T06:48:03Z</time>
      </trkpt>
      <trkpt lat="42.99284" lon="-0.21979">
        <ele>1412.5999755859</ele>
        <time>2020-05-31T06:48:04Z</time>
      </trkpt>
      <trkpt lat="42.99285" lon="-0.21976">
        <ele>1413</ele>
        <time>2020-05-31T06:48:05Z</time>
      </trkpt>
      <trkpt lat="42.99284" lon="-0.21974">
        <ele>1413.4000244141</ele>
        <time>2020-05-31T06:48:06Z</time>
      </trkpt>
      <trkpt lat="42.99284" lon="-0.21963">
        <ele>1413.4000244141</ele>
        <time>2020-05-31T06:48:10Z</time>
      </trkpt>
      <trkpt lat="42.99284" lon="-0.21942">
        <ele>1413.4000244141</ele>
        <time>2020-05-31T06:48:18Z</time>
      </trkpt>
      <trkpt lat="42.99283" lon="-0.21925">
        <ele>1413.4000244141</ele>
        <time>2020-05-31T06:48:25Z</time>
      </trkpt>
      <trkpt lat="42.99284" lon="-0.21922">
        <ele>1413.4000244141</ele>
        <time>2020-05-31T06:48:26Z</time>
      </trkpt>
      <trkpt lat="42.99284" lon="-0.2192">
        <ele>1413.8000488281</ele>
        <time>2020-05-31T06:48:27Z</time>
      </trkpt>
      <trkpt lat="42.99285" lon="-0.21918">
        <ele>1414.8000488281</ele>
        <time>2020-05-31T06:48:28Z</time>
      </trkpt>
      <trkpt lat="42.99285" lon="-0.21916">
        <ele>1415.1999511719</ele>
        <time>2020-05-31T06:48:29Z</time>
      </trkpt>
      <trkpt lat="42.99286" lon="-0.21914">
        <ele>1415.5999755859</ele>
        <time>2020-05-31T06:48:30Z</time>
      </trkpt>
      <trkpt lat="42.99282" lon="-0.21904">
        <ele>1415.5999755859</ele>
        <time>2020-05-31T06:48:36Z</time>
      </trkpt>
      <trkpt lat="42.9928" lon="-0.219">
        <ele>1415.5999755859</ele>
        <time>2020-05-31T06:48:38Z</time>
      </trkpt>
      <trkpt lat="42.99274" lon="-0.21896">
        <ele>1415.5999755859</ele>
        <time>2020-05-31T06:48:42Z</time>
      </trkpt>
      <trkpt lat="42.99272" lon="-0.21897">
        <ele>1415.5999755859</ele>
        <time>2020-05-31T06:48:44Z</time>
      </trkpt>
      <trkpt lat="42.99272" lon="-0.21898">
        <ele>1415.5999755859</ele>
        <time>2020-05-31T06:48:45Z</time>
      </trkpt>
      <trkpt lat="42.99272" lon="-0.21899">
        <ele>1416</ele>
        <time>2020-05-31T06:48:46Z</time>
      </trkpt>
      <trkpt lat="42.99272" lon="-0.21901">
        <ele>1416.4000244141</ele>
        <time>2020-05-31T06:48:47Z</time>
      </trkpt>
      <trkpt lat="42.99272" lon="-0.21903">
        <ele>1416.8000488281</ele>
        <time>2020-05-31T06:48:48Z</time>
      </trkpt>
      <trkpt lat="42.99271" lon="-0.21905">
        <ele>1417.1999511719</ele>
        <time>2020-05-31T06:48:49Z</time>
      </trkpt>
      <trkpt lat="42.99271" lon="-0.21907">
        <ele>1417.5999755859</ele>
        <time>2020-05-31T06:48:50Z</time>
      </trkpt>
      <trkpt lat="42.99268" lon="-0.21918">
        <ele>1417.5999755859</ele>
        <time>2020-05-31T06:48:56Z</time>
      </trkpt>
      <trkpt lat="42.99264" lon="-0.21925">
        <ele>1418</ele>
        <time>2020-05-31T06:49:00Z</time>
      </trkpt>
      <trkpt lat="42.99263" lon="-0.21927">
        <ele>1418.5999755859</ele>
        <time>2020-05-31T06:49:01Z</time>
      </trkpt>
      <trkpt lat="42.99263" lon="-0.21929">
        <ele>1419</ele>
        <time>2020-05-31T06:49:02Z</time>
      </trkpt>
      <trkpt lat="42.99262" lon="-0.21932">
        <ele>1419.4000244141</ele>
        <time>2020-05-31T06:49:03Z</time>
      </trkpt>
      <trkpt lat="42.99261" lon="-0.21933">
        <ele>1419.8000488281</ele>
        <time>2020-05-31T06:49:04Z</time>
      </trkpt>
      <trkpt lat="42.99258" lon="-0.21937">
        <ele>1419.8000488281</ele>
        <time>2020-05-31T06:49:06Z</time>
      </trkpt>
      <trkpt lat="42.99258" lon="-0.21939">
        <ele>1419.8000488281</ele>
        <time>2020-05-31T06:49:07Z</time>
      </trkpt>
      <trkpt lat="42.99255" lon="-0.21951">
        <ele>1419.8000488281</ele>
        <time>2020-05-31T06:49:13Z</time>
      </trkpt>
      <trkpt lat="42.99255" lon="-0.21954">
        <ele>1420.1999511719</ele>
        <time>2020-05-31T06:49:14Z</time>
      </trkpt>
      <trkpt lat="42.99255" lon="-0.21956">
        <ele>1420.5999755859</ele>
        <time>2020-05-31T06:49:15Z</time>
      </trkpt>
      <trkpt lat="42.99254" lon="-0.21958">
        <ele>1421</ele>
        <time>2020-05-31T06:49:16Z</time>
      </trkpt>
      <trkpt lat="42.99253" lon="-0.21961">
        <ele>1421.4000244141</ele>
        <time>2020-05-31T06:49:17Z</time>
      </trkpt>
      <trkpt lat="42.99253" lon="-0.21963">
        <ele>1421.8000488281</ele>
        <time>2020-05-31T06:49:18Z</time>
      </trkpt>
      <trkpt lat="42.99251" lon="-0.21968">
        <ele>1421.8000488281</ele>
        <time>2020-05-31T06:49:20Z</time>
      </trkpt>
      <trkpt lat="42.99248" lon="-0.21974">
        <ele>1421.8000488281</ele>
        <time>2020-05-31T06:49:23Z</time>
      </trkpt>
      <trkpt lat="42.99247" lon="-0.21979">
        <ele>1421.8000488281</ele>
        <time>2020-05-31T06:49:25Z</time>
      </trkpt>
      <trkpt lat="42.99243" lon="-0.21987">
        <ele>1421.8000488281</ele>
        <time>2020-05-31T06:49:29Z</time>
      </trkpt>
      <trkpt lat="42.9924" lon="-0.21989">
        <ele>1421.8000488281</ele>
        <time>2020-05-31T06:49:31Z</time>
      </trkpt>
      <trkpt lat="42.99237" lon="-0.21995">
        <ele>1422.1999511719</ele>
        <time>2020-05-31T06:49:34Z</time>
      </trkpt>
      <trkpt lat="42.99236" lon="-0.21997">
        <ele>1422.5999755859</ele>
        <time>2020-05-31T06:49:35Z</time>
      </trkpt>
      <trkpt lat="42.99235" lon="-0.21999">
        <ele>1423</ele>
        <time>2020-05-31T06:49:36Z</time>
      </trkpt>
      <trkpt lat="42.99234" lon="-0.22001">
        <ele>1423.4000244141</ele>
        <time>2020-05-31T06:49:37Z</time>
      </trkpt>
      <trkpt lat="42.99233" lon="-0.22003">
        <ele>1423.8000488281</ele>
        <time>2020-05-31T06:49:38Z</time>
      </trkpt>
      <trkpt lat="42.99229" lon="-0.22014">
        <ele>1423.8000488281</ele>
        <time>2020-05-31T06:49:44Z</time>
      </trkpt>
      <trkpt lat="42.99227" lon="-0.22019">
        <ele>1424.1999511719</ele>
        <time>2020-05-31T06:49:47Z</time>
      </trkpt>
      <trkpt lat="42.99226" lon="-0.22021">
        <ele>1424.8000488281</ele>
        <time>2020-05-31T06:49:48Z</time>
      </trkpt>
      <trkpt lat="42.99225" lon="-0.22022">
        <ele>1425.1999511719</ele>
        <time>2020-05-31T06:49:49Z</time>
      </trkpt>
      <trkpt lat="42.99225" lon="-0.22024">
        <ele>1425.5999755859</ele>
        <time>2020-05-31T06:49:50Z</time>
      </trkpt>
      <trkpt lat="42.99224" lon="-0.22026">
        <ele>1426</ele>
        <time>2020-05-31T06:49:51Z</time>
      </trkpt>
      <trkpt lat="42.99217" lon="-0.22037">
        <ele>1426</ele>
        <time>2020-05-31T06:49:57Z</time>
      </trkpt>
      <trkpt lat="42.99215" lon="-0.22041">
        <ele>1426</ele>
        <time>2020-05-31T06:49:59Z</time>
      </trkpt>
      <trkpt lat="42.99213" lon="-0.22046">
        <ele>1426</ele>
        <time>2020-05-31T06:50:02Z</time>
      </trkpt>
      <trkpt lat="42.99212" lon="-0.22048">
        <ele>1426.4000244141</ele>
        <time>2020-05-31T06:50:03Z</time>
      </trkpt>
      <trkpt lat="42.99212" lon="-0.2205">
        <ele>1426.8000488281</ele>
        <time>2020-05-31T06:50:04Z</time>
      </trkpt>
      <trkpt lat="42.99211" lon="-0.22052">
        <ele>1427.1999511719</ele>
        <time>2020-05-31T06:50:05Z</time>
      </trkpt>
      <trkpt lat="42.99211" lon="-0.22054">
        <ele>1427.5999755859</ele>
        <time>2020-05-31T06:50:06Z</time>
      </trkpt>
      <trkpt lat="42.9921" lon="-0.22056">
        <ele>1428</ele>
        <time>2020-05-31T06:50:07Z</time>
      </trkpt>
      <trkpt lat="42.9921" lon="-0.2206">
        <ele>1428</ele>
        <time>2020-05-31T06:50:09Z</time>
      </trkpt>
      <trkpt lat="42.9921" lon="-0.2207">
        <ele>1428.4000244141</ele>
        <time>2020-05-31T06:50:14Z</time>
      </trkpt>
      <trkpt lat="42.9921" lon="-0.22073">
        <ele>1428.8000488281</ele>
        <time>2020-05-31T06:50:15Z</time>
      </trkpt>
      <trkpt lat="42.9921" lon="-0.22075">
        <ele>1429.1999511719</ele>
        <time>2020-05-31T06:50:16Z</time>
      </trkpt>
      <trkpt lat="42.9921" lon="-0.22077">
        <ele>1429.8000488281</ele>
        <time>2020-05-31T06:50:17Z</time>
      </trkpt>
      <trkpt lat="42.99211" lon="-0.22079">
        <ele>1430.1999511719</ele>
        <time>2020-05-31T06:50:18Z</time>
      </trkpt>
      <trkpt lat="42.99212" lon="-0.22085">
        <ele>1430.1999511719</ele>
        <time>2020-05-31T06:50:21Z</time>
      </trkpt>
      <trkpt lat="42.99215" lon="-0.22099">
        <ele>1430.5999755859</ele>
        <time>2020-05-31T06:50:27Z</time>
      </trkpt>
      <trkpt lat="42.99215" lon="-0.22101">
        <ele>1431</ele>
        <time>2020-05-31T06:50:28Z</time>
      </trkpt>
      <trkpt lat="42.99215" lon="-0.22104">
        <ele>1431.4000244141</ele>
        <time>2020-05-31T06:50:29Z</time>
      </trkpt>
      <trkpt lat="42.99216" lon="-0.22106">
        <ele>1431.8000488281</ele>
        <time>2020-05-31T06:50:30Z</time>
      </trkpt>
      <trkpt lat="42.99216" lon="-0.22109">
        <ele>1432.1999511719</ele>
        <time>2020-05-31T06:50:31Z</time>
      </trkpt>
      <trkpt lat="42.99217" lon="-0.22113">
        <ele>1432.1999511719</ele>
        <time>2020-05-31T06:50:33Z</time>
      </trkpt>
      <trkpt lat="42.99218" lon="-0.22132">
        <ele>1432.1999511719</ele>
        <time>2020-05-31T06:50:41Z</time>
      </trkpt>
      <trkpt lat="42.99219" lon="-0.22137">
        <ele>1432.1999511719</ele>
        <time>2020-05-31T06:50:43Z</time>
      </trkpt>
      <trkpt lat="42.9922" lon="-0.22142">
        <ele>1432.1999511719</ele>
        <time>2020-05-31T06:50:45Z</time>
      </trkpt>
      <trkpt lat="42.99221" lon="-0.22144">
        <ele>1432.5999755859</ele>
        <time>2020-05-31T06:50:46Z</time>
      </trkpt>
      <trkpt lat="42.9922" lon="-0.22146">
        <ele>1433</ele>
        <time>2020-05-31T06:50:47Z</time>
      </trkpt>
      <trkpt lat="42.9922" lon="-0.22148">
        <ele>1433.4000244141</ele>
        <time>2020-05-31T06:50:48Z</time>
      </trkpt>
      <trkpt lat="42.9922" lon="-0.2215">
        <ele>1433.8000488281</ele>
        <time>2020-05-31T06:50:49Z</time>
      </trkpt>
      <trkpt lat="42.9922" lon="-0.22152">
        <ele>1434.1999511719</ele>
        <time>2020-05-31T06:50:50Z</time>
      </trkpt>
      <trkpt lat="42.99218" lon="-0.22155">
        <ele>1434.1999511719</ele>
        <time>2020-05-31T06:50:52Z</time>
      </trkpt>
      <trkpt lat="42.99213" lon="-0.22153">
        <ele>1434.1999511719</ele>
        <time>2020-05-31T06:50:56Z</time>
      </trkpt>
      <trkpt lat="42.99211" lon="-0.22144">
        <ele>1434.1999511719</ele>
        <time>2020-05-31T06:51:00Z</time>
      </trkpt>
      <trkpt lat="42.9921" lon="-0.22139">
        <ele>1434.1999511719</ele>
        <time>2020-05-31T06:51:02Z</time>
      </trkpt>
      <trkpt lat="42.99207" lon="-0.22129">
        <ele>1434.5999755859</ele>
        <time>2020-05-31T06:51:06Z</time>
      </trkpt>
      <trkpt lat="42.99206" lon="-0.22127">
        <ele>1435</ele>
        <time>2020-05-31T06:51:07Z</time>
      </trkpt>
      <trkpt lat="42.99206" lon="-0.22125">
        <ele>1435.4000244141</ele>
        <time>2020-05-31T06:51:08Z</time>
      </trkpt>
      <trkpt lat="42.99205" lon="-0.22123">
        <ele>1435.8000488281</ele>
        <time>2020-05-31T06:51:09Z</time>
      </trkpt>
      <trkpt lat="42.99204" lon="-0.22121">
        <ele>1436.1999511719</ele>
        <time>2020-05-31T06:51:10Z</time>
      </trkpt>
      <trkpt lat="42.99199" lon="-0.2211">
        <ele>1436.1999511719</ele>
        <time>2020-05-31T06:51:15Z</time>
      </trkpt>
      <trkpt lat="42.99189" lon="-0.22096">
        <ele>1436.1999511719</ele>
        <time>2020-05-31T06:51:23Z</time>
      </trkpt>
      <trkpt lat="42.99181" lon="-0.22087">
        <ele>1436.5999755859</ele>
        <time>2020-05-31T06:51:29Z</time>
      </trkpt>
      <trkpt lat="42.9918" lon="-0.22086">
        <ele>1437</ele>
        <time>2020-05-31T06:51:30Z</time>
      </trkpt>
      <trkpt lat="42.99178" lon="-0.22084">
        <ele>1437.5999755859</ele>
        <time>2020-05-31T06:51:31Z</time>
      </trkpt>
      <trkpt lat="42.99177" lon="-0.22083">
        <ele>1438</ele>
        <time>2020-05-31T06:51:32Z</time>
      </trkpt>
      <trkpt lat="42.99176" lon="-0.22081">
        <ele>1438.4000244141</ele>
        <time>2020-05-31T06:51:33Z</time>
      </trkpt>
      <trkpt lat="42.99171" lon="-0.22074">
        <ele>1438.4000244141</ele>
        <time>2020-05-31T06:51:37Z</time>
      </trkpt>
      <trkpt lat="42.9916" lon="-0.22059">
        <ele>1438.4000244141</ele>
        <time>2020-05-31T06:51:45Z</time>
      </trkpt>
      <trkpt lat="42.99151" lon="-0.2205">
        <ele>1438.4000244141</ele>
        <time>2020-05-31T06:51:51Z</time>
      </trkpt>
      <trkpt lat="42.9914" lon="-0.22043">
        <ele>1438.4000244141</ele>
        <time>2020-05-31T06:51:58Z</time>
      </trkpt>
      <trkpt lat="42.99136" lon="-0.2204">
        <ele>1438.8000488281</ele>
        <time>2020-05-31T06:52:01Z</time>
      </trkpt>
      <trkpt lat="42.99134" lon="-0.22039">
        <ele>1439.1999511719</ele>
        <time>2020-05-31T06:52:02Z</time>
      </trkpt>
      <trkpt lat="42.99133" lon="-0.22038">
        <ele>1439.5999755859</ele>
        <time>2020-05-31T06:52:03Z</time>
      </trkpt>
      <trkpt lat="42.99131" lon="-0.22037">
        <ele>1440.1999511719</ele>
        <time>2020-05-31T06:52:04Z</time>
      </trkpt>
      <trkpt lat="42.9913" lon="-0.22036">
        <ele>1440.5999755859</ele>
        <time>2020-05-31T06:52:05Z</time>
      </trkpt>
      <trkpt lat="42.99123" lon="-0.22032">
        <ele>1440.5999755859</ele>
        <time>2020-05-31T06:52:11Z</time>
      </trkpt>
      <trkpt lat="42.99123" lon="-0.22032">
        <ele>1440.5999755859</ele>
        <time>2020-05-31T06:52:19Z</time>
      </trkpt>
      <trkpt lat="42.99123" lon="-0.22032">
        <ele>1440.5999755859</ele>
        <time>2020-05-31T06:52:29Z</time>
      </trkpt>
      <trkpt lat="42.99123" lon="-0.22031">
        <ele>1440.5999755859</ele>
        <time>2020-05-31T06:52:43Z</time>
      </trkpt>
      <trkpt lat="42.9912" lon="-0.22025">
        <ele>1440.5999755859</ele>
        <time>2020-05-31T06:52:50Z</time>
      </trkpt>
      <trkpt lat="42.9912" lon="-0.22025">
        <ele>1440.5999755859</ele>
        <time>2020-05-31T06:53:02Z</time>
      </trkpt>
      <trkpt lat="42.9912" lon="-0.22025">
        <ele>1440.5999755859</ele>
        <time>2020-05-31T06:53:16Z</time>
      </trkpt>
      <trkpt lat="42.9912" lon="-0.22025">
        <ele>1440.5999755859</ele>
        <time>2020-05-31T06:53:23Z</time>
      </trkpt>
      <trkpt lat="42.9912" lon="-0.22025">
        <ele>1440.5999755859</ele>
        <time>2020-05-31T06:53:30Z</time>
      </trkpt>
      <trkpt lat="42.9912" lon="-0.22025">
        <ele>1440.5999755859</ele>
        <time>2020-05-31T06:53:38Z</time>
      </trkpt>
      <trkpt lat="42.99116" lon="-0.22024">
        <ele>1440.5999755859</ele>
        <time>2020-05-31T06:53:43Z</time>
      </trkpt>
      <trkpt lat="42.99102" lon="-0.22027">
        <ele>1440.5999755859</ele>
        <time>2020-05-31T06:53:49Z</time>
      </trkpt>
      <trkpt lat="42.99089" lon="-0.22026">
        <ele>1440.5999755859</ele>
        <time>2020-05-31T06:53:56Z</time>
      </trkpt>
      <trkpt lat="42.99084" lon="-0.22031">
        <ele>1441</ele>
        <time>2020-05-31T06:54:00Z</time>
      </trkpt>
      <trkpt lat="42.99084" lon="-0.22034">
        <ele>1441.4000244141</ele>
        <time>2020-05-31T06:54:01Z</time>
      </trkpt>
      <trkpt lat="42.99084" lon="-0.22036">
        <ele>1441.8000488281</ele>
        <time>2020-05-31T06:54:02Z</time>
      </trkpt>
      <trkpt lat="42.99084" lon="-0.22038">
        <ele>1442.1999511719</ele>
        <time>2020-05-31T06:54:03Z</time>
      </trkpt>
      <trkpt lat="42.99085" lon="-0.2204">
        <ele>1442.5999755859</ele>
        <time>2020-05-31T06:54:04Z</time>
      </trkpt>
      <trkpt lat="42.99087" lon="-0.22046">
        <ele>1442.5999755859</ele>
        <time>2020-05-31T06:54:07Z</time>
      </trkpt>
      <trkpt lat="42.99088" lon="-0.22047">
        <ele>1442.5999755859</ele>
        <time>2020-05-31T06:54:08Z</time>
      </trkpt>
      <trkpt lat="42.99091" lon="-0.22049">
        <ele>1443</ele>
        <time>2020-05-31T06:54:10Z</time>
      </trkpt>
      <trkpt lat="42.99092" lon="-0.22051">
        <ele>1443.4000244141</ele>
        <time>2020-05-31T06:54:11Z</time>
      </trkpt>
      <trkpt lat="42.99093" lon="-0.22052">
        <ele>1444</ele>
        <time>2020-05-31T06:54:12Z</time>
      </trkpt>
      <trkpt lat="42.99094" lon="-0.22054">
        <ele>1444.8000488281</ele>
        <time>2020-05-31T06:54:13Z</time>
      </trkpt>
      <trkpt lat="42.99099" lon="-0.22069">
        <ele>1445.1999511719</ele>
        <time>2020-05-31T06:54:20Z</time>
      </trkpt>
      <trkpt lat="42.991" lon="-0.22071">
        <ele>1445.5999755859</ele>
        <time>2020-05-31T06:54:21Z</time>
      </trkpt>
      <trkpt lat="42.991" lon="-0.22073">
        <ele>1446</ele>
        <time>2020-05-31T06:54:22Z</time>
      </trkpt>
      <trkpt lat="42.99101" lon="-0.22075">
        <ele>1446.4000244141</ele>
        <time>2020-05-31T06:54:23Z</time>
      </trkpt>
      <trkpt lat="42.99101" lon="-0.22077">
        <ele>1446.8000488281</ele>
        <time>2020-05-31T06:54:24Z</time>
      </trkpt>
      <trkpt lat="42.99102" lon="-0.22082">
        <ele>1446.8000488281</ele>
        <time>2020-05-31T06:54:26Z</time>
      </trkpt>
      <trkpt lat="42.99104" lon="-0.22096">
        <ele>1447.1999511719</ele>
        <time>2020-05-31T06:54:32Z</time>
      </trkpt>
      <trkpt lat="42.99104" lon="-0.22098">
        <ele>1447.5999755859</ele>
        <time>2020-05-31T06:54:33Z</time>
      </trkpt>
      <trkpt lat="42.99104" lon="-0.221">
        <ele>1448.1999511719</ele>
        <time>2020-05-31T06:54:34Z</time>
      </trkpt>
      <trkpt lat="42.99105" lon="-0.22103">
        <ele>1448.5999755859</ele>
        <time>2020-05-31T06:54:35Z</time>
      </trkpt>
      <trkpt lat="42.99105" lon="-0.22105">
        <ele>1449</ele>
        <time>2020-05-31T06:54:36Z</time>
      </trkpt>
      <trkpt lat="42.99107" lon="-0.22122">
        <ele>1449</ele>
        <time>2020-05-31T06:54:43Z</time>
      </trkpt>
      <trkpt lat="42.99108" lon="-0.22124">
        <ele>1449.4000244141</ele>
        <time>2020-05-31T06:54:44Z</time>
      </trkpt>
      <trkpt lat="42.99109" lon="-0.22126">
        <ele>1449.8000488281</ele>
        <time>2020-05-31T06:54:45Z</time>
      </trkpt>
      <trkpt lat="42.9911" lon="-0.22127">
        <ele>1450.1999511719</ele>
        <time>2020-05-31T06:54:46Z</time>
      </trkpt>
      <trkpt lat="42.99111" lon="-0.22129">
        <ele>1450.8000488281</ele>
        <time>2020-05-31T06:54:47Z</time>
      </trkpt>
      <trkpt lat="42.99112" lon="-0.22131">
        <ele>1451.1999511719</ele>
        <time>2020-05-31T06:54:48Z</time>
      </trkpt>
      <trkpt lat="42.99113" lon="-0.22132">
        <ele>1451.1999511719</ele>
        <time>2020-05-31T06:54:49Z</time>
      </trkpt>
      <trkpt lat="42.99117" lon="-0.22142">
        <ele>1451.5999755859</ele>
        <time>2020-05-31T06:54:55Z</time>
      </trkpt>
      <trkpt lat="42.99118" lon="-0.22143">
        <ele>1452</ele>
        <time>2020-05-31T06:54:56Z</time>
      </trkpt>
      <trkpt lat="42.99119" lon="-0.22145">
        <ele>1452.4000244141</ele>
        <time>2020-05-31T06:54:57Z</time>
      </trkpt>
      <trkpt lat="42.9912" lon="-0.22146">
        <ele>1452.8000488281</ele>
        <time>2020-05-31T06:54:58Z</time>
      </trkpt>
      <trkpt lat="42.99121" lon="-0.22148">
        <ele>1453.1999511719</ele>
        <time>2020-05-31T06:54:59Z</time>
      </trkpt>
      <trkpt lat="42.99122" lon="-0.22151">
        <ele>1453.1999511719</ele>
        <time>2020-05-31T06:55:01Z</time>
      </trkpt>
      <trkpt lat="42.99124" lon="-0.22156">
        <ele>1453.5999755859</ele>
        <time>2020-05-31T06:55:04Z</time>
      </trkpt>
      <trkpt lat="42.99125" lon="-0.22157">
        <ele>1454</ele>
        <time>2020-05-31T06:55:05Z</time>
      </trkpt>
      <trkpt lat="42.99125" lon="-0.22159">
        <ele>1454.4000244141</ele>
        <time>2020-05-31T06:55:06Z</time>
      </trkpt>
      <trkpt lat="42.99126" lon="-0.22161">
        <ele>1454.8000488281</ele>
        <time>2020-05-31T06:55:07Z</time>
      </trkpt>
      <trkpt lat="42.99126" lon="-0.22163">
        <ele>1455.4000244141</ele>
        <time>2020-05-31T06:55:08Z</time>
      </trkpt>
      <trkpt lat="42.99127" lon="-0.22165">
        <ele>1455.4000244141</ele>
        <time>2020-05-31T06:55:09Z</time>
      </trkpt>
      <trkpt lat="42.99129" lon="-0.22167">
        <ele>1455.4000244141</ele>
        <time>2020-05-31T06:55:11Z</time>
      </trkpt>
      <trkpt lat="42.99131" lon="-0.22169">
        <ele>1455.8000488281</ele>
        <time>2020-05-31T06:55:13Z</time>
      </trkpt>
      <trkpt lat="42.99132" lon="-0.2217">
        <ele>1456.1999511719</ele>
        <time>2020-05-31T06:55:14Z</time>
      </trkpt>
      <trkpt lat="42.99132" lon="-0.22172">
        <ele>1456.5999755859</ele>
        <time>2020-05-31T06:55:15Z</time>
      </trkpt>
      <trkpt lat="42.99133" lon="-0.22174">
        <ele>1457</ele>
        <time>2020-05-31T06:55:16Z</time>
      </trkpt>
      <trkpt lat="42.99133" lon="-0.22176">
        <ele>1457.4000244141</ele>
        <time>2020-05-31T06:55:17Z</time>
      </trkpt>
      <trkpt lat="42.99136" lon="-0.22184">
        <ele>1457.4000244141</ele>
        <time>2020-05-31T06:55:21Z</time>
      </trkpt>
      <trkpt lat="42.99137" lon="-0.22189">
        <ele>1457.4000244141</ele>
        <time>2020-05-31T06:55:24Z</time>
      </trkpt>
      <trkpt lat="42.99137" lon="-0.22193">
        <ele>1457.8000488281</ele>
        <time>2020-05-31T06:55:26Z</time>
      </trkpt>
      <trkpt lat="42.99137" lon="-0.22196">
        <ele>1458.8000488281</ele>
        <time>2020-05-31T06:55:27Z</time>
      </trkpt>
      <trkpt lat="42.99137" lon="-0.22198">
        <ele>1459.1999511719</ele>
        <time>2020-05-31T06:55:28Z</time>
      </trkpt>
      <trkpt lat="42.99137" lon="-0.222">
        <ele>1459.5999755859</ele>
        <time>2020-05-31T06:55:29Z</time>
      </trkpt>
      <trkpt lat="42.99137" lon="-0.22202">
        <ele>1459.5999755859</ele>
        <time>2020-05-31T06:55:30Z</time>
      </trkpt>
      <trkpt lat="42.99139" lon="-0.22209">
        <ele>1459.5999755859</ele>
        <time>2020-05-31T06:55:34Z</time>
      </trkpt>
      <trkpt lat="42.99139" lon="-0.22214">
        <ele>1460.1999511719</ele>
        <time>2020-05-31T06:55:37Z</time>
      </trkpt>
      <trkpt lat="42.99139" lon="-0.22216">
        <ele>1460.5999755859</ele>
        <time>2020-05-31T06:55:38Z</time>
      </trkpt>
      <trkpt lat="42.99139" lon="-0.22218">
        <ele>1461</ele>
        <time>2020-05-31T06:55:39Z</time>
      </trkpt>
      <trkpt lat="42.99139" lon="-0.2222">
        <ele>1461.4000244141</ele>
        <time>2020-05-31T06:55:40Z</time>
      </trkpt>
      <trkpt lat="42.99139" lon="-0.22221">
        <ele>1462</ele>
        <time>2020-05-31T06:55:41Z</time>
      </trkpt>
      <trkpt lat="42.99134" lon="-0.22227">
        <ele>1462</ele>
        <time>2020-05-31T06:55:46Z</time>
      </trkpt>
      <trkpt lat="42.99133" lon="-0.22227">
        <ele>1462</ele>
        <time>2020-05-31T06:55:47Z</time>
      </trkpt>
      <trkpt lat="42.99131" lon="-0.22226">
        <ele>1462.4000244141</ele>
        <time>2020-05-31T06:55:48Z</time>
      </trkpt>
      <trkpt lat="42.9913" lon="-0.22225">
        <ele>1462.8000488281</ele>
        <time>2020-05-31T06:55:49Z</time>
      </trkpt>
      <trkpt lat="42.99129" lon="-0.22224">
        <ele>1463.1999511719</ele>
        <time>2020-05-31T06:55:50Z</time>
      </trkpt>
      <trkpt lat="42.99128" lon="-0.22224">
        <ele>1463.5999755859</ele>
        <time>2020-05-31T06:55:51Z</time>
      </trkpt>
      <trkpt lat="42.99126" lon="-0.22223">
        <ele>1464</ele>
        <time>2020-05-31T06:55:52Z</time>
      </trkpt>
      <trkpt lat="42.99124" lon="-0.2222">
        <ele>1464</ele>
        <time>2020-05-31T06:55:54Z</time>
      </trkpt>
      <trkpt lat="42.99116" lon="-0.22216">
        <ele>1464</ele>
        <time>2020-05-31T06:55:59Z</time>
      </trkpt>
      <trkpt lat="42.99106" lon="-0.22209">
        <ele>1464</ele>
        <time>2020-05-31T06:56:06Z</time>
      </trkpt>
      <trkpt lat="42.99105" lon="-0.22208">
        <ele>1464.4000244141</ele>
        <time>2020-05-31T06:56:07Z</time>
      </trkpt>
      <trkpt lat="42.99104" lon="-0.22207">
        <ele>1464.8000488281</ele>
        <time>2020-05-31T06:56:08Z</time>
      </trkpt>
      <trkpt lat="42.99103" lon="-0.22206">
        <ele>1465.1999511719</ele>
        <time>2020-05-31T06:56:09Z</time>
      </trkpt>
      <trkpt lat="42.99101" lon="-0.22205">
        <ele>1465.8000488281</ele>
        <time>2020-05-31T06:56:10Z</time>
      </trkpt>
      <trkpt lat="42.991" lon="-0.22204">
        <ele>1466.1999511719</ele>
        <time>2020-05-31T06:56:11Z</time>
      </trkpt>
      <trkpt lat="42.99097" lon="-0.22199">
        <ele>1466.1999511719</ele>
        <time>2020-05-31T06:56:14Z</time>
      </trkpt>
      <trkpt lat="42.9909" lon="-0.22195">
        <ele>1466.1999511719</ele>
        <time>2020-05-31T06:56:19Z</time>
      </trkpt>
      <trkpt lat="42.99088" lon="-0.22195">
        <ele>1466.5999755859</ele>
        <time>2020-05-31T06:56:20Z</time>
      </trkpt>
      <trkpt lat="42.99087" lon="-0.22197">
        <ele>1467</ele>
        <time>2020-05-31T06:56:21Z</time>
      </trkpt>
      <trkpt lat="42.99086" lon="-0.22199">
        <ele>1467.4000244141</ele>
        <time>2020-05-31T06:56:22Z</time>
      </trkpt>
      <trkpt lat="42.99087" lon="-0.22201">
        <ele>1467.8000488281</ele>
        <time>2020-05-31T06:56:23Z</time>
      </trkpt>
      <trkpt lat="42.99087" lon="-0.22203">
        <ele>1468.1999511719</ele>
        <time>2020-05-31T06:56:24Z</time>
      </trkpt>
      <trkpt lat="42.99089" lon="-0.22206">
        <ele>1468.1999511719</ele>
        <time>2020-05-31T06:56:25Z</time>
      </trkpt>
      <trkpt lat="42.99095" lon="-0.22218">
        <ele>1468.1999511719</ele>
        <time>2020-05-31T06:56:32Z</time>
      </trkpt>
      <trkpt lat="42.99096" lon="-0.2222">
        <ele>1468.5999755859</ele>
        <time>2020-05-31T06:56:33Z</time>
      </trkpt>
      <trkpt lat="42.99097" lon="-0.22222">
        <ele>1469</ele>
        <time>2020-05-31T06:56:34Z</time>
      </trkpt>
      <trkpt lat="42.99097" lon="-0.22223">
        <ele>1469.4000244141</ele>
        <time>2020-05-31T06:56:35Z</time>
      </trkpt>
      <trkpt lat="42.99098" lon="-0.22225">
        <ele>1469.8000488281</ele>
        <time>2020-05-31T06:56:36Z</time>
      </trkpt>
      <trkpt lat="42.99099" lon="-0.22227">
        <ele>1470.1999511719</ele>
        <time>2020-05-31T06:56:37Z</time>
      </trkpt>
      <trkpt lat="42.991" lon="-0.22232">
        <ele>1470.1999511719</ele>
        <time>2020-05-31T06:56:40Z</time>
      </trkpt>
      <trkpt lat="42.99101" lon="-0.22236">
        <ele>1470.5999755859</ele>
        <time>2020-05-31T06:56:42Z</time>
      </trkpt>
      <trkpt lat="42.99101" lon="-0.22238">
        <ele>1471</ele>
        <time>2020-05-31T06:56:43Z</time>
      </trkpt>
      <trkpt lat="42.99102" lon="-0.22239">
        <ele>1471.4000244141</ele>
        <time>2020-05-31T06:56:44Z</time>
      </trkpt>
      <trkpt lat="42.99102" lon="-0.22241">
        <ele>1471.8000488281</ele>
        <time>2020-05-31T06:56:45Z</time>
      </trkpt>
      <trkpt lat="42.99103" lon="-0.22243">
        <ele>1472.1999511719</ele>
        <time>2020-05-31T06:56:46Z</time>
      </trkpt>
      <trkpt lat="42.99103" lon="-0.22244">
        <ele>1472.1999511719</ele>
        <time>2020-05-31T06:56:47Z</time>
      </trkpt>
      <trkpt lat="42.99106" lon="-0.22256">
        <ele>1472.5999755859</ele>
        <time>2020-05-31T06:56:54Z</time>
      </trkpt>
      <trkpt lat="42.99107" lon="-0.22258">
        <ele>1473</ele>
        <time>2020-05-31T06:56:55Z</time>
      </trkpt>
      <trkpt lat="42.99107" lon="-0.2226">
        <ele>1473.4000244141</ele>
        <time>2020-05-31T06:56:56Z</time>
      </trkpt>
      <trkpt lat="42.99107" lon="-0.22262">
        <ele>1473.8000488281</ele>
        <time>2020-05-31T06:56:57Z</time>
      </trkpt>
      <trkpt lat="42.99108" lon="-0.22264">
        <ele>1474.4000244141</ele>
        <time>2020-05-31T06:56:58Z</time>
      </trkpt>
      <trkpt lat="42.9911" lon="-0.22271">
        <ele>1474.4000244141</ele>
        <time>2020-05-31T06:57:02Z</time>
      </trkpt>
      <trkpt lat="42.99113" lon="-0.22277">
        <ele>1474.4000244141</ele>
        <time>2020-05-31T06:57:06Z</time>
      </trkpt>
      <trkpt lat="42.99113" lon="-0.22279">
        <ele>1474.8000488281</ele>
        <time>2020-05-31T06:57:07Z</time>
      </trkpt>
      <trkpt lat="42.99114" lon="-0.22281">
        <ele>1475.1999511719</ele>
        <time>2020-05-31T06:57:08Z</time>
      </trkpt>
      <trkpt lat="42.99114" lon="-0.22283">
        <ele>1475.5999755859</ele>
        <time>2020-05-31T06:57:09Z</time>
      </trkpt>
      <trkpt lat="42.99114" lon="-0.22284">
        <ele>1476</ele>
        <time>2020-05-31T06:57:10Z</time>
      </trkpt>
      <trkpt lat="42.99114" lon="-0.22286">
        <ele>1476.4000244141</ele>
        <time>2020-05-31T06:57:11Z</time>
      </trkpt>
      <trkpt lat="42.99117" lon="-0.22296">
        <ele>1476.8000488281</ele>
        <time>2020-05-31T06:57:17Z</time>
      </trkpt>
      <trkpt lat="42.99117" lon="-0.22298">
        <ele>1477.1999511719</ele>
        <time>2020-05-31T06:57:18Z</time>
      </trkpt>
      <trkpt lat="42.99117" lon="-0.223">
        <ele>1477.5999755859</ele>
        <time>2020-05-31T06:57:19Z</time>
      </trkpt>
      <trkpt lat="42.99117" lon="-0.22301">
        <ele>1478</ele>
        <time>2020-05-31T06:57:20Z</time>
      </trkpt>
      <trkpt lat="42.99117" lon="-0.22303">
        <ele>1478.4000244141</ele>
        <time>2020-05-31T06:57:21Z</time>
      </trkpt>
      <trkpt lat="42.99118" lon="-0.22309">
        <ele>1478.4000244141</ele>
        <time>2020-05-31T06:57:24Z</time>
      </trkpt>
      <trkpt lat="42.99119" lon="-0.22318">
        <ele>1479</ele>
        <time>2020-05-31T06:57:29Z</time>
      </trkpt>
      <trkpt lat="42.99119" lon="-0.2232">
        <ele>1479.8000488281</ele>
        <time>2020-05-31T06:57:30Z</time>
      </trkpt>
      <trkpt lat="42.9912" lon="-0.22321">
        <ele>1480.1999511719</ele>
        <time>2020-05-31T06:57:31Z</time>
      </trkpt>
      <trkpt lat="42.99119" lon="-0.22323">
        <ele>1480.5999755859</ele>
        <time>2020-05-31T06:57:32Z</time>
      </trkpt>
      <trkpt lat="42.99119" lon="-0.22327">
        <ele>1480.5999755859</ele>
        <time>2020-05-31T06:57:34Z</time>
      </trkpt>
      <trkpt lat="42.9912" lon="-0.22331">
        <ele>1480.5999755859</ele>
        <time>2020-05-31T06:57:36Z</time>
      </trkpt>
      <trkpt lat="42.9912" lon="-0.22336">
        <ele>1481</ele>
        <time>2020-05-31T06:57:39Z</time>
      </trkpt>
      <trkpt lat="42.99121" lon="-0.22338">
        <ele>1481.5999755859</ele>
        <time>2020-05-31T06:57:40Z</time>
      </trkpt>
      <trkpt lat="42.99121" lon="-0.2234">
        <ele>1482</ele>
        <time>2020-05-31T06:57:41Z</time>
      </trkpt>
      <trkpt lat="42.99121" lon="-0.22342">
        <ele>1482.4000244141</ele>
        <time>2020-05-31T06:57:42Z</time>
      </trkpt>
      <trkpt lat="42.99121" lon="-0.22344">
        <ele>1482.8000488281</ele>
        <time>2020-05-31T06:57:43Z</time>
      </trkpt>
      <trkpt lat="42.99121" lon="-0.22359">
        <ele>1482.8000488281</ele>
        <time>2020-05-31T06:57:51Z</time>
      </trkpt>
      <trkpt lat="42.99123" lon="-0.22367">
        <ele>1483.5999755859</ele>
        <time>2020-05-31T06:57:55Z</time>
      </trkpt>
      <trkpt lat="42.99123" lon="-0.22369">
        <ele>1484</ele>
        <time>2020-05-31T06:57:56Z</time>
      </trkpt>
      <trkpt lat="42.99124" lon="-0.2237">
        <ele>1484.5999755859</ele>
        <time>2020-05-31T06:57:57Z</time>
      </trkpt>
      <trkpt lat="42.99125" lon="-0.22372">
        <ele>1485</ele>
        <time>2020-05-31T06:57:58Z</time>
      </trkpt>
      <trkpt lat="42.99125" lon="-0.22374">
        <ele>1485</ele>
        <time>2020-05-31T06:57:59Z</time>
      </trkpt>
      <trkpt lat="42.99125" lon="-0.22381">
        <ele>1485.4000244141</ele>
        <time>2020-05-31T06:58:03Z</time>
      </trkpt>
      <trkpt lat="42.99125" lon="-0.22382">
        <ele>1485.8000488281</ele>
        <time>2020-05-31T06:58:04Z</time>
      </trkpt>
      <trkpt lat="42.99125" lon="-0.22384">
        <ele>1486.1999511719</ele>
        <time>2020-05-31T06:58:05Z</time>
      </trkpt>
      <trkpt lat="42.99125" lon="-0.22386">
        <ele>1486.5999755859</ele>
        <time>2020-05-31T06:58:06Z</time>
      </trkpt>
      <trkpt lat="42.99125" lon="-0.22387">
        <ele>1487.1999511719</ele>
        <time>2020-05-31T06:58:07Z</time>
      </trkpt>
      <trkpt lat="42.99126" lon="-0.22392">
        <ele>1487.1999511719</ele>
        <time>2020-05-31T06:58:10Z</time>
      </trkpt>
      <trkpt lat="42.99126" lon="-0.22396">
        <ele>1487.1999511719</ele>
        <time>2020-05-31T06:58:12Z</time>
      </trkpt>
      <trkpt lat="42.99127" lon="-0.224">
        <ele>1487.5999755859</ele>
        <time>2020-05-31T06:58:14Z</time>
      </trkpt>
      <trkpt lat="42.99128" lon="-0.22402">
        <ele>1488</ele>
        <time>2020-05-31T06:58:15Z</time>
      </trkpt>
      <trkpt lat="42.99128" lon="-0.22403">
        <ele>1488.4000244141</ele>
        <time>2020-05-31T06:58:16Z</time>
      </trkpt>
      <trkpt lat="42.99128" lon="-0.22405">
        <ele>1488.8000488281</ele>
        <time>2020-05-31T06:58:17Z</time>
      </trkpt>
      <trkpt lat="42.99128" lon="-0.22407">
        <ele>1489.4000244141</ele>
        <time>2020-05-31T06:58:18Z</time>
      </trkpt>
      <trkpt lat="42.99128" lon="-0.22412">
        <ele>1489.4000244141</ele>
        <time>2020-05-31T06:58:21Z</time>
      </trkpt>
      <trkpt lat="42.99129" lon="-0.22419">
        <ele>1489.4000244141</ele>
        <time>2020-05-31T06:58:24Z</time>
      </trkpt>
      <trkpt lat="42.99129" lon="-0.22421">
        <ele>1489.8000488281</ele>
        <time>2020-05-31T06:58:25Z</time>
      </trkpt>
      <trkpt lat="42.9913" lon="-0.22422">
        <ele>1490.1999511719</ele>
        <time>2020-05-31T06:58:26Z</time>
      </trkpt>
      <trkpt lat="42.9913" lon="-0.22424">
        <ele>1490.5999755859</ele>
        <time>2020-05-31T06:58:27Z</time>
      </trkpt>
      <trkpt lat="42.9913" lon="-0.22426">
        <ele>1491</ele>
        <time>2020-05-31T06:58:28Z</time>
      </trkpt>
      <trkpt lat="42.9913" lon="-0.22427">
        <ele>1491.4000244141</ele>
        <time>2020-05-31T06:58:29Z</time>
      </trkpt>
      <trkpt lat="42.9913" lon="-0.2243">
        <ele>1491.4000244141</ele>
        <time>2020-05-31T06:58:31Z</time>
      </trkpt>
      <trkpt lat="42.99132" lon="-0.22443">
        <ele>1491.8000488281</ele>
        <time>2020-05-31T06:58:38Z</time>
      </trkpt>
      <trkpt lat="42.99132" lon="-0.22445">
        <ele>1492.1999511719</ele>
        <time>2020-05-31T06:58:39Z</time>
      </trkpt>
      <trkpt lat="42.99132" lon="-0.22446">
        <ele>1492.5999755859</ele>
        <time>2020-05-31T06:58:40Z</time>
      </trkpt>
      <trkpt lat="42.99133" lon="-0.22448">
        <ele>1493.1999511719</ele>
        <time>2020-05-31T06:58:41Z</time>
      </trkpt>
      <trkpt lat="42.99133" lon="-0.2245">
        <ele>1493.5999755859</ele>
        <time>2020-05-31T06:58:42Z</time>
      </trkpt>
      <trkpt lat="42.99134" lon="-0.22455">
        <ele>1493.5999755859</ele>
        <time>2020-05-31T06:58:45Z</time>
      </trkpt>
      <trkpt lat="42.99136" lon="-0.22461">
        <ele>1494</ele>
        <time>2020-05-31T06:58:49Z</time>
      </trkpt>
      <trkpt lat="42.99137" lon="-0.22463">
        <ele>1494.4000244141</ele>
        <time>2020-05-31T06:58:50Z</time>
      </trkpt>
      <trkpt lat="42.99137" lon="-0.22464">
        <ele>1494.8000488281</ele>
        <time>2020-05-31T06:58:51Z</time>
      </trkpt>
      <trkpt lat="42.99137" lon="-0.22466">
        <ele>1495.1999511719</ele>
        <time>2020-05-31T06:58:52Z</time>
      </trkpt>
      <trkpt lat="42.99136" lon="-0.22468">
        <ele>1495.5999755859</ele>
        <time>2020-05-31T06:58:53Z</time>
      </trkpt>
      <trkpt lat="42.99138" lon="-0.22478">
        <ele>1495.5999755859</ele>
        <time>2020-05-31T06:58:58Z</time>
      </trkpt>
      <trkpt lat="42.99138" lon="-0.2248">
        <ele>1495.5999755859</ele>
        <time>2020-05-31T06:58:59Z</time>
      </trkpt>
      <trkpt lat="42.99138" lon="-0.22486">
        <ele>1496</ele>
        <time>2020-05-31T06:59:02Z</time>
      </trkpt>
      <trkpt lat="42.99138" lon="-0.22488">
        <ele>1496.4000244141</ele>
        <time>2020-05-31T06:59:03Z</time>
      </trkpt>
      <trkpt lat="42.99138" lon="-0.2249">
        <ele>1496.8000488281</ele>
        <time>2020-05-31T06:59:04Z</time>
      </trkpt>
      <trkpt lat="42.99139" lon="-0.22492">
        <ele>1497.1999511719</ele>
        <time>2020-05-31T06:59:05Z</time>
      </trkpt>
      <trkpt lat="42.99139" lon="-0.22494">
        <ele>1497.5999755859</ele>
        <time>2020-05-31T06:59:06Z</time>
      </trkpt>
      <trkpt lat="42.9914" lon="-0.22495">
        <ele>1497.5999755859</ele>
        <time>2020-05-31T06:59:07Z</time>
      </trkpt>
      <trkpt lat="42.99142" lon="-0.22504">
        <ele>1498.1999511719</ele>
        <time>2020-05-31T06:59:12Z</time>
      </trkpt>
      <trkpt lat="42.99142" lon="-0.22505">
        <ele>1498.5999755859</ele>
        <time>2020-05-31T06:59:13Z</time>
      </trkpt>
      <trkpt lat="42.99143" lon="-0.22507">
        <ele>1499</ele>
        <time>2020-05-31T06:59:14Z</time>
      </trkpt>
      <trkpt lat="42.99143" lon="-0.22509">
        <ele>1499.4000244141</ele>
        <time>2020-05-31T06:59:15Z</time>
      </trkpt>
      <trkpt lat="42.99143" lon="-0.22511">
        <ele>1499.8000488281</ele>
        <time>2020-05-31T06:59:16Z</time>
      </trkpt>
      <trkpt lat="42.99145" lon="-0.22523">
        <ele>1499.8000488281</ele>
        <time>2020-05-31T06:59:23Z</time>
      </trkpt>
      <trkpt lat="42.99146" lon="-0.22524">
        <ele>1500.1999511719</ele>
        <time>2020-05-31T06:59:24Z</time>
      </trkpt>
      <trkpt lat="42.99146" lon="-0.22526">
        <ele>1500.5999755859</ele>
        <time>2020-05-31T06:59:25Z</time>
      </trkpt>
      <trkpt lat="42.99146" lon="-0.22528">
        <ele>1501</ele>
        <time>2020-05-31T06:59:26Z</time>
      </trkpt>
      <trkpt lat="42.99146" lon="-0.22529">
        <ele>1501.4000244141</ele>
        <time>2020-05-31T06:59:27Z</time>
      </trkpt>
      <trkpt lat="42.99146" lon="-0.22531">
        <ele>1501.8000488281</ele>
        <time>2020-05-31T06:59:28Z</time>
      </trkpt>
      <trkpt lat="42.99148" lon="-0.22536">
        <ele>1501.8000488281</ele>
        <time>2020-05-31T06:59:31Z</time>
      </trkpt>
      <trkpt lat="42.9915" lon="-0.22543">
        <ele>1502.5999755859</ele>
        <time>2020-05-31T06:59:35Z</time>
      </trkpt>
      <trkpt lat="42.9915" lon="-0.22545">
        <ele>1503</ele>
        <time>2020-05-31T06:59:36Z</time>
      </trkpt>
      <trkpt lat="42.99151" lon="-0.22547">
        <ele>1503.4000244141</ele>
        <time>2020-05-31T06:59:37Z</time>
      </trkpt>
      <trkpt lat="42.99152" lon="-0.22548">
        <ele>1503.8000488281</ele>
        <time>2020-05-31T06:59:38Z</time>
      </trkpt>
      <trkpt lat="42.9916" lon="-0.22558">
        <ele>1503.8000488281</ele>
        <time>2020-05-31T06:59:45Z</time>
      </trkpt>
      <trkpt lat="42.99162" lon="-0.22562">
        <ele>1504.1999511719</ele>
        <time>2020-05-31T06:59:48Z</time>
      </trkpt>
      <trkpt lat="42.99163" lon="-0.22564">
        <ele>1504.8000488281</ele>
        <time>2020-05-31T06:59:49Z</time>
      </trkpt>
      <trkpt lat="42.99163" lon="-0.22566">
        <ele>1505.1999511719</ele>
        <time>2020-05-31T06:59:50Z</time>
      </trkpt>
      <trkpt lat="42.99164" lon="-0.22567">
        <ele>1505.5999755859</ele>
        <time>2020-05-31T06:59:51Z</time>
      </trkpt>
      <trkpt lat="42.99164" lon="-0.22569">
        <ele>1506</ele>
        <time>2020-05-31T06:59:52Z</time>
      </trkpt>
      <trkpt lat="42.99164" lon="-0.22574">
        <ele>1506.5999755859</ele>
        <time>2020-05-31T06:59:55Z</time>
      </trkpt>
      <trkpt lat="42.99164" lon="-0.22576">
        <ele>1507</ele>
        <time>2020-05-31T06:59:56Z</time>
      </trkpt>
      <trkpt lat="42.99164" lon="-0.22577">
        <ele>1507.4000244141</ele>
        <time>2020-05-31T06:59:57Z</time>
      </trkpt>
      <trkpt lat="42.99165" lon="-0.22579">
        <ele>1507.8000488281</ele>
        <time>2020-05-31T06:59:58Z</time>
      </trkpt>
      <trkpt lat="42.99165" lon="-0.2258">
        <ele>1508.4000244141</ele>
        <time>2020-05-31T06:59:59Z</time>
      </trkpt>
      <trkpt lat="42.99166" lon="-0.22585">
        <ele>1508.4000244141</ele>
        <time>2020-05-31T07:00:02Z</time>
      </trkpt>
      <trkpt lat="42.99163" lon="-0.22593">
        <ele>1508.8000488281</ele>
        <time>2020-05-31T07:00:07Z</time>
      </trkpt>
      <trkpt lat="42.99163" lon="-0.22595">
        <ele>1509.1999511719</ele>
        <time>2020-05-31T07:00:08Z</time>
      </trkpt>
      <trkpt lat="42.99162" lon="-0.22598">
        <ele>1509.5999755859</ele>
        <time>2020-05-31T07:00:09Z</time>
      </trkpt>
      <trkpt lat="42.99162" lon="-0.226">
        <ele>1510</ele>
        <time>2020-05-31T07:00:10Z</time>
      </trkpt>
      <trkpt lat="42.99161" lon="-0.22602">
        <ele>1510.4000244141</ele>
        <time>2020-05-31T07:00:11Z</time>
      </trkpt>
      <trkpt lat="42.99159" lon="-0.22607">
        <ele>1510.4000244141</ele>
        <time>2020-05-31T07:00:14Z</time>
      </trkpt>
      <trkpt lat="42.99153" lon="-0.22617">
        <ele>1510.4000244141</ele>
        <time>2020-05-31T07:00:21Z</time>
      </trkpt>
      <trkpt lat="42.99149" lon="-0.22623">
        <ele>1510.8000488281</ele>
        <time>2020-05-31T07:00:26Z</time>
      </trkpt>
      <trkpt lat="42.99148" lon="-0.22624">
        <ele>1511.1999511719</ele>
        <time>2020-05-31T07:00:27Z</time>
      </trkpt>
      <trkpt lat="42.99147" lon="-0.22625">
        <ele>1511.5999755859</ele>
        <time>2020-05-31T07:00:28Z</time>
      </trkpt>
      <trkpt lat="42.99146" lon="-0.22626">
        <ele>1512</ele>
        <time>2020-05-31T07:00:29Z</time>
      </trkpt>
      <trkpt lat="42.99145" lon="-0.22627">
        <ele>1512.4000244141</ele>
        <time>2020-05-31T07:00:30Z</time>
      </trkpt>
      <trkpt lat="42.99144" lon="-0.22631">
        <ele>1512.4000244141</ele>
        <time>2020-05-31T07:00:35Z</time>
      </trkpt>
      <trkpt lat="42.99144" lon="-0.22631">
        <ele>1512.4000244141</ele>
        <time>2020-05-31T07:00:47Z</time>
      </trkpt>
      <trkpt lat="42.99144" lon="-0.22631">
        <ele>1512.4000244141</ele>
        <time>2020-05-31T07:00:58Z</time>
      </trkpt>
      <trkpt lat="42.99144" lon="-0.22631">
        <ele>1512.4000244141</ele>
        <time>2020-05-31T07:01:11Z</time>
      </trkpt>
      <trkpt lat="42.99138" lon="-0.22636">
        <ele>1512.4000244141</ele>
        <time>2020-05-31T07:01:18Z</time>
      </trkpt>
      <trkpt lat="42.9913" lon="-0.22647">
        <ele>1512.4000244141</ele>
        <time>2020-05-31T07:01:22Z</time>
      </trkpt>
      <trkpt lat="42.99117" lon="-0.22662">
        <ele>1512</ele>
        <time>2020-05-31T07:01:26Z</time>
      </trkpt>
      <trkpt lat="42.99113" lon="-0.22665">
        <ele>1511.5999755859</ele>
        <time>2020-05-31T07:01:27Z</time>
      </trkpt>
      <trkpt lat="42.99109" lon="-0.22669">
        <ele>1511.1999511719</ele>
        <time>2020-05-31T07:01:28Z</time>
      </trkpt>
      <trkpt lat="42.99105" lon="-0.22673">
        <ele>1510.8000488281</ele>
        <time>2020-05-31T07:01:29Z</time>
      </trkpt>
      <trkpt lat="42.99102" lon="-0.22676">
        <ele>1510.4000244141</ele>
        <time>2020-05-31T07:01:30Z</time>
      </trkpt>
      <trkpt lat="42.99092" lon="-0.22686">
        <ele>1510.4000244141</ele>
        <time>2020-05-31T07:01:33Z</time>
      </trkpt>
      <trkpt lat="42.99072" lon="-0.227">
        <ele>1510.4000244141</ele>
        <time>2020-05-31T07:01:39Z</time>
      </trkpt>
      <trkpt lat="42.99054" lon="-0.22711">
        <ele>1510.4000244141</ele>
        <time>2020-05-31T07:01:46Z</time>
      </trkpt>
      <trkpt lat="42.99038" lon="-0.22713">
        <ele>1510.4000244141</ele>
        <time>2020-05-31T07:01:52Z</time>
      </trkpt>
      <trkpt lat="42.99019" lon="-0.22706">
        <ele>1510.4000244141</ele>
        <time>2020-05-31T07:01:59Z</time>
      </trkpt>
      <trkpt lat="42.99006" lon="-0.227">
        <ele>1510.8000488281</ele>
        <time>2020-05-31T07:02:04Z</time>
      </trkpt>
      <trkpt lat="42.99004" lon="-0.22698">
        <ele>1511.1999511719</ele>
        <time>2020-05-31T07:02:05Z</time>
      </trkpt>
      <trkpt lat="42.99002" lon="-0.22697">
        <ele>1511.5999755859</ele>
        <time>2020-05-31T07:02:06Z</time>
      </trkpt>
      <trkpt lat="42.99" lon="-0.22695">
        <ele>1512</ele>
        <time>2020-05-31T07:02:07Z</time>
      </trkpt>
      <trkpt lat="42.98997" lon="-0.22693">
        <ele>1512.5999755859</ele>
        <time>2020-05-31T07:02:08Z</time>
      </trkpt>
      <trkpt lat="42.98987" lon="-0.22683">
        <ele>1512.5999755859</ele>
        <time>2020-05-31T07:02:13Z</time>
      </trkpt>
      <trkpt lat="42.98973" lon="-0.22674">
        <ele>1513</ele>
        <time>2020-05-31T07:02:19Z</time>
      </trkpt>
      <trkpt lat="42.9897" lon="-0.22673">
        <ele>1513.4000244141</ele>
        <time>2020-05-31T07:02:20Z</time>
      </trkpt>
      <trkpt lat="42.98968" lon="-0.22672">
        <ele>1513.8000488281</ele>
        <time>2020-05-31T07:02:21Z</time>
      </trkpt>
      <trkpt lat="42.98966" lon="-0.22672">
        <ele>1514.1999511719</ele>
        <time>2020-05-31T07:02:22Z</time>
      </trkpt>
      <trkpt lat="42.98963" lon="-0.22671">
        <ele>1514.8000488281</ele>
        <time>2020-05-31T07:02:23Z</time>
      </trkpt>
      <trkpt lat="42.98954" lon="-0.22669">
        <ele>1514.8000488281</ele>
        <time>2020-05-31T07:02:27Z</time>
      </trkpt>
      <trkpt lat="42.98934" lon="-0.22669">
        <ele>1514.8000488281</ele>
        <time>2020-05-31T07:02:34Z</time>
      </trkpt>
      <trkpt lat="42.9892" lon="-0.22675">
        <ele>1514.8000488281</ele>
        <time>2020-05-31T07:02:39Z</time>
      </trkpt>
      <trkpt lat="42.98902" lon="-0.22684">
        <ele>1514.8000488281</ele>
        <time>2020-05-31T07:02:46Z</time>
      </trkpt>
      <trkpt lat="42.9889" lon="-0.22687">
        <ele>1515.1999511719</ele>
        <time>2020-05-31T07:02:50Z</time>
      </trkpt>
      <trkpt lat="42.98887" lon="-0.22688">
        <ele>1515.5999755859</ele>
        <time>2020-05-31T07:02:51Z</time>
      </trkpt>
      <trkpt lat="42.98884" lon="-0.22689">
        <ele>1516.4000244141</ele>
        <time>2020-05-31T07:02:52Z</time>
      </trkpt>
      <trkpt lat="42.9888" lon="-0.2269">
        <ele>1516.8000488281</ele>
        <time>2020-05-31T07:02:53Z</time>
      </trkpt>
      <trkpt lat="42.98868" lon="-0.22694">
        <ele>1516.8000488281</ele>
        <time>2020-05-31T07:02:57Z</time>
      </trkpt>
      <trkpt lat="42.98844" lon="-0.22701">
        <ele>1516.8000488281</ele>
        <time>2020-05-31T07:03:04Z</time>
      </trkpt>
      <trkpt lat="42.98824" lon="-0.22713">
        <ele>1516.8000488281</ele>
        <time>2020-05-31T07:03:10Z</time>
      </trkpt>
      <trkpt lat="42.98805" lon="-0.22722">
        <ele>1516.8000488281</ele>
        <time>2020-05-31T07:03:15Z</time>
      </trkpt>
      <trkpt lat="42.98792" lon="-0.22731">
        <ele>1517.1999511719</ele>
        <time>2020-05-31T07:03:19Z</time>
      </trkpt>
      <trkpt lat="42.98789" lon="-0.22733">
        <ele>1517.5999755859</ele>
        <time>2020-05-31T07:03:20Z</time>
      </trkpt>
      <trkpt lat="42.98786" lon="-0.22735">
        <ele>1518</ele>
        <time>2020-05-31T07:03:21Z</time>
      </trkpt>
      <trkpt lat="42.98782" lon="-0.22737">
        <ele>1518.4000244141</ele>
        <time>2020-05-31T07:03:22Z</time>
      </trkpt>
      <trkpt lat="42.98779" lon="-0.22739">
        <ele>1518.8000488281</ele>
        <time>2020-05-31T07:03:23Z</time>
      </trkpt>
      <trkpt lat="42.98759" lon="-0.22747">
        <ele>1518.8000488281</ele>
        <time>2020-05-31T07:03:28Z</time>
      </trkpt>
      <trkpt lat="42.98751" lon="-0.22749">
        <ele>1518.8000488281</ele>
        <time>2020-05-31T07:03:30Z</time>
      </trkpt>
      <trkpt lat="42.98732" lon="-0.22754">
        <ele>1518.8000488281</ele>
        <time>2020-05-31T07:03:34Z</time>
      </trkpt>
      <trkpt lat="42.98724" lon="-0.22759">
        <ele>1518.8000488281</ele>
        <time>2020-05-31T07:03:36Z</time>
      </trkpt>
      <trkpt lat="42.9871" lon="-0.2277">
        <ele>1518.8000488281</ele>
        <time>2020-05-31T07:03:40Z</time>
      </trkpt>
      <trkpt lat="42.98705" lon="-0.22779">
        <ele>1518.8000488281</ele>
        <time>2020-05-31T07:03:42Z</time>
      </trkpt>
      <trkpt lat="42.98696" lon="-0.22799">
        <ele>1518.8000488281</ele>
        <time>2020-05-31T07:03:46Z</time>
      </trkpt>
      <trkpt lat="42.98693" lon="-0.22804">
        <ele>1518.8000488281</ele>
        <time>2020-05-31T07:03:47Z</time>
      </trkpt>
      <trkpt lat="42.98687" lon="-0.22813">
        <ele>1518.8000488281</ele>
        <time>2020-05-31T07:03:49Z</time>
      </trkpt>
      <trkpt lat="42.9868" lon="-0.22818">
        <ele>1518.8000488281</ele>
        <time>2020-05-31T07:03:51Z</time>
      </trkpt>
      <trkpt lat="42.98672" lon="-0.22822">
        <ele>1518.8000488281</ele>
        <time>2020-05-31T07:03:53Z</time>
      </trkpt>
      <trkpt lat="42.98668" lon="-0.22823">
        <ele>1518.8000488281</ele>
        <time>2020-05-31T07:03:54Z</time>
      </trkpt>
      <trkpt lat="42.98659" lon="-0.22823">
        <ele>1518.8000488281</ele>
        <time>2020-05-31T07:03:56Z</time>
      </trkpt>
      <trkpt lat="42.98624" lon="-0.22822">
        <ele>1518.8000488281</ele>
        <time>2020-05-31T07:04:03Z</time>
      </trkpt>
      <trkpt lat="42.98612" lon="-0.22825">
        <ele>1518.8000488281</ele>
        <time>2020-05-31T07:04:05Z</time>
      </trkpt>
      <trkpt lat="42.98594" lon="-0.22831">
        <ele>1518.8000488281</ele>
        <time>2020-05-31T07:04:08Z</time>
      </trkpt>
      <trkpt lat="42.98588" lon="-0.22833">
        <ele>1518.4000244141</ele>
        <time>2020-05-31T07:04:09Z</time>
      </trkpt>
      <trkpt lat="42.98582" lon="-0.22835">
        <ele>1518</ele>
        <time>2020-05-31T07:04:10Z</time>
      </trkpt>
      <trkpt lat="42.98575" lon="-0.22838">
        <ele>1517.5999755859</ele>
        <time>2020-05-31T07:04:11Z</time>
      </trkpt>
      <trkpt lat="42.98569" lon="-0.22841">
        <ele>1517.1999511719</ele>
        <time>2020-05-31T07:04:12Z</time>
      </trkpt>
      <trkpt lat="42.98564" lon="-0.22845">
        <ele>1516.8000488281</ele>
        <time>2020-05-31T07:04:13Z</time>
      </trkpt>
      <trkpt lat="42.98558" lon="-0.2285">
        <ele>1516.8000488281</ele>
        <time>2020-05-31T07:04:14Z</time>
      </trkpt>
      <trkpt lat="42.98537" lon="-0.22867">
        <ele>1516.8000488281</ele>
        <time>2020-05-31T07:04:18Z</time>
      </trkpt>
      <trkpt lat="42.98533" lon="-0.22873">
        <ele>1516.8000488281</ele>
        <time>2020-05-31T07:04:19Z</time>
      </trkpt>
      <trkpt lat="42.98522" lon="-0.22902">
        <ele>1516.4000244141</ele>
        <time>2020-05-31T07:04:23Z</time>
      </trkpt>
      <trkpt lat="42.98521" lon="-0.22912">
        <ele>1516</ele>
        <time>2020-05-31T07:04:24Z</time>
      </trkpt>
      <trkpt lat="42.9852" lon="-0.2292">
        <ele>1515.5999755859</ele>
        <time>2020-05-31T07:04:25Z</time>
      </trkpt>
      <trkpt lat="42.98519" lon="-0.22927">
        <ele>1515</ele>
        <time>2020-05-31T07:04:26Z</time>
      </trkpt>
      <trkpt lat="42.98519" lon="-0.22935">
        <ele>1514.5999755859</ele>
        <time>2020-05-31T07:04:27Z</time>
      </trkpt>
      <trkpt lat="42.98521" lon="-0.22952">
        <ele>1514.5999755859</ele>
        <time>2020-05-31T07:04:29Z</time>
      </trkpt>
      <trkpt lat="42.98523" lon="-0.2296">
        <ele>1513.8000488281</ele>
        <time>2020-05-31T07:04:30Z</time>
      </trkpt>
      <trkpt lat="42.98525" lon="-0.2297">
        <ele>1513.1999511719</ele>
        <time>2020-05-31T07:04:31Z</time>
      </trkpt>
      <trkpt lat="42.98527" lon="-0.22979">
        <ele>1512.5999755859</ele>
        <time>2020-05-31T07:04:32Z</time>
      </trkpt>
      <trkpt lat="42.9853" lon="-0.22987">
        <ele>1512</ele>
        <time>2020-05-31T07:04:33Z</time>
      </trkpt>
      <trkpt lat="42.98535" lon="-0.22996">
        <ele>1511.1999511719</ele>
        <time>2020-05-31T07:04:34Z</time>
      </trkpt>
      <trkpt lat="42.98539" lon="-0.23002">
        <ele>1510.5999755859</ele>
        <time>2020-05-31T07:04:35Z</time>
      </trkpt>
      <trkpt lat="42.98543" lon="-0.23009">
        <ele>1509.8000488281</ele>
        <time>2020-05-31T07:04:36Z</time>
      </trkpt>
      <trkpt lat="42.98547" lon="-0.23015">
        <ele>1509</ele>
        <time>2020-05-31T07:04:37Z</time>
      </trkpt>
      <trkpt lat="42.98551" lon="-0.23021">
        <ele>1508.4000244141</ele>
        <time>2020-05-31T07:04:38Z</time>
      </trkpt>
      <trkpt lat="42.98556" lon="-0.23027">
        <ele>1507.5999755859</ele>
        <time>2020-05-31T07:04:39Z</time>
      </trkpt>
      <trkpt lat="42.98559" lon="-0.23035">
        <ele>1507.1999511719</ele>
        <time>2020-05-31T07:04:40Z</time>
      </trkpt>
      <trkpt lat="42.98563" lon="-0.23045">
        <ele>1506.5999755859</ele>
        <time>2020-05-31T07:04:41Z</time>
      </trkpt>
      <trkpt lat="42.98565" lon="-0.23054">
        <ele>1506.1999511719</ele>
        <time>2020-05-31T07:04:42Z</time>
      </trkpt>
      <trkpt lat="42.98568" lon="-0.23063">
        <ele>1505.5999755859</ele>
        <time>2020-05-31T07:04:43Z</time>
      </trkpt>
      <trkpt lat="42.98571" lon="-0.23072">
        <ele>1505</ele>
        <time>2020-05-31T07:04:44Z</time>
      </trkpt>
      <trkpt lat="42.98573" lon="-0.23081">
        <ele>1504.4000244141</ele>
        <time>2020-05-31T07:04:45Z</time>
      </trkpt>
      <trkpt lat="42.98574" lon="-0.23089">
        <ele>1503.8000488281</ele>
        <time>2020-05-31T07:04:46Z</time>
      </trkpt>
      <trkpt lat="42.98576" lon="-0.23097">
        <ele>1503.1999511719</ele>
        <time>2020-05-31T07:04:47Z</time>
      </trkpt>
      <trkpt lat="42.98578" lon="-0.23114">
        <ele>1502.5999755859</ele>
        <time>2020-05-31T07:04:49Z</time>
      </trkpt>
      <trkpt lat="42.98579" lon="-0.23122">
        <ele>1502.1999511719</ele>
        <time>2020-05-31T07:04:50Z</time>
      </trkpt>
      <trkpt lat="42.9858" lon="-0.23129">
        <ele>1501.5999755859</ele>
        <time>2020-05-31T07:04:51Z</time>
      </trkpt>
      <trkpt lat="42.9858" lon="-0.23137">
        <ele>1501.1999511719</ele>
        <time>2020-05-31T07:04:52Z</time>
      </trkpt>
      <trkpt lat="42.9858" lon="-0.23145">
        <ele>1500.8000488281</ele>
        <time>2020-05-31T07:04:53Z</time>
      </trkpt>
      <trkpt lat="42.98581" lon="-0.23154">
        <ele>1500.1999511719</ele>
        <time>2020-05-31T07:04:54Z</time>
      </trkpt>
      <trkpt lat="42.98581" lon="-0.23163">
        <ele>1499.1999511719</ele>
        <time>2020-05-31T07:04:55Z</time>
      </trkpt>
      <trkpt lat="42.9858" lon="-0.23173">
        <ele>1498.5999755859</ele>
        <time>2020-05-31T07:04:56Z</time>
      </trkpt>
      <trkpt lat="42.98579" lon="-0.23184">
        <ele>1498</ele>
        <time>2020-05-31T07:04:57Z</time>
      </trkpt>
      <trkpt lat="42.98578" lon="-0.23195">
        <ele>1497.4000244141</ele>
        <time>2020-05-31T07:04:58Z</time>
      </trkpt>
      <trkpt lat="42.98577" lon="-0.23206">
        <ele>1496.8000488281</ele>
        <time>2020-05-31T07:04:59Z</time>
      </trkpt>
      <trkpt lat="42.98576" lon="-0.23216">
        <ele>1496.1999511719</ele>
        <time>2020-05-31T07:05:00Z</time>
      </trkpt>
      <trkpt lat="42.98574" lon="-0.23226">
        <ele>1495.4000244141</ele>
        <time>2020-05-31T07:05:01Z</time>
      </trkpt>
      <trkpt lat="42.98573" lon="-0.23237">
        <ele>1494.8000488281</ele>
        <time>2020-05-31T07:05:02Z</time>
      </trkpt>
      <trkpt lat="42.98571" lon="-0.23246">
        <ele>1494.1999511719</ele>
        <time>2020-05-31T07:05:03Z</time>
      </trkpt>
      <trkpt lat="42.98569" lon="-0.23255">
        <ele>1493.4000244141</ele>
        <time>2020-05-31T07:05:04Z</time>
      </trkpt>
      <trkpt lat="42.98565" lon="-0.23277">
        <ele>1493.4000244141</ele>
        <time>2020-05-31T07:05:07Z</time>
      </trkpt>
      <trkpt lat="42.98564" lon="-0.23283">
        <ele>1494</ele>
        <time>2020-05-31T07:05:08Z</time>
      </trkpt>
      <trkpt lat="42.98564" lon="-0.23288">
        <ele>1494.4000244141</ele>
        <time>2020-05-31T07:05:09Z</time>
      </trkpt>
      <trkpt lat="42.98564" lon="-0.23293">
        <ele>1494.8000488281</ele>
        <time>2020-05-31T07:05:10Z</time>
      </trkpt>
      <trkpt lat="42.98564" lon="-0.23298">
        <ele>1495.1999511719</ele>
        <time>2020-05-31T07:05:11Z</time>
      </trkpt>
      <trkpt lat="42.98564" lon="-0.23303">
        <ele>1495.5999755859</ele>
        <time>2020-05-31T07:05:12Z</time>
      </trkpt>
      <trkpt lat="42.98565" lon="-0.23309">
        <ele>1495.5999755859</ele>
        <time>2020-05-31T07:05:13Z</time>
      </trkpt>
      <trkpt lat="42.98569" lon="-0.23323">
        <ele>1495.5999755859</ele>
        <time>2020-05-31T07:05:16Z</time>
      </trkpt>
      <trkpt lat="42.98576" lon="-0.23333">
        <ele>1495.5999755859</ele>
        <time>2020-05-31T07:05:21Z</time>
      </trkpt>
      <trkpt lat="42.98584" lon="-0.23349">
        <ele>1495.5999755859</ele>
        <time>2020-05-31T07:05:26Z</time>
      </trkpt>
      <trkpt lat="42.98586" lon="-0.23374">
        <ele>1495.5999755859</ele>
        <time>2020-05-31T07:05:30Z</time>
      </trkpt>
      <trkpt lat="42.98586" lon="-0.23381">
        <ele>1495.5999755859</ele>
        <time>2020-05-31T07:05:31Z</time>
      </trkpt>
      <trkpt lat="42.98584" lon="-0.23398">
        <ele>1495.1999511719</ele>
        <time>2020-05-31T07:05:33Z</time>
      </trkpt>
      <trkpt lat="42.98584" lon="-0.23408">
        <ele>1494.8000488281</ele>
        <time>2020-05-31T07:05:34Z</time>
      </trkpt>
      <trkpt lat="42.98583" lon="-0.23418">
        <ele>1494.4000244141</ele>
        <time>2020-05-31T07:05:35Z</time>
      </trkpt>
      <trkpt lat="42.98583" lon="-0.23429">
        <ele>1494</ele>
        <time>2020-05-31T07:05:36Z</time>
      </trkpt>
      <trkpt lat="42.98581" lon="-0.2344">
        <ele>1493.1999511719</ele>
        <time>2020-05-31T07:05:37Z</time>
      </trkpt>
      <trkpt lat="42.98578" lon="-0.23451">
        <ele>1492.5999755859</ele>
        <time>2020-05-31T07:05:38Z</time>
      </trkpt>
      <trkpt lat="42.98575" lon="-0.23462">
        <ele>1491.5999755859</ele>
        <time>2020-05-31T07:05:39Z</time>
      </trkpt>
      <trkpt lat="42.98572" lon="-0.23473">
        <ele>1490.8000488281</ele>
        <time>2020-05-31T07:05:40Z</time>
      </trkpt>
      <trkpt lat="42.98569" lon="-0.23483">
        <ele>1489.8000488281</ele>
        <time>2020-05-31T07:05:41Z</time>
      </trkpt>
      <trkpt lat="42.98565" lon="-0.23493">
        <ele>1489</ele>
        <time>2020-05-31T07:05:42Z</time>
      </trkpt>
      <trkpt lat="42.98561" lon="-0.23503">
        <ele>1488</ele>
        <time>2020-05-31T07:05:43Z</time>
      </trkpt>
      <trkpt lat="42.98556" lon="-0.23512">
        <ele>1487</ele>
        <time>2020-05-31T07:05:44Z</time>
      </trkpt>
      <trkpt lat="42.98552" lon="-0.23521">
        <ele>1486.1999511719</ele>
        <time>2020-05-31T07:05:45Z</time>
      </trkpt>
      <trkpt lat="42.9855" lon="-0.23532">
        <ele>1485.5999755859</ele>
        <time>2020-05-31T07:05:46Z</time>
      </trkpt>
      <trkpt lat="42.9855" lon="-0.23542">
        <ele>1484.8000488281</ele>
        <time>2020-05-31T07:05:47Z</time>
      </trkpt>
      <trkpt lat="42.98551" lon="-0.23553">
        <ele>1484</ele>
        <time>2020-05-31T07:05:48Z</time>
      </trkpt>
      <trkpt lat="42.98551" lon="-0.23564">
        <ele>1483.4000244141</ele>
        <time>2020-05-31T07:05:49Z</time>
      </trkpt>
      <trkpt lat="42.98551" lon="-0.23575">
        <ele>1483.4000244141</ele>
        <time>2020-05-31T07:05:50Z</time>
      </trkpt>
      <trkpt lat="42.98551" lon="-0.23587">
        <ele>1482.8000488281</ele>
        <time>2020-05-31T07:05:51Z</time>
      </trkpt>
      <trkpt lat="42.98551" lon="-0.23599">
        <ele>1482.4000244141</ele>
        <time>2020-05-31T07:05:52Z</time>
      </trkpt>
      <trkpt lat="42.98552" lon="-0.2361">
        <ele>1482</ele>
        <time>2020-05-31T07:05:53Z</time>
      </trkpt>
      <trkpt lat="42.98555" lon="-0.23621">
        <ele>1481.1999511719</ele>
        <time>2020-05-31T07:05:54Z</time>
      </trkpt>
      <trkpt lat="42.98557" lon="-0.23632">
        <ele>1480.5999755859</ele>
        <time>2020-05-31T07:05:55Z</time>
      </trkpt>
      <trkpt lat="42.98559" lon="-0.23642">
        <ele>1479.8000488281</ele>
        <time>2020-05-31T07:05:56Z</time>
      </trkpt>
      <trkpt lat="42.9856" lon="-0.23653">
        <ele>1479.1999511719</ele>
        <time>2020-05-31T07:05:57Z</time>
      </trkpt>
      <trkpt lat="42.98559" lon="-0.23664">
        <ele>1478.5999755859</ele>
        <time>2020-05-31T07:05:58Z</time>
      </trkpt>
      <trkpt lat="42.98559" lon="-0.23675">
        <ele>1477.8000488281</ele>
        <time>2020-05-31T07:05:59Z</time>
      </trkpt>
      <trkpt lat="42.9856" lon="-0.23687">
        <ele>1477</ele>
        <time>2020-05-31T07:06:00Z</time>
      </trkpt>
      <trkpt lat="42.98561" lon="-0.23699">
        <ele>1476.4000244141</ele>
        <time>2020-05-31T07:06:01Z</time>
      </trkpt>
      <trkpt lat="42.98563" lon="-0.23712">
        <ele>1475.4000244141</ele>
        <time>2020-05-31T07:06:02Z</time>
      </trkpt>
      <trkpt lat="42.98564" lon="-0.23726">
        <ele>1474.5999755859</ele>
        <time>2020-05-31T07:06:03Z</time>
      </trkpt>
      <trkpt lat="42.98567" lon="-0.23739">
        <ele>1473.5999755859</ele>
        <time>2020-05-31T07:06:04Z</time>
      </trkpt>
      <trkpt lat="42.9857" lon="-0.2375">
        <ele>1472.5999755859</ele>
        <time>2020-05-31T07:06:05Z</time>
      </trkpt>
      <trkpt lat="42.98573" lon="-0.23762">
        <ele>1471.4000244141</ele>
        <time>2020-05-31T07:06:06Z</time>
      </trkpt>
      <trkpt lat="42.98577" lon="-0.23773">
        <ele>1470.4000244141</ele>
        <time>2020-05-31T07:06:07Z</time>
      </trkpt>
      <trkpt lat="42.98579" lon="-0.23786">
        <ele>1469.4000244141</ele>
        <time>2020-05-31T07:06:08Z</time>
      </trkpt>
      <trkpt lat="42.98581" lon="-0.23798">
        <ele>1468.5999755859</ele>
        <time>2020-05-31T07:06:09Z</time>
      </trkpt>
      <trkpt lat="42.98584" lon="-0.2381">
        <ele>1468.1999511719</ele>
        <time>2020-05-31T07:06:10Z</time>
      </trkpt>
      <trkpt lat="42.98588" lon="-0.23821">
        <ele>1467.5999755859</ele>
        <time>2020-05-31T07:06:11Z</time>
      </trkpt>
      <trkpt lat="42.98592" lon="-0.23832">
        <ele>1467.1999511719</ele>
        <time>2020-05-31T07:06:12Z</time>
      </trkpt>
      <trkpt lat="42.98597" lon="-0.23842">
        <ele>1466.8000488281</ele>
        <time>2020-05-31T07:06:13Z</time>
      </trkpt>
      <trkpt lat="42.98602" lon="-0.23851">
        <ele>1466.4000244141</ele>
        <time>2020-05-31T07:06:14Z</time>
      </trkpt>
      <trkpt lat="42.98607" lon="-0.23858">
        <ele>1466</ele>
        <time>2020-05-31T07:06:15Z</time>
      </trkpt>
      <trkpt lat="42.98613" lon="-0.23864">
        <ele>1465.5999755859</ele>
        <time>2020-05-31T07:06:16Z</time>
      </trkpt>
      <trkpt lat="42.9862" lon="-0.2387">
        <ele>1465.1999511719</ele>
        <time>2020-05-31T07:06:17Z</time>
      </trkpt>
      <trkpt lat="42.98633" lon="-0.23881">
        <ele>1465.1999511719</ele>
        <time>2020-05-31T07:06:19Z</time>
      </trkpt>
      <trkpt lat="42.98644" lon="-0.23891">
        <ele>1464.8000488281</ele>
        <time>2020-05-31T07:06:21Z</time>
      </trkpt>
      <trkpt lat="42.98649" lon="-0.23897">
        <ele>1464.4000244141</ele>
        <time>2020-05-31T07:06:22Z</time>
      </trkpt>
      <trkpt lat="42.98652" lon="-0.23903">
        <ele>1464</ele>
        <time>2020-05-31T07:06:23Z</time>
      </trkpt>
      <trkpt lat="42.98655" lon="-0.2391">
        <ele>1463.5999755859</ele>
        <time>2020-05-31T07:06:24Z</time>
      </trkpt>
      <trkpt lat="42.98657" lon="-0.23917">
        <ele>1463.1999511719</ele>
        <time>2020-05-31T07:06:25Z</time>
      </trkpt>
      <trkpt lat="42.98659" lon="-0.23931">
        <ele>1463.1999511719</ele>
        <time>2020-05-31T07:06:27Z</time>
      </trkpt>
      <trkpt lat="42.98659" lon="-0.23946">
        <ele>1463.1999511719</ele>
        <time>2020-05-31T07:06:29Z</time>
      </trkpt>
      <trkpt lat="42.9866" lon="-0.23968">
        <ele>1463.1999511719</ele>
        <time>2020-05-31T07:06:32Z</time>
      </trkpt>
      <trkpt lat="42.98658" lon="-0.24004">
        <ele>1462.5999755859</ele>
        <time>2020-05-31T07:06:37Z</time>
      </trkpt>
      <trkpt lat="42.98657" lon="-0.24012">
        <ele>1462.1999511719</ele>
        <time>2020-05-31T07:06:38Z</time>
      </trkpt>
      <trkpt lat="42.98656" lon="-0.24019">
        <ele>1461.8000488281</ele>
        <time>2020-05-31T07:06:39Z</time>
      </trkpt>
      <trkpt lat="42.98654" lon="-0.24027">
        <ele>1461.4000244141</ele>
        <time>2020-05-31T07:06:40Z</time>
      </trkpt>
      <trkpt lat="42.98653" lon="-0.24035">
        <ele>1461</ele>
        <time>2020-05-31T07:06:41Z</time>
      </trkpt>
      <trkpt lat="42.98652" lon="-0.24044">
        <ele>1460.5999755859</ele>
        <time>2020-05-31T07:06:42Z</time>
      </trkpt>
      <trkpt lat="42.9865" lon="-0.24053">
        <ele>1460</ele>
        <time>2020-05-31T07:06:43Z</time>
      </trkpt>
      <trkpt lat="42.98648" lon="-0.24061">
        <ele>1459.5999755859</ele>
        <time>2020-05-31T07:06:44Z</time>
      </trkpt>
      <trkpt lat="42.98646" lon="-0.2407">
        <ele>1459.1999511719</ele>
        <time>2020-05-31T07:06:45Z</time>
      </trkpt>
      <trkpt lat="42.98643" lon="-0.24079">
        <ele>1458.5999755859</ele>
        <time>2020-05-31T07:06:46Z</time>
      </trkpt>
      <trkpt lat="42.98641" lon="-0.24086">
        <ele>1458</ele>
        <time>2020-05-31T07:06:47Z</time>
      </trkpt>
      <trkpt lat="42.98639" lon="-0.24093">
        <ele>1457.5999755859</ele>
        <time>2020-05-31T07:06:48Z</time>
      </trkpt>
      <trkpt lat="42.98637" lon="-0.24101">
        <ele>1457</ele>
        <time>2020-05-31T07:06:49Z</time>
      </trkpt>
      <trkpt lat="42.98637" lon="-0.2411">
        <ele>1456.4000244141</ele>
        <time>2020-05-31T07:06:50Z</time>
      </trkpt>
      <trkpt lat="42.98637" lon="-0.24118">
        <ele>1456</ele>
        <time>2020-05-31T07:06:51Z</time>
      </trkpt>
      <trkpt lat="42.98637" lon="-0.24126">
        <ele>1455.5999755859</ele>
        <time>2020-05-31T07:06:52Z</time>
      </trkpt>
      <trkpt lat="42.98637" lon="-0.24134">
        <ele>1455.1999511719</ele>
        <time>2020-05-31T07:06:53Z</time>
      </trkpt>
      <trkpt lat="42.98636" lon="-0.24142">
        <ele>1454.8000488281</ele>
        <time>2020-05-31T07:06:54Z</time>
      </trkpt>
      <trkpt lat="42.98636" lon="-0.2415">
        <ele>1454.4000244141</ele>
        <time>2020-05-31T07:06:55Z</time>
      </trkpt>
      <trkpt lat="42.98635" lon="-0.24157">
        <ele>1454</ele>
        <time>2020-05-31T07:06:56Z</time>
      </trkpt>
      <trkpt lat="42.98634" lon="-0.24166">
        <ele>1453.4000244141</ele>
        <time>2020-05-31T07:06:57Z</time>
      </trkpt>
      <trkpt lat="42.98633" lon="-0.24175">
        <ele>1452.4000244141</ele>
        <time>2020-05-31T07:06:58Z</time>
      </trkpt>
      <trkpt lat="42.98632" lon="-0.24183">
        <ele>1451.8000488281</ele>
        <time>2020-05-31T07:06:59Z</time>
      </trkpt>
      <trkpt lat="42.9863" lon="-0.24191">
        <ele>1451.1999511719</ele>
        <time>2020-05-31T07:07:00Z</time>
      </trkpt>
      <trkpt lat="42.98628" lon="-0.242">
        <ele>1450.5999755859</ele>
        <time>2020-05-31T07:07:01Z</time>
      </trkpt>
      <trkpt lat="42.98627" lon="-0.24207">
        <ele>1450</ele>
        <time>2020-05-31T07:07:02Z</time>
      </trkpt>
      <trkpt lat="42.98626" lon="-0.24212">
        <ele>1449.4000244141</ele>
        <time>2020-05-31T07:07:03Z</time>
      </trkpt>
      <trkpt lat="42.98625" lon="-0.24225">
        <ele>1449.4000244141</ele>
        <time>2020-05-31T07:07:05Z</time>
      </trkpt>
      <trkpt lat="42.98626" lon="-0.24232">
        <ele>1449</ele>
        <time>2020-05-31T07:07:06Z</time>
      </trkpt>
      <trkpt lat="42.98626" lon="-0.24239">
        <ele>1448.5999755859</ele>
        <time>2020-05-31T07:07:07Z</time>
      </trkpt>
      <trkpt lat="42.98627" lon="-0.24247">
        <ele>1448.1999511719</ele>
        <time>2020-05-31T07:07:08Z</time>
      </trkpt>
      <trkpt lat="42.98627" lon="-0.24256">
        <ele>1447.8000488281</ele>
        <time>2020-05-31T07:07:09Z</time>
      </trkpt>
      <trkpt lat="42.98627" lon="-0.24265">
        <ele>1447.1999511719</ele>
        <time>2020-05-31T07:07:10Z</time>
      </trkpt>
      <trkpt lat="42.98627" lon="-0.24274">
        <ele>1446.8000488281</ele>
        <time>2020-05-31T07:07:11Z</time>
      </trkpt>
      <trkpt lat="42.98627" lon="-0.24284">
        <ele>1446.1999511719</ele>
        <time>2020-05-31T07:07:12Z</time>
      </trkpt>
      <trkpt lat="42.98626" lon="-0.24293">
        <ele>1445.5999755859</ele>
        <time>2020-05-31T07:07:13Z</time>
      </trkpt>
      <trkpt lat="42.98625" lon="-0.24303">
        <ele>1445</ele>
        <time>2020-05-31T07:07:14Z</time>
      </trkpt>
      <trkpt lat="42.98624" lon="-0.24313">
        <ele>1444.4000244141</ele>
        <time>2020-05-31T07:07:15Z</time>
      </trkpt>
      <trkpt lat="42.98623" lon="-0.24323">
        <ele>1443.5999755859</ele>
        <time>2020-05-31T07:07:16Z</time>
      </trkpt>
      <trkpt lat="42.98622" lon="-0.24333">
        <ele>1443</ele>
        <time>2020-05-31T07:07:17Z</time>
      </trkpt>
      <trkpt lat="42.98622" lon="-0.24344">
        <ele>1442.4000244141</ele>
        <time>2020-05-31T07:07:18Z</time>
      </trkpt>
      <trkpt lat="42.98621" lon="-0.24355">
        <ele>1441.8000488281</ele>
        <time>2020-05-31T07:07:19Z</time>
      </trkpt>
      <trkpt lat="42.9862" lon="-0.24365">
        <ele>1441.1999511719</ele>
        <time>2020-05-31T07:07:20Z</time>
      </trkpt>
      <trkpt lat="42.9862" lon="-0.24377">
        <ele>1440.4000244141</ele>
        <time>2020-05-31T07:07:21Z</time>
      </trkpt>
      <trkpt lat="42.98619" lon="-0.24387">
        <ele>1439.8000488281</ele>
        <time>2020-05-31T07:07:22Z</time>
      </trkpt>
      <trkpt lat="42.98619" lon="-0.24396">
        <ele>1438.5999755859</ele>
        <time>2020-05-31T07:07:23Z</time>
      </trkpt>
      <trkpt lat="42.98619" lon="-0.24414">
        <ele>1438.5999755859</ele>
        <time>2020-05-31T07:07:25Z</time>
      </trkpt>
      <trkpt lat="42.98619" lon="-0.24423">
        <ele>1438.5999755859</ele>
        <time>2020-05-31T07:07:26Z</time>
      </trkpt>
      <trkpt lat="42.9862" lon="-0.24459">
        <ele>1438.5999755859</ele>
        <time>2020-05-31T07:07:31Z</time>
      </trkpt>
      <trkpt lat="42.98622" lon="-0.24487">
        <ele>1439</ele>
        <time>2020-05-31T07:07:36Z</time>
      </trkpt>
      <trkpt lat="42.98622" lon="-0.24492">
        <ele>1439.4000244141</ele>
        <time>2020-05-31T07:07:37Z</time>
      </trkpt>
      <trkpt lat="42.98623" lon="-0.24496">
        <ele>1439.8000488281</ele>
        <time>2020-05-31T07:07:38Z</time>
      </trkpt>
      <trkpt lat="42.98623" lon="-0.24501">
        <ele>1440.1999511719</ele>
        <time>2020-05-31T07:07:39Z</time>
      </trkpt>
      <trkpt lat="42.98624" lon="-0.24505">
        <ele>1440.5999755859</ele>
        <time>2020-05-31T07:07:40Z</time>
      </trkpt>
      <trkpt lat="42.98628" lon="-0.24522">
        <ele>1440.5999755859</ele>
        <time>2020-05-31T07:07:44Z</time>
      </trkpt>
      <trkpt lat="42.9863" lon="-0.24546">
        <ele>1441</ele>
        <time>2020-05-31T07:07:50Z</time>
      </trkpt>
      <trkpt lat="42.9863" lon="-0.2455">
        <ele>1441.4000244141</ele>
        <time>2020-05-31T07:07:51Z</time>
      </trkpt>
      <trkpt lat="42.98629" lon="-0.24554">
        <ele>1442</ele>
        <time>2020-05-31T07:07:52Z</time>
      </trkpt>
      <trkpt lat="42.98629" lon="-0.24557">
        <ele>1442.4000244141</ele>
        <time>2020-05-31T07:07:53Z</time>
      </trkpt>
      <trkpt lat="42.98629" lon="-0.2456">
        <ele>1442.8000488281</ele>
        <time>2020-05-31T07:07:54Z</time>
      </trkpt>
      <trkpt lat="42.98628" lon="-0.2457">
        <ele>1442.8000488281</ele>
        <time>2020-05-31T07:07:57Z</time>
      </trkpt>
      <trkpt lat="42.98622" lon="-0.24581">
        <ele>1443.1999511719</ele>
        <time>2020-05-31T07:08:03Z</time>
      </trkpt>
      <trkpt lat="42.98621" lon="-0.24583">
        <ele>1443.5999755859</ele>
        <time>2020-05-31T07:08:04Z</time>
      </trkpt>
      <trkpt lat="42.9862" lon="-0.24584">
        <ele>1444</ele>
        <time>2020-05-31T07:08:05Z</time>
      </trkpt>
      <trkpt lat="42.98619" lon="-0.24586">
        <ele>1444.4000244141</ele>
        <time>2020-05-31T07:08:06Z</time>
      </trkpt>
      <trkpt lat="42.98618" lon="-0.24588">
        <ele>1444.8000488281</ele>
        <time>2020-05-31T07:08:07Z</time>
      </trkpt>
      <trkpt lat="42.98617" lon="-0.24589">
        <ele>1444.8000488281</ele>
        <time>2020-05-31T07:08:08Z</time>
      </trkpt>
      <trkpt lat="42.9861" lon="-0.24591">
        <ele>1444.8000488281</ele>
        <time>2020-05-31T07:08:11Z</time>
      </trkpt>
      <trkpt lat="42.98604" lon="-0.24592">
        <ele>1444.8000488281</ele>
        <time>2020-05-31T07:08:14Z</time>
      </trkpt>
      <trkpt lat="42.98598" lon="-0.24593">
        <ele>1444.8000488281</ele>
        <time>2020-05-31T07:08:17Z</time>
      </trkpt>
      <trkpt lat="42.98593" lon="-0.24594">
        <ele>1444.8000488281</ele>
        <time>2020-05-31T07:08:19Z</time>
      </trkpt>
      <trkpt lat="42.98589" lon="-0.24595">
        <ele>1445.1999511719</ele>
        <time>2020-05-31T07:08:21Z</time>
      </trkpt>
      <trkpt lat="42.98587" lon="-0.24595">
        <ele>1445.5999755859</ele>
        <time>2020-05-31T07:08:22Z</time>
      </trkpt>
      <trkpt lat="42.98585" lon="-0.24596">
        <ele>1446</ele>
        <time>2020-05-31T07:08:23Z</time>
      </trkpt>
      <trkpt lat="42.98583" lon="-0.24597">
        <ele>1446.4000244141</ele>
        <time>2020-05-31T07:08:24Z</time>
      </trkpt>
      <trkpt lat="42.98581" lon="-0.24598">
        <ele>1446.8000488281</ele>
        <time>2020-05-31T07:08:25Z</time>
      </trkpt>
      <trkpt lat="42.98577" lon="-0.24599">
        <ele>1446.8000488281</ele>
        <time>2020-05-31T07:08:27Z</time>
      </trkpt>
      <trkpt lat="42.98561" lon="-0.24602">
        <ele>1446.8000488281</ele>
        <time>2020-05-31T07:08:35Z</time>
      </trkpt>
      <trkpt lat="42.98559" lon="-0.24602">
        <ele>1447.1999511719</ele>
        <time>2020-05-31T07:08:36Z</time>
      </trkpt>
      <trkpt lat="42.98557" lon="-0.24603">
        <ele>1448</ele>
        <time>2020-05-31T07:08:37Z</time>
      </trkpt>
      <trkpt lat="42.98555" lon="-0.24603">
        <ele>1448.4000244141</ele>
        <time>2020-05-31T07:08:38Z</time>
      </trkpt>
      <trkpt lat="42.98552" lon="-0.24603">
        <ele>1448.8000488281</ele>
        <time>2020-05-31T07:08:39Z</time>
      </trkpt>
      <trkpt lat="42.98542" lon="-0.246">
        <ele>1448.8000488281</ele>
        <time>2020-05-31T07:08:44Z</time>
      </trkpt>
      <trkpt lat="42.9853" lon="-0.24593">
        <ele>1449.4000244141</ele>
        <time>2020-05-31T07:08:51Z</time>
      </trkpt>
      <trkpt lat="42.98529" lon="-0.24591">
        <ele>1449.8000488281</ele>
        <time>2020-05-31T07:08:52Z</time>
      </trkpt>
      <trkpt lat="42.98527" lon="-0.2459">
        <ele>1450.1999511719</ele>
        <time>2020-05-31T07:08:53Z</time>
      </trkpt>
      <trkpt lat="42.98526" lon="-0.24588">
        <ele>1450.5999755859</ele>
        <time>2020-05-31T07:08:54Z</time>
      </trkpt>
      <trkpt lat="42.98524" lon="-0.24586">
        <ele>1451.1999511719</ele>
        <time>2020-05-31T07:08:55Z</time>
      </trkpt>
      <trkpt lat="42.9852" lon="-0.24578">
        <ele>1451.1999511719</ele>
        <time>2020-05-31T07:08:59Z</time>
      </trkpt>
      <trkpt lat="42.98516" lon="-0.24573">
        <ele>1451.5999755859</ele>
        <time>2020-05-31T07:09:02Z</time>
      </trkpt>
      <trkpt lat="42.98515" lon="-0.24572">
        <ele>1452</ele>
        <time>2020-05-31T07:09:03Z</time>
      </trkpt>
      <trkpt lat="42.98514" lon="-0.2457">
        <ele>1452.4000244141</ele>
        <time>2020-05-31T07:09:04Z</time>
      </trkpt>
      <trkpt lat="42.98513" lon="-0.24569">
        <ele>1452.8000488281</ele>
        <time>2020-05-31T07:09:05Z</time>
      </trkpt>
      <trkpt lat="42.98512" lon="-0.24567">
        <ele>1453.1999511719</ele>
        <time>2020-05-31T07:09:06Z</time>
      </trkpt>
      <trkpt lat="42.98511" lon="-0.24564">
        <ele>1453.1999511719</ele>
        <time>2020-05-31T07:09:07Z</time>
      </trkpt>
      <trkpt lat="42.98504" lon="-0.24553">
        <ele>1453.1999511719</ele>
        <time>2020-05-31T07:09:14Z</time>
      </trkpt>
      <trkpt lat="42.98503" lon="-0.24551">
        <ele>1453.5999755859</ele>
        <time>2020-05-31T07:09:15Z</time>
      </trkpt>
      <trkpt lat="42.98502" lon="-0.2455">
        <ele>1454</ele>
        <time>2020-05-31T07:09:16Z</time>
      </trkpt>
      <trkpt lat="42.98501" lon="-0.24549">
        <ele>1454.4000244141</ele>
        <time>2020-05-31T07:09:17Z</time>
      </trkpt>
      <trkpt lat="42.985" lon="-0.24547">
        <ele>1454.8000488281</ele>
        <time>2020-05-31T07:09:18Z</time>
      </trkpt>
      <trkpt lat="42.98499" lon="-0.24545">
        <ele>1455.1999511719</ele>
        <time>2020-05-31T07:09:19Z</time>
      </trkpt>
      <trkpt lat="42.98497" lon="-0.24542">
        <ele>1455.1999511719</ele>
        <time>2020-05-31T07:09:21Z</time>
      </trkpt>
      <trkpt lat="42.98489" lon="-0.24531">
        <ele>1455.8000488281</ele>
        <time>2020-05-31T07:09:28Z</time>
      </trkpt>
      <trkpt lat="42.98488" lon="-0.2453">
        <ele>1456.1999511719</ele>
        <time>2020-05-31T07:09:29Z</time>
      </trkpt>
      <trkpt lat="42.98487" lon="-0.24528">
        <ele>1456.5999755859</ele>
        <time>2020-05-31T07:09:30Z</time>
      </trkpt>
      <trkpt lat="42.98486" lon="-0.24527">
        <ele>1457</ele>
        <time>2020-05-31T07:09:31Z</time>
      </trkpt>
      <trkpt lat="42.98484" lon="-0.24526">
        <ele>1457.5999755859</ele>
        <time>2020-05-31T07:09:32Z</time>
      </trkpt>
      <trkpt lat="42.9848" lon="-0.2452">
        <ele>1457.5999755859</ele>
        <time>2020-05-31T07:09:35Z</time>
      </trkpt>
      <trkpt lat="42.9847" lon="-0.24511">
        <ele>1457.5999755859</ele>
        <time>2020-05-31T07:09:42Z</time>
      </trkpt>
      <trkpt lat="42.98465" lon="-0.24506">
        <ele>1458</ele>
        <time>2020-05-31T07:09:45Z</time>
      </trkpt>
      <trkpt lat="42.98463" lon="-0.24504">
        <ele>1458.4000244141</ele>
        <time>2020-05-31T07:09:46Z</time>
      </trkpt>
      <trkpt lat="42.98462" lon="-0.24503">
        <ele>1458.8000488281</ele>
        <time>2020-05-31T07:09:47Z</time>
      </trkpt>
      <trkpt lat="42.9846" lon="-0.24501">
        <ele>1459.1999511719</ele>
        <time>2020-05-31T07:09:48Z</time>
      </trkpt>
      <trkpt lat="42.98459" lon="-0.245">
        <ele>1459.5999755859</ele>
        <time>2020-05-31T07:09:49Z</time>
      </trkpt>
      <trkpt lat="42.98446" lon="-0.24488">
        <ele>1459.5999755859</ele>
        <time>2020-05-31T07:09:57Z</time>
      </trkpt>
      <trkpt lat="42.98434" lon="-0.24478">
        <ele>1459.5999755859</ele>
        <time>2020-05-31T07:10:03Z</time>
      </trkpt>
      <trkpt lat="42.98422" lon="-0.2447">
        <ele>1459.5999755859</ele>
        <time>2020-05-31T07:10:08Z</time>
      </trkpt>
      <trkpt lat="42.98409" lon="-0.24464">
        <ele>1459.5999755859</ele>
        <time>2020-05-31T07:10:15Z</time>
      </trkpt>
      <trkpt lat="42.98407" lon="-0.24462">
        <ele>1460.4000244141</ele>
        <time>2020-05-31T07:10:16Z</time>
      </trkpt>
      <trkpt lat="42.98405" lon="-0.24461">
        <ele>1460.8000488281</ele>
        <time>2020-05-31T07:10:17Z</time>
      </trkpt>
      <trkpt lat="42.98403" lon="-0.2446">
        <ele>1461.1999511719</ele>
        <time>2020-05-31T07:10:18Z</time>
      </trkpt>
      <trkpt lat="42.98401" lon="-0.24458">
        <ele>1461.5999755859</ele>
        <time>2020-05-31T07:10:19Z</time>
      </trkpt>
      <trkpt lat="42.98399" lon="-0.24457">
        <ele>1461.5999755859</ele>
        <time>2020-05-31T07:10:20Z</time>
      </trkpt>
      <trkpt lat="42.98385" lon="-0.24453">
        <ele>1461.5999755859</ele>
        <time>2020-05-31T07:10:26Z</time>
      </trkpt>
      <trkpt lat="42.98367" lon="-0.24447">
        <ele>1461.5999755859</ele>
        <time>2020-05-31T07:10:34Z</time>
      </trkpt>
      <trkpt lat="42.98361" lon="-0.24445">
        <ele>1461.5999755859</ele>
        <time>2020-05-31T07:10:37Z</time>
      </trkpt>
      <trkpt lat="42.98356" lon="-0.24444">
        <ele>1461.5999755859</ele>
        <time>2020-05-31T07:10:39Z</time>
      </trkpt>
      <trkpt lat="42.9835" lon="-0.24444">
        <ele>1461.5999755859</ele>
        <time>2020-05-31T07:10:42Z</time>
      </trkpt>
      <trkpt lat="42.98341" lon="-0.24446">
        <ele>1461.5999755859</ele>
        <time>2020-05-31T07:10:46Z</time>
      </trkpt>
      <trkpt lat="42.98337" lon="-0.24448">
        <ele>1462</ele>
        <time>2020-05-31T07:10:48Z</time>
      </trkpt>
      <trkpt lat="42.98335" lon="-0.24448">
        <ele>1462.4000244141</ele>
        <time>2020-05-31T07:10:49Z</time>
      </trkpt>
      <trkpt lat="42.98333" lon="-0.24448">
        <ele>1462.8000488281</ele>
        <time>2020-05-31T07:10:50Z</time>
      </trkpt>
      <trkpt lat="42.9833" lon="-0.24448">
        <ele>1463.1999511719</ele>
        <time>2020-05-31T07:10:51Z</time>
      </trkpt>
      <trkpt lat="42.98329" lon="-0.24448">
        <ele>1463.5999755859</ele>
        <time>2020-05-31T07:10:52Z</time>
      </trkpt>
      <trkpt lat="42.98327" lon="-0.24447">
        <ele>1463.5999755859</ele>
        <time>2020-05-31T07:10:53Z</time>
      </trkpt>
      <trkpt lat="42.98312" lon="-0.24438">
        <ele>1463.5999755859</ele>
        <time>2020-05-31T07:11:00Z</time>
      </trkpt>
      <trkpt lat="42.98299" lon="-0.24421">
        <ele>1463.5999755859</ele>
        <time>2020-05-31T07:11:05Z</time>
      </trkpt>
      <trkpt lat="42.98295" lon="-0.24419">
        <ele>1463.5999755859</ele>
        <time>2020-05-31T07:11:06Z</time>
      </trkpt>
      <trkpt lat="42.98284" lon="-0.24418">
        <ele>1463.5999755859</ele>
        <time>2020-05-31T07:11:10Z</time>
      </trkpt>
      <trkpt lat="42.98277" lon="-0.24427">
        <ele>1463.5999755859</ele>
        <time>2020-05-31T07:11:15Z</time>
      </trkpt>
      <trkpt lat="42.98274" lon="-0.24434">
        <ele>1463.5999755859</ele>
        <time>2020-05-31T07:11:18Z</time>
      </trkpt>
      <trkpt lat="42.9827" lon="-0.2444">
        <ele>1464</ele>
        <time>2020-05-31T07:11:21Z</time>
      </trkpt>
      <trkpt lat="42.98269" lon="-0.24442">
        <ele>1464.4000244141</ele>
        <time>2020-05-31T07:11:22Z</time>
      </trkpt>
      <trkpt lat="42.98267" lon="-0.24445">
        <ele>1464.8000488281</ele>
        <time>2020-05-31T07:11:23Z</time>
      </trkpt>
      <trkpt lat="42.98266" lon="-0.24448">
        <ele>1465.1999511719</ele>
        <time>2020-05-31T07:11:24Z</time>
      </trkpt>
      <trkpt lat="42.98264" lon="-0.2445">
        <ele>1465.5999755859</ele>
        <time>2020-05-31T07:11:25Z</time>
      </trkpt>
      <trkpt lat="42.98256" lon="-0.24461">
        <ele>1465.5999755859</ele>
        <time>2020-05-31T07:11:30Z</time>
      </trkpt>
      <trkpt lat="42.98246" lon="-0.24471">
        <ele>1465.5999755859</ele>
        <time>2020-05-31T07:11:36Z</time>
      </trkpt>
      <trkpt lat="42.98237" lon="-0.24474">
        <ele>1466</ele>
        <time>2020-05-31T07:11:40Z</time>
      </trkpt>
      <trkpt lat="42.98235" lon="-0.24475">
        <ele>1466.5999755859</ele>
        <time>2020-05-31T07:11:41Z</time>
      </trkpt>
      <trkpt lat="42.98233" lon="-0.24474">
        <ele>1467</ele>
        <time>2020-05-31T07:11:42Z</time>
      </trkpt>
      <trkpt lat="42.9823" lon="-0.24474">
        <ele>1467.4000244141</ele>
        <time>2020-05-31T07:11:43Z</time>
      </trkpt>
      <trkpt lat="42.98227" lon="-0.24473">
        <ele>1467.8000488281</ele>
        <time>2020-05-31T07:11:44Z</time>
      </trkpt>
      <trkpt lat="42.9822" lon="-0.24473">
        <ele>1467.8000488281</ele>
        <time>2020-05-31T07:11:47Z</time>
      </trkpt>
      <trkpt lat="42.98207" lon="-0.24475">
        <ele>1467.8000488281</ele>
        <time>2020-05-31T07:11:53Z</time>
      </trkpt>
      <trkpt lat="42.98197" lon="-0.24479">
        <ele>1468.1999511719</ele>
        <time>2020-05-31T07:11:57Z</time>
      </trkpt>
      <trkpt lat="42.98195" lon="-0.24481">
        <ele>1468.5999755859</ele>
        <time>2020-05-31T07:11:58Z</time>
      </trkpt>
      <trkpt lat="42.98193" lon="-0.24482">
        <ele>1469</ele>
        <time>2020-05-31T07:11:59Z</time>
      </trkpt>
      <trkpt lat="42.98191" lon="-0.24483">
        <ele>1469.4000244141</ele>
        <time>2020-05-31T07:12:00Z</time>
      </trkpt>
      <trkpt lat="42.98189" lon="-0.24484">
        <ele>1469.8000488281</ele>
        <time>2020-05-31T07:12:01Z</time>
      </trkpt>
      <trkpt lat="42.98173" lon="-0.24491">
        <ele>1469.8000488281</ele>
        <time>2020-05-31T07:12:08Z</time>
      </trkpt>
      <trkpt lat="42.98164" lon="-0.24496">
        <ele>1470.1999511719</ele>
        <time>2020-05-31T07:12:13Z</time>
      </trkpt>
      <trkpt lat="42.98162" lon="-0.24497">
        <ele>1470.5999755859</ele>
        <time>2020-05-31T07:12:14Z</time>
      </trkpt>
      <trkpt lat="42.9816" lon="-0.24498">
        <ele>1471</ele>
        <time>2020-05-31T07:12:15Z</time>
      </trkpt>
      <trkpt lat="42.98157" lon="-0.24499">
        <ele>1471.5999755859</ele>
        <time>2020-05-31T07:12:16Z</time>
      </trkpt>
      <trkpt lat="42.98155" lon="-0.245">
        <ele>1472</ele>
        <time>2020-05-31T07:12:17Z</time>
      </trkpt>
      <trkpt lat="42.98149" lon="-0.24502">
        <ele>1472</ele>
        <time>2020-05-31T07:12:20Z</time>
      </trkpt>
      <trkpt lat="42.98138" lon="-0.2451">
        <ele>1472</ele>
        <time>2020-05-31T07:12:26Z</time>
      </trkpt>
      <trkpt lat="42.98128" lon="-0.24521">
        <ele>1472.4000244141</ele>
        <time>2020-05-31T07:12:32Z</time>
      </trkpt>
      <trkpt lat="42.98127" lon="-0.24523">
        <ele>1472.8000488281</ele>
        <time>2020-05-31T07:12:33Z</time>
      </trkpt>
      <trkpt lat="42.98126" lon="-0.24525">
        <ele>1473.1999511719</ele>
        <time>2020-05-31T07:12:34Z</time>
      </trkpt>
      <trkpt lat="42.98125" lon="-0.24528">
        <ele>1473.5999755859</ele>
        <time>2020-05-31T07:12:35Z</time>
      </trkpt>
      <trkpt lat="42.98123" lon="-0.2453">
        <ele>1474</ele>
        <time>2020-05-31T07:12:36Z</time>
      </trkpt>
      <trkpt lat="42.9812" lon="-0.24534">
        <ele>1474</ele>
        <time>2020-05-31T07:12:38Z</time>
      </trkpt>
      <trkpt lat="42.98113" lon="-0.24545">
        <ele>1474</ele>
        <time>2020-05-31T07:12:43Z</time>
      </trkpt>
      <trkpt lat="42.98112" lon="-0.24548">
        <ele>1475</ele>
        <time>2020-05-31T07:12:44Z</time>
      </trkpt>
      <trkpt lat="42.9811" lon="-0.2455">
        <ele>1475.4000244141</ele>
        <time>2020-05-31T07:12:45Z</time>
      </trkpt>
      <trkpt lat="42.9811" lon="-0.24552">
        <ele>1475.8000488281</ele>
        <time>2020-05-31T07:12:46Z</time>
      </trkpt>
      <trkpt lat="42.98109" lon="-0.24555">
        <ele>1476.1999511719</ele>
        <time>2020-05-31T07:12:47Z</time>
      </trkpt>
      <trkpt lat="42.98105" lon="-0.24562">
        <ele>1476.1999511719</ele>
        <time>2020-05-31T07:12:50Z</time>
      </trkpt>
      <trkpt lat="42.98095" lon="-0.24577">
        <ele>1476.1999511719</ele>
        <time>2020-05-31T07:12:57Z</time>
      </trkpt>
      <trkpt lat="42.98093" lon="-0.24581">
        <ele>1476.5999755859</ele>
        <time>2020-05-31T07:12:59Z</time>
      </trkpt>
      <trkpt lat="42.98091" lon="-0.24583">
        <ele>1477</ele>
        <time>2020-05-31T07:13:00Z</time>
      </trkpt>
      <trkpt lat="42.9809" lon="-0.24585">
        <ele>1477.4000244141</ele>
        <time>2020-05-31T07:13:01Z</time>
      </trkpt>
      <trkpt lat="42.98088" lon="-0.24588">
        <ele>1477.8000488281</ele>
        <time>2020-05-31T07:13:02Z</time>
      </trkpt>
      <trkpt lat="42.98086" lon="-0.2459">
        <ele>1478.1999511719</ele>
        <time>2020-05-31T07:13:03Z</time>
      </trkpt>
      <trkpt lat="42.98084" lon="-0.24592">
        <ele>1478.1999511719</ele>
        <time>2020-05-31T07:13:04Z</time>
      </trkpt>
      <trkpt lat="42.98072" lon="-0.24609">
        <ele>1478.1999511719</ele>
        <time>2020-05-31T07:13:12Z</time>
      </trkpt>
      <trkpt lat="42.98069" lon="-0.24621">
        <ele>1478.5999755859</ele>
        <time>2020-05-31T07:13:16Z</time>
      </trkpt>
      <trkpt lat="42.98068" lon="-0.24624">
        <ele>1479</ele>
        <time>2020-05-31T07:13:17Z</time>
      </trkpt>
      <trkpt lat="42.98067" lon="-0.24627">
        <ele>1479.4000244141</ele>
        <time>2020-05-31T07:13:18Z</time>
      </trkpt>
      <trkpt lat="42.98066" lon="-0.2463">
        <ele>1479.8000488281</ele>
        <time>2020-05-31T07:13:19Z</time>
      </trkpt>
      <trkpt lat="42.98065" lon="-0.24633">
        <ele>1480.1999511719</ele>
        <time>2020-05-31T07:13:20Z</time>
      </trkpt>
      <trkpt lat="42.98065" lon="-0.24648">
        <ele>1480.1999511719</ele>
        <time>2020-05-31T07:13:25Z</time>
      </trkpt>
      <trkpt lat="42.98064" lon="-0.24658">
        <ele>1480.8000488281</ele>
        <time>2020-05-31T07:13:29Z</time>
      </trkpt>
      <trkpt lat="42.98063" lon="-0.2466">
        <ele>1481.1999511719</ele>
        <time>2020-05-31T07:13:30Z</time>
      </trkpt>
      <trkpt lat="42.98063" lon="-0.24663">
        <ele>1481.5999755859</ele>
        <time>2020-05-31T07:13:31Z</time>
      </trkpt>
      <trkpt lat="42.98062" lon="-0.24665">
        <ele>1482</ele>
        <time>2020-05-31T07:13:32Z</time>
      </trkpt>
      <trkpt lat="42.98062" lon="-0.24667">
        <ele>1482.4000244141</ele>
        <time>2020-05-31T07:13:33Z</time>
      </trkpt>
      <trkpt lat="42.9806" lon="-0.2468">
        <ele>1482.8000488281</ele>
        <time>2020-05-31T07:13:39Z</time>
      </trkpt>
      <trkpt lat="42.9806" lon="-0.24683">
        <ele>1483.1999511719</ele>
        <time>2020-05-31T07:13:40Z</time>
      </trkpt>
      <trkpt lat="42.98061" lon="-0.24685">
        <ele>1483.8000488281</ele>
        <time>2020-05-31T07:13:41Z</time>
      </trkpt>
      <trkpt lat="42.98061" lon="-0.24688">
        <ele>1484.1999511719</ele>
        <time>2020-05-31T07:13:42Z</time>
      </trkpt>
      <trkpt lat="42.98061" lon="-0.2469">
        <ele>1484.5999755859</ele>
        <time>2020-05-31T07:13:43Z</time>
      </trkpt>
      <trkpt lat="42.98063" lon="-0.24696">
        <ele>1484.5999755859</ele>
        <time>2020-05-31T07:13:46Z</time>
      </trkpt>
      <trkpt lat="42.98063" lon="-0.24703">
        <ele>1485</ele>
        <time>2020-05-31T07:13:49Z</time>
      </trkpt>
      <trkpt lat="42.98062" lon="-0.24704">
        <ele>1485.4000244141</ele>
        <time>2020-05-31T07:13:50Z</time>
      </trkpt>
      <trkpt lat="42.98062" lon="-0.24706">
        <ele>1485.8000488281</ele>
        <time>2020-05-31T07:13:51Z</time>
      </trkpt>
      <trkpt lat="42.9806" lon="-0.24706">
        <ele>1486.1999511719</ele>
        <time>2020-05-31T07:13:52Z</time>
      </trkpt>
      <trkpt lat="42.98058" lon="-0.24707">
        <ele>1486.5999755859</ele>
        <time>2020-05-31T07:13:53Z</time>
      </trkpt>
      <trkpt lat="42.98055" lon="-0.24705">
        <ele>1486.5999755859</ele>
        <time>2020-05-31T07:13:55Z</time>
      </trkpt>
      <trkpt lat="42.98053" lon="-0.24704">
        <ele>1486.5999755859</ele>
        <time>2020-05-31T07:13:57Z</time>
      </trkpt>
      <trkpt lat="42.98052" lon="-0.24703">
        <ele>1486.5999755859</ele>
        <time>2020-05-31T07:13:58Z</time>
      </trkpt>
      <trkpt lat="42.98052" lon="-0.24702">
        <ele>1486.5999755859</ele>
        <time>2020-05-31T07:14:02Z</time>
      </trkpt>
      <trkpt lat="42.98052" lon="-0.24703">
        <ele>1486.5999755859</ele>
        <time>2020-05-31T07:14:09Z</time>
      </trkpt>
      <trkpt lat="42.98052" lon="-0.24703">
        <ele>1486.5999755859</ele>
        <time>2020-05-31T07:14:22Z</time>
      </trkpt>
      <trkpt lat="42.98052" lon="-0.24703">
        <ele>1486.5999755859</ele>
        <time>2020-05-31T07:14:40Z</time>
      </trkpt>
      <trkpt lat="42.98052" lon="-0.24703">
        <ele>1486.5999755859</ele>
        <time>2020-05-31T07:14:59Z</time>
      </trkpt>
      <trkpt lat="42.98052" lon="-0.24703">
        <ele>1486.5999755859</ele>
        <time>2020-05-31T07:15:17Z</time>
      </trkpt>
      <trkpt lat="42.98052" lon="-0.24703">
        <ele>1486.5999755859</ele>
        <time>2020-05-31T07:15:37Z</time>
      </trkpt>
      <trkpt lat="42.98053" lon="-0.24702">
        <ele>1486.5999755859</ele>
        <time>2020-05-31T07:15:48Z</time>
      </trkpt>
      <trkpt lat="42.98053" lon="-0.24702">
        <ele>1486.5999755859</ele>
        <time>2020-05-31T07:15:58Z</time>
      </trkpt>
      <trkpt lat="42.98054" lon="-0.24694">
        <ele>1486.5999755859</ele>
        <time>2020-05-31T07:16:02Z</time>
      </trkpt>
      <trkpt lat="42.98054" lon="-0.24679">
        <ele>1487</ele>
        <time>2020-05-31T07:16:08Z</time>
      </trkpt>
      <trkpt lat="42.98054" lon="-0.24676">
        <ele>1487.5999755859</ele>
        <time>2020-05-31T07:16:09Z</time>
      </trkpt>
      <trkpt lat="42.98053" lon="-0.24674">
        <ele>1488</ele>
        <time>2020-05-31T07:16:10Z</time>
      </trkpt>
      <trkpt lat="42.98053" lon="-0.24671">
        <ele>1488.4000244141</ele>
        <time>2020-05-31T07:16:11Z</time>
      </trkpt>
      <trkpt lat="42.98052" lon="-0.24669">
        <ele>1488.8000488281</ele>
        <time>2020-05-31T07:16:12Z</time>
      </trkpt>
      <trkpt lat="42.9805" lon="-0.24662">
        <ele>1488.8000488281</ele>
        <time>2020-05-31T07:16:15Z</time>
      </trkpt>
      <trkpt lat="42.98049" lon="-0.24657">
        <ele>1488.8000488281</ele>
        <time>2020-05-31T07:16:17Z</time>
      </trkpt>
      <trkpt lat="42.98047" lon="-0.2465">
        <ele>1488.8000488281</ele>
        <time>2020-05-31T07:16:20Z</time>
      </trkpt>
      <trkpt lat="42.98047" lon="-0.24647">
        <ele>1489.1999511719</ele>
        <time>2020-05-31T07:16:21Z</time>
      </trkpt>
      <trkpt lat="42.98046" lon="-0.24644">
        <ele>1489.5999755859</ele>
        <time>2020-05-31T07:16:22Z</time>
      </trkpt>
      <trkpt lat="42.98046" lon="-0.24641">
        <ele>1490</ele>
        <time>2020-05-31T07:16:23Z</time>
      </trkpt>
      <trkpt lat="42.98046" lon="-0.24639">
        <ele>1490.5999755859</ele>
        <time>2020-05-31T07:16:24Z</time>
      </trkpt>
      <trkpt lat="42.98045" lon="-0.24636">
        <ele>1491</ele>
        <time>2020-05-31T07:16:25Z</time>
      </trkpt>
      <trkpt lat="42.98045" lon="-0.24632">
        <ele>1491</ele>
        <time>2020-05-31T07:16:27Z</time>
      </trkpt>
      <trkpt lat="42.98044" lon="-0.24627">
        <ele>1491</ele>
        <time>2020-05-31T07:16:29Z</time>
      </trkpt>
      <trkpt lat="42.98045" lon="-0.2462">
        <ele>1491.4000244141</ele>
        <time>2020-05-31T07:16:32Z</time>
      </trkpt>
      <trkpt lat="42.98045" lon="-0.24617">
        <ele>1491.8000488281</ele>
        <time>2020-05-31T07:16:33Z</time>
      </trkpt>
      <trkpt lat="42.98045" lon="-0.24614">
        <ele>1492.1999511719</ele>
        <time>2020-05-31T07:16:34Z</time>
      </trkpt>
      <trkpt lat="42.98045" lon="-0.24611">
        <ele>1492.5999755859</ele>
        <time>2020-05-31T07:16:35Z</time>
      </trkpt>
      <trkpt lat="42.98045" lon="-0.24609">
        <ele>1493</ele>
        <time>2020-05-31T07:16:36Z</time>
      </trkpt>
      <trkpt lat="42.98047" lon="-0.24599">
        <ele>1493</ele>
        <time>2020-05-31T07:16:39Z</time>
      </trkpt>
      <trkpt lat="42.98052" lon="-0.24576">
        <ele>1493</ele>
        <time>2020-05-31T07:16:46Z</time>
      </trkpt>
      <trkpt lat="42.98061" lon="-0.24555">
        <ele>1493.4000244141</ele>
        <time>2020-05-31T07:16:53Z</time>
      </trkpt>
      <trkpt lat="42.98063" lon="-0.24552">
        <ele>1493.8000488281</ele>
        <time>2020-05-31T07:16:54Z</time>
      </trkpt>
      <trkpt lat="42.98064" lon="-0.2455">
        <ele>1494.1999511719</ele>
        <time>2020-05-31T07:16:55Z</time>
      </trkpt>
      <trkpt lat="42.98065" lon="-0.24547">
        <ele>1494.5999755859</ele>
        <time>2020-05-31T07:16:56Z</time>
      </trkpt>
      <trkpt lat="42.98066" lon="-0.24544">
        <ele>1495</ele>
        <time>2020-05-31T07:16:57Z</time>
      </trkpt>
      <trkpt lat="42.98067" lon="-0.24537">
        <ele>1495</ele>
        <time>2020-05-31T07:16:59Z</time>
      </trkpt>
      <trkpt lat="42.98067" lon="-0.24527">
        <ele>1495.4000244141</ele>
        <time>2020-05-31T07:17:02Z</time>
      </trkpt>
      <trkpt lat="42.98067" lon="-0.24524">
        <ele>1495.8000488281</ele>
        <time>2020-05-31T07:17:03Z</time>
      </trkpt>
      <trkpt lat="42.98066" lon="-0.24521">
        <ele>1496.1999511719</ele>
        <time>2020-05-31T07:17:04Z</time>
      </trkpt>
      <trkpt lat="42.98064" lon="-0.24518">
        <ele>1496.5999755859</ele>
        <time>2020-05-31T07:17:05Z</time>
      </trkpt>
      <trkpt lat="42.98063" lon="-0.24515">
        <ele>1497</ele>
        <time>2020-05-31T07:17:06Z</time>
      </trkpt>
      <trkpt lat="42.98058" lon="-0.24503">
        <ele>1497</ele>
        <time>2020-05-31T07:17:10Z</time>
      </trkpt>
      <trkpt lat="42.98057" lon="-0.24487">
        <ele>1497</ele>
        <time>2020-05-31T07:17:15Z</time>
      </trkpt>
      <trkpt lat="42.98057" lon="-0.24484">
        <ele>1497.5999755859</ele>
        <time>2020-05-31T07:17:16Z</time>
      </trkpt>
      <trkpt lat="42.98058" lon="-0.24481">
        <ele>1498</ele>
        <time>2020-05-31T07:17:17Z</time>
      </trkpt>
      <trkpt lat="42.98059" lon="-0.24479">
        <ele>1498.4000244141</ele>
        <time>2020-05-31T07:17:18Z</time>
      </trkpt>
      <trkpt lat="42.9806" lon="-0.24476">
        <ele>1498.8000488281</ele>
        <time>2020-05-31T07:17:19Z</time>
      </trkpt>
      <trkpt lat="42.98062" lon="-0.24473">
        <ele>1499.1999511719</ele>
        <time>2020-05-31T07:17:20Z</time>
      </trkpt>
      <trkpt lat="42.98063" lon="-0.2447">
        <ele>1499.1999511719</ele>
        <time>2020-05-31T07:17:21Z</time>
      </trkpt>
      <trkpt lat="42.98075" lon="-0.2446">
        <ele>1499.1999511719</ele>
        <time>2020-05-31T07:17:27Z</time>
      </trkpt>
      <trkpt lat="42.98081" lon="-0.24456">
        <ele>1499.5999755859</ele>
        <time>2020-05-31T07:17:30Z</time>
      </trkpt>
      <trkpt lat="42.98084" lon="-0.24454">
        <ele>1500</ele>
        <time>2020-05-31T07:17:31Z</time>
      </trkpt>
      <trkpt lat="42.98086" lon="-0.24453">
        <ele>1500.4000244141</ele>
        <time>2020-05-31T07:17:32Z</time>
      </trkpt>
      <trkpt lat="42.98088" lon="-0.24451">
        <ele>1500.8000488281</ele>
        <time>2020-05-31T07:17:33Z</time>
      </trkpt>
      <trkpt lat="42.98091" lon="-0.24449">
        <ele>1501.1999511719</ele>
        <time>2020-05-31T07:17:34Z</time>
      </trkpt>
      <trkpt lat="42.98093" lon="-0.24448">
        <ele>1501.1999511719</ele>
        <time>2020-05-31T07:17:35Z</time>
      </trkpt>
      <trkpt lat="42.98107" lon="-0.2444">
        <ele>1501.5999755859</ele>
        <time>2020-05-31T07:17:42Z</time>
      </trkpt>
      <trkpt lat="42.98109" lon="-0.24439">
        <ele>1502</ele>
        <time>2020-05-31T07:17:43Z</time>
      </trkpt>
      <trkpt lat="42.98111" lon="-0.24439">
        <ele>1502.4000244141</ele>
        <time>2020-05-31T07:17:44Z</time>
      </trkpt>
      <trkpt lat="42.98113" lon="-0.24437">
        <ele>1503</ele>
        <time>2020-05-31T07:17:45Z</time>
      </trkpt>
      <trkpt lat="42.98115" lon="-0.24437">
        <ele>1503.4000244141</ele>
        <time>2020-05-31T07:17:46Z</time>
      </trkpt>
      <trkpt lat="42.98122" lon="-0.24433">
        <ele>1503.4000244141</ele>
        <time>2020-05-31T07:17:50Z</time>
      </trkpt>
      <trkpt lat="42.98124" lon="-0.24432">
        <ele>1503.8000488281</ele>
        <time>2020-05-31T07:17:51Z</time>
      </trkpt>
      <trkpt lat="42.98125" lon="-0.24431">
        <ele>1504.1999511719</ele>
        <time>2020-05-31T07:17:52Z</time>
      </trkpt>
      <trkpt lat="42.98127" lon="-0.2443">
        <ele>1504.5999755859</ele>
        <time>2020-05-31T07:17:53Z</time>
      </trkpt>
      <trkpt lat="42.98129" lon="-0.24429">
        <ele>1505</ele>
        <time>2020-05-31T07:17:54Z</time>
      </trkpt>
      <trkpt lat="42.98132" lon="-0.24427">
        <ele>1505.4000244141</ele>
        <time>2020-05-31T07:17:55Z</time>
      </trkpt>
      <trkpt lat="42.98137" lon="-0.24423">
        <ele>1505.4000244141</ele>
        <time>2020-05-31T07:17:58Z</time>
      </trkpt>
      <trkpt lat="42.98145" lon="-0.24408">
        <ele>1505.4000244141</ele>
        <time>2020-05-31T07:18:04Z</time>
      </trkpt>
      <trkpt lat="42.98145" lon="-0.24405">
        <ele>1506.1999511719</ele>
        <time>2020-05-31T07:18:05Z</time>
      </trkpt>
      <trkpt lat="42.98145" lon="-0.24401">
        <ele>1506.5999755859</ele>
        <time>2020-05-31T07:18:06Z</time>
      </trkpt>
      <trkpt lat="42.98144" lon="-0.24397">
        <ele>1507</ele>
        <time>2020-05-31T07:18:07Z</time>
      </trkpt>
      <trkpt lat="42.98144" lon="-0.24394">
        <ele>1507.4000244141</ele>
        <time>2020-05-31T07:18:08Z</time>
      </trkpt>
      <trkpt lat="42.98143" lon="-0.24387">
        <ele>1507.4000244141</ele>
        <time>2020-05-31T07:18:10Z</time>
      </trkpt>
      <trkpt lat="42.98147" lon="-0.24371">
        <ele>1507.4000244141</ele>
        <time>2020-05-31T07:18:15Z</time>
      </trkpt>
      <trkpt lat="42.98158" lon="-0.24355">
        <ele>1507.8000488281</ele>
        <time>2020-05-31T07:18:22Z</time>
      </trkpt>
      <trkpt lat="42.9816" lon="-0.24353">
        <ele>1508.1999511719</ele>
        <time>2020-05-31T07:18:23Z</time>
      </trkpt>
      <trkpt lat="42.98161" lon="-0.24351">
        <ele>1508.8000488281</ele>
        <time>2020-05-31T07:18:24Z</time>
      </trkpt>
      <trkpt lat="42.98163" lon="-0.24348">
        <ele>1509.1999511719</ele>
        <time>2020-05-31T07:18:25Z</time>
      </trkpt>
      <trkpt lat="42.98165" lon="-0.24346">
        <ele>1509.5999755859</ele>
        <time>2020-05-31T07:18:26Z</time>
      </trkpt>
      <trkpt lat="42.98171" lon="-0.24337">
        <ele>1509.5999755859</ele>
        <time>2020-05-31T07:18:30Z</time>
      </trkpt>
      <trkpt lat="42.98177" lon="-0.2433">
        <ele>1510</ele>
        <time>2020-05-31T07:18:34Z</time>
      </trkpt>
      <trkpt lat="42.98179" lon="-0.24328">
        <ele>1510.4000244141</ele>
        <time>2020-05-31T07:18:35Z</time>
      </trkpt>
      <trkpt lat="42.98181" lon="-0.24326">
        <ele>1510.8000488281</ele>
        <time>2020-05-31T07:18:36Z</time>
      </trkpt>
      <trkpt lat="42.98183" lon="-0.24325">
        <ele>1511.1999511719</ele>
        <time>2020-05-31T07:18:37Z</time>
      </trkpt>
      <trkpt lat="42.98185" lon="-0.24324">
        <ele>1511.8000488281</ele>
        <time>2020-05-31T07:18:38Z</time>
      </trkpt>
      <trkpt lat="42.98196" lon="-0.24315">
        <ele>1511.8000488281</ele>
        <time>2020-05-31T07:18:44Z</time>
      </trkpt>
      <trkpt lat="42.982" lon="-0.24312">
        <ele>1512.1999511719</ele>
        <time>2020-05-31T07:18:46Z</time>
      </trkpt>
      <trkpt lat="42.98202" lon="-0.2431">
        <ele>1512.5999755859</ele>
        <time>2020-05-31T07:18:47Z</time>
      </trkpt>
      <trkpt lat="42.98204" lon="-0.24308">
        <ele>1513</ele>
        <time>2020-05-31T07:18:48Z</time>
      </trkpt>
      <trkpt lat="42.98206" lon="-0.24306">
        <ele>1513.4000244141</ele>
        <time>2020-05-31T07:18:49Z</time>
      </trkpt>
      <trkpt lat="42.98208" lon="-0.24304">
        <ele>1513.8000488281</ele>
        <time>2020-05-31T07:18:50Z</time>
      </trkpt>
      <trkpt lat="42.9821" lon="-0.24301">
        <ele>1513.8000488281</ele>
        <time>2020-05-31T07:18:51Z</time>
      </trkpt>
      <trkpt lat="42.98221" lon="-0.24285">
        <ele>1513.8000488281</ele>
        <time>2020-05-31T07:18:57Z</time>
      </trkpt>
      <trkpt lat="42.98226" lon="-0.24274">
        <ele>1514.1999511719</ele>
        <time>2020-05-31T07:19:01Z</time>
      </trkpt>
      <trkpt lat="42.98227" lon="-0.24271">
        <ele>1514.5999755859</ele>
        <time>2020-05-31T07:19:02Z</time>
      </trkpt>
      <trkpt lat="42.98229" lon="-0.24267">
        <ele>1515</ele>
        <time>2020-05-31T07:19:03Z</time>
      </trkpt>
      <trkpt lat="42.9823" lon="-0.24264">
        <ele>1515.4000244141</ele>
        <time>2020-05-31T07:19:04Z</time>
      </trkpt>
      <trkpt lat="42.9823" lon="-0.24261">
        <ele>1515.8000488281</ele>
        <time>2020-05-31T07:19:05Z</time>
      </trkpt>
      <trkpt lat="42.98231" lon="-0.24258">
        <ele>1515.8000488281</ele>
        <time>2020-05-31T07:19:06Z</time>
      </trkpt>
      <trkpt lat="42.98233" lon="-0.24243">
        <ele>1515.8000488281</ele>
        <time>2020-05-31T07:19:11Z</time>
      </trkpt>
      <trkpt lat="42.98234" lon="-0.24231">
        <ele>1516.1999511719</ele>
        <time>2020-05-31T07:19:15Z</time>
      </trkpt>
      <trkpt lat="42.98235" lon="-0.24228">
        <ele>1516.5999755859</ele>
        <time>2020-05-31T07:19:16Z</time>
      </trkpt>
      <trkpt lat="42.98235" lon="-0.24225">
        <ele>1517</ele>
        <time>2020-05-31T07:19:17Z</time>
      </trkpt>
      <trkpt lat="42.98236" lon="-0.24222">
        <ele>1517.4000244141</ele>
        <time>2020-05-31T07:19:18Z</time>
      </trkpt>
      <trkpt lat="42.98236" lon="-0.24219">
        <ele>1517.8000488281</ele>
        <time>2020-05-31T07:19:19Z</time>
      </trkpt>
      <trkpt lat="42.98238" lon="-0.24214">
        <ele>1517.8000488281</ele>
        <time>2020-05-31T07:19:21Z</time>
      </trkpt>
      <trkpt lat="42.98245" lon="-0.24193">
        <ele>1517.8000488281</ele>
        <time>2020-05-31T07:19:28Z</time>
      </trkpt>
      <trkpt lat="42.98247" lon="-0.2419">
        <ele>1518.1999511719</ele>
        <time>2020-05-31T07:19:29Z</time>
      </trkpt>
      <trkpt lat="42.98248" lon="-0.24187">
        <ele>1518.5999755859</ele>
        <time>2020-05-31T07:19:30Z</time>
      </trkpt>
      <trkpt lat="42.98249" lon="-0.24185">
        <ele>1519.1999511719</ele>
        <time>2020-05-31T07:19:31Z</time>
      </trkpt>
      <trkpt lat="42.9825" lon="-0.24182">
        <ele>1519.5999755859</ele>
        <time>2020-05-31T07:19:32Z</time>
      </trkpt>
      <trkpt lat="42.98251" lon="-0.2418">
        <ele>1520</ele>
        <time>2020-05-31T07:19:33Z</time>
      </trkpt>
      <trkpt lat="42.98251" lon="-0.24177">
        <ele>1520</ele>
        <time>2020-05-31T07:19:34Z</time>
      </trkpt>
      <trkpt lat="42.98259" lon="-0.24162">
        <ele>1520.4000244141</ele>
        <time>2020-05-31T07:19:41Z</time>
      </trkpt>
      <trkpt lat="42.9826" lon="-0.24161">
        <ele>1520.8000488281</ele>
        <time>2020-05-31T07:19:42Z</time>
      </trkpt>
      <trkpt lat="42.98261" lon="-0.24159">
        <ele>1521.4000244141</ele>
        <time>2020-05-31T07:19:43Z</time>
      </trkpt>
      <trkpt lat="42.98262" lon="-0.24156">
        <ele>1522.1999511719</ele>
        <time>2020-05-31T07:19:44Z</time>
      </trkpt>
      <trkpt lat="42.98262" lon="-0.2415">
        <ele>1522.1999511719</ele>
        <time>2020-05-31T07:19:46Z</time>
      </trkpt>
      <trkpt lat="42.98268" lon="-0.24138">
        <ele>1522.5999755859</ele>
        <time>2020-05-31T07:19:51Z</time>
      </trkpt>
      <trkpt lat="42.9827" lon="-0.24136">
        <ele>1523</ele>
        <time>2020-05-31T07:19:52Z</time>
      </trkpt>
      <trkpt lat="42.98272" lon="-0.24134">
        <ele>1523.4000244141</ele>
        <time>2020-05-31T07:19:53Z</time>
      </trkpt>
      <trkpt lat="42.98274" lon="-0.24132">
        <ele>1524</ele>
        <time>2020-05-31T07:19:54Z</time>
      </trkpt>
      <trkpt lat="42.98276" lon="-0.2413">
        <ele>1524.4000244141</ele>
        <time>2020-05-31T07:19:55Z</time>
      </trkpt>
      <trkpt lat="42.98278" lon="-0.24126">
        <ele>1524.4000244141</ele>
        <time>2020-05-31T07:19:57Z</time>
      </trkpt>
      <trkpt lat="42.9828" lon="-0.24119">
        <ele>1524.8000488281</ele>
        <time>2020-05-31T07:20:00Z</time>
      </trkpt>
      <trkpt lat="42.9828" lon="-0.24117">
        <ele>1525.1999511719</ele>
        <time>2020-05-31T07:20:01Z</time>
      </trkpt>
      <trkpt lat="42.9828" lon="-0.24115">
        <ele>1525.5999755859</ele>
        <time>2020-05-31T07:20:02Z</time>
      </trkpt>
      <trkpt lat="42.98281" lon="-0.24112">
        <ele>1526</ele>
        <time>2020-05-31T07:20:03Z</time>
      </trkpt>
      <trkpt lat="42.98281" lon="-0.2411">
        <ele>1526.4000244141</ele>
        <time>2020-05-31T07:20:04Z</time>
      </trkpt>
      <trkpt lat="42.98277" lon="-0.24102">
        <ele>1526.4000244141</ele>
        <time>2020-05-31T07:20:08Z</time>
      </trkpt>
      <trkpt lat="42.98274" lon="-0.24103">
        <ele>1526.4000244141</ele>
        <time>2020-05-31T07:20:10Z</time>
      </trkpt>
      <trkpt lat="42.9827" lon="-0.241">
        <ele>1526.4000244141</ele>
        <time>2020-05-31T07:20:13Z</time>
      </trkpt>
      <trkpt lat="42.98268" lon="-0.241">
        <ele>1526.4000244141</ele>
        <time>2020-05-31T07:20:14Z</time>
      </trkpt>
      <trkpt lat="42.98264" lon="-0.24103">
        <ele>1526.4000244141</ele>
        <time>2020-05-31T07:20:18Z</time>
      </trkpt>
      <trkpt lat="42.98263" lon="-0.24104">
        <ele>1526.4000244141</ele>
        <time>2020-05-31T07:20:19Z</time>
      </trkpt>
      <trkpt lat="42.98262" lon="-0.241">
        <ele>1526.4000244141</ele>
        <time>2020-05-31T07:20:22Z</time>
      </trkpt>
      <trkpt lat="42.98263" lon="-0.241">
        <ele>1526.4000244141</ele>
        <time>2020-05-31T07:20:23Z</time>
      </trkpt>
      <trkpt lat="42.98272" lon="-0.241">
        <ele>1526.4000244141</ele>
        <time>2020-05-31T07:20:28Z</time>
      </trkpt>
      <trkpt lat="42.98275" lon="-0.24112">
        <ele>1526.4000244141</ele>
        <time>2020-05-31T07:20:32Z</time>
      </trkpt>
      <trkpt lat="42.9827" lon="-0.24123">
        <ele>1526.4000244141</ele>
        <time>2020-05-31T07:20:35Z</time>
      </trkpt>
      <trkpt lat="42.98267" lon="-0.2413">
        <ele>1526.4000244141</ele>
        <time>2020-05-31T07:20:37Z</time>
      </trkpt>
      <trkpt lat="42.98256" lon="-0.24149">
        <ele>1526.4000244141</ele>
        <time>2020-05-31T07:20:42Z</time>
      </trkpt>
      <trkpt lat="42.98243" lon="-0.24176">
        <ele>1526.4000244141</ele>
        <time>2020-05-31T07:20:48Z</time>
      </trkpt>
      <trkpt lat="42.98232" lon="-0.24207">
        <ele>1526.4000244141</ele>
        <time>2020-05-31T07:20:54Z</time>
      </trkpt>
      <trkpt lat="42.98225" lon="-0.24225">
        <ele>1526</ele>
        <time>2020-05-31T07:20:57Z</time>
      </trkpt>
      <trkpt lat="42.98223" lon="-0.24231">
        <ele>1525</ele>
        <time>2020-05-31T07:20:58Z</time>
      </trkpt>
      <trkpt lat="42.98222" lon="-0.24239">
        <ele>1524.5999755859</ele>
        <time>2020-05-31T07:20:59Z</time>
      </trkpt>
      <trkpt lat="42.9822" lon="-0.24246">
        <ele>1524.1999511719</ele>
        <time>2020-05-31T07:21:00Z</time>
      </trkpt>
      <trkpt lat="42.98217" lon="-0.24253">
        <ele>1524.1999511719</ele>
        <time>2020-05-31T07:21:01Z</time>
      </trkpt>
      <trkpt lat="42.98214" lon="-0.24261">
        <ele>1523.8000488281</ele>
        <time>2020-05-31T07:21:02Z</time>
      </trkpt>
      <trkpt lat="42.98211" lon="-0.24269">
        <ele>1523.1999511719</ele>
        <time>2020-05-31T07:21:03Z</time>
      </trkpt>
      <trkpt lat="42.98206" lon="-0.24276">
        <ele>1522.8000488281</ele>
        <time>2020-05-31T07:21:04Z</time>
      </trkpt>
      <trkpt lat="42.98201" lon="-0.24283">
        <ele>1522.4000244141</ele>
        <time>2020-05-31T07:21:05Z</time>
      </trkpt>
      <trkpt lat="42.98195" lon="-0.24289">
        <ele>1521.8000488281</ele>
        <time>2020-05-31T07:21:06Z</time>
      </trkpt>
      <trkpt lat="42.98185" lon="-0.243">
        <ele>1521.8000488281</ele>
        <time>2020-05-31T07:21:08Z</time>
      </trkpt>
      <trkpt lat="42.9818" lon="-0.24305">
        <ele>1521.8000488281</ele>
        <time>2020-05-31T07:21:09Z</time>
      </trkpt>
      <trkpt lat="42.98165" lon="-0.24319">
        <ele>1521.4000244141</ele>
        <time>2020-05-31T07:21:12Z</time>
      </trkpt>
      <trkpt lat="42.98159" lon="-0.24324">
        <ele>1521</ele>
        <time>2020-05-31T07:21:13Z</time>
      </trkpt>
      <trkpt lat="42.98154" lon="-0.2433">
        <ele>1520.5999755859</ele>
        <time>2020-05-31T07:21:14Z</time>
      </trkpt>
      <trkpt lat="42.98149" lon="-0.24335">
        <ele>1520.1999511719</ele>
        <time>2020-05-31T07:21:15Z</time>
      </trkpt>
      <trkpt lat="42.98145" lon="-0.2434">
        <ele>1519.8000488281</ele>
        <time>2020-05-31T07:21:16Z</time>
      </trkpt>
      <trkpt lat="42.98116" lon="-0.24373">
        <ele>1519.8000488281</ele>
        <time>2020-05-31T07:21:22Z</time>
      </trkpt>
      <trkpt lat="42.98112" lon="-0.24379">
        <ele>1519.4000244141</ele>
        <time>2020-05-31T07:21:23Z</time>
      </trkpt>
      <trkpt lat="42.98107" lon="-0.24384">
        <ele>1519</ele>
        <time>2020-05-31T07:21:24Z</time>
      </trkpt>
      <trkpt lat="42.98102" lon="-0.24389">
        <ele>1518.5999755859</ele>
        <time>2020-05-31T07:21:25Z</time>
      </trkpt>
      <trkpt lat="42.98096" lon="-0.24394">
        <ele>1518.1999511719</ele>
        <time>2020-05-31T07:21:26Z</time>
      </trkpt>
      <trkpt lat="42.98091" lon="-0.24398">
        <ele>1517.5999755859</ele>
        <time>2020-05-31T07:21:27Z</time>
      </trkpt>
      <trkpt lat="42.98085" lon="-0.24402">
        <ele>1517.5999755859</ele>
        <time>2020-05-31T07:21:28Z</time>
      </trkpt>
      <trkpt lat="42.9806" lon="-0.24417">
        <ele>1517.1999511719</ele>
        <time>2020-05-31T07:21:32Z</time>
      </trkpt>
      <trkpt lat="42.98055" lon="-0.24423">
        <ele>1516.8000488281</ele>
        <time>2020-05-31T07:21:33Z</time>
      </trkpt>
      <trkpt lat="42.98049" lon="-0.24429">
        <ele>1516.4000244141</ele>
        <time>2020-05-31T07:21:34Z</time>
      </trkpt>
      <trkpt lat="42.98044" lon="-0.24435">
        <ele>1516</ele>
        <time>2020-05-31T07:21:35Z</time>
      </trkpt>
      <trkpt lat="42.98039" lon="-0.24442">
        <ele>1515.5999755859</ele>
        <time>2020-05-31T07:21:36Z</time>
      </trkpt>
      <trkpt lat="42.98029" lon="-0.24456">
        <ele>1515.5999755859</ele>
        <time>2020-05-31T07:21:38Z</time>
      </trkpt>
      <trkpt lat="42.98026" lon="-0.24464">
        <ele>1515.1999511719</ele>
        <time>2020-05-31T07:21:39Z</time>
      </trkpt>
      <trkpt lat="42.98023" lon="-0.24472">
        <ele>1514.5999755859</ele>
        <time>2020-05-31T07:21:40Z</time>
      </trkpt>
      <trkpt lat="42.9802" lon="-0.24481">
        <ele>1514.1999511719</ele>
        <time>2020-05-31T07:21:41Z</time>
      </trkpt>
      <trkpt lat="42.98019" lon="-0.24491">
        <ele>1513.8000488281</ele>
        <time>2020-05-31T07:21:42Z</time>
      </trkpt>
      <trkpt lat="42.98019" lon="-0.245">
        <ele>1513.4000244141</ele>
        <time>2020-05-31T07:21:43Z</time>
      </trkpt>
      <trkpt lat="42.98021" lon="-0.24522">
        <ele>1513.4000244141</ele>
        <time>2020-05-31T07:21:45Z</time>
      </trkpt>
      <trkpt lat="42.98023" lon="-0.24531">
        <ele>1513.4000244141</ele>
        <time>2020-05-31T07:21:46Z</time>
      </trkpt>
      <trkpt lat="42.98023" lon="-0.24542">
        <ele>1513</ele>
        <time>2020-05-31T07:21:47Z</time>
      </trkpt>
      <trkpt lat="42.98022" lon="-0.24552">
        <ele>1512</ele>
        <time>2020-05-31T07:21:48Z</time>
      </trkpt>
      <trkpt lat="42.9802" lon="-0.24561">
        <ele>1511.5999755859</ele>
        <time>2020-05-31T07:21:49Z</time>
      </trkpt>
      <trkpt lat="42.98019" lon="-0.24571">
        <ele>1511</ele>
        <time>2020-05-31T07:21:50Z</time>
      </trkpt>
      <trkpt lat="42.98014" lon="-0.24624">
        <ele>1511</ele>
        <time>2020-05-31T07:21:56Z</time>
      </trkpt>
      <trkpt lat="42.98008" lon="-0.2465">
        <ele>1511</ele>
        <time>2020-05-31T07:21:59Z</time>
      </trkpt>
      <trkpt lat="42.98001" lon="-0.24664">
        <ele>1511</ele>
        <time>2020-05-31T07:22:01Z</time>
      </trkpt>
      <trkpt lat="42.97997" lon="-0.24668">
        <ele>1511</ele>
        <time>2020-05-31T07:22:02Z</time>
      </trkpt>
      <trkpt lat="42.97989" lon="-0.24673">
        <ele>1511</ele>
        <time>2020-05-31T07:22:04Z</time>
      </trkpt>
      <trkpt lat="42.97976" lon="-0.24686">
        <ele>1511</ele>
        <time>2020-05-31T07:22:08Z</time>
      </trkpt>
      <trkpt lat="42.97964" lon="-0.24694">
        <ele>1511</ele>
        <time>2020-05-31T07:22:11Z</time>
      </trkpt>
      <trkpt lat="42.97949" lon="-0.247">
        <ele>1511</ele>
        <time>2020-05-31T07:22:14Z</time>
      </trkpt>
      <trkpt lat="42.97943" lon="-0.247">
        <ele>1511</ele>
        <time>2020-05-31T07:22:15Z</time>
      </trkpt>
      <trkpt lat="42.97927" lon="-0.24704">
        <ele>1511</ele>
        <time>2020-05-31T07:22:18Z</time>
      </trkpt>
      <trkpt lat="42.97922" lon="-0.24707">
        <ele>1511</ele>
        <time>2020-05-31T07:22:19Z</time>
      </trkpt>
      <trkpt lat="42.97902" lon="-0.24714">
        <ele>1511</ele>
        <time>2020-05-31T07:22:23Z</time>
      </trkpt>
      <trkpt lat="42.97897" lon="-0.24718">
        <ele>1511</ele>
        <time>2020-05-31T07:22:24Z</time>
      </trkpt>
      <trkpt lat="42.97893" lon="-0.24722">
        <ele>1510.5999755859</ele>
        <time>2020-05-31T07:22:25Z</time>
      </trkpt>
      <trkpt lat="42.97889" lon="-0.24728">
        <ele>1510.1999511719</ele>
        <time>2020-05-31T07:22:26Z</time>
      </trkpt>
      <trkpt lat="42.97884" lon="-0.24732">
        <ele>1509.8000488281</ele>
        <time>2020-05-31T07:22:27Z</time>
      </trkpt>
      <trkpt lat="42.97879" lon="-0.24737">
        <ele>1509.4000244141</ele>
        <time>2020-05-31T07:22:28Z</time>
      </trkpt>
      <trkpt lat="42.97874" lon="-0.2474">
        <ele>1509</ele>
        <time>2020-05-31T07:22:29Z</time>
      </trkpt>
      <trkpt lat="42.97864" lon="-0.24748">
        <ele>1509</ele>
        <time>2020-05-31T07:22:31Z</time>
      </trkpt>
      <trkpt lat="42.97844" lon="-0.24764">
        <ele>1509</ele>
        <time>2020-05-31T07:22:35Z</time>
      </trkpt>
      <trkpt lat="42.97833" lon="-0.24769">
        <ele>1509</ele>
        <time>2020-05-31T07:22:37Z</time>
      </trkpt>
      <trkpt lat="42.97823" lon="-0.24773">
        <ele>1509</ele>
        <time>2020-05-31T07:22:39Z</time>
      </trkpt>
      <trkpt lat="42.97806" lon="-0.24772">
        <ele>1509</ele>
        <time>2020-05-31T07:22:42Z</time>
      </trkpt>
      <trkpt lat="42.97788" lon="-0.24764">
        <ele>1508.5999755859</ele>
        <time>2020-05-31T07:22:45Z</time>
      </trkpt>
      <trkpt lat="42.97782" lon="-0.24761">
        <ele>1508.1999511719</ele>
        <time>2020-05-31T07:22:46Z</time>
      </trkpt>
      <trkpt lat="42.97776" lon="-0.24758">
        <ele>1507.8000488281</ele>
        <time>2020-05-31T07:22:47Z</time>
      </trkpt>
      <trkpt lat="42.9777" lon="-0.24755">
        <ele>1507.4000244141</ele>
        <time>2020-05-31T07:22:48Z</time>
      </trkpt>
      <trkpt lat="42.97764" lon="-0.24753">
        <ele>1507</ele>
        <time>2020-05-31T07:22:49Z</time>
      </trkpt>
      <trkpt lat="42.9776" lon="-0.24748">
        <ele>1507</ele>
        <time>2020-05-31T07:22:50Z</time>
      </trkpt>
      <trkpt lat="42.97753" lon="-0.24738">
        <ele>1507</ele>
        <time>2020-05-31T07:22:52Z</time>
      </trkpt>
      <trkpt lat="42.97745" lon="-0.24717">
        <ele>1506.4000244141</ele>
        <time>2020-05-31T07:22:55Z</time>
      </trkpt>
      <trkpt lat="42.97741" lon="-0.24711">
        <ele>1505.8000488281</ele>
        <time>2020-05-31T07:22:56Z</time>
      </trkpt>
      <trkpt lat="42.97737" lon="-0.24706">
        <ele>1505.4000244141</ele>
        <time>2020-05-31T07:22:57Z</time>
      </trkpt>
      <trkpt lat="42.97732" lon="-0.24701">
        <ele>1504.8000488281</ele>
        <time>2020-05-31T07:22:58Z</time>
      </trkpt>
      <trkpt lat="42.97726" lon="-0.24698">
        <ele>1504.1999511719</ele>
        <time>2020-05-31T07:22:59Z</time>
      </trkpt>
      <trkpt lat="42.9772" lon="-0.24697">
        <ele>1504.1999511719</ele>
        <time>2020-05-31T07:23:00Z</time>
      </trkpt>
      <trkpt lat="42.97707" lon="-0.24695">
        <ele>1504.1999511719</ele>
        <time>2020-05-31T07:23:02Z</time>
      </trkpt>
      <trkpt lat="42.97686" lon="-0.24689">
        <ele>1504.1999511719</ele>
        <time>2020-05-31T07:23:05Z</time>
      </trkpt>
      <trkpt lat="42.97663" lon="-0.24687">
        <ele>1503.8000488281</ele>
        <time>2020-05-31T07:23:08Z</time>
      </trkpt>
      <trkpt lat="42.97656" lon="-0.24687">
        <ele>1503.4000244141</ele>
        <time>2020-05-31T07:23:09Z</time>
      </trkpt>
      <trkpt lat="42.97649" lon="-0.24688">
        <ele>1503</ele>
        <time>2020-05-31T07:23:10Z</time>
      </trkpt>
      <trkpt lat="42.97641" lon="-0.2469">
        <ele>1502.4000244141</ele>
        <time>2020-05-31T07:23:11Z</time>
      </trkpt>
      <trkpt lat="42.97635" lon="-0.24694">
        <ele>1502</ele>
        <time>2020-05-31T07:23:12Z</time>
      </trkpt>
      <trkpt lat="42.97622" lon="-0.24706">
        <ele>1502</ele>
        <time>2020-05-31T07:23:14Z</time>
      </trkpt>
      <trkpt lat="42.97617" lon="-0.24712">
        <ele>1501.5999755859</ele>
        <time>2020-05-31T07:23:15Z</time>
      </trkpt>
      <trkpt lat="42.97612" lon="-0.24718">
        <ele>1501.1999511719</ele>
        <time>2020-05-31T07:23:16Z</time>
      </trkpt>
      <trkpt lat="42.97606" lon="-0.24723">
        <ele>1500.8000488281</ele>
        <time>2020-05-31T07:23:17Z</time>
      </trkpt>
      <trkpt lat="42.97601" lon="-0.24728">
        <ele>1500.4000244141</ele>
        <time>2020-05-31T07:23:18Z</time>
      </trkpt>
      <trkpt lat="42.97595" lon="-0.24732">
        <ele>1500</ele>
        <time>2020-05-31T07:23:19Z</time>
      </trkpt>
      <trkpt lat="42.9758" lon="-0.24741">
        <ele>1500.4000244141</ele>
        <time>2020-05-31T07:23:22Z</time>
      </trkpt>
      <trkpt lat="42.97576" lon="-0.24744">
        <ele>1500.8000488281</ele>
        <time>2020-05-31T07:23:23Z</time>
      </trkpt>
      <trkpt lat="42.97571" lon="-0.24746">
        <ele>1501.1999511719</ele>
        <time>2020-05-31T07:23:24Z</time>
      </trkpt>
      <trkpt lat="42.97567" lon="-0.24749">
        <ele>1501.5999755859</ele>
        <time>2020-05-31T07:23:25Z</time>
      </trkpt>
      <trkpt lat="42.97562" lon="-0.24752">
        <ele>1502</ele>
        <time>2020-05-31T07:23:26Z</time>
      </trkpt>
      <trkpt lat="42.97552" lon="-0.24757">
        <ele>1502</ele>
        <time>2020-05-31T07:23:28Z</time>
      </trkpt>
      <trkpt lat="42.97537" lon="-0.24756">
        <ele>1502</ele>
        <time>2020-05-31T07:23:32Z</time>
      </trkpt>
      <trkpt lat="42.97529" lon="-0.24744">
        <ele>1502</ele>
        <time>2020-05-31T07:23:35Z</time>
      </trkpt>
      <trkpt lat="42.97527" lon="-0.24739">
        <ele>1502</ele>
        <time>2020-05-31T07:23:36Z</time>
      </trkpt>
      <trkpt lat="42.97517" lon="-0.24726">
        <ele>1502</ele>
        <time>2020-05-31T07:23:40Z</time>
      </trkpt>
      <trkpt lat="42.97508" lon="-0.2472">
        <ele>1502.4000244141</ele>
        <time>2020-05-31T07:23:44Z</time>
      </trkpt>
      <trkpt lat="42.97505" lon="-0.2472">
        <ele>1502.8000488281</ele>
        <time>2020-05-31T07:23:45Z</time>
      </trkpt>
      <trkpt lat="42.97502" lon="-0.24721">
        <ele>1503.1999511719</ele>
        <time>2020-05-31T07:23:46Z</time>
      </trkpt>
      <trkpt lat="42.97499" lon="-0.24723">
        <ele>1503.5999755859</ele>
        <time>2020-05-31T07:23:47Z</time>
      </trkpt>
      <trkpt lat="42.97496" lon="-0.24726">
        <ele>1504</ele>
        <time>2020-05-31T07:23:48Z</time>
      </trkpt>
      <trkpt lat="42.97493" lon="-0.24728">
        <ele>1504</ele>
        <time>2020-05-31T07:23:49Z</time>
      </trkpt>
      <trkpt lat="42.97482" lon="-0.24732">
        <ele>1504</ele>
        <time>2020-05-31T07:23:53Z</time>
      </trkpt>
      <trkpt lat="42.9747" lon="-0.2473">
        <ele>1504</ele>
        <time>2020-05-31T07:23:58Z</time>
      </trkpt>
      <trkpt lat="42.97464" lon="-0.24731">
        <ele>1504</ele>
        <time>2020-05-31T07:24:01Z</time>
      </trkpt>
      <trkpt lat="42.97462" lon="-0.24731">
        <ele>1504</ele>
        <time>2020-05-31T07:24:02Z</time>
      </trkpt>
      <trkpt lat="42.97461" lon="-0.2473">
        <ele>1504</ele>
        <time>2020-05-31T07:24:03Z</time>
      </trkpt>
      <trkpt lat="42.97461" lon="-0.24729">
        <ele>1504</ele>
        <time>2020-05-31T07:24:06Z</time>
      </trkpt>
      <trkpt lat="42.97461" lon="-0.24729">
        <ele>1504</ele>
        <time>2020-05-31T07:24:14Z</time>
      </trkpt>
      <trkpt lat="42.97461" lon="-0.24729">
        <ele>1504</ele>
        <time>2020-05-31T07:24:20Z</time>
      </trkpt>
      <trkpt lat="42.9746" lon="-0.2473">
        <ele>1504</ele>
        <time>2020-05-31T07:24:21Z</time>
      </trkpt>
      <trkpt lat="42.9746" lon="-0.2473">
        <ele>1504</ele>
        <time>2020-05-31T07:24:26Z</time>
      </trkpt>
      <trkpt lat="42.97459" lon="-0.2473">
        <ele>1504</ele>
        <time>2020-05-31T07:24:27Z</time>
      </trkpt>
      <trkpt lat="42.97447" lon="-0.24733">
        <ele>1504</ele>
        <time>2020-05-31T07:24:32Z</time>
      </trkpt>
      <trkpt lat="42.97442" lon="-0.24735">
        <ele>1504.4000244141</ele>
        <time>2020-05-31T07:24:34Z</time>
      </trkpt>
      <trkpt lat="42.9744" lon="-0.24735">
        <ele>1504.8000488281</ele>
        <time>2020-05-31T07:24:35Z</time>
      </trkpt>
      <trkpt lat="42.97437" lon="-0.24735">
        <ele>1505.1999511719</ele>
        <time>2020-05-31T07:24:36Z</time>
      </trkpt>
      <trkpt lat="42.97435" lon="-0.24736">
        <ele>1505.5999755859</ele>
        <time>2020-05-31T07:24:37Z</time>
      </trkpt>
      <trkpt lat="42.97433" lon="-0.24737">
        <ele>1506</ele>
        <time>2020-05-31T07:24:38Z</time>
      </trkpt>
      <trkpt lat="42.97426" lon="-0.24739">
        <ele>1506</ele>
        <time>2020-05-31T07:24:42Z</time>
      </trkpt>
      <trkpt lat="42.97424" lon="-0.24741">
        <ele>1506.4000244141</ele>
        <time>2020-05-31T07:24:43Z</time>
      </trkpt>
      <trkpt lat="42.97423" lon="-0.24743">
        <ele>1507</ele>
        <time>2020-05-31T07:24:44Z</time>
      </trkpt>
      <trkpt lat="42.97422" lon="-0.24745">
        <ele>1507.4000244141</ele>
        <time>2020-05-31T07:24:45Z</time>
      </trkpt>
      <trkpt lat="42.9742" lon="-0.24746">
        <ele>1507.8000488281</ele>
        <time>2020-05-31T07:24:46Z</time>
      </trkpt>
      <trkpt lat="42.97418" lon="-0.24747">
        <ele>1508.1999511719</ele>
        <time>2020-05-31T07:24:47Z</time>
      </trkpt>
      <trkpt lat="42.97416" lon="-0.24749">
        <ele>1508.1999511719</ele>
        <time>2020-05-31T07:24:48Z</time>
      </trkpt>
      <trkpt lat="42.9741" lon="-0.24755">
        <ele>1508.5999755859</ele>
        <time>2020-05-31T07:24:52Z</time>
      </trkpt>
      <trkpt lat="42.97408" lon="-0.24757">
        <ele>1509</ele>
        <time>2020-05-31T07:24:53Z</time>
      </trkpt>
      <trkpt lat="42.97406" lon="-0.24758">
        <ele>1509.5999755859</ele>
        <time>2020-05-31T07:24:54Z</time>
      </trkpt>
      <trkpt lat="42.97405" lon="-0.24759">
        <ele>1510</ele>
        <time>2020-05-31T07:24:55Z</time>
      </trkpt>
      <trkpt lat="42.97403" lon="-0.24759">
        <ele>1510.4000244141</ele>
        <time>2020-05-31T07:24:56Z</time>
      </trkpt>
      <trkpt lat="42.97392" lon="-0.24761">
        <ele>1510.4000244141</ele>
        <time>2020-05-31T07:25:02Z</time>
      </trkpt>
      <trkpt lat="42.97389" lon="-0.24761">
        <ele>1510.8000488281</ele>
        <time>2020-05-31T07:25:03Z</time>
      </trkpt>
      <trkpt lat="42.97387" lon="-0.24761">
        <ele>1511.1999511719</ele>
        <time>2020-05-31T07:25:04Z</time>
      </trkpt>
      <trkpt lat="42.97385" lon="-0.24761">
        <ele>1511.5999755859</ele>
        <time>2020-05-31T07:25:05Z</time>
      </trkpt>
      <trkpt lat="42.97383" lon="-0.2476">
        <ele>1512.5999755859</ele>
        <time>2020-05-31T07:25:06Z</time>
      </trkpt>
      <trkpt lat="42.97379" lon="-0.24759">
        <ele>1512.5999755859</ele>
        <time>2020-05-31T07:25:08Z</time>
      </trkpt>
      <trkpt lat="42.97365" lon="-0.24754">
        <ele>1513</ele>
        <time>2020-05-31T07:25:15Z</time>
      </trkpt>
      <trkpt lat="42.97363" lon="-0.24754">
        <ele>1513.4000244141</ele>
        <time>2020-05-31T07:25:16Z</time>
      </trkpt>
      <trkpt lat="42.97361" lon="-0.24755">
        <ele>1513.8000488281</ele>
        <time>2020-05-31T07:25:17Z</time>
      </trkpt>
      <trkpt lat="42.97359" lon="-0.24754">
        <ele>1514.1999511719</ele>
        <time>2020-05-31T07:25:18Z</time>
      </trkpt>
      <trkpt lat="42.97357" lon="-0.24754">
        <ele>1514.5999755859</ele>
        <time>2020-05-31T07:25:19Z</time>
      </trkpt>
      <trkpt lat="42.97352" lon="-0.24755">
        <ele>1514.5999755859</ele>
        <time>2020-05-31T07:25:22Z</time>
      </trkpt>
      <trkpt lat="42.9735" lon="-0.24756">
        <ele>1515.1999511719</ele>
        <time>2020-05-31T07:25:23Z</time>
      </trkpt>
      <trkpt lat="42.97348" lon="-0.24757">
        <ele>1515.5999755859</ele>
        <time>2020-05-31T07:25:24Z</time>
      </trkpt>
      <trkpt lat="42.97347" lon="-0.24758">
        <ele>1516</ele>
        <time>2020-05-31T07:25:25Z</time>
      </trkpt>
      <trkpt lat="42.97345" lon="-0.24759">
        <ele>1516.4000244141</ele>
        <time>2020-05-31T07:25:26Z</time>
      </trkpt>
      <trkpt lat="42.97343" lon="-0.2476">
        <ele>1516.8000488281</ele>
        <time>2020-05-31T07:25:27Z</time>
      </trkpt>
      <trkpt lat="42.97339" lon="-0.24762">
        <ele>1516.8000488281</ele>
        <time>2020-05-31T07:25:29Z</time>
      </trkpt>
      <trkpt lat="42.97333" lon="-0.24764">
        <ele>1517.1999511719</ele>
        <time>2020-05-31T07:25:32Z</time>
      </trkpt>
      <trkpt lat="42.97331" lon="-0.24764">
        <ele>1517.5999755859</ele>
        <time>2020-05-31T07:25:33Z</time>
      </trkpt>
      <trkpt lat="42.97329" lon="-0.24765">
        <ele>1518</ele>
        <time>2020-05-31T07:25:34Z</time>
      </trkpt>
      <trkpt lat="42.97327" lon="-0.24765">
        <ele>1518.4000244141</ele>
        <time>2020-05-31T07:25:35Z</time>
      </trkpt>
      <trkpt lat="42.97325" lon="-0.24766">
        <ele>1518.8000488281</ele>
        <time>2020-05-31T07:25:36Z</time>
      </trkpt>
      <trkpt lat="42.97314" lon="-0.24769">
        <ele>1518.8000488281</ele>
        <time>2020-05-31T07:25:41Z</time>
      </trkpt>
      <trkpt lat="42.97301" lon="-0.24775">
        <ele>1518.8000488281</ele>
        <time>2020-05-31T07:25:47Z</time>
      </trkpt>
      <trkpt lat="42.97294" lon="-0.24781">
        <ele>1519.4000244141</ele>
        <time>2020-05-31T07:25:51Z</time>
      </trkpt>
      <trkpt lat="42.97292" lon="-0.24783">
        <ele>1519.8000488281</ele>
        <time>2020-05-31T07:25:52Z</time>
      </trkpt>
      <trkpt lat="42.9729" lon="-0.24784">
        <ele>1520.1999511719</ele>
        <time>2020-05-31T07:25:53Z</time>
      </trkpt>
      <trkpt lat="42.97288" lon="-0.24785">
        <ele>1520.5999755859</ele>
        <time>2020-05-31T07:25:54Z</time>
      </trkpt>
      <trkpt lat="42.97287" lon="-0.24787">
        <ele>1521</ele>
        <time>2020-05-31T07:25:55Z</time>
      </trkpt>
      <trkpt lat="42.97283" lon="-0.24796">
        <ele>1521</ele>
        <time>2020-05-31T07:25:58Z</time>
      </trkpt>
      <trkpt lat="42.97271" lon="-0.24817">
        <ele>1521.5999755859</ele>
        <time>2020-05-31T07:26:06Z</time>
      </trkpt>
      <trkpt lat="42.97269" lon="-0.24821">
        <ele>1522</ele>
        <time>2020-05-31T07:26:07Z</time>
      </trkpt>
      <trkpt lat="42.97268" lon="-0.24824">
        <ele>1522.4000244141</ele>
        <time>2020-05-31T07:26:08Z</time>
      </trkpt>
      <trkpt lat="42.97266" lon="-0.24827">
        <ele>1522.8000488281</ele>
        <time>2020-05-31T07:26:09Z</time>
      </trkpt>
      <trkpt lat="42.97264" lon="-0.2483">
        <ele>1523.1999511719</ele>
        <time>2020-05-31T07:26:10Z</time>
      </trkpt>
      <trkpt lat="42.97262" lon="-0.24837">
        <ele>1523.1999511719</ele>
        <time>2020-05-31T07:26:12Z</time>
      </trkpt>
      <trkpt lat="42.97251" lon="-0.2486">
        <ele>1523.1999511719</ele>
        <time>2020-05-31T07:26:20Z</time>
      </trkpt>
      <trkpt lat="42.97248" lon="-0.24865">
        <ele>1523.1999511719</ele>
        <time>2020-05-31T07:26:22Z</time>
      </trkpt>
      <trkpt lat="42.97245" lon="-0.24869">
        <ele>1523.5999755859</ele>
        <time>2020-05-31T07:26:24Z</time>
      </trkpt>
      <trkpt lat="42.97243" lon="-0.24871">
        <ele>1524</ele>
        <time>2020-05-31T07:26:25Z</time>
      </trkpt>
      <trkpt lat="42.97242" lon="-0.24873">
        <ele>1524.4000244141</ele>
        <time>2020-05-31T07:26:26Z</time>
      </trkpt>
      <trkpt lat="42.9724" lon="-0.24875">
        <ele>1524.8000488281</ele>
        <time>2020-05-31T07:26:27Z</time>
      </trkpt>
      <trkpt lat="42.97239" lon="-0.24877">
        <ele>1525.4000244141</ele>
        <time>2020-05-31T07:26:28Z</time>
      </trkpt>
      <trkpt lat="42.9723" lon="-0.24885">
        <ele>1525.4000244141</ele>
        <time>2020-05-31T07:26:32Z</time>
      </trkpt>
      <trkpt lat="42.97216" lon="-0.24903">
        <ele>1525.4000244141</ele>
        <time>2020-05-31T07:26:37Z</time>
      </trkpt>
      <trkpt lat="42.97207" lon="-0.24913">
        <ele>1525.4000244141</ele>
        <time>2020-05-31T07:26:39Z</time>
      </trkpt>
      <trkpt lat="42.97204" lon="-0.2492">
        <ele>1524.8000488281</ele>
        <time>2020-05-31T07:26:40Z</time>
      </trkpt>
      <trkpt lat="42.97202" lon="-0.24927">
        <ele>1524.4000244141</ele>
        <time>2020-05-31T07:26:41Z</time>
      </trkpt>
      <trkpt lat="42.97201" lon="-0.24934">
        <ele>1524</ele>
        <time>2020-05-31T07:26:42Z</time>
      </trkpt>
      <trkpt lat="42.972" lon="-0.2494">
        <ele>1523.5999755859</ele>
        <time>2020-05-31T07:26:43Z</time>
      </trkpt>
      <trkpt lat="42.97199" lon="-0.24946">
        <ele>1523.1999511719</ele>
        <time>2020-05-31T07:26:44Z</time>
      </trkpt>
      <trkpt lat="42.97198" lon="-0.24951">
        <ele>1523.1999511719</ele>
        <time>2020-05-31T07:26:45Z</time>
      </trkpt>
      <trkpt lat="42.9719" lon="-0.24979">
        <ele>1523.1999511719</ele>
        <time>2020-05-31T07:26:51Z</time>
      </trkpt>
      <trkpt lat="42.97186" lon="-0.25009">
        <ele>1523.1999511719</ele>
        <time>2020-05-31T07:26:57Z</time>
      </trkpt>
      <trkpt lat="42.97186" lon="-0.25015">
        <ele>1523.1999511719</ele>
        <time>2020-05-31T07:26:58Z</time>
      </trkpt>
      <trkpt lat="42.97184" lon="-0.25032">
        <ele>1523.1999511719</ele>
        <time>2020-05-31T07:27:01Z</time>
      </trkpt>
      <trkpt lat="42.97183" lon="-0.25044">
        <ele>1523.1999511719</ele>
        <time>2020-05-31T07:27:03Z</time>
      </trkpt>
      <trkpt lat="42.9718" lon="-0.25072">
        <ele>1523.1999511719</ele>
        <time>2020-05-31T07:27:08Z</time>
      </trkpt>
      <trkpt lat="42.97173" lon="-0.25106">
        <ele>1523.5999755859</ele>
        <time>2020-05-31T07:27:15Z</time>
      </trkpt>
      <trkpt lat="42.97172" lon="-0.25111">
        <ele>1524</ele>
        <time>2020-05-31T07:27:16Z</time>
      </trkpt>
      <trkpt lat="42.97172" lon="-0.25116">
        <ele>1524.4000244141</ele>
        <time>2020-05-31T07:27:17Z</time>
      </trkpt>
      <trkpt lat="42.97172" lon="-0.25121">
        <ele>1524.8000488281</ele>
        <time>2020-05-31T07:27:18Z</time>
      </trkpt>
      <trkpt lat="42.97171" lon="-0.25126">
        <ele>1525.1999511719</ele>
        <time>2020-05-31T07:27:19Z</time>
      </trkpt>
      <trkpt lat="42.97172" lon="-0.25132">
        <ele>1525.1999511719</ele>
        <time>2020-05-31T07:27:20Z</time>
      </trkpt>
      <trkpt lat="42.97172" lon="-0.25138">
        <ele>1525.1999511719</ele>
        <time>2020-05-31T07:27:21Z</time>
      </trkpt>
      <trkpt lat="42.97174" lon="-0.25151">
        <ele>1525.1999511719</ele>
        <time>2020-05-31T07:27:23Z</time>
      </trkpt>
      <trkpt lat="42.97178" lon="-0.25163">
        <ele>1525.1999511719</ele>
        <time>2020-05-31T07:27:25Z</time>
      </trkpt>
      <trkpt lat="42.97179" lon="-0.25169">
        <ele>1525.1999511719</ele>
        <time>2020-05-31T07:27:26Z</time>
      </trkpt>
      <trkpt lat="42.97186" lon="-0.25206">
        <ele>1524.8000488281</ele>
        <time>2020-05-31T07:27:31Z</time>
      </trkpt>
      <trkpt lat="42.97188" lon="-0.25214">
        <ele>1524.4000244141</ele>
        <time>2020-05-31T07:27:32Z</time>
      </trkpt>
      <trkpt lat="42.97191" lon="-0.25222">
        <ele>1524</ele>
        <time>2020-05-31T07:27:33Z</time>
      </trkpt>
      <trkpt lat="42.97193" lon="-0.25229">
        <ele>1523.5999755859</ele>
        <time>2020-05-31T07:27:34Z</time>
      </trkpt>
      <trkpt lat="42.97196" lon="-0.25237">
        <ele>1523.1999511719</ele>
        <time>2020-05-31T07:27:35Z</time>
      </trkpt>
      <trkpt lat="42.97199" lon="-0.25244">
        <ele>1522.8000488281</ele>
        <time>2020-05-31T07:27:36Z</time>
      </trkpt>
      <trkpt lat="42.97202" lon="-0.25253">
        <ele>1522.4000244141</ele>
        <time>2020-05-31T07:27:37Z</time>
      </trkpt>
      <trkpt lat="42.97204" lon="-0.25262">
        <ele>1522</ele>
        <time>2020-05-31T07:27:38Z</time>
      </trkpt>
      <trkpt lat="42.97206" lon="-0.25271">
        <ele>1521.5999755859</ele>
        <time>2020-05-31T07:27:39Z</time>
      </trkpt>
      <trkpt lat="42.97207" lon="-0.25281">
        <ele>1521.1999511719</ele>
        <time>2020-05-31T07:27:40Z</time>
      </trkpt>
      <trkpt lat="42.97208" lon="-0.25291">
        <ele>1520.8000488281</ele>
        <time>2020-05-31T07:27:41Z</time>
      </trkpt>
      <trkpt lat="42.97208" lon="-0.25301">
        <ele>1520.1999511719</ele>
        <time>2020-05-31T07:27:42Z</time>
      </trkpt>
      <trkpt lat="42.97208" lon="-0.2531">
        <ele>1519.8000488281</ele>
        <time>2020-05-31T07:27:43Z</time>
      </trkpt>
      <trkpt lat="42.97207" lon="-0.25319">
        <ele>1519.4000244141</ele>
        <time>2020-05-31T07:27:44Z</time>
      </trkpt>
      <trkpt lat="42.97206" lon="-0.25328">
        <ele>1519</ele>
        <time>2020-05-31T07:27:45Z</time>
      </trkpt>
      <trkpt lat="42.97205" lon="-0.25344">
        <ele>1519</ele>
        <time>2020-05-31T07:27:47Z</time>
      </trkpt>
      <trkpt lat="42.97203" lon="-0.25361">
        <ele>1519</ele>
        <time>2020-05-31T07:27:49Z</time>
      </trkpt>
      <trkpt lat="42.97201" lon="-0.25381">
        <ele>1519</ele>
        <time>2020-05-31T07:27:51Z</time>
      </trkpt>
      <trkpt lat="42.97197" lon="-0.25403">
        <ele>1518.4000244141</ele>
        <time>2020-05-31T07:27:53Z</time>
      </trkpt>
      <trkpt lat="42.97194" lon="-0.25414">
        <ele>1517.8000488281</ele>
        <time>2020-05-31T07:27:54Z</time>
      </trkpt>
      <trkpt lat="42.9719" lon="-0.25425">
        <ele>1517.1999511719</ele>
        <time>2020-05-31T07:27:55Z</time>
      </trkpt>
      <trkpt lat="42.97186" lon="-0.25436">
        <ele>1516.5999755859</ele>
        <time>2020-05-31T07:27:56Z</time>
      </trkpt>
      <trkpt lat="42.97182" lon="-0.25446">
        <ele>1515.8000488281</ele>
        <time>2020-05-31T07:27:57Z</time>
      </trkpt>
      <trkpt lat="42.97178" lon="-0.25457">
        <ele>1515.1999511719</ele>
        <time>2020-05-31T07:27:58Z</time>
      </trkpt>
      <trkpt lat="42.97174" lon="-0.25467">
        <ele>1513.8000488281</ele>
        <time>2020-05-31T07:27:59Z</time>
      </trkpt>
      <trkpt lat="42.9717" lon="-0.25478">
        <ele>1513.4000244141</ele>
        <time>2020-05-31T07:28:00Z</time>
      </trkpt>
      <trkpt lat="42.97166" lon="-0.25489">
        <ele>1512.8000488281</ele>
        <time>2020-05-31T07:28:01Z</time>
      </trkpt>
      <trkpt lat="42.97162" lon="-0.25501">
        <ele>1512.4000244141</ele>
        <time>2020-05-31T07:28:02Z</time>
      </trkpt>
      <trkpt lat="42.97158" lon="-0.25513">
        <ele>1512</ele>
        <time>2020-05-31T07:28:03Z</time>
      </trkpt>
      <trkpt lat="42.97155" lon="-0.25524">
        <ele>1511.4000244141</ele>
        <time>2020-05-31T07:28:04Z</time>
      </trkpt>
      <trkpt lat="42.9715" lon="-0.25534">
        <ele>1511.4000244141</ele>
        <time>2020-05-31T07:28:05Z</time>
      </trkpt>
      <trkpt lat="42.97146" lon="-0.25544">
        <ele>1511.4000244141</ele>
        <time>2020-05-31T07:28:06Z</time>
      </trkpt>
      <trkpt lat="42.97137" lon="-0.25568">
        <ele>1511.4000244141</ele>
        <time>2020-05-31T07:28:09Z</time>
      </trkpt>
      <trkpt lat="42.97122" lon="-0.2558">
        <ele>1511.4000244141</ele>
        <time>2020-05-31T07:28:12Z</time>
      </trkpt>
      <trkpt lat="42.97117" lon="-0.25591">
        <ele>1511.4000244141</ele>
        <time>2020-05-31T07:28:14Z</time>
      </trkpt>
      <trkpt lat="42.97123" lon="-0.25606">
        <ele>1511.4000244141</ele>
        <time>2020-05-31T07:28:17Z</time>
      </trkpt>
      <trkpt lat="42.97132" lon="-0.25625">
        <ele>1511.4000244141</ele>
        <time>2020-05-31T07:28:21Z</time>
      </trkpt>
      <trkpt lat="42.97133" lon="-0.2563">
        <ele>1511.4000244141</ele>
        <time>2020-05-31T07:28:22Z</time>
      </trkpt>
      <trkpt lat="42.97135" lon="-0.25652">
        <ele>1511.4000244141</ele>
        <time>2020-05-31T07:28:26Z</time>
      </trkpt>
      <trkpt lat="42.97134" lon="-0.25689">
        <ele>1511.4000244141</ele>
        <time>2020-05-31T07:28:33Z</time>
      </trkpt>
      <trkpt lat="42.97132" lon="-0.257">
        <ele>1512</ele>
        <time>2020-05-31T07:28:36Z</time>
      </trkpt>
      <trkpt lat="42.97131" lon="-0.25703">
        <ele>1512.4000244141</ele>
        <time>2020-05-31T07:28:37Z</time>
      </trkpt>
      <trkpt lat="42.9713" lon="-0.25706">
        <ele>1513</ele>
        <time>2020-05-31T07:28:38Z</time>
      </trkpt>
      <trkpt lat="42.97129" lon="-0.2571">
        <ele>1513.4000244141</ele>
        <time>2020-05-31T07:28:39Z</time>
      </trkpt>
      <trkpt lat="42.97128" lon="-0.25713">
        <ele>1513.8000488281</ele>
        <time>2020-05-31T07:28:40Z</time>
      </trkpt>
      <trkpt lat="42.97127" lon="-0.2572">
        <ele>1514.4000244141</ele>
        <time>2020-05-31T07:28:42Z</time>
      </trkpt>
      <trkpt lat="42.97126" lon="-0.25723">
        <ele>1514.8000488281</ele>
        <time>2020-05-31T07:28:43Z</time>
      </trkpt>
      <trkpt lat="42.97125" lon="-0.25726">
        <ele>1515.1999511719</ele>
        <time>2020-05-31T07:28:44Z</time>
      </trkpt>
      <trkpt lat="42.97124" lon="-0.25729">
        <ele>1515.5999755859</ele>
        <time>2020-05-31T07:28:45Z</time>
      </trkpt>
      <trkpt lat="42.97123" lon="-0.25732">
        <ele>1516</ele>
        <time>2020-05-31T07:28:46Z</time>
      </trkpt>
      <trkpt lat="42.97119" lon="-0.25745">
        <ele>1516.4000244141</ele>
        <time>2020-05-31T07:28:50Z</time>
      </trkpt>
      <trkpt lat="42.97117" lon="-0.25748">
        <ele>1516.8000488281</ele>
        <time>2020-05-31T07:28:51Z</time>
      </trkpt>
      <trkpt lat="42.97116" lon="-0.25752">
        <ele>1517.1999511719</ele>
        <time>2020-05-31T07:28:52Z</time>
      </trkpt>
      <trkpt lat="42.97115" lon="-0.25756">
        <ele>1517.5999755859</ele>
        <time>2020-05-31T07:28:53Z</time>
      </trkpt>
      <trkpt lat="42.97114" lon="-0.2576">
        <ele>1518</ele>
        <time>2020-05-31T07:28:54Z</time>
      </trkpt>
      <trkpt lat="42.97111" lon="-0.25772">
        <ele>1518</ele>
        <time>2020-05-31T07:28:57Z</time>
      </trkpt>
      <trkpt lat="42.97109" lon="-0.25802">
        <ele>1518</ele>
        <time>2020-05-31T07:29:03Z</time>
      </trkpt>
      <trkpt lat="42.97108" lon="-0.25815">
        <ele>1518</ele>
        <time>2020-05-31T07:29:05Z</time>
      </trkpt>
      <trkpt lat="42.9711" lon="-0.25826">
        <ele>1518</ele>
        <time>2020-05-31T07:29:07Z</time>
      </trkpt>
      <trkpt lat="42.97116" lon="-0.25836">
        <ele>1518</ele>
        <time>2020-05-31T07:29:10Z</time>
      </trkpt>
      <trkpt lat="42.97118" lon="-0.25838">
        <ele>1518</ele>
        <time>2020-05-31T07:29:11Z</time>
      </trkpt>
      <trkpt lat="42.97123" lon="-0.25843">
        <ele>1518.4000244141</ele>
        <time>2020-05-31T07:29:13Z</time>
      </trkpt>
      <trkpt lat="42.97126" lon="-0.25847">
        <ele>1519.1999511719</ele>
        <time>2020-05-31T07:29:14Z</time>
      </trkpt>
      <trkpt lat="42.97128" lon="-0.25851">
        <ele>1519.5999755859</ele>
        <time>2020-05-31T07:29:15Z</time>
      </trkpt>
      <trkpt lat="42.9713" lon="-0.25855">
        <ele>1520</ele>
        <time>2020-05-31T07:29:16Z</time>
      </trkpt>
      <trkpt lat="42.97138" lon="-0.25879">
        <ele>1520</ele>
        <time>2020-05-31T07:29:22Z</time>
      </trkpt>
      <trkpt lat="42.97141" lon="-0.25891">
        <ele>1520.4000244141</ele>
        <time>2020-05-31T07:29:25Z</time>
      </trkpt>
      <trkpt lat="42.97142" lon="-0.25895">
        <ele>1520.8000488281</ele>
        <time>2020-05-31T07:29:26Z</time>
      </trkpt>
      <trkpt lat="42.97144" lon="-0.25899">
        <ele>1521.4000244141</ele>
        <time>2020-05-31T07:29:27Z</time>
      </trkpt>
      <trkpt lat="42.97146" lon="-0.25902">
        <ele>1521.8000488281</ele>
        <time>2020-05-31T07:29:28Z</time>
      </trkpt>
      <trkpt lat="42.97148" lon="-0.25905">
        <ele>1522.1999511719</ele>
        <time>2020-05-31T07:29:29Z</time>
      </trkpt>
      <trkpt lat="42.97162" lon="-0.25932">
        <ele>1522.1999511719</ele>
        <time>2020-05-31T07:29:36Z</time>
      </trkpt>
      <trkpt lat="42.9717" lon="-0.25964">
        <ele>1522.1999511719</ele>
        <time>2020-05-31T07:29:43Z</time>
      </trkpt>
      <trkpt lat="42.97181" lon="-0.25995">
        <ele>1522.1999511719</ele>
        <time>2020-05-31T07:29:50Z</time>
      </trkpt>
      <trkpt lat="42.97183" lon="-0.26001">
        <ele>1522.1999511719</ele>
        <time>2020-05-31T07:29:51Z</time>
      </trkpt>
      <trkpt lat="42.97187" lon="-0.2602">
        <ele>1522.1999511719</ele>
        <time>2020-05-31T07:29:54Z</time>
      </trkpt>
      <trkpt lat="42.9719" lon="-0.26027">
        <ele>1522.1999511719</ele>
        <time>2020-05-31T07:29:57Z</time>
      </trkpt>
      <trkpt lat="42.97191" lon="-0.26033">
        <ele>1522.1999511719</ele>
        <time>2020-05-31T07:30:03Z</time>
      </trkpt>
      <trkpt lat="42.97192" lon="-0.26037">
        <ele>1521.8000488281</ele>
        <time>2020-05-31T07:30:04Z</time>
      </trkpt>
      <trkpt lat="42.97194" lon="-0.26041">
        <ele>1521.4000244141</ele>
        <time>2020-05-31T07:30:05Z</time>
      </trkpt>
      <trkpt lat="42.97195" lon="-0.26046">
        <ele>1521</ele>
        <time>2020-05-31T07:30:06Z</time>
      </trkpt>
      <trkpt lat="42.97197" lon="-0.26052">
        <ele>1520.5999755859</ele>
        <time>2020-05-31T07:30:07Z</time>
      </trkpt>
      <trkpt lat="42.97198" lon="-0.26059">
        <ele>1520.1999511719</ele>
        <time>2020-05-31T07:30:08Z</time>
      </trkpt>
      <trkpt lat="42.972" lon="-0.26066">
        <ele>1519.5999755859</ele>
        <time>2020-05-31T07:30:09Z</time>
      </trkpt>
      <trkpt lat="42.97201" lon="-0.26074">
        <ele>1519</ele>
        <time>2020-05-31T07:30:10Z</time>
      </trkpt>
      <trkpt lat="42.97202" lon="-0.26082">
        <ele>1518.5999755859</ele>
        <time>2020-05-31T07:30:11Z</time>
      </trkpt>
      <trkpt lat="42.97203" lon="-0.26091">
        <ele>1518</ele>
        <time>2020-05-31T07:30:12Z</time>
      </trkpt>
      <trkpt lat="42.97204" lon="-0.26099">
        <ele>1517.4000244141</ele>
        <time>2020-05-31T07:30:13Z</time>
      </trkpt>
      <trkpt lat="42.97204" lon="-0.26107">
        <ele>1516.8000488281</ele>
        <time>2020-05-31T07:30:14Z</time>
      </trkpt>
      <trkpt lat="42.97205" lon="-0.26115">
        <ele>1516.1999511719</ele>
        <time>2020-05-31T07:30:15Z</time>
      </trkpt>
      <trkpt lat="42.97206" lon="-0.26122">
        <ele>1515.5999755859</ele>
        <time>2020-05-31T07:30:16Z</time>
      </trkpt>
      <trkpt lat="42.97206" lon="-0.26129">
        <ele>1515</ele>
        <time>2020-05-31T07:30:17Z</time>
      </trkpt>
      <trkpt lat="42.97207" lon="-0.26136">
        <ele>1514.5999755859</ele>
        <time>2020-05-31T07:30:18Z</time>
      </trkpt>
      <trkpt lat="42.97207" lon="-0.26142">
        <ele>1514</ele>
        <time>2020-05-31T07:30:19Z</time>
      </trkpt>
      <trkpt lat="42.97207" lon="-0.26147">
        <ele>1513.5999755859</ele>
        <time>2020-05-31T07:30:20Z</time>
      </trkpt>
      <trkpt lat="42.97207" lon="-0.26152">
        <ele>1513.1999511719</ele>
        <time>2020-05-31T07:30:21Z</time>
      </trkpt>
      <trkpt lat="42.97206" lon="-0.26156">
        <ele>1512.8000488281</ele>
        <time>2020-05-31T07:30:22Z</time>
      </trkpt>
      <trkpt lat="42.97206" lon="-0.2616">
        <ele>1512.8000488281</ele>
        <time>2020-05-31T07:30:23Z</time>
      </trkpt>
      <trkpt lat="42.97206" lon="-0.26172">
        <ele>1512.4000244141</ele>
        <time>2020-05-31T07:30:27Z</time>
      </trkpt>
      <trkpt lat="42.97206" lon="-0.26176">
        <ele>1512</ele>
        <time>2020-05-31T07:30:28Z</time>
      </trkpt>
      <trkpt lat="42.97206" lon="-0.26181">
        <ele>1511.1999511719</ele>
        <time>2020-05-31T07:30:29Z</time>
      </trkpt>
      <trkpt lat="42.97205" lon="-0.26186">
        <ele>1510.8000488281</ele>
        <time>2020-05-31T07:30:30Z</time>
      </trkpt>
      <trkpt lat="42.97205" lon="-0.26199">
        <ele>1510.1999511719</ele>
        <time>2020-05-31T07:30:32Z</time>
      </trkpt>
      <trkpt lat="42.97205" lon="-0.26207">
        <ele>1509.8000488281</ele>
        <time>2020-05-31T07:30:33Z</time>
      </trkpt>
      <trkpt lat="42.97204" lon="-0.26216">
        <ele>1509.1999511719</ele>
        <time>2020-05-31T07:30:34Z</time>
      </trkpt>
      <trkpt lat="42.97203" lon="-0.26225">
        <ele>1508.5999755859</ele>
        <time>2020-05-31T07:30:35Z</time>
      </trkpt>
      <trkpt lat="42.97203" lon="-0.26234">
        <ele>1508</ele>
        <time>2020-05-31T07:30:36Z</time>
      </trkpt>
      <trkpt lat="42.97202" lon="-0.26244">
        <ele>1507.1999511719</ele>
        <time>2020-05-31T07:30:37Z</time>
      </trkpt>
      <trkpt lat="42.97201" lon="-0.26255">
        <ele>1506.5999755859</ele>
        <time>2020-05-31T07:30:38Z</time>
      </trkpt>
      <trkpt lat="42.97201" lon="-0.26265">
        <ele>1506</ele>
        <time>2020-05-31T07:30:39Z</time>
      </trkpt>
      <trkpt lat="42.972" lon="-0.26275">
        <ele>1505.1999511719</ele>
        <time>2020-05-31T07:30:40Z</time>
      </trkpt>
      <trkpt lat="42.97199" lon="-0.26284">
        <ele>1504.5999755859</ele>
        <time>2020-05-31T07:30:41Z</time>
      </trkpt>
      <trkpt lat="42.97199" lon="-0.26293">
        <ele>1504</ele>
        <time>2020-05-31T07:30:42Z</time>
      </trkpt>
      <trkpt lat="42.97199" lon="-0.263">
        <ele>1503.1999511719</ele>
        <time>2020-05-31T07:30:43Z</time>
      </trkpt>
      <trkpt lat="42.97199" lon="-0.26307">
        <ele>1502.8000488281</ele>
        <time>2020-05-31T07:30:44Z</time>
      </trkpt>
      <trkpt lat="42.97198" lon="-0.26316">
        <ele>1502.4000244141</ele>
        <time>2020-05-31T07:30:45Z</time>
      </trkpt>
      <trkpt lat="42.97198" lon="-0.26325">
        <ele>1502</ele>
        <time>2020-05-31T07:30:46Z</time>
      </trkpt>
      <trkpt lat="42.97198" lon="-0.26335">
        <ele>1501.4000244141</ele>
        <time>2020-05-31T07:30:47Z</time>
      </trkpt>
      <trkpt lat="42.972" lon="-0.26345">
        <ele>1500.8000488281</ele>
        <time>2020-05-31T07:30:48Z</time>
      </trkpt>
      <trkpt lat="42.972" lon="-0.26355">
        <ele>1500.1999511719</ele>
        <time>2020-05-31T07:30:49Z</time>
      </trkpt>
      <trkpt lat="42.972" lon="-0.26365">
        <ele>1499.4000244141</ele>
        <time>2020-05-31T07:30:50Z</time>
      </trkpt>
      <trkpt lat="42.97199" lon="-0.26375">
        <ele>1498.5999755859</ele>
        <time>2020-05-31T07:30:51Z</time>
      </trkpt>
      <trkpt lat="42.972" lon="-0.26385">
        <ele>1497.8000488281</ele>
        <time>2020-05-31T07:30:52Z</time>
      </trkpt>
      <trkpt lat="42.972" lon="-0.26395">
        <ele>1496.4000244141</ele>
        <time>2020-05-31T07:30:53Z</time>
      </trkpt>
      <trkpt lat="42.97202" lon="-0.26405">
        <ele>1495.8000488281</ele>
        <time>2020-05-31T07:30:54Z</time>
      </trkpt>
      <trkpt lat="42.97204" lon="-0.26416">
        <ele>1495</ele>
        <time>2020-05-31T07:30:55Z</time>
      </trkpt>
      <trkpt lat="42.97206" lon="-0.26426">
        <ele>1494.4000244141</ele>
        <time>2020-05-31T07:30:56Z</time>
      </trkpt>
      <trkpt lat="42.9721" lon="-0.26435">
        <ele>1493.8000488281</ele>
        <time>2020-05-31T07:30:57Z</time>
      </trkpt>
      <trkpt lat="42.97214" lon="-0.26442">
        <ele>1493.4000244141</ele>
        <time>2020-05-31T07:30:58Z</time>
      </trkpt>
      <trkpt lat="42.97219" lon="-0.26449">
        <ele>1493</ele>
        <time>2020-05-31T07:30:59Z</time>
      </trkpt>
      <trkpt lat="42.97223" lon="-0.26456">
        <ele>1492.5999755859</ele>
        <time>2020-05-31T07:31:00Z</time>
      </trkpt>
      <trkpt lat="42.97226" lon="-0.26464">
        <ele>1492.1999511719</ele>
        <time>2020-05-31T07:31:01Z</time>
      </trkpt>
      <trkpt lat="42.97228" lon="-0.26472">
        <ele>1491.8000488281</ele>
        <time>2020-05-31T07:31:02Z</time>
      </trkpt>
      <trkpt lat="42.9723" lon="-0.2648">
        <ele>1491.8000488281</ele>
        <time>2020-05-31T07:31:03Z</time>
      </trkpt>
      <trkpt lat="42.97232" lon="-0.26489">
        <ele>1491.8000488281</ele>
        <time>2020-05-31T07:31:04Z</time>
      </trkpt>
      <trkpt lat="42.97234" lon="-0.26509">
        <ele>1491.4000244141</ele>
        <time>2020-05-31T07:31:06Z</time>
      </trkpt>
      <trkpt lat="42.97234" lon="-0.26518">
        <ele>1491</ele>
        <time>2020-05-31T07:31:07Z</time>
      </trkpt>
      <trkpt lat="42.97234" lon="-0.26528">
        <ele>1490.4000244141</ele>
        <time>2020-05-31T07:31:08Z</time>
      </trkpt>
      <trkpt lat="42.97233" lon="-0.26536">
        <ele>1490</ele>
        <time>2020-05-31T07:31:09Z</time>
      </trkpt>
      <trkpt lat="42.97231" lon="-0.26543">
        <ele>1489.5999755859</ele>
        <time>2020-05-31T07:31:10Z</time>
      </trkpt>
      <trkpt lat="42.9723" lon="-0.26549">
        <ele>1489.5999755859</ele>
        <time>2020-05-31T07:31:11Z</time>
      </trkpt>
      <trkpt lat="42.97229" lon="-0.26561">
        <ele>1489.5999755859</ele>
        <time>2020-05-31T07:31:14Z</time>
      </trkpt>
      <trkpt lat="42.97228" lon="-0.26561">
        <ele>1489.5999755859</ele>
        <time>2020-05-31T07:31:17Z</time>
      </trkpt>
      <trkpt lat="42.9723" lon="-0.26564">
        <ele>1489.5999755859</ele>
        <time>2020-05-31T07:31:30Z</time>
      </trkpt>
      <trkpt lat="42.9724" lon="-0.2657">
        <ele>1489.5999755859</ele>
        <time>2020-05-31T07:31:34Z</time>
      </trkpt>
      <trkpt lat="42.97257" lon="-0.26566">
        <ele>1489.5999755859</ele>
        <time>2020-05-31T07:31:39Z</time>
      </trkpt>
      <trkpt lat="42.97269" lon="-0.26553">
        <ele>1489.1999511719</ele>
        <time>2020-05-31T07:31:42Z</time>
      </trkpt>
      <trkpt lat="42.97272" lon="-0.26548">
        <ele>1488.8000488281</ele>
        <time>2020-05-31T07:31:43Z</time>
      </trkpt>
      <trkpt lat="42.97274" lon="-0.26542">
        <ele>1488.4000244141</ele>
        <time>2020-05-31T07:31:44Z</time>
      </trkpt>
      <trkpt lat="42.97275" lon="-0.26537">
        <ele>1488</ele>
        <time>2020-05-31T07:31:45Z</time>
      </trkpt>
      <trkpt lat="42.97275" lon="-0.26533">
        <ele>1487.4000244141</ele>
        <time>2020-05-31T07:31:46Z</time>
      </trkpt>
      <trkpt lat="42.97271" lon="-0.26514">
        <ele>1487</ele>
        <time>2020-05-31T07:31:50Z</time>
      </trkpt>
      <trkpt lat="42.97272" lon="-0.26509">
        <ele>1486.5999755859</ele>
        <time>2020-05-31T07:31:51Z</time>
      </trkpt>
      <trkpt lat="42.97274" lon="-0.26505">
        <ele>1486.1999511719</ele>
        <time>2020-05-31T07:31:52Z</time>
      </trkpt>
      <trkpt lat="42.97278" lon="-0.26503">
        <ele>1485.5999755859</ele>
        <time>2020-05-31T07:31:53Z</time>
      </trkpt>
      <trkpt lat="42.97282" lon="-0.26503">
        <ele>1485.1999511719</ele>
        <time>2020-05-31T07:31:54Z</time>
      </trkpt>
      <trkpt lat="42.97286" lon="-0.26504">
        <ele>1484.5999755859</ele>
        <time>2020-05-31T07:31:55Z</time>
      </trkpt>
      <trkpt lat="42.9729" lon="-0.26505">
        <ele>1484.1999511719</ele>
        <time>2020-05-31T07:31:56Z</time>
      </trkpt>
      <trkpt lat="42.97293" lon="-0.26506">
        <ele>1483.5999755859</ele>
        <time>2020-05-31T07:31:57Z</time>
      </trkpt>
      <trkpt lat="42.97297" lon="-0.26508">
        <ele>1483</ele>
        <time>2020-05-31T07:31:58Z</time>
      </trkpt>
      <trkpt lat="42.97301" lon="-0.2651">
        <ele>1482.5999755859</ele>
        <time>2020-05-31T07:31:59Z</time>
      </trkpt>
      <trkpt lat="42.97306" lon="-0.26512">
        <ele>1482</ele>
        <time>2020-05-31T07:32:00Z</time>
      </trkpt>
      <trkpt lat="42.97311" lon="-0.26513">
        <ele>1481.5999755859</ele>
        <time>2020-05-31T07:32:01Z</time>
      </trkpt>
      <trkpt lat="42.97317" lon="-0.26514">
        <ele>1480.8000488281</ele>
        <time>2020-05-31T07:32:02Z</time>
      </trkpt>
      <trkpt lat="42.97323" lon="-0.26514">
        <ele>1480.1999511719</ele>
        <time>2020-05-31T07:32:03Z</time>
      </trkpt>
      <trkpt lat="42.97329" lon="-0.26514">
        <ele>1479.5999755859</ele>
        <time>2020-05-31T07:32:04Z</time>
      </trkpt>
      <trkpt lat="42.97333" lon="-0.26516">
        <ele>1478.8000488281</ele>
        <time>2020-05-31T07:32:05Z</time>
      </trkpt>
      <trkpt lat="42.97337" lon="-0.26519">
        <ele>1478.1999511719</ele>
        <time>2020-05-31T07:32:06Z</time>
      </trkpt>
      <trkpt lat="42.97339" lon="-0.26524">
        <ele>1477.8000488281</ele>
        <time>2020-05-31T07:32:07Z</time>
      </trkpt>
      <trkpt lat="42.97341" lon="-0.2653">
        <ele>1477.4000244141</ele>
        <time>2020-05-31T07:32:08Z</time>
      </trkpt>
      <trkpt lat="42.97342" lon="-0.26536">
        <ele>1477</ele>
        <time>2020-05-31T07:32:09Z</time>
      </trkpt>
      <trkpt lat="42.97343" lon="-0.26543">
        <ele>1476.4000244141</ele>
        <time>2020-05-31T07:32:10Z</time>
      </trkpt>
      <trkpt lat="42.97343" lon="-0.26551">
        <ele>1476</ele>
        <time>2020-05-31T07:32:11Z</time>
      </trkpt>
      <trkpt lat="42.97343" lon="-0.26558">
        <ele>1475.4000244141</ele>
        <time>2020-05-31T07:32:12Z</time>
      </trkpt>
      <trkpt lat="42.97343" lon="-0.26564">
        <ele>1474.8000488281</ele>
        <time>2020-05-31T07:32:13Z</time>
      </trkpt>
      <trkpt lat="42.97341" lon="-0.26571">
        <ele>1474.1999511719</ele>
        <time>2020-05-31T07:32:14Z</time>
      </trkpt>
      <trkpt lat="42.97339" lon="-0.26578">
        <ele>1473.5999755859</ele>
        <time>2020-05-31T07:32:15Z</time>
      </trkpt>
      <trkpt lat="42.97334" lon="-0.26594">
        <ele>1473.1999511719</ele>
        <time>2020-05-31T07:32:17Z</time>
      </trkpt>
      <trkpt lat="42.97332" lon="-0.26602">
        <ele>1472.8000488281</ele>
        <time>2020-05-31T07:32:18Z</time>
      </trkpt>
      <trkpt lat="42.97329" lon="-0.26611">
        <ele>1472.4000244141</ele>
        <time>2020-05-31T07:32:19Z</time>
      </trkpt>
      <trkpt lat="42.97325" lon="-0.2662">
        <ele>1471.5999755859</ele>
        <time>2020-05-31T07:32:20Z</time>
      </trkpt>
      <trkpt lat="42.97321" lon="-0.26627">
        <ele>1471</ele>
        <time>2020-05-31T07:32:21Z</time>
      </trkpt>
      <trkpt lat="42.97318" lon="-0.26634">
        <ele>1470.4000244141</ele>
        <time>2020-05-31T07:32:22Z</time>
      </trkpt>
      <trkpt lat="42.97314" lon="-0.2664">
        <ele>1469.8000488281</ele>
        <time>2020-05-31T07:32:23Z</time>
      </trkpt>
      <trkpt lat="42.9731" lon="-0.26646">
        <ele>1469.1999511719</ele>
        <time>2020-05-31T07:32:24Z</time>
      </trkpt>
      <trkpt lat="42.97306" lon="-0.26653">
        <ele>1468.8000488281</ele>
        <time>2020-05-31T07:32:25Z</time>
      </trkpt>
      <trkpt lat="42.97302" lon="-0.26659">
        <ele>1468.1999511719</ele>
        <time>2020-05-31T07:32:26Z</time>
      </trkpt>
      <trkpt lat="42.97297" lon="-0.26664">
        <ele>1467.8000488281</ele>
        <time>2020-05-31T07:32:27Z</time>
      </trkpt>
      <trkpt lat="42.97292" lon="-0.26669">
        <ele>1467.4000244141</ele>
        <time>2020-05-31T07:32:28Z</time>
      </trkpt>
      <trkpt lat="42.97288" lon="-0.26673">
        <ele>1466.8000488281</ele>
        <time>2020-05-31T07:32:29Z</time>
      </trkpt>
      <trkpt lat="42.97283" lon="-0.26677">
        <ele>1466.8000488281</ele>
        <time>2020-05-31T07:32:30Z</time>
      </trkpt>
      <trkpt lat="42.97278" lon="-0.2668">
        <ele>1466.4000244141</ele>
        <time>2020-05-31T07:32:31Z</time>
      </trkpt>
      <trkpt lat="42.97273" lon="-0.26684">
        <ele>1465.5999755859</ele>
        <time>2020-05-31T07:32:32Z</time>
      </trkpt>
      <trkpt lat="42.97267" lon="-0.26687">
        <ele>1465.1999511719</ele>
        <time>2020-05-31T07:32:33Z</time>
      </trkpt>
      <trkpt lat="42.97262" lon="-0.2669">
        <ele>1464.8000488281</ele>
        <time>2020-05-31T07:32:34Z</time>
      </trkpt>
      <trkpt lat="42.97256" lon="-0.26694">
        <ele>1464.8000488281</ele>
        <time>2020-05-31T07:32:35Z</time>
      </trkpt>
      <trkpt lat="42.97251" lon="-0.26697">
        <ele>1464.4000244141</ele>
        <time>2020-05-31T07:32:36Z</time>
      </trkpt>
      <trkpt lat="42.97246" lon="-0.267">
        <ele>1464</ele>
        <time>2020-05-31T07:32:37Z</time>
      </trkpt>
      <trkpt lat="42.97241" lon="-0.26702">
        <ele>1463.5999755859</ele>
        <time>2020-05-31T07:32:38Z</time>
      </trkpt>
      <trkpt lat="42.97235" lon="-0.26704">
        <ele>1463.1999511719</ele>
        <time>2020-05-31T07:32:39Z</time>
      </trkpt>
      <trkpt lat="42.9723" lon="-0.26706">
        <ele>1462.5999755859</ele>
        <time>2020-05-31T07:32:40Z</time>
      </trkpt>
      <trkpt lat="42.97212" lon="-0.26712">
        <ele>1462.1999511719</ele>
        <time>2020-05-31T07:32:43Z</time>
      </trkpt>
      <trkpt lat="42.97206" lon="-0.26714">
        <ele>1461.8000488281</ele>
        <time>2020-05-31T07:32:44Z</time>
      </trkpt>
      <trkpt lat="42.97199" lon="-0.26715">
        <ele>1461.4000244141</ele>
        <time>2020-05-31T07:32:45Z</time>
      </trkpt>
      <trkpt lat="42.97193" lon="-0.26717">
        <ele>1461</ele>
        <time>2020-05-31T07:32:46Z</time>
      </trkpt>
      <trkpt lat="42.97186" lon="-0.26718">
        <ele>1460.5999755859</ele>
        <time>2020-05-31T07:32:47Z</time>
      </trkpt>
      <trkpt lat="42.97174" lon="-0.26719">
        <ele>1460.1999511719</ele>
        <time>2020-05-31T07:32:49Z</time>
      </trkpt>
      <trkpt lat="42.97168" lon="-0.26719">
        <ele>1459.8000488281</ele>
        <time>2020-05-31T07:32:50Z</time>
      </trkpt>
      <trkpt lat="42.97161" lon="-0.26718">
        <ele>1459.4000244141</ele>
        <time>2020-05-31T07:32:51Z</time>
      </trkpt>
      <trkpt lat="42.97155" lon="-0.26718">
        <ele>1458.8000488281</ele>
        <time>2020-05-31T07:32:52Z</time>
      </trkpt>
      <trkpt lat="42.97149" lon="-0.26718">
        <ele>1458.4000244141</ele>
        <time>2020-05-31T07:32:53Z</time>
      </trkpt>
      <trkpt lat="42.97143" lon="-0.26718">
        <ele>1458</ele>
        <time>2020-05-31T07:32:54Z</time>
      </trkpt>
      <trkpt lat="42.97137" lon="-0.26718">
        <ele>1457.5999755859</ele>
        <time>2020-05-31T07:32:55Z</time>
      </trkpt>
      <trkpt lat="42.97131" lon="-0.26719">
        <ele>1457</ele>
        <time>2020-05-31T07:32:56Z</time>
      </trkpt>
      <trkpt lat="42.97125" lon="-0.26719">
        <ele>1456.1999511719</ele>
        <time>2020-05-31T07:32:57Z</time>
      </trkpt>
      <trkpt lat="42.9712" lon="-0.2672">
        <ele>1456.1999511719</ele>
        <time>2020-05-31T07:32:58Z</time>
      </trkpt>
      <trkpt lat="42.97115" lon="-0.26719">
        <ele>1456.1999511719</ele>
        <time>2020-05-31T07:32:59Z</time>
      </trkpt>
      <trkpt lat="42.97108" lon="-0.26713">
        <ele>1455.8000488281</ele>
        <time>2020-05-31T07:33:01Z</time>
      </trkpt>
      <trkpt lat="42.97104" lon="-0.26708">
        <ele>1455.1999511719</ele>
        <time>2020-05-31T07:33:02Z</time>
      </trkpt>
      <trkpt lat="42.97102" lon="-0.26703">
        <ele>1454.8000488281</ele>
        <time>2020-05-31T07:33:03Z</time>
      </trkpt>
      <trkpt lat="42.97099" lon="-0.26697">
        <ele>1454.4000244141</ele>
        <time>2020-05-31T07:33:04Z</time>
      </trkpt>
      <trkpt lat="42.97097" lon="-0.26691">
        <ele>1454</ele>
        <time>2020-05-31T07:33:05Z</time>
      </trkpt>
      <trkpt lat="42.97095" lon="-0.26678">
        <ele>1453.5999755859</ele>
        <time>2020-05-31T07:33:07Z</time>
      </trkpt>
      <trkpt lat="42.97094" lon="-0.26671">
        <ele>1453.1999511719</ele>
        <time>2020-05-31T07:33:08Z</time>
      </trkpt>
      <trkpt lat="42.97093" lon="-0.26665">
        <ele>1452.8000488281</ele>
        <time>2020-05-31T07:33:09Z</time>
      </trkpt>
      <trkpt lat="42.97093" lon="-0.26659">
        <ele>1452.4000244141</ele>
        <time>2020-05-31T07:33:10Z</time>
      </trkpt>
      <trkpt lat="42.97091" lon="-0.26653">
        <ele>1452</ele>
        <time>2020-05-31T07:33:11Z</time>
      </trkpt>
      <trkpt lat="42.97088" lon="-0.26642">
        <ele>1452</ele>
        <time>2020-05-31T07:33:13Z</time>
      </trkpt>
      <trkpt lat="42.97086" lon="-0.26636">
        <ele>1452</ele>
        <time>2020-05-31T07:33:14Z</time>
      </trkpt>
      <trkpt lat="42.9708" lon="-0.26627">
        <ele>1452</ele>
        <time>2020-05-31T07:33:16Z</time>
      </trkpt>
      <trkpt lat="42.9707" lon="-0.26612">
        <ele>1452</ele>
        <time>2020-05-31T07:33:19Z</time>
      </trkpt>
      <trkpt lat="42.97055" lon="-0.26574">
        <ele>1452</ele>
        <time>2020-05-31T07:33:25Z</time>
      </trkpt>
      <trkpt lat="42.97053" lon="-0.26568">
        <ele>1452</ele>
        <time>2020-05-31T07:33:26Z</time>
      </trkpt>
      <trkpt lat="42.97046" lon="-0.26543">
        <ele>1452</ele>
        <time>2020-05-31T07:33:30Z</time>
      </trkpt>
      <trkpt lat="42.97043" lon="-0.26528">
        <ele>1452</ele>
        <time>2020-05-31T07:33:32Z</time>
      </trkpt>
      <trkpt lat="42.97041" lon="-0.26512">
        <ele>1452</ele>
        <time>2020-05-31T07:33:34Z</time>
      </trkpt>
      <trkpt lat="42.9704" lon="-0.26503">
        <ele>1451.4000244141</ele>
        <time>2020-05-31T07:33:35Z</time>
      </trkpt>
      <trkpt lat="42.97037" lon="-0.26494">
        <ele>1451</ele>
        <time>2020-05-31T07:33:36Z</time>
      </trkpt>
      <trkpt lat="42.97035" lon="-0.26487">
        <ele>1450.4000244141</ele>
        <time>2020-05-31T07:33:37Z</time>
      </trkpt>
      <trkpt lat="42.97031" lon="-0.2648">
        <ele>1450</ele>
        <time>2020-05-31T07:33:38Z</time>
      </trkpt>
      <trkpt lat="42.97027" lon="-0.26472">
        <ele>1449.4000244141</ele>
        <time>2020-05-31T07:33:39Z</time>
      </trkpt>
      <trkpt lat="42.97019" lon="-0.26459">
        <ele>1449.4000244141</ele>
        <time>2020-05-31T07:33:41Z</time>
      </trkpt>
      <trkpt lat="42.97008" lon="-0.26451">
        <ele>1449.4000244141</ele>
        <time>2020-05-31T07:33:43Z</time>
      </trkpt>
      <trkpt lat="42.96999" lon="-0.26446">
        <ele>1449.4000244141</ele>
        <time>2020-05-31T07:33:45Z</time>
      </trkpt>
      <trkpt lat="42.96992" lon="-0.26441">
        <ele>1449.4000244141</ele>
        <time>2020-05-31T07:33:47Z</time>
      </trkpt>
      <trkpt lat="42.96988" lon="-0.26439">
        <ele>1449.8000488281</ele>
        <time>2020-05-31T07:33:48Z</time>
      </trkpt>
      <trkpt lat="42.96985" lon="-0.26436">
        <ele>1450.4000244141</ele>
        <time>2020-05-31T07:33:49Z</time>
      </trkpt>
      <trkpt lat="42.96981" lon="-0.26435">
        <ele>1450.8000488281</ele>
        <time>2020-05-31T07:33:50Z</time>
      </trkpt>
      <trkpt lat="42.96977" lon="-0.26434">
        <ele>1451.1999511719</ele>
        <time>2020-05-31T07:33:51Z</time>
      </trkpt>
      <trkpt lat="42.96973" lon="-0.26435">
        <ele>1451.5999755859</ele>
        <time>2020-05-31T07:33:52Z</time>
      </trkpt>
      <trkpt lat="42.96964" lon="-0.26441">
        <ele>1451.5999755859</ele>
        <time>2020-05-31T07:33:55Z</time>
      </trkpt>
      <trkpt lat="42.96962" lon="-0.26443">
        <ele>1451.5999755859</ele>
        <time>2020-05-31T07:33:56Z</time>
      </trkpt>
      <trkpt lat="42.9696" lon="-0.26444">
        <ele>1452</ele>
        <time>2020-05-31T07:33:57Z</time>
      </trkpt>
      <trkpt lat="42.96957" lon="-0.26446">
        <ele>1452.4000244141</ele>
        <time>2020-05-31T07:33:58Z</time>
      </trkpt>
      <trkpt lat="42.96955" lon="-0.26446">
        <ele>1452.8000488281</ele>
        <time>2020-05-31T07:33:59Z</time>
      </trkpt>
      <trkpt lat="42.96953" lon="-0.26446">
        <ele>1453.1999511719</ele>
        <time>2020-05-31T07:34:00Z</time>
      </trkpt>
      <trkpt lat="42.96951" lon="-0.26446">
        <ele>1453.5999755859</ele>
        <time>2020-05-31T07:34:01Z</time>
      </trkpt>
      <trkpt lat="42.96944" lon="-0.26441">
        <ele>1454.1999511719</ele>
        <time>2020-05-31T07:34:04Z</time>
      </trkpt>
      <trkpt lat="42.96941" lon="-0.26438">
        <ele>1454.5999755859</ele>
        <time>2020-05-31T07:34:05Z</time>
      </trkpt>
      <trkpt lat="42.96939" lon="-0.26435">
        <ele>1455</ele>
        <time>2020-05-31T07:34:06Z</time>
      </trkpt>
      <trkpt lat="42.96937" lon="-0.26432">
        <ele>1455.4000244141</ele>
        <time>2020-05-31T07:34:07Z</time>
      </trkpt>
      <trkpt lat="42.96935" lon="-0.26429">
        <ele>1455.8000488281</ele>
        <time>2020-05-31T07:34:08Z</time>
      </trkpt>
      <trkpt lat="42.96931" lon="-0.26424">
        <ele>1455.8000488281</ele>
        <time>2020-05-31T07:34:10Z</time>
      </trkpt>
      <trkpt lat="42.96927" lon="-0.26422">
        <ele>1455.8000488281</ele>
        <time>2020-05-31T07:34:12Z</time>
      </trkpt>
      <trkpt lat="42.9692" lon="-0.26418">
        <ele>1456.1999511719</ele>
        <time>2020-05-31T07:34:15Z</time>
      </trkpt>
      <trkpt lat="42.96917" lon="-0.26418">
        <ele>1456.5999755859</ele>
        <time>2020-05-31T07:34:16Z</time>
      </trkpt>
      <trkpt lat="42.96914" lon="-0.26417">
        <ele>1457.1999511719</ele>
        <time>2020-05-31T07:34:17Z</time>
      </trkpt>
      <trkpt lat="42.9691" lon="-0.26418">
        <ele>1457.5999755859</ele>
        <time>2020-05-31T07:34:18Z</time>
      </trkpt>
      <trkpt lat="42.96907" lon="-0.26419">
        <ele>1458</ele>
        <time>2020-05-31T07:34:19Z</time>
      </trkpt>
      <trkpt lat="42.96899" lon="-0.2642">
        <ele>1458</ele>
        <time>2020-05-31T07:34:21Z</time>
      </trkpt>
      <trkpt lat="42.96876" lon="-0.2642">
        <ele>1458</ele>
        <time>2020-05-31T07:34:27Z</time>
      </trkpt>
      <trkpt lat="42.96872" lon="-0.26421">
        <ele>1458</ele>
        <time>2020-05-31T07:34:28Z</time>
      </trkpt>
      <trkpt lat="42.96857" lon="-0.26428">
        <ele>1458</ele>
        <time>2020-05-31T07:34:31Z</time>
      </trkpt>
      <trkpt lat="42.96851" lon="-0.26431">
        <ele>1458</ele>
        <time>2020-05-31T07:34:32Z</time>
      </trkpt>
      <trkpt lat="42.96846" lon="-0.26434">
        <ele>1457.5999755859</ele>
        <time>2020-05-31T07:34:33Z</time>
      </trkpt>
      <trkpt lat="42.96841" lon="-0.26438">
        <ele>1457</ele>
        <time>2020-05-31T07:34:34Z</time>
      </trkpt>
      <trkpt lat="42.96836" lon="-0.26444">
        <ele>1456.1999511719</ele>
        <time>2020-05-31T07:34:35Z</time>
      </trkpt>
      <trkpt lat="42.96833" lon="-0.2645">
        <ele>1455.5999755859</ele>
        <time>2020-05-31T07:34:36Z</time>
      </trkpt>
      <trkpt lat="42.96829" lon="-0.26457">
        <ele>1455</ele>
        <time>2020-05-31T07:34:37Z</time>
      </trkpt>
      <trkpt lat="42.96825" lon="-0.26463">
        <ele>1454.4000244141</ele>
        <time>2020-05-31T07:34:38Z</time>
      </trkpt>
      <trkpt lat="42.96822" lon="-0.2647">
        <ele>1453.8000488281</ele>
        <time>2020-05-31T07:34:39Z</time>
      </trkpt>
      <trkpt lat="42.96819" lon="-0.26475">
        <ele>1453.1999511719</ele>
        <time>2020-05-31T07:34:40Z</time>
      </trkpt>
      <trkpt lat="42.96815" lon="-0.2648">
        <ele>1453.1999511719</ele>
        <time>2020-05-31T07:34:41Z</time>
      </trkpt>
      <trkpt lat="42.9681" lon="-0.26482">
        <ele>1452.8000488281</ele>
        <time>2020-05-31T07:34:42Z</time>
      </trkpt>
      <trkpt lat="42.96805" lon="-0.26484">
        <ele>1452.4000244141</ele>
        <time>2020-05-31T07:34:43Z</time>
      </trkpt>
      <trkpt lat="42.96799" lon="-0.26485">
        <ele>1451.8000488281</ele>
        <time>2020-05-31T07:34:44Z</time>
      </trkpt>
      <trkpt lat="42.96793" lon="-0.26486">
        <ele>1451.4000244141</ele>
        <time>2020-05-31T07:34:45Z</time>
      </trkpt>
      <trkpt lat="42.96787" lon="-0.26488">
        <ele>1450.8000488281</ele>
        <time>2020-05-31T07:34:46Z</time>
      </trkpt>
      <trkpt lat="42.9678" lon="-0.2649">
        <ele>1450.4000244141</ele>
        <time>2020-05-31T07:34:47Z</time>
      </trkpt>
      <trkpt lat="42.96773" lon="-0.26493">
        <ele>1450</ele>
        <time>2020-05-31T07:34:48Z</time>
      </trkpt>
      <trkpt lat="42.96766" lon="-0.26495">
        <ele>1449.4000244141</ele>
        <time>2020-05-31T07:34:49Z</time>
      </trkpt>
      <trkpt lat="42.96758" lon="-0.26497">
        <ele>1449</ele>
        <time>2020-05-31T07:34:50Z</time>
      </trkpt>
      <trkpt lat="42.9675" lon="-0.26499">
        <ele>1448.4000244141</ele>
        <time>2020-05-31T07:34:51Z</time>
      </trkpt>
      <trkpt lat="42.96741" lon="-0.26501">
        <ele>1448</ele>
        <time>2020-05-31T07:34:52Z</time>
      </trkpt>
      <trkpt lat="42.96733" lon="-0.26505">
        <ele>1447.4000244141</ele>
        <time>2020-05-31T07:34:53Z</time>
      </trkpt>
      <trkpt lat="42.96725" lon="-0.26508">
        <ele>1446.8000488281</ele>
        <time>2020-05-31T07:34:54Z</time>
      </trkpt>
      <trkpt lat="42.96718" lon="-0.26512">
        <ele>1446.1999511719</ele>
        <time>2020-05-31T07:34:55Z</time>
      </trkpt>
      <trkpt lat="42.96711" lon="-0.26515">
        <ele>1445.5999755859</ele>
        <time>2020-05-31T07:34:56Z</time>
      </trkpt>
      <trkpt lat="42.96704" lon="-0.26517">
        <ele>1444.8000488281</ele>
        <time>2020-05-31T07:34:57Z</time>
      </trkpt>
      <trkpt lat="42.96698" lon="-0.26519">
        <ele>1444.1999511719</ele>
        <time>2020-05-31T07:34:58Z</time>
      </trkpt>
      <trkpt lat="42.96691" lon="-0.2652">
        <ele>1444.1999511719</ele>
        <time>2020-05-31T07:34:59Z</time>
      </trkpt>
      <trkpt lat="42.96673" lon="-0.26518">
        <ele>1444.1999511719</ele>
        <time>2020-05-31T07:35:02Z</time>
      </trkpt>
      <trkpt lat="42.96668" lon="-0.26517">
        <ele>1444.1999511719</ele>
        <time>2020-05-31T07:35:03Z</time>
      </trkpt>
      <trkpt lat="42.9666" lon="-0.26513">
        <ele>1444.1999511719</ele>
        <time>2020-05-31T07:35:05Z</time>
      </trkpt>
      <trkpt lat="42.96653" lon="-0.26508">
        <ele>1444.1999511719</ele>
        <time>2020-05-31T07:35:07Z</time>
      </trkpt>
      <trkpt lat="42.96645" lon="-0.26504">
        <ele>1444.1999511719</ele>
        <time>2020-05-31T07:35:09Z</time>
      </trkpt>
      <trkpt lat="42.96641" lon="-0.26504">
        <ele>1444.1999511719</ele>
        <time>2020-05-31T07:35:10Z</time>
      </trkpt>
      <trkpt lat="42.96628" lon="-0.265">
        <ele>1444.1999511719</ele>
        <time>2020-05-31T07:35:13Z</time>
      </trkpt>
      <trkpt lat="42.96618" lon="-0.26495">
        <ele>1444.1999511719</ele>
        <time>2020-05-31T07:35:15Z</time>
      </trkpt>
      <trkpt lat="42.96597" lon="-0.26486">
        <ele>1444.1999511719</ele>
        <time>2020-05-31T07:35:19Z</time>
      </trkpt>
      <trkpt lat="42.96587" lon="-0.26484">
        <ele>1444.1999511719</ele>
        <time>2020-05-31T07:35:21Z</time>
      </trkpt>
      <trkpt lat="42.96564" lon="-0.26475">
        <ele>1444.1999511719</ele>
        <time>2020-05-31T07:35:25Z</time>
      </trkpt>
      <trkpt lat="42.96552" lon="-0.26468">
        <ele>1444.1999511719</ele>
        <time>2020-05-31T07:35:27Z</time>
      </trkpt>
      <trkpt lat="42.96547" lon="-0.26464">
        <ele>1443.8000488281</ele>
        <time>2020-05-31T07:35:28Z</time>
      </trkpt>
      <trkpt lat="42.96541" lon="-0.2646">
        <ele>1443.4000244141</ele>
        <time>2020-05-31T07:35:29Z</time>
      </trkpt>
      <trkpt lat="42.96535" lon="-0.26458">
        <ele>1443</ele>
        <time>2020-05-31T07:35:30Z</time>
      </trkpt>
      <trkpt lat="42.96529" lon="-0.26455">
        <ele>1442.4000244141</ele>
        <time>2020-05-31T07:35:31Z</time>
      </trkpt>
      <trkpt lat="42.96523" lon="-0.26452">
        <ele>1442</ele>
        <time>2020-05-31T07:35:32Z</time>
      </trkpt>
      <trkpt lat="42.96518" lon="-0.26447">
        <ele>1442</ele>
        <time>2020-05-31T07:35:33Z</time>
      </trkpt>
      <trkpt lat="42.96502" lon="-0.26425">
        <ele>1442</ele>
        <time>2020-05-31T07:35:37Z</time>
      </trkpt>
      <trkpt lat="42.96498" lon="-0.26419">
        <ele>1442</ele>
        <time>2020-05-31T07:35:38Z</time>
      </trkpt>
      <trkpt lat="42.96492" lon="-0.26409">
        <ele>1442</ele>
        <time>2020-05-31T07:35:40Z</time>
      </trkpt>
      <trkpt lat="42.96482" lon="-0.26392">
        <ele>1442</ele>
        <time>2020-05-31T07:35:43Z</time>
      </trkpt>
      <trkpt lat="42.96459" lon="-0.26358">
        <ele>1442</ele>
        <time>2020-05-31T07:35:48Z</time>
      </trkpt>
      <trkpt lat="42.96443" lon="-0.26334">
        <ele>1441.5999755859</ele>
        <time>2020-05-31T07:35:51Z</time>
      </trkpt>
      <trkpt lat="42.96438" lon="-0.26326">
        <ele>1441.1999511719</ele>
        <time>2020-05-31T07:35:52Z</time>
      </trkpt>
      <trkpt lat="42.96432" lon="-0.26318">
        <ele>1440.5999755859</ele>
        <time>2020-05-31T07:35:53Z</time>
      </trkpt>
      <trkpt lat="42.96427" lon="-0.2631">
        <ele>1440.1999511719</ele>
        <time>2020-05-31T07:35:54Z</time>
      </trkpt>
      <trkpt lat="42.96422" lon="-0.26302">
        <ele>1439.8000488281</ele>
        <time>2020-05-31T07:35:55Z</time>
      </trkpt>
      <trkpt lat="42.96418" lon="-0.26293">
        <ele>1439.8000488281</ele>
        <time>2020-05-31T07:35:56Z</time>
      </trkpt>
      <trkpt lat="42.96402" lon="-0.26269">
        <ele>1439.4000244141</ele>
        <time>2020-05-31T07:35:59Z</time>
      </trkpt>
      <trkpt lat="42.96396" lon="-0.26265">
        <ele>1439</ele>
        <time>2020-05-31T07:36:00Z</time>
      </trkpt>
      <trkpt lat="42.9639" lon="-0.26262">
        <ele>1438.5999755859</ele>
        <time>2020-05-31T07:36:01Z</time>
      </trkpt>
      <trkpt lat="42.96384" lon="-0.2626">
        <ele>1438.1999511719</ele>
        <time>2020-05-31T07:36:02Z</time>
      </trkpt>
      <trkpt lat="42.96378" lon="-0.26259">
        <ele>1437.5999755859</ele>
        <time>2020-05-31T07:36:03Z</time>
      </trkpt>
      <trkpt lat="42.96373" lon="-0.26257">
        <ele>1438.1999511719</ele>
        <time>2020-05-31T07:36:04Z</time>
      </trkpt>
      <trkpt lat="42.96368" lon="-0.26255">
        <ele>1438.5999755859</ele>
        <time>2020-05-31T07:36:05Z</time>
      </trkpt>
      <trkpt lat="42.96364" lon="-0.26252">
        <ele>1439</ele>
        <time>2020-05-31T07:36:06Z</time>
      </trkpt>
      <trkpt lat="42.9636" lon="-0.2625">
        <ele>1439.4000244141</ele>
        <time>2020-05-31T07:36:07Z</time>
      </trkpt>
      <trkpt lat="42.96356" lon="-0.26247">
        <ele>1439.8000488281</ele>
        <time>2020-05-31T07:36:08Z</time>
      </trkpt>
      <trkpt lat="42.96348" lon="-0.26244">
        <ele>1440.1999511719</ele>
        <time>2020-05-31T07:36:10Z</time>
      </trkpt>
      <trkpt lat="42.96344" lon="-0.26243">
        <ele>1440.5999755859</ele>
        <time>2020-05-31T07:36:11Z</time>
      </trkpt>
      <trkpt lat="42.9634" lon="-0.26242">
        <ele>1441</ele>
        <time>2020-05-31T07:36:12Z</time>
      </trkpt>
      <trkpt lat="42.96337" lon="-0.26241">
        <ele>1441.4000244141</ele>
        <time>2020-05-31T07:36:13Z</time>
      </trkpt>
      <trkpt lat="42.96333" lon="-0.26241">
        <ele>1441.8000488281</ele>
        <time>2020-05-31T07:36:14Z</time>
      </trkpt>
      <trkpt lat="42.9633" lon="-0.2624">
        <ele>1442.4000244141</ele>
        <time>2020-05-31T07:36:15Z</time>
      </trkpt>
      <trkpt lat="42.96327" lon="-0.26238">
        <ele>1442.8000488281</ele>
        <time>2020-05-31T07:36:16Z</time>
      </trkpt>
      <trkpt lat="42.96324" lon="-0.26237">
        <ele>1443.1999511719</ele>
        <time>2020-05-31T07:36:17Z</time>
      </trkpt>
      <trkpt lat="42.96322" lon="-0.26236">
        <ele>1443.5999755859</ele>
        <time>2020-05-31T07:36:18Z</time>
      </trkpt>
      <trkpt lat="42.9632" lon="-0.26235">
        <ele>1444</ele>
        <time>2020-05-31T07:36:19Z</time>
      </trkpt>
      <trkpt lat="42.96315" lon="-0.26236">
        <ele>1444.4000244141</ele>
        <time>2020-05-31T07:36:21Z</time>
      </trkpt>
      <trkpt lat="42.96312" lon="-0.26236">
        <ele>1444.8000488281</ele>
        <time>2020-05-31T07:36:22Z</time>
      </trkpt>
      <trkpt lat="42.9631" lon="-0.26237">
        <ele>1445.1999511719</ele>
        <time>2020-05-31T07:36:23Z</time>
      </trkpt>
      <trkpt lat="42.96307" lon="-0.26238">
        <ele>1445.5999755859</ele>
        <time>2020-05-31T07:36:24Z</time>
      </trkpt>
      <trkpt lat="42.96305" lon="-0.26239">
        <ele>1446.1999511719</ele>
        <time>2020-05-31T07:36:25Z</time>
      </trkpt>
      <trkpt lat="42.96299" lon="-0.26243">
        <ele>1446.5999755859</ele>
        <time>2020-05-31T07:36:28Z</time>
      </trkpt>
      <trkpt lat="42.96296" lon="-0.26244">
        <ele>1447</ele>
        <time>2020-05-31T07:36:29Z</time>
      </trkpt>
      <trkpt lat="42.96294" lon="-0.26246">
        <ele>1447.4000244141</ele>
        <time>2020-05-31T07:36:30Z</time>
      </trkpt>
      <trkpt lat="42.96293" lon="-0.26248">
        <ele>1447.8000488281</ele>
        <time>2020-05-31T07:36:31Z</time>
      </trkpt>
      <trkpt lat="42.96291" lon="-0.2625">
        <ele>1448.4000244141</ele>
        <time>2020-05-31T07:36:32Z</time>
      </trkpt>
      <trkpt lat="42.96286" lon="-0.26255">
        <ele>1448.8000488281</ele>
        <time>2020-05-31T07:36:35Z</time>
      </trkpt>
      <trkpt lat="42.96284" lon="-0.26257">
        <ele>1449.1999511719</ele>
        <time>2020-05-31T07:36:36Z</time>
      </trkpt>
      <trkpt lat="42.96282" lon="-0.26258">
        <ele>1449.5999755859</ele>
        <time>2020-05-31T07:36:37Z</time>
      </trkpt>
      <trkpt lat="42.9628" lon="-0.26259">
        <ele>1450.4000244141</ele>
        <time>2020-05-31T07:36:38Z</time>
      </trkpt>
      <trkpt lat="42.96271" lon="-0.26263">
        <ele>1450.4000244141</ele>
        <time>2020-05-31T07:36:42Z</time>
      </trkpt>
      <trkpt lat="42.96267" lon="-0.26264">
        <ele>1450.8000488281</ele>
        <time>2020-05-31T07:36:44Z</time>
      </trkpt>
      <trkpt lat="42.96265" lon="-0.26265">
        <ele>1451.1999511719</ele>
        <time>2020-05-31T07:36:45Z</time>
      </trkpt>
      <trkpt lat="42.96262" lon="-0.26265">
        <ele>1451.5999755859</ele>
        <time>2020-05-31T07:36:46Z</time>
      </trkpt>
      <trkpt lat="42.9626" lon="-0.26267">
        <ele>1452.1999511719</ele>
        <time>2020-05-31T07:36:47Z</time>
      </trkpt>
      <trkpt lat="42.96258" lon="-0.26268">
        <ele>1452.5999755859</ele>
        <time>2020-05-31T07:36:48Z</time>
      </trkpt>
      <trkpt lat="42.9625" lon="-0.26269">
        <ele>1453</ele>
        <time>2020-05-31T07:36:52Z</time>
      </trkpt>
      <trkpt lat="42.96248" lon="-0.26268">
        <ele>1453.4000244141</ele>
        <time>2020-05-31T07:36:53Z</time>
      </trkpt>
      <trkpt lat="42.96246" lon="-0.26268">
        <ele>1453.8000488281</ele>
        <time>2020-05-31T07:36:54Z</time>
      </trkpt>
      <trkpt lat="42.96244" lon="-0.26268">
        <ele>1454.1999511719</ele>
        <time>2020-05-31T07:36:55Z</time>
      </trkpt>
      <trkpt lat="42.96243" lon="-0.26268">
        <ele>1454.5999755859</ele>
        <time>2020-05-31T07:36:56Z</time>
      </trkpt>
      <trkpt lat="42.96236" lon="-0.26265">
        <ele>1454.5999755859</ele>
        <time>2020-05-31T07:37:00Z</time>
      </trkpt>
      <trkpt lat="42.9623" lon="-0.26248">
        <ele>1454.5999755859</ele>
        <time>2020-05-31T07:37:06Z</time>
      </trkpt>
      <trkpt lat="42.96231" lon="-0.2622">
        <ele>1454.5999755859</ele>
        <time>2020-05-31T07:37:12Z</time>
      </trkpt>
      <trkpt lat="42.96224" lon="-0.26197">
        <ele>1454.5999755859</ele>
        <time>2020-05-31T07:37:16Z</time>
      </trkpt>
      <trkpt lat="42.9622" lon="-0.26191">
        <ele>1454.5999755859</ele>
        <time>2020-05-31T07:37:17Z</time>
      </trkpt>
      <trkpt lat="42.96216" lon="-0.26187">
        <ele>1454</ele>
        <time>2020-05-31T07:37:18Z</time>
      </trkpt>
      <trkpt lat="42.96212" lon="-0.26184">
        <ele>1453.5999755859</ele>
        <time>2020-05-31T07:37:19Z</time>
      </trkpt>
      <trkpt lat="42.96207" lon="-0.26182">
        <ele>1453</ele>
        <time>2020-05-31T07:37:20Z</time>
      </trkpt>
      <trkpt lat="42.96201" lon="-0.2618">
        <ele>1452.5999755859</ele>
        <time>2020-05-31T07:37:21Z</time>
      </trkpt>
      <trkpt lat="42.96196" lon="-0.26176">
        <ele>1452</ele>
        <time>2020-05-31T07:37:22Z</time>
      </trkpt>
      <trkpt lat="42.96192" lon="-0.26172">
        <ele>1451.4000244141</ele>
        <time>2020-05-31T07:37:23Z</time>
      </trkpt>
      <trkpt lat="42.96189" lon="-0.26167">
        <ele>1451</ele>
        <time>2020-05-31T07:37:24Z</time>
      </trkpt>
      <trkpt lat="42.96185" lon="-0.26164">
        <ele>1450.4000244141</ele>
        <time>2020-05-31T07:37:25Z</time>
      </trkpt>
      <trkpt lat="42.96181" lon="-0.26161">
        <ele>1450</ele>
        <time>2020-05-31T07:37:26Z</time>
      </trkpt>
      <trkpt lat="42.96174" lon="-0.26157">
        <ele>1450</ele>
        <time>2020-05-31T07:37:28Z</time>
      </trkpt>
      <trkpt lat="42.96158" lon="-0.26156">
        <ele>1450</ele>
        <time>2020-05-31T07:37:32Z</time>
      </trkpt>
      <trkpt lat="42.96154" lon="-0.26157">
        <ele>1450</ele>
        <time>2020-05-31T07:37:33Z</time>
      </trkpt>
      <trkpt lat="42.96148" lon="-0.26159">
        <ele>1450.4000244141</ele>
        <time>2020-05-31T07:37:35Z</time>
      </trkpt>
      <trkpt lat="42.96145" lon="-0.2616">
        <ele>1450.8000488281</ele>
        <time>2020-05-31T07:37:36Z</time>
      </trkpt>
      <trkpt lat="42.96142" lon="-0.26161">
        <ele>1451.1999511719</ele>
        <time>2020-05-31T07:37:37Z</time>
      </trkpt>
      <trkpt lat="42.96139" lon="-0.26163">
        <ele>1451.5999755859</ele>
        <time>2020-05-31T07:37:38Z</time>
      </trkpt>
      <trkpt lat="42.96136" lon="-0.26164">
        <ele>1452.1999511719</ele>
        <time>2020-05-31T07:37:39Z</time>
      </trkpt>
      <trkpt lat="42.96122" lon="-0.2617">
        <ele>1452.5999755859</ele>
        <time>2020-05-31T07:37:44Z</time>
      </trkpt>
      <trkpt lat="42.9612" lon="-0.26171">
        <ele>1453</ele>
        <time>2020-05-31T07:37:45Z</time>
      </trkpt>
      <trkpt lat="42.96117" lon="-0.26172">
        <ele>1453.4000244141</ele>
        <time>2020-05-31T07:37:46Z</time>
      </trkpt>
      <trkpt lat="42.96114" lon="-0.26173">
        <ele>1453.8000488281</ele>
        <time>2020-05-31T07:37:47Z</time>
      </trkpt>
      <trkpt lat="42.96111" lon="-0.26173">
        <ele>1454.1999511719</ele>
        <time>2020-05-31T07:37:48Z</time>
      </trkpt>
      <trkpt lat="42.96099" lon="-0.2618">
        <ele>1455.1999511719</ele>
        <time>2020-05-31T07:37:53Z</time>
      </trkpt>
      <trkpt lat="42.96096" lon="-0.26181">
        <ele>1455.5999755859</ele>
        <time>2020-05-31T07:37:54Z</time>
      </trkpt>
      <trkpt lat="42.96093" lon="-0.26182">
        <ele>1456</ele>
        <time>2020-05-31T07:37:55Z</time>
      </trkpt>
      <trkpt lat="42.9609" lon="-0.26182">
        <ele>1456.4000244141</ele>
        <time>2020-05-31T07:37:56Z</time>
      </trkpt>
      <trkpt lat="42.9608" lon="-0.26184">
        <ele>1456.4000244141</ele>
        <time>2020-05-31T07:38:00Z</time>
      </trkpt>
      <trkpt lat="42.96073" lon="-0.26178">
        <ele>1456.8000488281</ele>
        <time>2020-05-31T07:38:03Z</time>
      </trkpt>
      <trkpt lat="42.96072" lon="-0.26175">
        <ele>1457.1999511719</ele>
        <time>2020-05-31T07:38:04Z</time>
      </trkpt>
      <trkpt lat="42.96071" lon="-0.26171">
        <ele>1457.5999755859</ele>
        <time>2020-05-31T07:38:05Z</time>
      </trkpt>
      <trkpt lat="42.9607" lon="-0.26168">
        <ele>1458</ele>
        <time>2020-05-31T07:38:06Z</time>
      </trkpt>
      <trkpt lat="42.96069" lon="-0.26164">
        <ele>1458.4000244141</ele>
        <time>2020-05-31T07:38:07Z</time>
      </trkpt>
      <trkpt lat="42.96066" lon="-0.26153">
        <ele>1458.4000244141</ele>
        <time>2020-05-31T07:38:10Z</time>
      </trkpt>
      <trkpt lat="42.96064" lon="-0.26142">
        <ele>1458.8000488281</ele>
        <time>2020-05-31T07:38:13Z</time>
      </trkpt>
      <trkpt lat="42.96064" lon="-0.26138">
        <ele>1459.4000244141</ele>
        <time>2020-05-31T07:38:14Z</time>
      </trkpt>
      <trkpt lat="42.96063" lon="-0.26134">
        <ele>1459.8000488281</ele>
        <time>2020-05-31T07:38:15Z</time>
      </trkpt>
      <trkpt lat="42.96063" lon="-0.26131">
        <ele>1460.1999511719</ele>
        <time>2020-05-31T07:38:16Z</time>
      </trkpt>
      <trkpt lat="42.96063" lon="-0.26127">
        <ele>1460.5999755859</ele>
        <time>2020-05-31T07:38:17Z</time>
      </trkpt>
      <trkpt lat="42.96061" lon="-0.26104">
        <ele>1460.5999755859</ele>
        <time>2020-05-31T07:38:24Z</time>
      </trkpt>
      <trkpt lat="42.9606" lon="-0.26085">
        <ele>1460.5999755859</ele>
        <time>2020-05-31T07:38:29Z</time>
      </trkpt>
      <trkpt lat="42.96059" lon="-0.26054">
        <ele>1460.5999755859</ele>
        <time>2020-05-31T07:38:35Z</time>
      </trkpt>
      <trkpt lat="42.96059" lon="-0.26041">
        <ele>1460.5999755859</ele>
        <time>2020-05-31T07:38:37Z</time>
      </trkpt>
      <trkpt lat="42.96059" lon="-0.26028">
        <ele>1460.1999511719</ele>
        <time>2020-05-31T07:38:39Z</time>
      </trkpt>
      <trkpt lat="42.96058" lon="-0.26021">
        <ele>1459.8000488281</ele>
        <time>2020-05-31T07:38:40Z</time>
      </trkpt>
      <trkpt lat="42.96056" lon="-0.26014">
        <ele>1459.1999511719</ele>
        <time>2020-05-31T07:38:41Z</time>
      </trkpt>
      <trkpt lat="42.96053" lon="-0.26007">
        <ele>1458.1999511719</ele>
        <time>2020-05-31T07:38:42Z</time>
      </trkpt>
      <trkpt lat="42.96049" lon="-0.26001">
        <ele>1457.5999755859</ele>
        <time>2020-05-31T07:38:43Z</time>
      </trkpt>
      <trkpt lat="42.96045" lon="-0.25995">
        <ele>1457</ele>
        <time>2020-05-31T07:38:44Z</time>
      </trkpt>
      <trkpt lat="42.96041" lon="-0.25988">
        <ele>1456.4000244141</ele>
        <time>2020-05-31T07:38:45Z</time>
      </trkpt>
      <trkpt lat="42.96038" lon="-0.25981">
        <ele>1455.8000488281</ele>
        <time>2020-05-31T07:38:46Z</time>
      </trkpt>
      <trkpt lat="42.96036" lon="-0.25973">
        <ele>1455.1999511719</ele>
        <time>2020-05-31T07:38:47Z</time>
      </trkpt>
      <trkpt lat="42.96034" lon="-0.25964">
        <ele>1454.8000488281</ele>
        <time>2020-05-31T07:38:48Z</time>
      </trkpt>
      <trkpt lat="42.96033" lon="-0.25954">
        <ele>1454</ele>
        <time>2020-05-31T07:38:49Z</time>
      </trkpt>
      <trkpt lat="42.96032" lon="-0.25944">
        <ele>1453.4000244141</ele>
        <time>2020-05-31T07:38:50Z</time>
      </trkpt>
      <trkpt lat="42.96032" lon="-0.25934">
        <ele>1452.8000488281</ele>
        <time>2020-05-31T07:38:51Z</time>
      </trkpt>
      <trkpt lat="42.96032" lon="-0.25925">
        <ele>1452.1999511719</ele>
        <time>2020-05-31T07:38:52Z</time>
      </trkpt>
      <trkpt lat="42.96034" lon="-0.25915">
        <ele>1451.5999755859</ele>
        <time>2020-05-31T07:38:53Z</time>
      </trkpt>
      <trkpt lat="42.96037" lon="-0.25905">
        <ele>1451</ele>
        <time>2020-05-31T07:38:54Z</time>
      </trkpt>
      <trkpt lat="42.9604" lon="-0.25895">
        <ele>1450.5999755859</ele>
        <time>2020-05-31T07:38:55Z</time>
      </trkpt>
      <trkpt lat="42.96044" lon="-0.25884">
        <ele>1449.8000488281</ele>
        <time>2020-05-31T07:38:56Z</time>
      </trkpt>
      <trkpt lat="42.96048" lon="-0.25873">
        <ele>1448.8000488281</ele>
        <time>2020-05-31T07:38:57Z</time>
      </trkpt>
      <trkpt lat="42.96052" lon="-0.25861">
        <ele>1447.8000488281</ele>
        <time>2020-05-31T07:38:58Z</time>
      </trkpt>
      <trkpt lat="42.96056" lon="-0.25848">
        <ele>1446.8000488281</ele>
        <time>2020-05-31T07:38:59Z</time>
      </trkpt>
      <trkpt lat="42.9606" lon="-0.25834">
        <ele>1445.5999755859</ele>
        <time>2020-05-31T07:39:00Z</time>
      </trkpt>
      <trkpt lat="42.96063" lon="-0.25819">
        <ele>1444.8000488281</ele>
        <time>2020-05-31T07:39:01Z</time>
      </trkpt>
      <trkpt lat="42.96065" lon="-0.25805">
        <ele>1443.8000488281</ele>
        <time>2020-05-31T07:39:02Z</time>
      </trkpt>
      <trkpt lat="42.96069" lon="-0.25789">
        <ele>1442.5999755859</ele>
        <time>2020-05-31T07:39:03Z</time>
      </trkpt>
      <trkpt lat="42.96072" lon="-0.25774">
        <ele>1441.5999755859</ele>
        <time>2020-05-31T07:39:04Z</time>
      </trkpt>
      <trkpt lat="42.96076" lon="-0.25759">
        <ele>1440.4000244141</ele>
        <time>2020-05-31T07:39:05Z</time>
      </trkpt>
      <trkpt lat="42.96078" lon="-0.25745">
        <ele>1439.1999511719</ele>
        <time>2020-05-31T07:39:06Z</time>
      </trkpt>
      <trkpt lat="42.96079" lon="-0.25731">
        <ele>1437.1999511719</ele>
        <time>2020-05-31T07:39:07Z</time>
      </trkpt>
      <trkpt lat="42.96079" lon="-0.25719">
        <ele>1436.1999511719</ele>
        <time>2020-05-31T07:39:08Z</time>
      </trkpt>
      <trkpt lat="42.96079" lon="-0.25708">
        <ele>1435.1999511719</ele>
        <time>2020-05-31T07:39:09Z</time>
      </trkpt>
      <trkpt lat="42.96079" lon="-0.25699">
        <ele>1434.4000244141</ele>
        <time>2020-05-31T07:39:10Z</time>
      </trkpt>
      <trkpt lat="42.96079" lon="-0.25689">
        <ele>1433.4000244141</ele>
        <time>2020-05-31T07:39:11Z</time>
      </trkpt>
      <trkpt lat="42.96079" lon="-0.25681">
        <ele>1433.4000244141</ele>
        <time>2020-05-31T07:39:12Z</time>
      </trkpt>
      <trkpt lat="42.96081" lon="-0.25665">
        <ele>1433.4000244141</ele>
        <time>2020-05-31T07:39:14Z</time>
      </trkpt>
      <trkpt lat="42.96083" lon="-0.25657">
        <ele>1433.4000244141</ele>
        <time>2020-05-31T07:39:15Z</time>
      </trkpt>
      <trkpt lat="42.96087" lon="-0.25651">
        <ele>1433</ele>
        <time>2020-05-31T07:39:16Z</time>
      </trkpt>
      <trkpt lat="42.96091" lon="-0.25645">
        <ele>1432.4000244141</ele>
        <time>2020-05-31T07:39:17Z</time>
      </trkpt>
      <trkpt lat="42.96094" lon="-0.25638">
        <ele>1432</ele>
        <time>2020-05-31T07:39:18Z</time>
      </trkpt>
      <trkpt lat="42.96096" lon="-0.25631">
        <ele>1431.4000244141</ele>
        <time>2020-05-31T07:39:19Z</time>
      </trkpt>
      <trkpt lat="42.96098" lon="-0.25622">
        <ele>1431</ele>
        <time>2020-05-31T07:39:20Z</time>
      </trkpt>
      <trkpt lat="42.96099" lon="-0.25613">
        <ele>1431</ele>
        <time>2020-05-31T07:39:21Z</time>
      </trkpt>
      <trkpt lat="42.96101" lon="-0.25605">
        <ele>1430.5999755859</ele>
        <time>2020-05-31T07:39:22Z</time>
      </trkpt>
      <trkpt lat="42.96103" lon="-0.25599">
        <ele>1430.1999511719</ele>
        <time>2020-05-31T07:39:23Z</time>
      </trkpt>
      <trkpt lat="42.96105" lon="-0.25594">
        <ele>1429.8000488281</ele>
        <time>2020-05-31T07:39:24Z</time>
      </trkpt>
      <trkpt lat="42.96107" lon="-0.2559">
        <ele>1429.4000244141</ele>
        <time>2020-05-31T07:39:25Z</time>
      </trkpt>
      <trkpt lat="42.96108" lon="-0.25587">
        <ele>1429</ele>
        <time>2020-05-31T07:39:26Z</time>
      </trkpt>
      <trkpt lat="42.96111" lon="-0.25584">
        <ele>1429</ele>
        <time>2020-05-31T07:39:28Z</time>
      </trkpt>
      <trkpt lat="42.96111" lon="-0.25584">
        <ele>1429</ele>
        <time>2020-05-31T07:39:32Z</time>
      </trkpt>
      <trkpt lat="42.96111" lon="-0.25584">
        <ele>1429</ele>
        <time>2020-05-31T07:39:38Z</time>
      </trkpt>
      <trkpt lat="42.96111" lon="-0.25584">
        <ele>1429</ele>
        <time>2020-05-31T07:39:51Z</time>
      </trkpt>
      <trkpt lat="42.96111" lon="-0.25584">
        <ele>1429</ele>
        <time>2020-05-31T07:40:03Z</time>
      </trkpt>
      <trkpt lat="42.96111" lon="-0.25584">
        <ele>1429</ele>
        <time>2020-05-31T07:40:18Z</time>
      </trkpt>
      <trkpt lat="42.96112" lon="-0.25584">
        <ele>1429</ele>
        <time>2020-05-31T07:40:27Z</time>
      </trkpt>
      <trkpt lat="42.96114" lon="-0.25585">
        <ele>1429</ele>
        <time>2020-05-31T07:40:33Z</time>
      </trkpt>
      <trkpt lat="42.96115" lon="-0.25584">
        <ele>1429</ele>
        <time>2020-05-31T07:40:34Z</time>
      </trkpt>
      <trkpt lat="42.96119" lon="-0.25577">
        <ele>1429</ele>
        <time>2020-05-31T07:40:38Z</time>
      </trkpt>
      <trkpt lat="42.9612" lon="-0.25574">
        <ele>1429</ele>
        <time>2020-05-31T07:40:39Z</time>
      </trkpt>
      <trkpt lat="42.96133" lon="-0.25551">
        <ele>1429</ele>
        <time>2020-05-31T07:40:46Z</time>
      </trkpt>
      <trkpt lat="42.96144" lon="-0.25531">
        <ele>1429</ele>
        <time>2020-05-31T07:40:52Z</time>
      </trkpt>
      <trkpt lat="42.96148" lon="-0.25527">
        <ele>1429</ele>
        <time>2020-05-31T07:40:54Z</time>
      </trkpt>
      <trkpt lat="42.96152" lon="-0.25526">
        <ele>1429</ele>
        <time>2020-05-31T07:40:56Z</time>
      </trkpt>
      <trkpt lat="42.9616" lon="-0.25531">
        <ele>1429</ele>
        <time>2020-05-31T07:41:00Z</time>
      </trkpt>
      <trkpt lat="42.96161" lon="-0.25533">
        <ele>1429</ele>
        <time>2020-05-31T07:41:01Z</time>
      </trkpt>
      <trkpt lat="42.96171" lon="-0.25553">
        <ele>1429</ele>
        <time>2020-05-31T07:41:09Z</time>
      </trkpt>
      <trkpt lat="42.96173" lon="-0.25561">
        <ele>1429.4000244141</ele>
        <time>2020-05-31T07:41:12Z</time>
      </trkpt>
      <trkpt lat="42.96174" lon="-0.25562">
        <ele>1429.8000488281</ele>
        <time>2020-05-31T07:41:13Z</time>
      </trkpt>
      <trkpt lat="42.96174" lon="-0.25564">
        <ele>1430.1999511719</ele>
        <time>2020-05-31T07:41:14Z</time>
      </trkpt>
      <trkpt lat="42.96175" lon="-0.25566">
        <ele>1430.5999755859</ele>
        <time>2020-05-31T07:41:15Z</time>
      </trkpt>
      <trkpt lat="42.96174" lon="-0.25569">
        <ele>1431</ele>
        <time>2020-05-31T07:41:16Z</time>
      </trkpt>
      <trkpt lat="42.96173" lon="-0.25577">
        <ele>1431</ele>
        <time>2020-05-31T07:41:20Z</time>
      </trkpt>
      <trkpt lat="42.96173" lon="-0.25583">
        <ele>1431.4000244141</ele>
        <time>2020-05-31T07:41:23Z</time>
      </trkpt>
      <trkpt lat="42.96173" lon="-0.25585">
        <ele>1431.8000488281</ele>
        <time>2020-05-31T07:41:24Z</time>
      </trkpt>
      <trkpt lat="42.96172" lon="-0.25587">
        <ele>1432.1999511719</ele>
        <time>2020-05-31T07:41:25Z</time>
      </trkpt>
      <trkpt lat="42.96171" lon="-0.25589">
        <ele>1432.5999755859</ele>
        <time>2020-05-31T07:41:26Z</time>
      </trkpt>
      <trkpt lat="42.9617" lon="-0.25591">
        <ele>1433</ele>
        <time>2020-05-31T07:41:27Z</time>
      </trkpt>
      <trkpt lat="42.96169" lon="-0.25595">
        <ele>1433</ele>
        <time>2020-05-31T07:41:29Z</time>
      </trkpt>
      <trkpt lat="42.96167" lon="-0.256">
        <ele>1433.4000244141</ele>
        <time>2020-05-31T07:41:32Z</time>
      </trkpt>
      <trkpt lat="42.96166" lon="-0.25601">
        <ele>1434.1999511719</ele>
        <time>2020-05-31T07:41:33Z</time>
      </trkpt>
      <trkpt lat="42.96165" lon="-0.25602">
        <ele>1434.5999755859</ele>
        <time>2020-05-31T07:41:34Z</time>
      </trkpt>
      <trkpt lat="42.96165" lon="-0.25604">
        <ele>1435</ele>
        <time>2020-05-31T07:41:35Z</time>
      </trkpt>
      <trkpt lat="42.96162" lon="-0.25613">
        <ele>1435.4000244141</ele>
        <time>2020-05-31T07:41:40Z</time>
      </trkpt>
      <trkpt lat="42.96162" lon="-0.25615">
        <ele>1436</ele>
        <time>2020-05-31T07:41:41Z</time>
      </trkpt>
      <trkpt lat="42.96161" lon="-0.25617">
        <ele>1436.4000244141</ele>
        <time>2020-05-31T07:41:42Z</time>
      </trkpt>
      <trkpt lat="42.96161" lon="-0.25619">
        <ele>1436.8000488281</ele>
        <time>2020-05-31T07:41:43Z</time>
      </trkpt>
      <trkpt lat="42.96161" lon="-0.25621">
        <ele>1437.1999511719</ele>
        <time>2020-05-31T07:41:44Z</time>
      </trkpt>
      <trkpt lat="42.96161" lon="-0.25623">
        <ele>1437.1999511719</ele>
        <time>2020-05-31T07:41:45Z</time>
      </trkpt>
      <trkpt lat="42.96161" lon="-0.25628">
        <ele>1437.1999511719</ele>
        <time>2020-05-31T07:41:48Z</time>
      </trkpt>
      <trkpt lat="42.96162" lon="-0.25635">
        <ele>1437.5999755859</ele>
        <time>2020-05-31T07:41:52Z</time>
      </trkpt>
      <trkpt lat="42.96163" lon="-0.25636">
        <ele>1438</ele>
        <time>2020-05-31T07:41:53Z</time>
      </trkpt>
      <trkpt lat="42.96164" lon="-0.25638">
        <ele>1438.4000244141</ele>
        <time>2020-05-31T07:41:54Z</time>
      </trkpt>
      <trkpt lat="42.96164" lon="-0.25639">
        <ele>1438.8000488281</ele>
        <time>2020-05-31T07:41:55Z</time>
      </trkpt>
      <trkpt lat="42.96165" lon="-0.25641">
        <ele>1439.1999511719</ele>
        <time>2020-05-31T07:41:56Z</time>
      </trkpt>
      <trkpt lat="42.96167" lon="-0.25643">
        <ele>1439.1999511719</ele>
        <time>2020-05-31T07:41:58Z</time>
      </trkpt>
      <trkpt lat="42.9617" lon="-0.25647">
        <ele>1439.1999511719</ele>
        <time>2020-05-31T07:42:01Z</time>
      </trkpt>
      <trkpt lat="42.96175" lon="-0.25652">
        <ele>1439.1999511719</ele>
        <time>2020-05-31T07:42:05Z</time>
      </trkpt>
      <trkpt lat="42.96185" lon="-0.25655">
        <ele>1439.1999511719</ele>
        <time>2020-05-31T07:42:12Z</time>
      </trkpt>
      <trkpt lat="42.96191" lon="-0.25654">
        <ele>1439.5999755859</ele>
        <time>2020-05-31T07:42:16Z</time>
      </trkpt>
      <trkpt lat="42.96193" lon="-0.25653">
        <ele>1440</ele>
        <time>2020-05-31T07:42:17Z</time>
      </trkpt>
      <trkpt lat="42.96195" lon="-0.25651">
        <ele>1440.4000244141</ele>
        <time>2020-05-31T07:42:18Z</time>
      </trkpt>
      <trkpt lat="42.96196" lon="-0.25649">
        <ele>1440.8000488281</ele>
        <time>2020-05-31T07:42:19Z</time>
      </trkpt>
      <trkpt lat="42.96198" lon="-0.25648">
        <ele>1441.4000244141</ele>
        <time>2020-05-31T07:42:20Z</time>
      </trkpt>
      <trkpt lat="42.96207" lon="-0.25641">
        <ele>1441.4000244141</ele>
        <time>2020-05-31T07:42:26Z</time>
      </trkpt>
      <trkpt lat="42.9622" lon="-0.25629">
        <ele>1441.4000244141</ele>
        <time>2020-05-31T07:42:34Z</time>
      </trkpt>
      <trkpt lat="42.96223" lon="-0.25621">
        <ele>1441.8000488281</ele>
        <time>2020-05-31T07:42:38Z</time>
      </trkpt>
      <trkpt lat="42.96224" lon="-0.25619">
        <ele>1442.1999511719</ele>
        <time>2020-05-31T07:42:39Z</time>
      </trkpt>
      <trkpt lat="42.96225" lon="-0.25617">
        <ele>1442.5999755859</ele>
        <time>2020-05-31T07:42:40Z</time>
      </trkpt>
      <trkpt lat="42.96225" lon="-0.25615">
        <ele>1443</ele>
        <time>2020-05-31T07:42:41Z</time>
      </trkpt>
      <trkpt lat="42.96226" lon="-0.25613">
        <ele>1443.5999755859</ele>
        <time>2020-05-31T07:42:42Z</time>
      </trkpt>
      <trkpt lat="42.96232" lon="-0.25599">
        <ele>1443.5999755859</ele>
        <time>2020-05-31T07:42:49Z</time>
      </trkpt>
      <trkpt lat="42.96236" lon="-0.25588">
        <ele>1444</ele>
        <time>2020-05-31T07:42:54Z</time>
      </trkpt>
      <trkpt lat="42.96237" lon="-0.25585">
        <ele>1444.4000244141</ele>
        <time>2020-05-31T07:42:55Z</time>
      </trkpt>
      <trkpt lat="42.96238" lon="-0.25583">
        <ele>1444.8000488281</ele>
        <time>2020-05-31T07:42:56Z</time>
      </trkpt>
      <trkpt lat="42.96239" lon="-0.2558">
        <ele>1445.1999511719</ele>
        <time>2020-05-31T07:42:57Z</time>
      </trkpt>
      <trkpt lat="42.96239" lon="-0.25577">
        <ele>1445.5999755859</ele>
        <time>2020-05-31T07:42:58Z</time>
      </trkpt>
      <trkpt lat="42.96243" lon="-0.25563">
        <ele>1445.5999755859</ele>
        <time>2020-05-31T07:43:03Z</time>
      </trkpt>
      <trkpt lat="42.96252" lon="-0.25542">
        <ele>1445.5999755859</ele>
        <time>2020-05-31T07:43:09Z</time>
      </trkpt>
      <trkpt lat="42.96264" lon="-0.25516">
        <ele>1445.5999755859</ele>
        <time>2020-05-31T07:43:15Z</time>
      </trkpt>
      <trkpt lat="42.96268" lon="-0.25498">
        <ele>1445.5999755859</ele>
        <time>2020-05-31T07:43:19Z</time>
      </trkpt>
      <trkpt lat="42.96267" lon="-0.25493">
        <ele>1445.5999755859</ele>
        <time>2020-05-31T07:43:20Z</time>
      </trkpt>
      <trkpt lat="42.96265" lon="-0.2548">
        <ele>1445.5999755859</ele>
        <time>2020-05-31T07:43:24Z</time>
      </trkpt>
      <trkpt lat="42.96263" lon="-0.2546">
        <ele>1445.5999755859</ele>
        <time>2020-05-31T07:43:31Z</time>
      </trkpt>
      <trkpt lat="42.96262" lon="-0.25438">
        <ele>1445.5999755859</ele>
        <time>2020-05-31T07:43:40Z</time>
      </trkpt>
      <trkpt lat="42.96262" lon="-0.25436">
        <ele>1446</ele>
        <time>2020-05-31T07:43:41Z</time>
      </trkpt>
      <trkpt lat="42.96263" lon="-0.25433">
        <ele>1446.4000244141</ele>
        <time>2020-05-31T07:43:42Z</time>
      </trkpt>
      <trkpt lat="42.96263" lon="-0.25431">
        <ele>1446.8000488281</ele>
        <time>2020-05-31T07:43:43Z</time>
      </trkpt>
      <trkpt lat="42.96263" lon="-0.25428">
        <ele>1447.1999511719</ele>
        <time>2020-05-31T07:43:44Z</time>
      </trkpt>
      <trkpt lat="42.96264" lon="-0.25426">
        <ele>1447.8000488281</ele>
        <time>2020-05-31T07:43:45Z</time>
      </trkpt>
      <trkpt lat="42.96265" lon="-0.25421">
        <ele>1447.8000488281</ele>
        <time>2020-05-31T07:43:47Z</time>
      </trkpt>
      <trkpt lat="42.96272" lon="-0.25407">
        <ele>1447.8000488281</ele>
        <time>2020-05-31T07:43:53Z</time>
      </trkpt>
      <trkpt lat="42.9628" lon="-0.25389">
        <ele>1447.8000488281</ele>
        <time>2020-05-31T07:44:00Z</time>
      </trkpt>
      <trkpt lat="42.96286" lon="-0.25372">
        <ele>1447.8000488281</ele>
        <time>2020-05-31T07:44:07Z</time>
      </trkpt>
      <trkpt lat="42.96292" lon="-0.25363">
        <ele>1448.1999511719</ele>
        <time>2020-05-31T07:44:12Z</time>
      </trkpt>
      <trkpt lat="42.96294" lon="-0.25362">
        <ele>1448.5999755859</ele>
        <time>2020-05-31T07:44:13Z</time>
      </trkpt>
      <trkpt lat="42.96295" lon="-0.25361">
        <ele>1449</ele>
        <time>2020-05-31T07:44:14Z</time>
      </trkpt>
      <trkpt lat="42.96297" lon="-0.25361">
        <ele>1449.4000244141</ele>
        <time>2020-05-31T07:44:15Z</time>
      </trkpt>
      <trkpt lat="42.96299" lon="-0.25362">
        <ele>1449.8000488281</ele>
        <time>2020-05-31T07:44:16Z</time>
      </trkpt>
      <trkpt lat="42.963" lon="-0.25364">
        <ele>1449.8000488281</ele>
        <time>2020-05-31T07:44:17Z</time>
      </trkpt>
      <trkpt lat="42.96301" lon="-0.25366">
        <ele>1449.8000488281</ele>
        <time>2020-05-31T07:44:18Z</time>
      </trkpt>
      <trkpt lat="42.96301" lon="-0.25376">
        <ele>1449.8000488281</ele>
        <time>2020-05-31T07:44:22Z</time>
      </trkpt>
      <trkpt lat="42.96301" lon="-0.25379">
        <ele>1449.8000488281</ele>
        <time>2020-05-31T07:44:23Z</time>
      </trkpt>
      <trkpt lat="42.96298" lon="-0.25387">
        <ele>1450.1999511719</ele>
        <time>2020-05-31T07:44:26Z</time>
      </trkpt>
      <trkpt lat="42.96297" lon="-0.25389">
        <ele>1451</ele>
        <time>2020-05-31T07:44:27Z</time>
      </trkpt>
      <trkpt lat="42.96297" lon="-0.25392">
        <ele>1451.4000244141</ele>
        <time>2020-05-31T07:44:28Z</time>
      </trkpt>
      <trkpt lat="42.96296" lon="-0.25394">
        <ele>1451.8000488281</ele>
        <time>2020-05-31T07:44:29Z</time>
      </trkpt>
      <trkpt lat="42.96295" lon="-0.25403">
        <ele>1451.8000488281</ele>
        <time>2020-05-31T07:44:34Z</time>
      </trkpt>
      <trkpt lat="42.96291" lon="-0.25414">
        <ele>1452.4000244141</ele>
        <time>2020-05-31T07:44:39Z</time>
      </trkpt>
      <trkpt lat="42.96291" lon="-0.25416">
        <ele>1452.8000488281</ele>
        <time>2020-05-31T07:44:40Z</time>
      </trkpt>
      <trkpt lat="42.9629" lon="-0.25418">
        <ele>1453.1999511719</ele>
        <time>2020-05-31T07:44:41Z</time>
      </trkpt>
      <trkpt lat="42.9629" lon="-0.2542">
        <ele>1453.5999755859</ele>
        <time>2020-05-31T07:44:42Z</time>
      </trkpt>
      <trkpt lat="42.96289" lon="-0.25422">
        <ele>1454</ele>
        <time>2020-05-31T07:44:43Z</time>
      </trkpt>
      <trkpt lat="42.96288" lon="-0.2543">
        <ele>1454</ele>
        <time>2020-05-31T07:44:47Z</time>
      </trkpt>
      <trkpt lat="42.96288" lon="-0.25436">
        <ele>1454.4000244141</ele>
        <time>2020-05-31T07:44:50Z</time>
      </trkpt>
      <trkpt lat="42.96288" lon="-0.25437">
        <ele>1455.4000244141</ele>
        <time>2020-05-31T07:44:51Z</time>
      </trkpt>
      <trkpt lat="42.96289" lon="-0.25439">
        <ele>1455.8000488281</ele>
        <time>2020-05-31T07:44:52Z</time>
      </trkpt>
      <trkpt lat="42.96289" lon="-0.25441">
        <ele>1456.1999511719</ele>
        <time>2020-05-31T07:44:53Z</time>
      </trkpt>
      <trkpt lat="42.96292" lon="-0.25446">
        <ele>1456.1999511719</ele>
        <time>2020-05-31T07:44:56Z</time>
      </trkpt>
      <trkpt lat="42.96299" lon="-0.25445">
        <ele>1456.5999755859</ele>
        <time>2020-05-31T07:45:01Z</time>
      </trkpt>
      <trkpt lat="42.96299" lon="-0.25443">
        <ele>1457</ele>
        <time>2020-05-31T07:45:02Z</time>
      </trkpt>
      <trkpt lat="42.963" lon="-0.25441">
        <ele>1457.4000244141</ele>
        <time>2020-05-31T07:45:03Z</time>
      </trkpt>
      <trkpt lat="42.963" lon="-0.25439">
        <ele>1457.8000488281</ele>
        <time>2020-05-31T07:45:04Z</time>
      </trkpt>
      <trkpt lat="42.96301" lon="-0.25437">
        <ele>1458.1999511719</ele>
        <time>2020-05-31T07:45:05Z</time>
      </trkpt>
      <trkpt lat="42.96301" lon="-0.25431">
        <ele>1458.1999511719</ele>
        <time>2020-05-31T07:45:07Z</time>
      </trkpt>
      <trkpt lat="42.96305" lon="-0.25415">
        <ele>1458.1999511719</ele>
        <time>2020-05-31T07:45:13Z</time>
      </trkpt>
      <trkpt lat="42.96312" lon="-0.25391">
        <ele>1458.1999511719</ele>
        <time>2020-05-31T07:45:20Z</time>
      </trkpt>
      <trkpt lat="42.96322" lon="-0.25367">
        <ele>1458.1999511719</ele>
        <time>2020-05-31T07:45:28Z</time>
      </trkpt>
      <trkpt lat="42.96327" lon="-0.25353">
        <ele>1458.5999755859</ele>
        <time>2020-05-31T07:45:33Z</time>
      </trkpt>
      <trkpt lat="42.96327" lon="-0.25351">
        <ele>1459</ele>
        <time>2020-05-31T07:45:34Z</time>
      </trkpt>
      <trkpt lat="42.96328" lon="-0.25348">
        <ele>1459.4000244141</ele>
        <time>2020-05-31T07:45:35Z</time>
      </trkpt>
      <trkpt lat="42.96328" lon="-0.25346">
        <ele>1459.8000488281</ele>
        <time>2020-05-31T07:45:36Z</time>
      </trkpt>
      <trkpt lat="42.96329" lon="-0.25343">
        <ele>1460.1999511719</ele>
        <time>2020-05-31T07:45:37Z</time>
      </trkpt>
      <trkpt lat="42.96336" lon="-0.25331">
        <ele>1460.1999511719</ele>
        <time>2020-05-31T07:45:42Z</time>
      </trkpt>
      <trkpt lat="42.96344" lon="-0.25319">
        <ele>1460.5999755859</ele>
        <time>2020-05-31T07:45:48Z</time>
      </trkpt>
      <trkpt lat="42.96346" lon="-0.25317">
        <ele>1461</ele>
        <time>2020-05-31T07:45:49Z</time>
      </trkpt>
      <trkpt lat="42.96348" lon="-0.25315">
        <ele>1461.4000244141</ele>
        <time>2020-05-31T07:45:50Z</time>
      </trkpt>
      <trkpt lat="42.96349" lon="-0.25314">
        <ele>1461.8000488281</ele>
        <time>2020-05-31T07:45:51Z</time>
      </trkpt>
      <trkpt lat="42.96351" lon="-0.25312">
        <ele>1462.1999511719</ele>
        <time>2020-05-31T07:45:52Z</time>
      </trkpt>
      <trkpt lat="42.96356" lon="-0.25307">
        <ele>1462.1999511719</ele>
        <time>2020-05-31T07:45:55Z</time>
      </trkpt>
      <trkpt lat="42.96366" lon="-0.25296">
        <ele>1462.1999511719</ele>
        <time>2020-05-31T07:46:00Z</time>
      </trkpt>
      <trkpt lat="42.96367" lon="-0.25292">
        <ele>1462.1999511719</ele>
        <time>2020-05-31T07:46:01Z</time>
      </trkpt>
      <trkpt lat="42.96369" lon="-0.25282">
        <ele>1462.1999511719</ele>
        <time>2020-05-31T07:46:04Z</time>
      </trkpt>
      <trkpt lat="42.96373" lon="-0.25264">
        <ele>1462.1999511719</ele>
        <time>2020-05-31T07:46:08Z</time>
      </trkpt>
      <trkpt lat="42.96375" lon="-0.25251">
        <ele>1462.1999511719</ele>
        <time>2020-05-31T07:46:10Z</time>
      </trkpt>
      <trkpt lat="42.96381" lon="-0.25234">
        <ele>1462.1999511719</ele>
        <time>2020-05-31T07:46:13Z</time>
      </trkpt>
      <trkpt lat="42.96386" lon="-0.25223">
        <ele>1462.1999511719</ele>
        <time>2020-05-31T07:46:15Z</time>
      </trkpt>
      <trkpt lat="42.96392" lon="-0.2522">
        <ele>1462.1999511719</ele>
        <time>2020-05-31T07:46:17Z</time>
      </trkpt>
      <trkpt lat="42.96403" lon="-0.25222">
        <ele>1462.1999511719</ele>
        <time>2020-05-31T07:46:21Z</time>
      </trkpt>
      <trkpt lat="42.9641" lon="-0.25227">
        <ele>1462.5999755859</ele>
        <time>2020-05-31T07:46:24Z</time>
      </trkpt>
      <trkpt lat="42.96412" lon="-0.25228">
        <ele>1463</ele>
        <time>2020-05-31T07:46:25Z</time>
      </trkpt>
      <trkpt lat="42.96414" lon="-0.25229">
        <ele>1463.4000244141</ele>
        <time>2020-05-31T07:46:26Z</time>
      </trkpt>
      <trkpt lat="42.96416" lon="-0.25232">
        <ele>1463.8000488281</ele>
        <time>2020-05-31T07:46:27Z</time>
      </trkpt>
      <trkpt lat="42.96418" lon="-0.25235">
        <ele>1464.4000244141</ele>
        <time>2020-05-31T07:46:28Z</time>
      </trkpt>
      <trkpt lat="42.9642" lon="-0.25243">
        <ele>1464.4000244141</ele>
        <time>2020-05-31T07:46:31Z</time>
      </trkpt>
      <trkpt lat="42.96419" lon="-0.25246">
        <ele>1464.8000488281</ele>
        <time>2020-05-31T07:46:32Z</time>
      </trkpt>
      <trkpt lat="42.96418" lon="-0.25248">
        <ele>1465.1999511719</ele>
        <time>2020-05-31T07:46:33Z</time>
      </trkpt>
      <trkpt lat="42.96417" lon="-0.2525">
        <ele>1465.5999755859</ele>
        <time>2020-05-31T07:46:34Z</time>
      </trkpt>
      <trkpt lat="42.96415" lon="-0.25251">
        <ele>1466.1999511719</ele>
        <time>2020-05-31T07:46:35Z</time>
      </trkpt>
      <trkpt lat="42.96414" lon="-0.25252">
        <ele>1466.5999755859</ele>
        <time>2020-05-31T07:46:36Z</time>
      </trkpt>
      <trkpt lat="42.96405" lon="-0.25255">
        <ele>1467</ele>
        <time>2020-05-31T07:46:42Z</time>
      </trkpt>
      <trkpt lat="42.96404" lon="-0.25255">
        <ele>1467.5999755859</ele>
        <time>2020-05-31T07:46:43Z</time>
      </trkpt>
      <trkpt lat="42.96402" lon="-0.25256">
        <ele>1468</ele>
        <time>2020-05-31T07:46:44Z</time>
      </trkpt>
      <trkpt lat="42.96401" lon="-0.25257">
        <ele>1468.4000244141</ele>
        <time>2020-05-31T07:46:45Z</time>
      </trkpt>
      <trkpt lat="42.96399" lon="-0.25258">
        <ele>1468.8000488281</ele>
        <time>2020-05-31T07:46:46Z</time>
      </trkpt>
      <trkpt lat="42.96395" lon="-0.25264">
        <ele>1468.8000488281</ele>
        <time>2020-05-31T07:46:50Z</time>
      </trkpt>
      <trkpt lat="42.96394" lon="-0.25266">
        <ele>1469.1999511719</ele>
        <time>2020-05-31T07:46:51Z</time>
      </trkpt>
      <trkpt lat="42.96393" lon="-0.25268">
        <ele>1469.8000488281</ele>
        <time>2020-05-31T07:46:52Z</time>
      </trkpt>
      <trkpt lat="42.96393" lon="-0.2527">
        <ele>1470.1999511719</ele>
        <time>2020-05-31T07:46:53Z</time>
      </trkpt>
      <trkpt lat="42.96393" lon="-0.25273">
        <ele>1470.5999755859</ele>
        <time>2020-05-31T07:46:54Z</time>
      </trkpt>
      <trkpt lat="42.96394" lon="-0.25276">
        <ele>1471</ele>
        <time>2020-05-31T07:46:55Z</time>
      </trkpt>
      <trkpt lat="42.964" lon="-0.25283">
        <ele>1471</ele>
        <time>2020-05-31T07:47:00Z</time>
      </trkpt>
      <trkpt lat="42.96401" lon="-0.25284">
        <ele>1471.4000244141</ele>
        <time>2020-05-31T07:47:01Z</time>
      </trkpt>
      <trkpt lat="42.96403" lon="-0.25284">
        <ele>1471.8000488281</ele>
        <time>2020-05-31T07:47:02Z</time>
      </trkpt>
      <trkpt lat="42.96404" lon="-0.25285">
        <ele>1472.1999511719</ele>
        <time>2020-05-31T07:47:03Z</time>
      </trkpt>
      <trkpt lat="42.96405" lon="-0.25285">
        <ele>1472.8000488281</ele>
        <time>2020-05-31T07:47:04Z</time>
      </trkpt>
      <trkpt lat="42.96407" lon="-0.25285">
        <ele>1473.1999511719</ele>
        <time>2020-05-31T07:47:05Z</time>
      </trkpt>
      <trkpt lat="42.96409" lon="-0.25285">
        <ele>1473.1999511719</ele>
        <time>2020-05-31T07:47:07Z</time>
      </trkpt>
      <trkpt lat="42.96411" lon="-0.25287">
        <ele>1473.1999511719</ele>
        <time>2020-05-31T07:47:09Z</time>
      </trkpt>
      <trkpt lat="42.96416" lon="-0.2529">
        <ele>1473.1999511719</ele>
        <time>2020-05-31T07:47:13Z</time>
      </trkpt>
      <trkpt lat="42.96419" lon="-0.25292">
        <ele>1473.5999755859</ele>
        <time>2020-05-31T07:47:15Z</time>
      </trkpt>
      <trkpt lat="42.9642" lon="-0.25293">
        <ele>1474</ele>
        <time>2020-05-31T07:47:16Z</time>
      </trkpt>
      <trkpt lat="42.96422" lon="-0.25293">
        <ele>1474.4000244141</ele>
        <time>2020-05-31T07:47:17Z</time>
      </trkpt>
      <trkpt lat="42.96423" lon="-0.25294">
        <ele>1474.8000488281</ele>
        <time>2020-05-31T07:47:18Z</time>
      </trkpt>
      <trkpt lat="42.96424" lon="-0.25295">
        <ele>1475.1999511719</ele>
        <time>2020-05-31T07:47:19Z</time>
      </trkpt>
      <trkpt lat="42.96425" lon="-0.25296">
        <ele>1475.1999511719</ele>
        <time>2020-05-31T07:47:20Z</time>
      </trkpt>
      <trkpt lat="42.96433" lon="-0.253">
        <ele>1475.5999755859</ele>
        <time>2020-05-31T07:47:26Z</time>
      </trkpt>
      <trkpt lat="42.96434" lon="-0.25301">
        <ele>1476</ele>
        <time>2020-05-31T07:47:27Z</time>
      </trkpt>
      <trkpt lat="42.96436" lon="-0.25301">
        <ele>1476.4000244141</ele>
        <time>2020-05-31T07:47:28Z</time>
      </trkpt>
      <trkpt lat="42.96437" lon="-0.25301">
        <ele>1476.8000488281</ele>
        <time>2020-05-31T07:47:29Z</time>
      </trkpt>
      <trkpt lat="42.96439" lon="-0.25302">
        <ele>1477.1999511719</ele>
        <time>2020-05-31T07:47:30Z</time>
      </trkpt>
      <trkpt lat="42.96444" lon="-0.25303">
        <ele>1477.1999511719</ele>
        <time>2020-05-31T07:47:33Z</time>
      </trkpt>
      <trkpt lat="42.96454" lon="-0.25301">
        <ele>1477.1999511719</ele>
        <time>2020-05-31T07:47:39Z</time>
      </trkpt>
      <trkpt lat="42.96468" lon="-0.25298">
        <ele>1477.1999511719</ele>
        <time>2020-05-31T07:47:46Z</time>
      </trkpt>
      <trkpt lat="42.96477" lon="-0.25295">
        <ele>1477.5999755859</ele>
        <time>2020-05-31T07:47:50Z</time>
      </trkpt>
      <trkpt lat="42.96479" lon="-0.25293">
        <ele>1478</ele>
        <time>2020-05-31T07:47:51Z</time>
      </trkpt>
      <trkpt lat="42.96482" lon="-0.25292">
        <ele>1478.4000244141</ele>
        <time>2020-05-31T07:47:52Z</time>
      </trkpt>
      <trkpt lat="42.96484" lon="-0.25292">
        <ele>1478.8000488281</ele>
        <time>2020-05-31T07:47:53Z</time>
      </trkpt>
      <trkpt lat="42.96485" lon="-0.25291">
        <ele>1479.1999511719</ele>
        <time>2020-05-31T07:47:54Z</time>
      </trkpt>
      <trkpt lat="42.96495" lon="-0.25287">
        <ele>1479.1999511719</ele>
        <time>2020-05-31T07:47:59Z</time>
      </trkpt>
      <trkpt lat="42.96497" lon="-0.25288">
        <ele>1479.1999511719</ele>
        <time>2020-05-31T07:48:00Z</time>
      </trkpt>
      <trkpt lat="42.96506" lon="-0.25287">
        <ele>1479.1999511719</ele>
        <time>2020-05-31T07:48:04Z</time>
      </trkpt>
      <trkpt lat="42.96512" lon="-0.25289">
        <ele>1479.5999755859</ele>
        <time>2020-05-31T07:48:06Z</time>
      </trkpt>
      <trkpt lat="42.96515" lon="-0.25289">
        <ele>1480</ele>
        <time>2020-05-31T07:48:07Z</time>
      </trkpt>
      <trkpt lat="42.96518" lon="-0.25288">
        <ele>1480.4000244141</ele>
        <time>2020-05-31T07:48:08Z</time>
      </trkpt>
      <trkpt lat="42.96521" lon="-0.25287">
        <ele>1481.1999511719</ele>
        <time>2020-05-31T07:48:09Z</time>
      </trkpt>
      <trkpt lat="42.96526" lon="-0.25285">
        <ele>1481.1999511719</ele>
        <time>2020-05-31T07:48:11Z</time>
      </trkpt>
      <trkpt lat="42.96539" lon="-0.25276">
        <ele>1481.1999511719</ele>
        <time>2020-05-31T07:48:17Z</time>
      </trkpt>
      <trkpt lat="42.96551" lon="-0.25268">
        <ele>1481.1999511719</ele>
        <time>2020-05-31T07:48:21Z</time>
      </trkpt>
      <trkpt lat="42.96555" lon="-0.25266">
        <ele>1481.1999511719</ele>
        <time>2020-05-31T07:48:22Z</time>
      </trkpt>
      <trkpt lat="42.96568" lon="-0.2526">
        <ele>1481.1999511719</ele>
        <time>2020-05-31T07:48:25Z</time>
      </trkpt>
      <trkpt lat="42.96576" lon="-0.25257">
        <ele>1481.1999511719</ele>
        <time>2020-05-31T07:48:28Z</time>
      </trkpt>
      <trkpt lat="42.9659" lon="-0.25245">
        <ele>1481.1999511719</ele>
        <time>2020-05-31T07:48:35Z</time>
      </trkpt>
      <trkpt lat="42.96594" lon="-0.25231">
        <ele>1481.1999511719</ele>
        <time>2020-05-31T07:48:40Z</time>
      </trkpt>
      <trkpt lat="42.96595" lon="-0.25214">
        <ele>1481.1999511719</ele>
        <time>2020-05-31T07:48:45Z</time>
      </trkpt>
      <trkpt lat="42.96595" lon="-0.25205">
        <ele>1481.8000488281</ele>
        <time>2020-05-31T07:48:48Z</time>
      </trkpt>
      <trkpt lat="42.96594" lon="-0.25202">
        <ele>1482.1999511719</ele>
        <time>2020-05-31T07:48:49Z</time>
      </trkpt>
      <trkpt lat="42.96595" lon="-0.252">
        <ele>1482.5999755859</ele>
        <time>2020-05-31T07:48:50Z</time>
      </trkpt>
      <trkpt lat="42.96595" lon="-0.25198">
        <ele>1483</ele>
        <time>2020-05-31T07:48:51Z</time>
      </trkpt>
      <trkpt lat="42.96595" lon="-0.25195">
        <ele>1483.4000244141</ele>
        <time>2020-05-31T07:48:52Z</time>
      </trkpt>
      <trkpt lat="42.96599" lon="-0.25176">
        <ele>1483.4000244141</ele>
        <time>2020-05-31T07:48:58Z</time>
      </trkpt>
      <trkpt lat="42.96602" lon="-0.25156">
        <ele>1483.4000244141</ele>
        <time>2020-05-31T07:49:03Z</time>
      </trkpt>
      <trkpt lat="42.96604" lon="-0.25126">
        <ele>1483.4000244141</ele>
        <time>2020-05-31T07:49:10Z</time>
      </trkpt>
      <trkpt lat="42.96604" lon="-0.25115">
        <ele>1483.4000244141</ele>
        <time>2020-05-31T07:49:12Z</time>
      </trkpt>
      <trkpt lat="42.966" lon="-0.25103">
        <ele>1483.4000244141</ele>
        <time>2020-05-31T07:49:15Z</time>
      </trkpt>
      <trkpt lat="42.96599" lon="-0.25083">
        <ele>1483.4000244141</ele>
        <time>2020-05-31T07:49:19Z</time>
      </trkpt>
      <trkpt lat="42.966" lon="-0.25076">
        <ele>1483.4000244141</ele>
        <time>2020-05-31T07:49:20Z</time>
      </trkpt>
      <trkpt lat="42.96607" lon="-0.25054">
        <ele>1482.4000244141</ele>
        <time>2020-05-31T07:49:23Z</time>
      </trkpt>
      <trkpt lat="42.96609" lon="-0.25046">
        <ele>1481.8000488281</ele>
        <time>2020-05-31T07:49:24Z</time>
      </trkpt>
      <trkpt lat="42.96611" lon="-0.25038">
        <ele>1481.4000244141</ele>
        <time>2020-05-31T07:49:25Z</time>
      </trkpt>
      <trkpt lat="42.96612" lon="-0.25031">
        <ele>1480.8000488281</ele>
        <time>2020-05-31T07:49:26Z</time>
      </trkpt>
      <trkpt lat="42.96615" lon="-0.25021">
        <ele>1480.8000488281</ele>
        <time>2020-05-31T07:49:28Z</time>
      </trkpt>
      <trkpt lat="42.96625" lon="-0.25004">
        <ele>1480.8000488281</ele>
        <time>2020-05-31T07:49:33Z</time>
      </trkpt>
      <trkpt lat="42.96642" lon="-0.24987">
        <ele>1481.1999511719</ele>
        <time>2020-05-31T07:49:39Z</time>
      </trkpt>
      <trkpt lat="42.96645" lon="-0.24985">
        <ele>1481.5999755859</ele>
        <time>2020-05-31T07:49:40Z</time>
      </trkpt>
      <trkpt lat="42.96648" lon="-0.24983">
        <ele>1482.1999511719</ele>
        <time>2020-05-31T07:49:41Z</time>
      </trkpt>
      <trkpt lat="42.96651" lon="-0.2498">
        <ele>1482.5999755859</ele>
        <time>2020-05-31T07:49:42Z</time>
      </trkpt>
      <trkpt lat="42.96654" lon="-0.24977">
        <ele>1483</ele>
        <time>2020-05-31T07:49:43Z</time>
      </trkpt>
      <trkpt lat="42.96668" lon="-0.24967">
        <ele>1483</ele>
        <time>2020-05-31T07:49:47Z</time>
      </trkpt>
      <trkpt lat="42.96694" lon="-0.24955">
        <ele>1483</ele>
        <time>2020-05-31T07:49:54Z</time>
      </trkpt>
      <trkpt lat="42.96698" lon="-0.24953">
        <ele>1483</ele>
        <time>2020-05-31T07:49:55Z</time>
      </trkpt>
      <trkpt lat="42.96706" lon="-0.24948">
        <ele>1483</ele>
        <time>2020-05-31T07:49:57Z</time>
      </trkpt>
      <trkpt lat="42.96712" lon="-0.24945">
        <ele>1483</ele>
        <time>2020-05-31T07:49:59Z</time>
      </trkpt>
      <trkpt lat="42.96732" lon="-0.24931">
        <ele>1483</ele>
        <time>2020-05-31T07:50:05Z</time>
      </trkpt>
      <trkpt lat="42.96735" lon="-0.24927">
        <ele>1483</ele>
        <time>2020-05-31T07:50:06Z</time>
      </trkpt>
      <trkpt lat="42.96739" lon="-0.24912">
        <ele>1483</ele>
        <time>2020-05-31T07:50:09Z</time>
      </trkpt>
      <trkpt lat="42.96744" lon="-0.24886">
        <ele>1483</ele>
        <time>2020-05-31T07:50:14Z</time>
      </trkpt>
      <trkpt lat="42.96747" lon="-0.24876">
        <ele>1483</ele>
        <time>2020-05-31T07:50:16Z</time>
      </trkpt>
      <trkpt lat="42.96749" lon="-0.24864">
        <ele>1483</ele>
        <time>2020-05-31T07:50:18Z</time>
      </trkpt>
      <trkpt lat="42.96753" lon="-0.24852">
        <ele>1483</ele>
        <time>2020-05-31T07:50:20Z</time>
      </trkpt>
      <trkpt lat="42.96754" lon="-0.24846">
        <ele>1483</ele>
        <time>2020-05-31T07:50:21Z</time>
      </trkpt>
      <trkpt lat="42.96767" lon="-0.24822">
        <ele>1483</ele>
        <time>2020-05-31T07:50:26Z</time>
      </trkpt>
      <trkpt lat="42.96773" lon="-0.24813">
        <ele>1483</ele>
        <time>2020-05-31T07:50:28Z</time>
      </trkpt>
      <trkpt lat="42.96781" lon="-0.24806">
        <ele>1483</ele>
        <time>2020-05-31T07:50:31Z</time>
      </trkpt>
      <trkpt lat="42.96785" lon="-0.24805">
        <ele>1483.4000244141</ele>
        <time>2020-05-31T07:50:32Z</time>
      </trkpt>
      <trkpt lat="42.96788" lon="-0.24806">
        <ele>1483.8000488281</ele>
        <time>2020-05-31T07:50:33Z</time>
      </trkpt>
      <trkpt lat="42.96791" lon="-0.24807">
        <ele>1484.1999511719</ele>
        <time>2020-05-31T07:50:34Z</time>
      </trkpt>
      <trkpt lat="42.96795" lon="-0.24809">
        <ele>1484.5999755859</ele>
        <time>2020-05-31T07:50:35Z</time>
      </trkpt>
      <trkpt lat="42.96798" lon="-0.24811">
        <ele>1485</ele>
        <time>2020-05-31T07:50:36Z</time>
      </trkpt>
      <trkpt lat="42.96811" lon="-0.2482">
        <ele>1485</ele>
        <time>2020-05-31T07:50:40Z</time>
      </trkpt>
      <trkpt lat="42.96826" lon="-0.24832">
        <ele>1485.4000244141</ele>
        <time>2020-05-31T07:50:45Z</time>
      </trkpt>
      <trkpt lat="42.9683" lon="-0.24834">
        <ele>1486</ele>
        <time>2020-05-31T07:50:46Z</time>
      </trkpt>
      <trkpt lat="42.96833" lon="-0.24835">
        <ele>1486.4000244141</ele>
        <time>2020-05-31T07:50:47Z</time>
      </trkpt>
      <trkpt lat="42.96836" lon="-0.24837">
        <ele>1486.8000488281</ele>
        <time>2020-05-31T07:50:48Z</time>
      </trkpt>
      <trkpt lat="42.96839" lon="-0.24838">
        <ele>1487.1999511719</ele>
        <time>2020-05-31T07:50:49Z</time>
      </trkpt>
      <trkpt lat="42.96854" lon="-0.24842">
        <ele>1487.1999511719</ele>
        <time>2020-05-31T07:50:54Z</time>
      </trkpt>
      <trkpt lat="42.9686" lon="-0.24842">
        <ele>1487.5999755859</ele>
        <time>2020-05-31T07:50:56Z</time>
      </trkpt>
      <trkpt lat="42.96862" lon="-0.24843">
        <ele>1488</ele>
        <time>2020-05-31T07:50:57Z</time>
      </trkpt>
      <trkpt lat="42.96865" lon="-0.24844">
        <ele>1488.4000244141</ele>
        <time>2020-05-31T07:50:58Z</time>
      </trkpt>
      <trkpt lat="42.96867" lon="-0.24846">
        <ele>1488.8000488281</ele>
        <time>2020-05-31T07:50:59Z</time>
      </trkpt>
      <trkpt lat="42.96868" lon="-0.24848">
        <ele>1489.1999511719</ele>
        <time>2020-05-31T07:51:00Z</time>
      </trkpt>
      <trkpt lat="42.96878" lon="-0.24859">
        <ele>1489.5999755859</ele>
        <time>2020-05-31T07:51:05Z</time>
      </trkpt>
      <trkpt lat="42.9688" lon="-0.24862">
        <ele>1490</ele>
        <time>2020-05-31T07:51:06Z</time>
      </trkpt>
      <trkpt lat="42.96882" lon="-0.24864">
        <ele>1490.4000244141</ele>
        <time>2020-05-31T07:51:07Z</time>
      </trkpt>
      <trkpt lat="42.96884" lon="-0.24867">
        <ele>1490.8000488281</ele>
        <time>2020-05-31T07:51:08Z</time>
      </trkpt>
      <trkpt lat="42.96886" lon="-0.24869">
        <ele>1491.1999511719</ele>
        <time>2020-05-31T07:51:09Z</time>
      </trkpt>
      <trkpt lat="42.96895" lon="-0.24878">
        <ele>1491.1999511719</ele>
        <time>2020-05-31T07:51:13Z</time>
      </trkpt>
      <trkpt lat="42.96909" lon="-0.24886">
        <ele>1491.1999511719</ele>
        <time>2020-05-31T07:51:18Z</time>
      </trkpt>
      <trkpt lat="42.96919" lon="-0.24881">
        <ele>1491.1999511719</ele>
        <time>2020-05-31T07:51:22Z</time>
      </trkpt>
      <trkpt lat="42.9693" lon="-0.24875">
        <ele>1492.1999511719</ele>
        <time>2020-05-31T07:51:27Z</time>
      </trkpt>
      <trkpt lat="42.96932" lon="-0.24873">
        <ele>1492.5999755859</ele>
        <time>2020-05-31T07:51:28Z</time>
      </trkpt>
      <trkpt lat="42.96934" lon="-0.24872">
        <ele>1493</ele>
        <time>2020-05-31T07:51:29Z</time>
      </trkpt>
      <trkpt lat="42.96936" lon="-0.2487">
        <ele>1493.4000244141</ele>
        <time>2020-05-31T07:51:30Z</time>
      </trkpt>
      <trkpt lat="42.96947" lon="-0.2486">
        <ele>1493.4000244141</ele>
        <time>2020-05-31T07:51:35Z</time>
      </trkpt>
      <trkpt lat="42.96963" lon="-0.24848">
        <ele>1493.4000244141</ele>
        <time>2020-05-31T07:51:41Z</time>
      </trkpt>
      <trkpt lat="42.96977" lon="-0.2483">
        <ele>1493.4000244141</ele>
        <time>2020-05-31T07:51:48Z</time>
      </trkpt>
      <trkpt lat="42.96985" lon="-0.24808">
        <ele>1493.8000488281</ele>
        <time>2020-05-31T07:51:54Z</time>
      </trkpt>
      <trkpt lat="42.96986" lon="-0.24805">
        <ele>1494.1999511719</ele>
        <time>2020-05-31T07:51:55Z</time>
      </trkpt>
      <trkpt lat="42.96986" lon="-0.24801">
        <ele>1494.5999755859</ele>
        <time>2020-05-31T07:51:56Z</time>
      </trkpt>
      <trkpt lat="42.96987" lon="-0.24797">
        <ele>1495</ele>
        <time>2020-05-31T07:51:57Z</time>
      </trkpt>
      <trkpt lat="42.96988" lon="-0.24793">
        <ele>1495.4000244141</ele>
        <time>2020-05-31T07:51:58Z</time>
      </trkpt>
      <trkpt lat="42.9699" lon="-0.24785">
        <ele>1495.4000244141</ele>
        <time>2020-05-31T07:52:00Z</time>
      </trkpt>
      <trkpt lat="42.96995" lon="-0.24765">
        <ele>1495.4000244141</ele>
        <time>2020-05-31T07:52:06Z</time>
      </trkpt>
      <trkpt lat="42.97002" lon="-0.2475">
        <ele>1495.8000488281</ele>
        <time>2020-05-31T07:52:12Z</time>
      </trkpt>
      <trkpt lat="42.97003" lon="-0.24748">
        <ele>1496.1999511719</ele>
        <time>2020-05-31T07:52:13Z</time>
      </trkpt>
      <trkpt lat="42.97005" lon="-0.24746">
        <ele>1496.8000488281</ele>
        <time>2020-05-31T07:52:14Z</time>
      </trkpt>
      <trkpt lat="42.97007" lon="-0.24745">
        <ele>1497.1999511719</ele>
        <time>2020-05-31T07:52:15Z</time>
      </trkpt>
      <trkpt lat="42.97008" lon="-0.24744">
        <ele>1497.5999755859</ele>
        <time>2020-05-31T07:52:16Z</time>
      </trkpt>
      <trkpt lat="42.97014" lon="-0.2474">
        <ele>1497.5999755859</ele>
        <time>2020-05-31T07:52:19Z</time>
      </trkpt>
      <trkpt lat="42.97016" lon="-0.24739">
        <ele>1498</ele>
        <time>2020-05-31T07:52:20Z</time>
      </trkpt>
      <trkpt lat="42.97017" lon="-0.24738">
        <ele>1498.4000244141</ele>
        <time>2020-05-31T07:52:21Z</time>
      </trkpt>
      <trkpt lat="42.97019" lon="-0.24737">
        <ele>1498.8000488281</ele>
        <time>2020-05-31T07:52:22Z</time>
      </trkpt>
      <trkpt lat="42.97021" lon="-0.24736">
        <ele>1499.1999511719</ele>
        <time>2020-05-31T07:52:23Z</time>
      </trkpt>
      <trkpt lat="42.97023" lon="-0.24735">
        <ele>1499.5999755859</ele>
        <time>2020-05-31T07:52:24Z</time>
      </trkpt>
      <trkpt lat="42.97027" lon="-0.24733">
        <ele>1499.5999755859</ele>
        <time>2020-05-31T07:52:26Z</time>
      </trkpt>
      <trkpt lat="42.97038" lon="-0.24727">
        <ele>1499.5999755859</ele>
        <time>2020-05-31T07:52:31Z</time>
      </trkpt>
      <trkpt lat="42.97048" lon="-0.2472">
        <ele>1500</ele>
        <time>2020-05-31T07:52:36Z</time>
      </trkpt>
      <trkpt lat="42.9705" lon="-0.24719">
        <ele>1500.4000244141</ele>
        <time>2020-05-31T07:52:37Z</time>
      </trkpt>
      <trkpt lat="42.97052" lon="-0.24716">
        <ele>1500.8000488281</ele>
        <time>2020-05-31T07:52:38Z</time>
      </trkpt>
      <trkpt lat="42.97055" lon="-0.24715">
        <ele>1501.1999511719</ele>
        <time>2020-05-31T07:52:39Z</time>
      </trkpt>
      <trkpt lat="42.97058" lon="-0.24712">
        <ele>1501.5999755859</ele>
        <time>2020-05-31T07:52:40Z</time>
      </trkpt>
      <trkpt lat="42.97068" lon="-0.247">
        <ele>1501.5999755859</ele>
        <time>2020-05-31T07:52:44Z</time>
      </trkpt>
      <trkpt lat="42.97072" lon="-0.24693">
        <ele>1501.5999755859</ele>
        <time>2020-05-31T07:52:46Z</time>
      </trkpt>
      <trkpt lat="42.97074" lon="-0.24684">
        <ele>1501.5999755859</ele>
        <time>2020-05-31T07:52:48Z</time>
      </trkpt>
      <trkpt lat="42.97074" lon="-0.24667">
        <ele>1501.5999755859</ele>
        <time>2020-05-31T07:52:51Z</time>
      </trkpt>
      <trkpt lat="42.97071" lon="-0.24651">
        <ele>1501.5999755859</ele>
        <time>2020-05-31T07:52:54Z</time>
      </trkpt>
      <trkpt lat="42.97069" lon="-0.24633">
        <ele>1501.5999755859</ele>
        <time>2020-05-31T07:52:57Z</time>
      </trkpt>
      <trkpt lat="42.97065" lon="-0.24617">
        <ele>1501.5999755859</ele>
        <time>2020-05-31T07:53:00Z</time>
      </trkpt>
      <trkpt lat="42.97057" lon="-0.24598">
        <ele>1501.5999755859</ele>
        <time>2020-05-31T07:53:04Z</time>
      </trkpt>
      <trkpt lat="42.97055" lon="-0.24587">
        <ele>1501.5999755859</ele>
        <time>2020-05-31T07:53:06Z</time>
      </trkpt>
      <trkpt lat="42.97057" lon="-0.24571">
        <ele>1501.5999755859</ele>
        <time>2020-05-31T07:53:09Z</time>
      </trkpt>
      <trkpt lat="42.9706" lon="-0.24553">
        <ele>1501.5999755859</ele>
        <time>2020-05-31T07:53:12Z</time>
      </trkpt>
      <trkpt lat="42.97067" lon="-0.24541">
        <ele>1501.1999511719</ele>
        <time>2020-05-31T07:53:14Z</time>
      </trkpt>
      <trkpt lat="42.9707" lon="-0.24536">
        <ele>1500.8000488281</ele>
        <time>2020-05-31T07:53:15Z</time>
      </trkpt>
      <trkpt lat="42.97073" lon="-0.24531">
        <ele>1500.1999511719</ele>
        <time>2020-05-31T07:53:16Z</time>
      </trkpt>
      <trkpt lat="42.97076" lon="-0.24525">
        <ele>1499.8000488281</ele>
        <time>2020-05-31T07:53:17Z</time>
      </trkpt>
      <trkpt lat="42.97078" lon="-0.2452">
        <ele>1499.1999511719</ele>
        <time>2020-05-31T07:53:18Z</time>
      </trkpt>
      <trkpt lat="42.9708" lon="-0.24515">
        <ele>1499.1999511719</ele>
        <time>2020-05-31T07:53:19Z</time>
      </trkpt>
      <trkpt lat="42.97084" lon="-0.24504">
        <ele>1499.1999511719</ele>
        <time>2020-05-31T07:53:21Z</time>
      </trkpt>
      <trkpt lat="42.97086" lon="-0.24489">
        <ele>1499.1999511719</ele>
        <time>2020-05-31T07:53:24Z</time>
      </trkpt>
      <trkpt lat="42.9709" lon="-0.2447">
        <ele>1499.1999511719</ele>
        <time>2020-05-31T07:53:29Z</time>
      </trkpt>
      <trkpt lat="42.97093" lon="-0.24459">
        <ele>1499.8000488281</ele>
        <time>2020-05-31T07:53:32Z</time>
      </trkpt>
      <trkpt lat="42.97093" lon="-0.24456">
        <ele>1500.1999511719</ele>
        <time>2020-05-31T07:53:33Z</time>
      </trkpt>
      <trkpt lat="42.97093" lon="-0.24453">
        <ele>1500.5999755859</ele>
        <time>2020-05-31T07:53:34Z</time>
      </trkpt>
      <trkpt lat="42.97094" lon="-0.24449">
        <ele>1501</ele>
        <time>2020-05-31T07:53:35Z</time>
      </trkpt>
      <trkpt lat="42.97094" lon="-0.24446">
        <ele>1501.4000244141</ele>
        <time>2020-05-31T07:53:36Z</time>
      </trkpt>
      <trkpt lat="42.97095" lon="-0.24433">
        <ele>1501.8000488281</ele>
        <time>2020-05-31T07:53:40Z</time>
      </trkpt>
      <trkpt lat="42.97095" lon="-0.2443">
        <ele>1502.1999511719</ele>
        <time>2020-05-31T07:53:41Z</time>
      </trkpt>
      <trkpt lat="42.97096" lon="-0.24427">
        <ele>1502.5999755859</ele>
        <time>2020-05-31T07:53:42Z</time>
      </trkpt>
      <trkpt lat="42.97097" lon="-0.24423">
        <ele>1503</ele>
        <time>2020-05-31T07:53:43Z</time>
      </trkpt>
      <trkpt lat="42.97098" lon="-0.2442">
        <ele>1503.4000244141</ele>
        <time>2020-05-31T07:53:44Z</time>
      </trkpt>
      <trkpt lat="42.97099" lon="-0.2441">
        <ele>1503.4000244141</ele>
        <time>2020-05-31T07:53:47Z</time>
      </trkpt>
      <trkpt lat="42.97106" lon="-0.24381">
        <ele>1503.4000244141</ele>
        <time>2020-05-31T07:53:54Z</time>
      </trkpt>
      <trkpt lat="42.97107" lon="-0.24378">
        <ele>1503.8000488281</ele>
        <time>2020-05-31T07:53:55Z</time>
      </trkpt>
      <trkpt lat="42.97108" lon="-0.24374">
        <ele>1504.1999511719</ele>
        <time>2020-05-31T07:53:56Z</time>
      </trkpt>
      <trkpt lat="42.9711" lon="-0.24371">
        <ele>1504.5999755859</ele>
        <time>2020-05-31T07:53:57Z</time>
      </trkpt>
      <trkpt lat="42.97111" lon="-0.24367">
        <ele>1505.1999511719</ele>
        <time>2020-05-31T07:53:58Z</time>
      </trkpt>
      <trkpt lat="42.97112" lon="-0.24363">
        <ele>1505.5999755859</ele>
        <time>2020-05-31T07:53:59Z</time>
      </trkpt>
      <trkpt lat="42.97113" lon="-0.24359">
        <ele>1505.5999755859</ele>
        <time>2020-05-31T07:54:00Z</time>
      </trkpt>
      <trkpt lat="42.97125" lon="-0.24332">
        <ele>1505.5999755859</ele>
        <time>2020-05-31T07:54:08Z</time>
      </trkpt>
      <trkpt lat="42.97139" lon="-0.2433">
        <ele>1505.5999755859</ele>
        <time>2020-05-31T07:54:13Z</time>
      </trkpt>
      <trkpt lat="42.97151" lon="-0.24342">
        <ele>1505.5999755859</ele>
        <time>2020-05-31T07:54:18Z</time>
      </trkpt>
      <trkpt lat="42.97153" lon="-0.24345">
        <ele>1506</ele>
        <time>2020-05-31T07:54:19Z</time>
      </trkpt>
      <trkpt lat="42.97154" lon="-0.24348">
        <ele>1506.8000488281</ele>
        <time>2020-05-31T07:54:20Z</time>
      </trkpt>
      <trkpt lat="42.97156" lon="-0.24351">
        <ele>1507.1999511719</ele>
        <time>2020-05-31T07:54:21Z</time>
      </trkpt>
      <trkpt lat="42.97157" lon="-0.24354">
        <ele>1507.5999755859</ele>
        <time>2020-05-31T07:54:22Z</time>
      </trkpt>
      <trkpt lat="42.97159" lon="-0.2436">
        <ele>1507.5999755859</ele>
        <time>2020-05-31T07:54:24Z</time>
      </trkpt>
      <trkpt lat="42.97162" lon="-0.24368">
        <ele>1508</ele>
        <time>2020-05-31T07:54:27Z</time>
      </trkpt>
      <trkpt lat="42.97163" lon="-0.24371">
        <ele>1508.4000244141</ele>
        <time>2020-05-31T07:54:28Z</time>
      </trkpt>
      <trkpt lat="42.97164" lon="-0.24374">
        <ele>1509</ele>
        <time>2020-05-31T07:54:29Z</time>
      </trkpt>
      <trkpt lat="42.97164" lon="-0.24377">
        <ele>1509.4000244141</ele>
        <time>2020-05-31T07:54:30Z</time>
      </trkpt>
      <trkpt lat="42.97165" lon="-0.24379">
        <ele>1509.8000488281</ele>
        <time>2020-05-31T07:54:31Z</time>
      </trkpt>
      <trkpt lat="42.97172" lon="-0.24386">
        <ele>1509.8000488281</ele>
        <time>2020-05-31T07:54:35Z</time>
      </trkpt>
      <trkpt lat="42.97183" lon="-0.24384">
        <ele>1509.8000488281</ele>
        <time>2020-05-31T07:54:41Z</time>
      </trkpt>
      <trkpt lat="42.97186" lon="-0.24383">
        <ele>1510.1999511719</ele>
        <time>2020-05-31T07:54:42Z</time>
      </trkpt>
      <trkpt lat="42.97187" lon="-0.24383">
        <ele>1510.5999755859</ele>
        <time>2020-05-31T07:54:43Z</time>
      </trkpt>
      <trkpt lat="42.97189" lon="-0.24382">
        <ele>1511</ele>
        <time>2020-05-31T07:54:44Z</time>
      </trkpt>
      <trkpt lat="42.9719" lon="-0.24381">
        <ele>1511.8000488281</ele>
        <time>2020-05-31T07:54:45Z</time>
      </trkpt>
      <trkpt lat="42.97193" lon="-0.24377">
        <ele>1511.8000488281</ele>
        <time>2020-05-31T07:54:47Z</time>
      </trkpt>
      <trkpt lat="42.97198" lon="-0.24359">
        <ele>1512.1999511719</ele>
        <time>2020-05-31T07:54:54Z</time>
      </trkpt>
      <trkpt lat="42.97198" lon="-0.24356">
        <ele>1512.5999755859</ele>
        <time>2020-05-31T07:54:55Z</time>
      </trkpt>
      <trkpt lat="42.97199" lon="-0.24354">
        <ele>1513</ele>
        <time>2020-05-31T07:54:56Z</time>
      </trkpt>
      <trkpt lat="42.972" lon="-0.24351">
        <ele>1513.4000244141</ele>
        <time>2020-05-31T07:54:57Z</time>
      </trkpt>
      <trkpt lat="42.97201" lon="-0.24349">
        <ele>1514</ele>
        <time>2020-05-31T07:54:58Z</time>
      </trkpt>
      <trkpt lat="42.97203" lon="-0.24344">
        <ele>1514</ele>
        <time>2020-05-31T07:55:00Z</time>
      </trkpt>
      <trkpt lat="42.97209" lon="-0.24328">
        <ele>1514</ele>
        <time>2020-05-31T07:55:07Z</time>
      </trkpt>
      <trkpt lat="42.97214" lon="-0.24325">
        <ele>1514.8000488281</ele>
        <time>2020-05-31T07:55:10Z</time>
      </trkpt>
      <trkpt lat="42.97216" lon="-0.24324">
        <ele>1515.1999511719</ele>
        <time>2020-05-31T07:55:11Z</time>
      </trkpt>
      <trkpt lat="42.97218" lon="-0.24323">
        <ele>1515.5999755859</ele>
        <time>2020-05-31T07:55:12Z</time>
      </trkpt>
      <trkpt lat="42.9722" lon="-0.24324">
        <ele>1516</ele>
        <time>2020-05-31T07:55:13Z</time>
      </trkpt>
      <trkpt lat="42.97231" lon="-0.24322">
        <ele>1516.4000244141</ele>
        <time>2020-05-31T07:55:19Z</time>
      </trkpt>
      <trkpt lat="42.97233" lon="-0.24323">
        <ele>1516.8000488281</ele>
        <time>2020-05-31T07:55:20Z</time>
      </trkpt>
      <trkpt lat="42.97234" lon="-0.24323">
        <ele>1517.1999511719</ele>
        <time>2020-05-31T07:55:21Z</time>
      </trkpt>
      <trkpt lat="42.97236" lon="-0.24323">
        <ele>1517.5999755859</ele>
        <time>2020-05-31T07:55:22Z</time>
      </trkpt>
      <trkpt lat="42.97238" lon="-0.24323">
        <ele>1518.1999511719</ele>
        <time>2020-05-31T07:55:23Z</time>
      </trkpt>
      <trkpt lat="42.97244" lon="-0.24322">
        <ele>1518.1999511719</ele>
        <time>2020-05-31T07:55:26Z</time>
      </trkpt>
      <trkpt lat="42.97259" lon="-0.24319">
        <ele>1518.1999511719</ele>
        <time>2020-05-31T07:55:33Z</time>
      </trkpt>
      <trkpt lat="42.97273" lon="-0.24331">
        <ele>1518.1999511719</ele>
        <time>2020-05-31T07:55:38Z</time>
      </trkpt>
      <trkpt lat="42.9728" lon="-0.24341">
        <ele>1517.5999755859</ele>
        <time>2020-05-31T07:55:40Z</time>
      </trkpt>
      <trkpt lat="42.97284" lon="-0.24347">
        <ele>1517</ele>
        <time>2020-05-31T07:55:41Z</time>
      </trkpt>
      <trkpt lat="42.97287" lon="-0.24352">
        <ele>1516.5999755859</ele>
        <time>2020-05-31T07:55:42Z</time>
      </trkpt>
      <trkpt lat="42.97291" lon="-0.24357">
        <ele>1516</ele>
        <time>2020-05-31T07:55:43Z</time>
      </trkpt>
      <trkpt lat="42.97295" lon="-0.24363">
        <ele>1515.4000244141</ele>
        <time>2020-05-31T07:55:44Z</time>
      </trkpt>
      <trkpt lat="42.97301" lon="-0.2437">
        <ele>1514.8000488281</ele>
        <time>2020-05-31T07:55:45Z</time>
      </trkpt>
      <trkpt lat="42.97307" lon="-0.24376">
        <ele>1514</ele>
        <time>2020-05-31T07:55:46Z</time>
      </trkpt>
      <trkpt lat="42.97313" lon="-0.24382">
        <ele>1513.4000244141</ele>
        <time>2020-05-31T07:55:47Z</time>
      </trkpt>
      <trkpt lat="42.9732" lon="-0.24386">
        <ele>1512.5999755859</ele>
        <time>2020-05-31T07:55:48Z</time>
      </trkpt>
      <trkpt lat="42.97326" lon="-0.24389">
        <ele>1511.8000488281</ele>
        <time>2020-05-31T07:55:49Z</time>
      </trkpt>
      <trkpt lat="42.97333" lon="-0.24392">
        <ele>1511.1999511719</ele>
        <time>2020-05-31T07:55:50Z</time>
      </trkpt>
      <trkpt lat="42.9734" lon="-0.24395">
        <ele>1510.5999755859</ele>
        <time>2020-05-31T07:55:51Z</time>
      </trkpt>
      <trkpt lat="42.97347" lon="-0.24398">
        <ele>1510</ele>
        <time>2020-05-31T07:55:52Z</time>
      </trkpt>
      <trkpt lat="42.97354" lon="-0.244">
        <ele>1509.4000244141</ele>
        <time>2020-05-31T07:55:53Z</time>
      </trkpt>
      <trkpt lat="42.9736" lon="-0.24404">
        <ele>1508.8000488281</ele>
        <time>2020-05-31T07:55:54Z</time>
      </trkpt>
      <trkpt lat="42.97371" lon="-0.24408">
        <ele>1508.8000488281</ele>
        <time>2020-05-31T07:55:56Z</time>
      </trkpt>
      <trkpt lat="42.97376" lon="-0.24412">
        <ele>1508.8000488281</ele>
        <time>2020-05-31T07:55:57Z</time>
      </trkpt>
      <trkpt lat="42.97382" lon="-0.24424">
        <ele>1508.8000488281</ele>
        <time>2020-05-31T07:55:59Z</time>
      </trkpt>
      <trkpt lat="42.97382" lon="-0.24444">
        <ele>1508.8000488281</ele>
        <time>2020-05-31T07:56:02Z</time>
      </trkpt>
      <trkpt lat="42.97382" lon="-0.24464">
        <ele>1508.8000488281</ele>
        <time>2020-05-31T07:56:07Z</time>
      </trkpt>
      <trkpt lat="42.97384" lon="-0.24467">
        <ele>1509.1999511719</ele>
        <time>2020-05-31T07:56:09Z</time>
      </trkpt>
      <trkpt lat="42.97385" lon="-0.24469">
        <ele>1509.8000488281</ele>
        <time>2020-05-31T07:56:10Z</time>
      </trkpt>
      <trkpt lat="42.97386" lon="-0.24471">
        <ele>1510.1999511719</ele>
        <time>2020-05-31T07:56:11Z</time>
      </trkpt>
      <trkpt lat="42.97387" lon="-0.24473">
        <ele>1510.5999755859</ele>
        <time>2020-05-31T07:56:12Z</time>
      </trkpt>
      <trkpt lat="42.97388" lon="-0.24474">
        <ele>1511</ele>
        <time>2020-05-31T07:56:13Z</time>
      </trkpt>
      <trkpt lat="42.97389" lon="-0.24474">
        <ele>1511</ele>
        <time>2020-05-31T07:56:14Z</time>
      </trkpt>
      <trkpt lat="42.97395" lon="-0.24477">
        <ele>1511</ele>
        <time>2020-05-31T07:56:19Z</time>
      </trkpt>
      <trkpt lat="42.97396" lon="-0.24477">
        <ele>1511.4000244141</ele>
        <time>2020-05-31T07:56:20Z</time>
      </trkpt>
      <trkpt lat="42.97398" lon="-0.24477">
        <ele>1511.8000488281</ele>
        <time>2020-05-31T07:56:21Z</time>
      </trkpt>
      <trkpt lat="42.97399" lon="-0.24477">
        <ele>1512.1999511719</ele>
        <time>2020-05-31T07:56:22Z</time>
      </trkpt>
      <trkpt lat="42.97401" lon="-0.24478">
        <ele>1513.1999511719</ele>
        <time>2020-05-31T07:56:23Z</time>
      </trkpt>
      <trkpt lat="42.97403" lon="-0.24478">
        <ele>1513.1999511719</ele>
        <time>2020-05-31T07:56:25Z</time>
      </trkpt>
      <trkpt lat="42.97407" lon="-0.24478">
        <ele>1513.1999511719</ele>
        <time>2020-05-31T07:56:28Z</time>
      </trkpt>
      <trkpt lat="42.97408" lon="-0.24479">
        <ele>1513.5999755859</ele>
        <time>2020-05-31T07:56:29Z</time>
      </trkpt>
      <trkpt lat="42.9741" lon="-0.24479">
        <ele>1514</ele>
        <time>2020-05-31T07:56:30Z</time>
      </trkpt>
      <trkpt lat="42.97411" lon="-0.2448">
        <ele>1514.4000244141</ele>
        <time>2020-05-31T07:56:31Z</time>
      </trkpt>
      <trkpt lat="42.97412" lon="-0.2448">
        <ele>1514.8000488281</ele>
        <time>2020-05-31T07:56:32Z</time>
      </trkpt>
      <trkpt lat="42.97414" lon="-0.2448">
        <ele>1515.1999511719</ele>
        <time>2020-05-31T07:56:33Z</time>
      </trkpt>
      <trkpt lat="42.97415" lon="-0.24482">
        <ele>1515.1999511719</ele>
        <time>2020-05-31T07:56:34Z</time>
      </trkpt>
      <trkpt lat="42.97417" lon="-0.24483">
        <ele>1515.1999511719</ele>
        <time>2020-05-31T07:56:35Z</time>
      </trkpt>
      <trkpt lat="42.97417" lon="-0.24485">
        <ele>1515.1999511719</ele>
        <time>2020-05-31T07:56:36Z</time>
      </trkpt>
      <trkpt lat="42.97418" lon="-0.2449">
        <ele>1515.5999755859</ele>
        <time>2020-05-31T07:56:39Z</time>
      </trkpt>
      <trkpt lat="42.97418" lon="-0.24492">
        <ele>1516</ele>
        <time>2020-05-31T07:56:40Z</time>
      </trkpt>
      <trkpt lat="42.97418" lon="-0.24494">
        <ele>1516.4000244141</ele>
        <time>2020-05-31T07:56:41Z</time>
      </trkpt>
      <trkpt lat="42.97419" lon="-0.24496">
        <ele>1516.8000488281</ele>
        <time>2020-05-31T07:56:42Z</time>
      </trkpt>
      <trkpt lat="42.97419" lon="-0.24498">
        <ele>1517.1999511719</ele>
        <time>2020-05-31T07:56:43Z</time>
      </trkpt>
      <trkpt lat="42.97424" lon="-0.24506">
        <ele>1517.1999511719</ele>
        <time>2020-05-31T07:56:48Z</time>
      </trkpt>
      <trkpt lat="42.97435" lon="-0.24513">
        <ele>1517.1999511719</ele>
        <time>2020-05-31T07:56:56Z</time>
      </trkpt>
      <trkpt lat="42.97435" lon="-0.24514">
        <ele>1517.1999511719</ele>
        <time>2020-05-31T07:56:57Z</time>
      </trkpt>
      <trkpt lat="42.97435" lon="-0.24516">
        <ele>1517.1999511719</ele>
        <time>2020-05-31T07:56:59Z</time>
      </trkpt>
      <trkpt lat="42.97434" lon="-0.24516">
        <ele>1517.1999511719</ele>
        <time>2020-05-31T07:57:00Z</time>
      </trkpt>
      <trkpt lat="42.97433" lon="-0.24515">
        <ele>1517.1999511719</ele>
        <time>2020-05-31T07:57:01Z</time>
      </trkpt>
      <trkpt lat="42.9743" lon="-0.24511">
        <ele>1517.1999511719</ele>
        <time>2020-05-31T07:57:05Z</time>
      </trkpt>
      <trkpt lat="42.97427" lon="-0.24509">
        <ele>1517.1999511719</ele>
        <time>2020-05-31T07:57:07Z</time>
      </trkpt>
      <trkpt lat="42.9742" lon="-0.24503">
        <ele>1517.1999511719</ele>
        <time>2020-05-31T07:57:11Z</time>
      </trkpt>
      <trkpt lat="42.97413" lon="-0.24484">
        <ele>1517.1999511719</ele>
        <time>2020-05-31T07:57:16Z</time>
      </trkpt>
      <trkpt lat="42.97408" lon="-0.24479">
        <ele>1517.1999511719</ele>
        <time>2020-05-31T07:57:18Z</time>
      </trkpt>
      <trkpt lat="42.97402" lon="-0.24478">
        <ele>1517.1999511719</ele>
        <time>2020-05-31T07:57:20Z</time>
      </trkpt>
      <trkpt lat="42.97398" lon="-0.24477">
        <ele>1516.8000488281</ele>
        <time>2020-05-31T07:57:21Z</time>
      </trkpt>
      <trkpt lat="42.97394" lon="-0.24477">
        <ele>1516.4000244141</ele>
        <time>2020-05-31T07:57:22Z</time>
      </trkpt>
      <trkpt lat="42.97391" lon="-0.24474">
        <ele>1516</ele>
        <time>2020-05-31T07:57:23Z</time>
      </trkpt>
      <trkpt lat="42.97387" lon="-0.24471">
        <ele>1515.5999755859</ele>
        <time>2020-05-31T07:57:24Z</time>
      </trkpt>
      <trkpt lat="42.97384" lon="-0.24467">
        <ele>1515</ele>
        <time>2020-05-31T07:57:25Z</time>
      </trkpt>
      <trkpt lat="42.97382" lon="-0.24462">
        <ele>1514.4000244141</ele>
        <time>2020-05-31T07:57:26Z</time>
      </trkpt>
      <trkpt lat="42.97382" lon="-0.24457">
        <ele>1513.8000488281</ele>
        <time>2020-05-31T07:57:27Z</time>
      </trkpt>
      <trkpt lat="42.97382" lon="-0.24452">
        <ele>1513.1999511719</ele>
        <time>2020-05-31T07:57:28Z</time>
      </trkpt>
      <trkpt lat="42.97384" lon="-0.24449">
        <ele>1512.5999755859</ele>
        <time>2020-05-31T07:57:29Z</time>
      </trkpt>
      <trkpt lat="42.97386" lon="-0.24447">
        <ele>1512.1999511719</ele>
        <time>2020-05-31T07:57:30Z</time>
      </trkpt>
      <trkpt lat="42.97388" lon="-0.24449">
        <ele>1511.8000488281</ele>
        <time>2020-05-31T07:57:31Z</time>
      </trkpt>
      <trkpt lat="42.9739" lon="-0.24451">
        <ele>1511.4000244141</ele>
        <time>2020-05-31T07:57:32Z</time>
      </trkpt>
      <trkpt lat="42.97391" lon="-0.24454">
        <ele>1511</ele>
        <time>2020-05-31T07:57:33Z</time>
      </trkpt>
      <trkpt lat="42.97393" lon="-0.24457">
        <ele>1510.4000244141</ele>
        <time>2020-05-31T07:57:34Z</time>
      </trkpt>
      <trkpt lat="42.97402" lon="-0.2446">
        <ele>1510.4000244141</ele>
        <time>2020-05-31T07:57:37Z</time>
      </trkpt>
      <trkpt lat="42.97415" lon="-0.24458">
        <ele>1510.4000244141</ele>
        <time>2020-05-31T07:57:41Z</time>
      </trkpt>
      <trkpt lat="42.97421" lon="-0.24456">
        <ele>1510.4000244141</ele>
        <time>2020-05-31T07:57:43Z</time>
      </trkpt>
      <trkpt lat="42.97445" lon="-0.24443">
        <ele>1510.4000244141</ele>
        <time>2020-05-31T07:57:50Z</time>
      </trkpt>
      <trkpt lat="42.97457" lon="-0.2444">
        <ele>1510.4000244141</ele>
        <time>2020-05-31T07:57:53Z</time>
      </trkpt>
      <trkpt lat="42.97466" lon="-0.24438">
        <ele>1510</ele>
        <time>2020-05-31T07:57:55Z</time>
      </trkpt>
      <trkpt lat="42.9747" lon="-0.24438">
        <ele>1509.5999755859</ele>
        <time>2020-05-31T07:57:56Z</time>
      </trkpt>
      <trkpt lat="42.97475" lon="-0.24437">
        <ele>1509.1999511719</ele>
        <time>2020-05-31T07:57:57Z</time>
      </trkpt>
      <trkpt lat="42.97479" lon="-0.24436">
        <ele>1508.8000488281</ele>
        <time>2020-05-31T07:57:58Z</time>
      </trkpt>
      <trkpt lat="42.97484" lon="-0.24436">
        <ele>1508.4000244141</ele>
        <time>2020-05-31T07:57:59Z</time>
      </trkpt>
      <trkpt lat="42.97493" lon="-0.24435">
        <ele>1508.4000244141</ele>
        <time>2020-05-31T07:58:01Z</time>
      </trkpt>
      <trkpt lat="42.97508" lon="-0.24429">
        <ele>1508.4000244141</ele>
        <time>2020-05-31T07:58:05Z</time>
      </trkpt>
      <trkpt lat="42.97512" lon="-0.24426">
        <ele>1508.4000244141</ele>
        <time>2020-05-31T07:58:06Z</time>
      </trkpt>
      <trkpt lat="42.97521" lon="-0.24416">
        <ele>1508.4000244141</ele>
        <time>2020-05-31T07:58:09Z</time>
      </trkpt>
      <trkpt lat="42.97527" lon="-0.24408">
        <ele>1508.4000244141</ele>
        <time>2020-05-31T07:58:11Z</time>
      </trkpt>
      <trkpt lat="42.97533" lon="-0.244">
        <ele>1508.4000244141</ele>
        <time>2020-05-31T07:58:13Z</time>
      </trkpt>
      <trkpt lat="42.97545" lon="-0.24392">
        <ele>1508.4000244141</ele>
        <time>2020-05-31T07:58:16Z</time>
      </trkpt>
      <trkpt lat="42.97563" lon="-0.24382">
        <ele>1508.4000244141</ele>
        <time>2020-05-31T07:58:20Z</time>
      </trkpt>
      <trkpt lat="42.97571" lon="-0.24376">
        <ele>1508.4000244141</ele>
        <time>2020-05-31T07:58:22Z</time>
      </trkpt>
      <trkpt lat="42.97575" lon="-0.24373">
        <ele>1508.4000244141</ele>
        <time>2020-05-31T07:58:23Z</time>
      </trkpt>
      <trkpt lat="42.97593" lon="-0.24356">
        <ele>1508.4000244141</ele>
        <time>2020-05-31T07:58:28Z</time>
      </trkpt>
      <trkpt lat="42.97615" lon="-0.2434">
        <ele>1508.4000244141</ele>
        <time>2020-05-31T07:58:33Z</time>
      </trkpt>
      <trkpt lat="42.97625" lon="-0.24333">
        <ele>1508.4000244141</ele>
        <time>2020-05-31T07:58:35Z</time>
      </trkpt>
      <trkpt lat="42.97639" lon="-0.2432">
        <ele>1508.4000244141</ele>
        <time>2020-05-31T07:58:38Z</time>
      </trkpt>
      <trkpt lat="42.97663" lon="-0.24298">
        <ele>1508.4000244141</ele>
        <time>2020-05-31T07:58:44Z</time>
      </trkpt>
      <trkpt lat="42.97675" lon="-0.24288">
        <ele>1508.4000244141</ele>
        <time>2020-05-31T07:58:47Z</time>
      </trkpt>
      <trkpt lat="42.97681" lon="-0.2428">
        <ele>1508.4000244141</ele>
        <time>2020-05-31T07:58:49Z</time>
      </trkpt>
      <trkpt lat="42.97697" lon="-0.24263">
        <ele>1508.4000244141</ele>
        <time>2020-05-31T07:58:54Z</time>
      </trkpt>
      <trkpt lat="42.97717" lon="-0.24262">
        <ele>1508.4000244141</ele>
        <time>2020-05-31T07:58:58Z</time>
      </trkpt>
      <trkpt lat="42.97737" lon="-0.24259">
        <ele>1508.4000244141</ele>
        <time>2020-05-31T07:59:02Z</time>
      </trkpt>
      <trkpt lat="42.97742" lon="-0.24257">
        <ele>1508.4000244141</ele>
        <time>2020-05-31T07:59:03Z</time>
      </trkpt>
      <trkpt lat="42.9775" lon="-0.24255">
        <ele>1508.4000244141</ele>
        <time>2020-05-31T07:59:05Z</time>
      </trkpt>
      <trkpt lat="42.97764" lon="-0.24259">
        <ele>1508.4000244141</ele>
        <time>2020-05-31T07:59:08Z</time>
      </trkpt>
      <trkpt lat="42.97768" lon="-0.24261">
        <ele>1508.4000244141</ele>
        <time>2020-05-31T07:59:09Z</time>
      </trkpt>
      <trkpt lat="42.97773" lon="-0.24264">
        <ele>1508.4000244141</ele>
        <time>2020-05-31T07:59:10Z</time>
      </trkpt>
      <trkpt lat="42.97785" lon="-0.24265">
        <ele>1508.4000244141</ele>
        <time>2020-05-31T07:59:13Z</time>
      </trkpt>
      <trkpt lat="42.97792" lon="-0.24262">
        <ele>1508.4000244141</ele>
        <time>2020-05-31T07:59:15Z</time>
      </trkpt>
      <trkpt lat="42.97802" lon="-0.24254">
        <ele>1508.4000244141</ele>
        <time>2020-05-31T07:59:18Z</time>
      </trkpt>
      <trkpt lat="42.97817" lon="-0.24232">
        <ele>1508.4000244141</ele>
        <time>2020-05-31T07:59:23Z</time>
      </trkpt>
      <trkpt lat="42.9782" lon="-0.24217">
        <ele>1508.8000488281</ele>
        <time>2020-05-31T07:59:26Z</time>
      </trkpt>
      <trkpt lat="42.97821" lon="-0.24213">
        <ele>1509.1999511719</ele>
        <time>2020-05-31T07:59:27Z</time>
      </trkpt>
      <trkpt lat="42.97822" lon="-0.24208">
        <ele>1509.5999755859</ele>
        <time>2020-05-31T07:59:28Z</time>
      </trkpt>
      <trkpt lat="42.97823" lon="-0.24203">
        <ele>1510</ele>
        <time>2020-05-31T07:59:29Z</time>
      </trkpt>
      <trkpt lat="42.97824" lon="-0.24198">
        <ele>1510.4000244141</ele>
        <time>2020-05-31T07:59:30Z</time>
      </trkpt>
      <trkpt lat="42.97833" lon="-0.24178">
        <ele>1510.4000244141</ele>
        <time>2020-05-31T07:59:35Z</time>
      </trkpt>
      <trkpt lat="42.97845" lon="-0.24172">
        <ele>1510.8000488281</ele>
        <time>2020-05-31T07:59:39Z</time>
      </trkpt>
      <trkpt lat="42.97848" lon="-0.24171">
        <ele>1511.1999511719</ele>
        <time>2020-05-31T07:59:40Z</time>
      </trkpt>
      <trkpt lat="42.97851" lon="-0.24171">
        <ele>1512</ele>
        <time>2020-05-31T07:59:41Z</time>
      </trkpt>
      <trkpt lat="42.97854" lon="-0.2417">
        <ele>1512.4000244141</ele>
        <time>2020-05-31T07:59:42Z</time>
      </trkpt>
      <trkpt lat="42.97862" lon="-0.24167">
        <ele>1512.4000244141</ele>
        <time>2020-05-31T07:59:45Z</time>
      </trkpt>
      <trkpt lat="42.97865" lon="-0.24166">
        <ele>1512.8000488281</ele>
        <time>2020-05-31T07:59:46Z</time>
      </trkpt>
      <trkpt lat="42.97868" lon="-0.24164">
        <ele>1513.1999511719</ele>
        <time>2020-05-31T07:59:47Z</time>
      </trkpt>
      <trkpt lat="42.97871" lon="-0.24162">
        <ele>1513.5999755859</ele>
        <time>2020-05-31T07:59:48Z</time>
      </trkpt>
      <trkpt lat="42.97874" lon="-0.24161">
        <ele>1514</ele>
        <time>2020-05-31T07:59:49Z</time>
      </trkpt>
      <trkpt lat="42.97876" lon="-0.2416">
        <ele>1514.4000244141</ele>
        <time>2020-05-31T07:59:50Z</time>
      </trkpt>
      <trkpt lat="42.97879" lon="-0.2416">
        <ele>1514.4000244141</ele>
        <time>2020-05-31T07:59:51Z</time>
      </trkpt>
      <trkpt lat="42.97903" lon="-0.24163">
        <ele>1514.4000244141</ele>
        <time>2020-05-31T07:59:58Z</time>
      </trkpt>
      <trkpt lat="42.97915" lon="-0.24164">
        <ele>1514.4000244141</ele>
        <time>2020-05-31T08:00:01Z</time>
      </trkpt>
      <trkpt lat="42.97923" lon="-0.24163">
        <ele>1514.4000244141</ele>
        <time>2020-05-31T08:00:03Z</time>
      </trkpt>
      <trkpt lat="42.97935" lon="-0.24156">
        <ele>1514.4000244141</ele>
        <time>2020-05-31T08:00:07Z</time>
      </trkpt>
      <trkpt lat="42.97949" lon="-0.24145">
        <ele>1514.4000244141</ele>
        <time>2020-05-31T08:00:12Z</time>
      </trkpt>
      <trkpt lat="42.97952" lon="-0.24144">
        <ele>1515</ele>
        <time>2020-05-31T08:00:13Z</time>
      </trkpt>
      <trkpt lat="42.97956" lon="-0.24143">
        <ele>1515.4000244141</ele>
        <time>2020-05-31T08:00:14Z</time>
      </trkpt>
      <trkpt lat="42.97959" lon="-0.24142">
        <ele>1515.8000488281</ele>
        <time>2020-05-31T08:00:15Z</time>
      </trkpt>
      <trkpt lat="42.97963" lon="-0.24142">
        <ele>1516.1999511719</ele>
        <time>2020-05-31T08:00:16Z</time>
      </trkpt>
      <trkpt lat="42.97966" lon="-0.24144">
        <ele>1516.5999755859</ele>
        <time>2020-05-31T08:00:17Z</time>
      </trkpt>
      <trkpt lat="42.97984" lon="-0.24145">
        <ele>1516.5999755859</ele>
        <time>2020-05-31T08:00:22Z</time>
      </trkpt>
      <trkpt lat="42.98004" lon="-0.24145">
        <ele>1516.5999755859</ele>
        <time>2020-05-31T08:00:28Z</time>
      </trkpt>
      <trkpt lat="42.98013" lon="-0.24143">
        <ele>1516.5999755859</ele>
        <time>2020-05-31T08:00:31Z</time>
      </trkpt>
      <trkpt lat="42.98026" lon="-0.24139">
        <ele>1517</ele>
        <time>2020-05-31T08:00:35Z</time>
      </trkpt>
      <trkpt lat="42.9803" lon="-0.24137">
        <ele>1517.4000244141</ele>
        <time>2020-05-31T08:00:36Z</time>
      </trkpt>
      <trkpt lat="42.98033" lon="-0.24134">
        <ele>1517.8000488281</ele>
        <time>2020-05-31T08:00:37Z</time>
      </trkpt>
      <trkpt lat="42.98035" lon="-0.24131">
        <ele>1518.1999511719</ele>
        <time>2020-05-31T08:00:38Z</time>
      </trkpt>
      <trkpt lat="42.98037" lon="-0.24128">
        <ele>1518.5999755859</ele>
        <time>2020-05-31T08:00:39Z</time>
      </trkpt>
      <trkpt lat="42.98039" lon="-0.24124">
        <ele>1518.5999755859</ele>
        <time>2020-05-31T08:00:40Z</time>
      </trkpt>
      <trkpt lat="42.98056" lon="-0.24101">
        <ele>1518.5999755859</ele>
        <time>2020-05-31T08:00:47Z</time>
      </trkpt>
      <trkpt lat="42.98059" lon="-0.24099">
        <ele>1518.5999755859</ele>
        <time>2020-05-31T08:00:48Z</time>
      </trkpt>
      <trkpt lat="42.98072" lon="-0.24098">
        <ele>1518.5999755859</ele>
        <time>2020-05-31T08:00:51Z</time>
      </trkpt>
      <trkpt lat="42.98099" lon="-0.24088">
        <ele>1518.5999755859</ele>
        <time>2020-05-31T08:00:58Z</time>
      </trkpt>
      <trkpt lat="42.98107" lon="-0.24069">
        <ele>1518.5999755859</ele>
        <time>2020-05-31T08:01:03Z</time>
      </trkpt>
      <trkpt lat="42.98121" lon="-0.24043">
        <ele>1518.5999755859</ele>
        <time>2020-05-31T08:01:10Z</time>
      </trkpt>
      <trkpt lat="42.98135" lon="-0.2402">
        <ele>1518.5999755859</ele>
        <time>2020-05-31T08:01:16Z</time>
      </trkpt>
      <trkpt lat="42.98145" lon="-0.24006">
        <ele>1519</ele>
        <time>2020-05-31T08:01:20Z</time>
      </trkpt>
      <trkpt lat="42.98148" lon="-0.24003">
        <ele>1519.4000244141</ele>
        <time>2020-05-31T08:01:21Z</time>
      </trkpt>
      <trkpt lat="42.98151" lon="-0.24">
        <ele>1519.8000488281</ele>
        <time>2020-05-31T08:01:22Z</time>
      </trkpt>
      <trkpt lat="42.98154" lon="-0.23998">
        <ele>1520.1999511719</ele>
        <time>2020-05-31T08:01:23Z</time>
      </trkpt>
      <trkpt lat="42.98157" lon="-0.23996">
        <ele>1520.5999755859</ele>
        <time>2020-05-31T08:01:24Z</time>
      </trkpt>
      <trkpt lat="42.98164" lon="-0.23997">
        <ele>1520.5999755859</ele>
        <time>2020-05-31T08:01:26Z</time>
      </trkpt>
      <trkpt lat="42.98172" lon="-0.24009">
        <ele>1520.5999755859</ele>
        <time>2020-05-31T08:01:30Z</time>
      </trkpt>
      <trkpt lat="42.9818" lon="-0.24029">
        <ele>1520.5999755859</ele>
        <time>2020-05-31T08:01:35Z</time>
      </trkpt>
      <trkpt lat="42.98192" lon="-0.24032">
        <ele>1520.5999755859</ele>
        <time>2020-05-31T08:01:39Z</time>
      </trkpt>
      <trkpt lat="42.98207" lon="-0.2402">
        <ele>1520.5999755859</ele>
        <time>2020-05-31T08:01:44Z</time>
      </trkpt>
      <trkpt lat="42.9821" lon="-0.24016">
        <ele>1520.5999755859</ele>
        <time>2020-05-31T08:01:45Z</time>
      </trkpt>
      <trkpt lat="42.98223" lon="-0.24002">
        <ele>1520.5999755859</ele>
        <time>2020-05-31T08:01:50Z</time>
      </trkpt>
      <trkpt lat="42.98238" lon="-0.23998">
        <ele>1521</ele>
        <time>2020-05-31T08:01:55Z</time>
      </trkpt>
      <trkpt lat="42.98241" lon="-0.23998">
        <ele>1521.4000244141</ele>
        <time>2020-05-31T08:01:56Z</time>
      </trkpt>
      <trkpt lat="42.98244" lon="-0.23998">
        <ele>1521.8000488281</ele>
        <time>2020-05-31T08:01:57Z</time>
      </trkpt>
      <trkpt lat="42.98246" lon="-0.23998">
        <ele>1522.4000244141</ele>
        <time>2020-05-31T08:01:58Z</time>
      </trkpt>
      <trkpt lat="42.98249" lon="-0.23998">
        <ele>1522.8000488281</ele>
        <time>2020-05-31T08:01:59Z</time>
      </trkpt>
      <trkpt lat="42.98254" lon="-0.24">
        <ele>1522.8000488281</ele>
        <time>2020-05-31T08:02:01Z</time>
      </trkpt>
      <trkpt lat="42.98267" lon="-0.24013">
        <ele>1522.8000488281</ele>
        <time>2020-05-31T08:02:07Z</time>
      </trkpt>
      <trkpt lat="42.98267" lon="-0.24016">
        <ele>1523.1999511719</ele>
        <time>2020-05-31T08:02:08Z</time>
      </trkpt>
      <trkpt lat="42.98268" lon="-0.2402">
        <ele>1524</ele>
        <time>2020-05-31T08:02:09Z</time>
      </trkpt>
      <trkpt lat="42.98268" lon="-0.24023">
        <ele>1524.4000244141</ele>
        <time>2020-05-31T08:02:10Z</time>
      </trkpt>
      <trkpt lat="42.98268" lon="-0.24027">
        <ele>1524.8000488281</ele>
        <time>2020-05-31T08:02:11Z</time>
      </trkpt>
      <trkpt lat="42.98268" lon="-0.2403">
        <ele>1524.8000488281</ele>
        <time>2020-05-31T08:02:12Z</time>
      </trkpt>
      <trkpt lat="42.98271" lon="-0.24049">
        <ele>1525.1999511719</ele>
        <time>2020-05-31T08:02:18Z</time>
      </trkpt>
      <trkpt lat="42.98271" lon="-0.24053">
        <ele>1525.5999755859</ele>
        <time>2020-05-31T08:02:19Z</time>
      </trkpt>
      <trkpt lat="42.98272" lon="-0.24056">
        <ele>1526</ele>
        <time>2020-05-31T08:02:20Z</time>
      </trkpt>
      <trkpt lat="42.98272" lon="-0.2406">
        <ele>1526.4000244141</ele>
        <time>2020-05-31T08:02:21Z</time>
      </trkpt>
      <trkpt lat="42.98272" lon="-0.24062">
        <ele>1526.8000488281</ele>
        <time>2020-05-31T08:02:22Z</time>
      </trkpt>
      <trkpt lat="42.98273" lon="-0.2407">
        <ele>1526.8000488281</ele>
        <time>2020-05-31T08:02:25Z</time>
      </trkpt>
      <trkpt lat="42.98278" lon="-0.24089">
        <ele>1526.8000488281</ele>
        <time>2020-05-31T08:02:31Z</time>
      </trkpt>
      <trkpt lat="42.98278" lon="-0.24095">
        <ele>1527.1999511719</ele>
        <time>2020-05-31T08:02:33Z</time>
      </trkpt>
      <trkpt lat="42.98279" lon="-0.24098">
        <ele>1528</ele>
        <time>2020-05-31T08:02:34Z</time>
      </trkpt>
      <trkpt lat="42.98279" lon="-0.241">
        <ele>1528.4000244141</ele>
        <time>2020-05-31T08:02:35Z</time>
      </trkpt>
      <trkpt lat="42.98279" lon="-0.24102">
        <ele>1528.8000488281</ele>
        <time>2020-05-31T08:02:36Z</time>
      </trkpt>
      <trkpt lat="42.9828" lon="-0.24108">
        <ele>1528.8000488281</ele>
        <time>2020-05-31T08:02:38Z</time>
      </trkpt>
      <trkpt lat="42.9828" lon="-0.24129">
        <ele>1528.8000488281</ele>
        <time>2020-05-31T08:02:45Z</time>
      </trkpt>
      <trkpt lat="42.98273" lon="-0.24141">
        <ele>1528.4000244141</ele>
        <time>2020-05-31T08:02:49Z</time>
      </trkpt>
      <trkpt lat="42.98271" lon="-0.24144">
        <ele>1528</ele>
        <time>2020-05-31T08:02:50Z</time>
      </trkpt>
      <trkpt lat="42.98268" lon="-0.24147">
        <ele>1527.5999755859</ele>
        <time>2020-05-31T08:02:51Z</time>
      </trkpt>
      <trkpt lat="42.98267" lon="-0.24151">
        <ele>1527.1999511719</ele>
        <time>2020-05-31T08:02:52Z</time>
      </trkpt>
      <trkpt lat="42.98265" lon="-0.24155">
        <ele>1526.8000488281</ele>
        <time>2020-05-31T08:02:53Z</time>
      </trkpt>
      <trkpt lat="42.98261" lon="-0.24164">
        <ele>1526.8000488281</ele>
        <time>2020-05-31T08:02:55Z</time>
      </trkpt>
      <trkpt lat="42.98259" lon="-0.2417">
        <ele>1526.1999511719</ele>
        <time>2020-05-31T08:02:56Z</time>
      </trkpt>
      <trkpt lat="42.98257" lon="-0.24176">
        <ele>1525.8000488281</ele>
        <time>2020-05-31T08:02:57Z</time>
      </trkpt>
      <trkpt lat="42.98255" lon="-0.24181">
        <ele>1525.4000244141</ele>
        <time>2020-05-31T08:02:58Z</time>
      </trkpt>
      <trkpt lat="42.98252" lon="-0.24188">
        <ele>1524.5999755859</ele>
        <time>2020-05-31T08:02:59Z</time>
      </trkpt>
      <trkpt lat="42.98249" lon="-0.24195">
        <ele>1524.1999511719</ele>
        <time>2020-05-31T08:03:00Z</time>
      </trkpt>
      <trkpt lat="42.98246" lon="-0.24202">
        <ele>1523.8000488281</ele>
        <time>2020-05-31T08:03:01Z</time>
      </trkpt>
      <trkpt lat="42.98243" lon="-0.2421">
        <ele>1523.1999511719</ele>
        <time>2020-05-31T08:03:02Z</time>
      </trkpt>
      <trkpt lat="42.9824" lon="-0.24217">
        <ele>1522.8000488281</ele>
        <time>2020-05-31T08:03:03Z</time>
      </trkpt>
      <trkpt lat="42.98238" lon="-0.24224">
        <ele>1522.4000244141</ele>
        <time>2020-05-31T08:03:04Z</time>
      </trkpt>
      <trkpt lat="42.98237" lon="-0.24231">
        <ele>1522</ele>
        <time>2020-05-31T08:03:05Z</time>
      </trkpt>
      <trkpt lat="42.98235" lon="-0.24238">
        <ele>1521.5999755859</ele>
        <time>2020-05-31T08:03:06Z</time>
      </trkpt>
      <trkpt lat="42.98234" lon="-0.24246">
        <ele>1521.1999511719</ele>
        <time>2020-05-31T08:03:07Z</time>
      </trkpt>
      <trkpt lat="42.98232" lon="-0.24253">
        <ele>1520.8000488281</ele>
        <time>2020-05-31T08:03:08Z</time>
      </trkpt>
      <trkpt lat="42.98231" lon="-0.2426">
        <ele>1520.4000244141</ele>
        <time>2020-05-31T08:03:09Z</time>
      </trkpt>
      <trkpt lat="42.9823" lon="-0.24268">
        <ele>1519.8000488281</ele>
        <time>2020-05-31T08:03:10Z</time>
      </trkpt>
      <trkpt lat="42.98228" lon="-0.24275">
        <ele>1519.4000244141</ele>
        <time>2020-05-31T08:03:11Z</time>
      </trkpt>
      <trkpt lat="42.98225" lon="-0.24281">
        <ele>1519</ele>
        <time>2020-05-31T08:03:12Z</time>
      </trkpt>
      <trkpt lat="42.98221" lon="-0.24288">
        <ele>1518.5999755859</ele>
        <time>2020-05-31T08:03:13Z</time>
      </trkpt>
      <trkpt lat="42.98217" lon="-0.24295">
        <ele>1518.1999511719</ele>
        <time>2020-05-31T08:03:14Z</time>
      </trkpt>
      <trkpt lat="42.98207" lon="-0.24307">
        <ele>1517.5999755859</ele>
        <time>2020-05-31T08:03:16Z</time>
      </trkpt>
      <trkpt lat="42.98201" lon="-0.24312">
        <ele>1517.1999511719</ele>
        <time>2020-05-31T08:03:17Z</time>
      </trkpt>
      <trkpt lat="42.98196" lon="-0.24317">
        <ele>1516.5999755859</ele>
        <time>2020-05-31T08:03:18Z</time>
      </trkpt>
      <trkpt lat="42.9819" lon="-0.24322">
        <ele>1516</ele>
        <time>2020-05-31T08:03:19Z</time>
      </trkpt>
      <trkpt lat="42.98184" lon="-0.24327">
        <ele>1515.5999755859</ele>
        <time>2020-05-31T08:03:20Z</time>
      </trkpt>
      <trkpt lat="42.98173" lon="-0.24338">
        <ele>1515</ele>
        <time>2020-05-31T08:03:22Z</time>
      </trkpt>
      <trkpt lat="42.98167" lon="-0.24345">
        <ele>1514.5999755859</ele>
        <time>2020-05-31T08:03:23Z</time>
      </trkpt>
      <trkpt lat="42.98161" lon="-0.24353">
        <ele>1513.5999755859</ele>
        <time>2020-05-31T08:03:24Z</time>
      </trkpt>
      <trkpt lat="42.98156" lon="-0.2436">
        <ele>1513</ele>
        <time>2020-05-31T08:03:25Z</time>
      </trkpt>
      <trkpt lat="42.98151" lon="-0.24367">
        <ele>1512.4000244141</ele>
        <time>2020-05-31T08:03:26Z</time>
      </trkpt>
      <trkpt lat="42.98147" lon="-0.24375">
        <ele>1511.8000488281</ele>
        <time>2020-05-31T08:03:27Z</time>
      </trkpt>
      <trkpt lat="42.98145" lon="-0.24383">
        <ele>1511.1999511719</ele>
        <time>2020-05-31T08:03:28Z</time>
      </trkpt>
      <trkpt lat="42.98144" lon="-0.24392">
        <ele>1510.5999755859</ele>
        <time>2020-05-31T08:03:29Z</time>
      </trkpt>
      <trkpt lat="42.98145" lon="-0.24401">
        <ele>1510.5999755859</ele>
        <time>2020-05-31T08:03:30Z</time>
      </trkpt>
      <trkpt lat="42.98144" lon="-0.24409">
        <ele>1510.5999755859</ele>
        <time>2020-05-31T08:03:31Z</time>
      </trkpt>
      <trkpt lat="42.98135" lon="-0.24427">
        <ele>1510.1999511719</ele>
        <time>2020-05-31T08:03:34Z</time>
      </trkpt>
      <trkpt lat="42.9813" lon="-0.24431">
        <ele>1509.8000488281</ele>
        <time>2020-05-31T08:03:35Z</time>
      </trkpt>
      <trkpt lat="42.98125" lon="-0.24435">
        <ele>1509.4000244141</ele>
        <time>2020-05-31T08:03:36Z</time>
      </trkpt>
      <trkpt lat="42.98119" lon="-0.24438">
        <ele>1509</ele>
        <time>2020-05-31T08:03:37Z</time>
      </trkpt>
      <trkpt lat="42.98112" lon="-0.24442">
        <ele>1508.5999755859</ele>
        <time>2020-05-31T08:03:38Z</time>
      </trkpt>
      <trkpt lat="42.98104" lon="-0.24445">
        <ele>1508</ele>
        <time>2020-05-31T08:03:39Z</time>
      </trkpt>
      <trkpt lat="42.98097" lon="-0.24449">
        <ele>1507.4000244141</ele>
        <time>2020-05-31T08:03:40Z</time>
      </trkpt>
      <trkpt lat="42.98089" lon="-0.24453">
        <ele>1506.5999755859</ele>
        <time>2020-05-31T08:03:41Z</time>
      </trkpt>
      <trkpt lat="42.98082" lon="-0.24458">
        <ele>1505.8000488281</ele>
        <time>2020-05-31T08:03:42Z</time>
      </trkpt>
      <trkpt lat="42.98076" lon="-0.24463">
        <ele>1505</ele>
        <time>2020-05-31T08:03:43Z</time>
      </trkpt>
      <trkpt lat="42.9807" lon="-0.24468">
        <ele>1504.4000244141</ele>
        <time>2020-05-31T08:03:44Z</time>
      </trkpt>
      <trkpt lat="42.98065" lon="-0.24476">
        <ele>1503.8000488281</ele>
        <time>2020-05-31T08:03:45Z</time>
      </trkpt>
      <trkpt lat="42.98061" lon="-0.24484">
        <ele>1503.1999511719</ele>
        <time>2020-05-31T08:03:46Z</time>
      </trkpt>
      <trkpt lat="42.9806" lon="-0.24493">
        <ele>1502.5999755859</ele>
        <time>2020-05-31T08:03:47Z</time>
      </trkpt>
      <trkpt lat="42.98061" lon="-0.24503">
        <ele>1501.5999755859</ele>
        <time>2020-05-31T08:03:48Z</time>
      </trkpt>
      <trkpt lat="42.98064" lon="-0.24512">
        <ele>1501</ele>
        <time>2020-05-31T08:03:49Z</time>
      </trkpt>
      <trkpt lat="42.98066" lon="-0.24521">
        <ele>1500.5999755859</ele>
        <time>2020-05-31T08:03:50Z</time>
      </trkpt>
      <trkpt lat="42.98067" lon="-0.2453">
        <ele>1500</ele>
        <time>2020-05-31T08:03:51Z</time>
      </trkpt>
      <trkpt lat="42.98069" lon="-0.24538">
        <ele>1499.5999755859</ele>
        <time>2020-05-31T08:03:52Z</time>
      </trkpt>
      <trkpt lat="42.98068" lon="-0.24547">
        <ele>1499</ele>
        <time>2020-05-31T08:03:53Z</time>
      </trkpt>
      <trkpt lat="42.98066" lon="-0.24555">
        <ele>1499</ele>
        <time>2020-05-31T08:03:54Z</time>
      </trkpt>
      <trkpt lat="42.98062" lon="-0.24563">
        <ele>1498.5999755859</ele>
        <time>2020-05-31T08:03:55Z</time>
      </trkpt>
      <trkpt lat="42.98058" lon="-0.24572">
        <ele>1498.1999511719</ele>
        <time>2020-05-31T08:03:56Z</time>
      </trkpt>
      <trkpt lat="42.98055" lon="-0.24581">
        <ele>1497.8000488281</ele>
        <time>2020-05-31T08:03:57Z</time>
      </trkpt>
      <trkpt lat="42.98052" lon="-0.2459">
        <ele>1497.1999511719</ele>
        <time>2020-05-31T08:03:58Z</time>
      </trkpt>
      <trkpt lat="42.9805" lon="-0.24599">
        <ele>1496.5999755859</ele>
        <time>2020-05-31T08:03:59Z</time>
      </trkpt>
      <trkpt lat="42.98049" lon="-0.24609">
        <ele>1496</ele>
        <time>2020-05-31T08:04:00Z</time>
      </trkpt>
      <trkpt lat="42.98049" lon="-0.24619">
        <ele>1495.4000244141</ele>
        <time>2020-05-31T08:04:01Z</time>
      </trkpt>
      <trkpt lat="42.98048" lon="-0.24629">
        <ele>1494.8000488281</ele>
        <time>2020-05-31T08:04:02Z</time>
      </trkpt>
      <trkpt lat="42.9805" lon="-0.24647">
        <ele>1494.8000488281</ele>
        <time>2020-05-31T08:04:04Z</time>
      </trkpt>
      <trkpt lat="42.98051" lon="-0.24655">
        <ele>1494.8000488281</ele>
        <time>2020-05-31T08:04:05Z</time>
      </trkpt>
      <trkpt lat="42.98052" lon="-0.24661">
        <ele>1494.4000244141</ele>
        <time>2020-05-31T08:04:06Z</time>
      </trkpt>
      <trkpt lat="42.98054" lon="-0.24667">
        <ele>1493.8000488281</ele>
        <time>2020-05-31T08:04:07Z</time>
      </trkpt>
      <trkpt lat="42.98054" lon="-0.24672">
        <ele>1493.4000244141</ele>
        <time>2020-05-31T08:04:08Z</time>
      </trkpt>
      <trkpt lat="42.98055" lon="-0.24677">
        <ele>1493</ele>
        <time>2020-05-31T08:04:09Z</time>
      </trkpt>
      <trkpt lat="42.98055" lon="-0.24681">
        <ele>1492.5999755859</ele>
        <time>2020-05-31T08:04:10Z</time>
      </trkpt>
      <trkpt lat="42.98055" lon="-0.24699">
        <ele>1492.1999511719</ele>
        <time>2020-05-31T08:04:14Z</time>
      </trkpt>
      <trkpt lat="42.98056" lon="-0.24701">
        <ele>1491.8000488281</ele>
        <time>2020-05-31T08:04:15Z</time>
      </trkpt>
      <trkpt lat="42.98057" lon="-0.24702">
        <ele>1491.4000244141</ele>
        <time>2020-05-31T08:04:16Z</time>
      </trkpt>
      <trkpt lat="42.98058" lon="-0.24703">
        <ele>1491</ele>
        <time>2020-05-31T08:04:17Z</time>
      </trkpt>
      <trkpt lat="42.98059" lon="-0.24704">
        <ele>1490.4000244141</ele>
        <time>2020-05-31T08:04:18Z</time>
      </trkpt>
      <trkpt lat="42.98059" lon="-0.24704">
        <ele>1490.4000244141</ele>
        <time>2020-05-31T08:04:25Z</time>
      </trkpt>
      <trkpt lat="42.98059" lon="-0.24704">
        <ele>1490.4000244141</ele>
        <time>2020-05-31T08:04:34Z</time>
      </trkpt>
      <trkpt lat="42.98059" lon="-0.24704">
        <ele>1490.4000244141</ele>
        <time>2020-05-31T08:04:40Z</time>
      </trkpt>
      <trkpt lat="42.98059" lon="-0.24704">
        <ele>1490.4000244141</ele>
        <time>2020-05-31T08:04:48Z</time>
      </trkpt>
      <trkpt lat="42.98059" lon="-0.24703">
        <ele>1490.4000244141</ele>
        <time>2020-05-31T08:04:52Z</time>
      </trkpt>
      <trkpt lat="42.98059" lon="-0.24703">
        <ele>1490.4000244141</ele>
        <time>2020-05-31T08:04:58Z</time>
      </trkpt>
      <trkpt lat="42.98061" lon="-0.24699">
        <ele>1490.4000244141</ele>
        <time>2020-05-31T08:05:00Z</time>
      </trkpt>
      <trkpt lat="42.98063" lon="-0.24688">
        <ele>1489.5999755859</ele>
        <time>2020-05-31T08:05:03Z</time>
      </trkpt>
      <trkpt lat="42.98063" lon="-0.24682">
        <ele>1489</ele>
        <time>2020-05-31T08:05:04Z</time>
      </trkpt>
      <trkpt lat="42.98064" lon="-0.24677">
        <ele>1488.5999755859</ele>
        <time>2020-05-31T08:05:05Z</time>
      </trkpt>
      <trkpt lat="42.98064" lon="-0.2467">
        <ele>1488</ele>
        <time>2020-05-31T08:05:06Z</time>
      </trkpt>
      <trkpt lat="42.98064" lon="-0.24664">
        <ele>1487.5999755859</ele>
        <time>2020-05-31T08:05:07Z</time>
      </trkpt>
      <trkpt lat="42.98064" lon="-0.24656">
        <ele>1487</ele>
        <time>2020-05-31T08:05:08Z</time>
      </trkpt>
      <trkpt lat="42.98065" lon="-0.24647">
        <ele>1486.5999755859</ele>
        <time>2020-05-31T08:05:09Z</time>
      </trkpt>
      <trkpt lat="42.98066" lon="-0.24638">
        <ele>1485.8000488281</ele>
        <time>2020-05-31T08:05:10Z</time>
      </trkpt>
      <trkpt lat="42.98068" lon="-0.2463">
        <ele>1485</ele>
        <time>2020-05-31T08:05:11Z</time>
      </trkpt>
      <trkpt lat="42.98071" lon="-0.24621">
        <ele>1484.1999511719</ele>
        <time>2020-05-31T08:05:12Z</time>
      </trkpt>
      <trkpt lat="42.98074" lon="-0.24613">
        <ele>1483.5999755859</ele>
        <time>2020-05-31T08:05:13Z</time>
      </trkpt>
      <trkpt lat="42.98078" lon="-0.24605">
        <ele>1482.8000488281</ele>
        <time>2020-05-31T08:05:14Z</time>
      </trkpt>
      <trkpt lat="42.98082" lon="-0.24597">
        <ele>1482.4000244141</ele>
        <time>2020-05-31T08:05:15Z</time>
      </trkpt>
      <trkpt lat="42.98088" lon="-0.24589">
        <ele>1481.8000488281</ele>
        <time>2020-05-31T08:05:16Z</time>
      </trkpt>
      <trkpt lat="42.98093" lon="-0.24581">
        <ele>1481.4000244141</ele>
        <time>2020-05-31T08:05:17Z</time>
      </trkpt>
      <trkpt lat="42.98098" lon="-0.24573">
        <ele>1481</ele>
        <time>2020-05-31T08:05:18Z</time>
      </trkpt>
      <trkpt lat="42.98104" lon="-0.24565">
        <ele>1480.4000244141</ele>
        <time>2020-05-31T08:05:19Z</time>
      </trkpt>
      <trkpt lat="42.98109" lon="-0.24556">
        <ele>1479.8000488281</ele>
        <time>2020-05-31T08:05:20Z</time>
      </trkpt>
      <trkpt lat="42.98115" lon="-0.24548">
        <ele>1479.1999511719</ele>
        <time>2020-05-31T08:05:21Z</time>
      </trkpt>
      <trkpt lat="42.9812" lon="-0.24539">
        <ele>1478.8000488281</ele>
        <time>2020-05-31T08:05:22Z</time>
      </trkpt>
      <trkpt lat="42.98125" lon="-0.2453">
        <ele>1478</ele>
        <time>2020-05-31T08:05:23Z</time>
      </trkpt>
      <trkpt lat="42.98132" lon="-0.24522">
        <ele>1477.4000244141</ele>
        <time>2020-05-31T08:05:24Z</time>
      </trkpt>
      <trkpt lat="42.98138" lon="-0.24515">
        <ele>1476.8000488281</ele>
        <time>2020-05-31T08:05:25Z</time>
      </trkpt>
      <trkpt lat="42.98144" lon="-0.24509">
        <ele>1476.1999511719</ele>
        <time>2020-05-31T08:05:26Z</time>
      </trkpt>
      <trkpt lat="42.98152" lon="-0.24504">
        <ele>1475.5999755859</ele>
        <time>2020-05-31T08:05:27Z</time>
      </trkpt>
      <trkpt lat="42.98159" lon="-0.24501">
        <ele>1475</ele>
        <time>2020-05-31T08:05:28Z</time>
      </trkpt>
      <trkpt lat="42.98166" lon="-0.24498">
        <ele>1474.5999755859</ele>
        <time>2020-05-31T08:05:29Z</time>
      </trkpt>
      <trkpt lat="42.98173" lon="-0.24494">
        <ele>1474.1999511719</ele>
        <time>2020-05-31T08:05:30Z</time>
      </trkpt>
      <trkpt lat="42.98181" lon="-0.2449">
        <ele>1473.5999755859</ele>
        <time>2020-05-31T08:05:31Z</time>
      </trkpt>
      <trkpt lat="42.98188" lon="-0.24486">
        <ele>1473.1999511719</ele>
        <time>2020-05-31T08:05:32Z</time>
      </trkpt>
      <trkpt lat="42.98196" lon="-0.24482">
        <ele>1472.5999755859</ele>
        <time>2020-05-31T08:05:33Z</time>
      </trkpt>
      <trkpt lat="42.98204" lon="-0.24478">
        <ele>1472.1999511719</ele>
        <time>2020-05-31T08:05:34Z</time>
      </trkpt>
      <trkpt lat="42.98212" lon="-0.24474">
        <ele>1471.5999755859</ele>
        <time>2020-05-31T08:05:35Z</time>
      </trkpt>
      <trkpt lat="42.9822" lon="-0.24473">
        <ele>1471.1999511719</ele>
        <time>2020-05-31T08:05:36Z</time>
      </trkpt>
      <trkpt lat="42.98228" lon="-0.24472">
        <ele>1470.5999755859</ele>
        <time>2020-05-31T08:05:37Z</time>
      </trkpt>
      <trkpt lat="42.98236" lon="-0.24473">
        <ele>1470</ele>
        <time>2020-05-31T08:05:38Z</time>
      </trkpt>
      <trkpt lat="42.98244" lon="-0.24472">
        <ele>1469.5999755859</ele>
        <time>2020-05-31T08:05:39Z</time>
      </trkpt>
      <trkpt lat="42.9825" lon="-0.24468">
        <ele>1469</ele>
        <time>2020-05-31T08:05:40Z</time>
      </trkpt>
      <trkpt lat="42.98255" lon="-0.24461">
        <ele>1469</ele>
        <time>2020-05-31T08:05:41Z</time>
      </trkpt>
      <trkpt lat="42.98267" lon="-0.24447">
        <ele>1468.5999755859</ele>
        <time>2020-05-31T08:05:43Z</time>
      </trkpt>
      <trkpt lat="42.98272" lon="-0.2444">
        <ele>1468.1999511719</ele>
        <time>2020-05-31T08:05:44Z</time>
      </trkpt>
      <trkpt lat="42.98276" lon="-0.24433">
        <ele>1467.8000488281</ele>
        <time>2020-05-31T08:05:45Z</time>
      </trkpt>
      <trkpt lat="42.98279" lon="-0.24426">
        <ele>1467.1999511719</ele>
        <time>2020-05-31T08:05:46Z</time>
      </trkpt>
      <trkpt lat="42.98283" lon="-0.24422">
        <ele>1466.8000488281</ele>
        <time>2020-05-31T08:05:47Z</time>
      </trkpt>
      <trkpt lat="42.98289" lon="-0.2442">
        <ele>1466.8000488281</ele>
        <time>2020-05-31T08:05:48Z</time>
      </trkpt>
      <trkpt lat="42.98304" lon="-0.24428">
        <ele>1466.8000488281</ele>
        <time>2020-05-31T08:05:51Z</time>
      </trkpt>
      <trkpt lat="42.98308" lon="-0.24432">
        <ele>1466</ele>
        <time>2020-05-31T08:05:52Z</time>
      </trkpt>
      <trkpt lat="42.98311" lon="-0.24436">
        <ele>1465.4000244141</ele>
        <time>2020-05-31T08:05:53Z</time>
      </trkpt>
      <trkpt lat="42.98314" lon="-0.2444">
        <ele>1465</ele>
        <time>2020-05-31T08:05:54Z</time>
      </trkpt>
      <trkpt lat="42.98317" lon="-0.24443">
        <ele>1464.5999755859</ele>
        <time>2020-05-31T08:05:55Z</time>
      </trkpt>
      <trkpt lat="42.98325" lon="-0.24447">
        <ele>1464.5999755859</ele>
        <time>2020-05-31T08:05:57Z</time>
      </trkpt>
      <trkpt lat="42.9834" lon="-0.24449">
        <ele>1464.5999755859</ele>
        <time>2020-05-31T08:06:00Z</time>
      </trkpt>
      <trkpt lat="42.98362" lon="-0.24447">
        <ele>1464.5999755859</ele>
        <time>2020-05-31T08:06:04Z</time>
      </trkpt>
      <trkpt lat="42.98385" lon="-0.24454">
        <ele>1464.5999755859</ele>
        <time>2020-05-31T08:06:08Z</time>
      </trkpt>
      <trkpt lat="42.98396" lon="-0.24458">
        <ele>1464.5999755859</ele>
        <time>2020-05-31T08:06:10Z</time>
      </trkpt>
      <trkpt lat="42.98402" lon="-0.2446">
        <ele>1464.5999755859</ele>
        <time>2020-05-31T08:06:11Z</time>
      </trkpt>
      <trkpt lat="42.98407" lon="-0.24463">
        <ele>1464.5999755859</ele>
        <time>2020-05-31T08:06:12Z</time>
      </trkpt>
      <trkpt lat="42.98419" lon="-0.24469">
        <ele>1464.1999511719</ele>
        <time>2020-05-31T08:06:14Z</time>
      </trkpt>
      <trkpt lat="42.98424" lon="-0.24471">
        <ele>1463.5999755859</ele>
        <time>2020-05-31T08:06:15Z</time>
      </trkpt>
      <trkpt lat="42.98431" lon="-0.24475">
        <ele>1463.1999511719</ele>
        <time>2020-05-31T08:06:16Z</time>
      </trkpt>
      <trkpt lat="42.98437" lon="-0.2448">
        <ele>1462.1999511719</ele>
        <time>2020-05-31T08:06:17Z</time>
      </trkpt>
      <trkpt lat="42.98442" lon="-0.24484">
        <ele>1461.8000488281</ele>
        <time>2020-05-31T08:06:18Z</time>
      </trkpt>
      <trkpt lat="42.98446" lon="-0.24489">
        <ele>1461.4000244141</ele>
        <time>2020-05-31T08:06:19Z</time>
      </trkpt>
      <trkpt lat="42.98451" lon="-0.24494">
        <ele>1461</ele>
        <time>2020-05-31T08:06:20Z</time>
      </trkpt>
      <trkpt lat="42.98457" lon="-0.24499">
        <ele>1460.5999755859</ele>
        <time>2020-05-31T08:06:21Z</time>
      </trkpt>
      <trkpt lat="42.98462" lon="-0.24504">
        <ele>1460.1999511719</ele>
        <time>2020-05-31T08:06:22Z</time>
      </trkpt>
      <trkpt lat="42.98467" lon="-0.24509">
        <ele>1460.1999511719</ele>
        <time>2020-05-31T08:06:23Z</time>
      </trkpt>
      <trkpt lat="42.98496" lon="-0.24542">
        <ele>1459.8000488281</ele>
        <time>2020-05-31T08:06:29Z</time>
      </trkpt>
      <trkpt lat="42.98501" lon="-0.24548">
        <ele>1459.1999511719</ele>
        <time>2020-05-31T08:06:30Z</time>
      </trkpt>
      <trkpt lat="42.98505" lon="-0.24555">
        <ele>1458.8000488281</ele>
        <time>2020-05-31T08:06:31Z</time>
      </trkpt>
      <trkpt lat="42.9851" lon="-0.24562">
        <ele>1458.1999511719</ele>
        <time>2020-05-31T08:06:32Z</time>
      </trkpt>
      <trkpt lat="42.98514" lon="-0.24569">
        <ele>1457.5999755859</ele>
        <time>2020-05-31T08:06:33Z</time>
      </trkpt>
      <trkpt lat="42.98518" lon="-0.24576">
        <ele>1457</ele>
        <time>2020-05-31T08:06:34Z</time>
      </trkpt>
      <trkpt lat="42.98522" lon="-0.24583">
        <ele>1456.4000244141</ele>
        <time>2020-05-31T08:06:35Z</time>
      </trkpt>
      <trkpt lat="42.98526" lon="-0.24589">
        <ele>1455.8000488281</ele>
        <time>2020-05-31T08:06:36Z</time>
      </trkpt>
      <trkpt lat="42.9853" lon="-0.24595">
        <ele>1455</ele>
        <time>2020-05-31T08:06:37Z</time>
      </trkpt>
      <trkpt lat="42.98536" lon="-0.246">
        <ele>1454.4000244141</ele>
        <time>2020-05-31T08:06:38Z</time>
      </trkpt>
      <trkpt lat="42.98543" lon="-0.24604">
        <ele>1453.8000488281</ele>
        <time>2020-05-31T08:06:39Z</time>
      </trkpt>
      <trkpt lat="42.9855" lon="-0.24606">
        <ele>1453.1999511719</ele>
        <time>2020-05-31T08:06:40Z</time>
      </trkpt>
      <trkpt lat="42.98558" lon="-0.24606">
        <ele>1452.4000244141</ele>
        <time>2020-05-31T08:06:41Z</time>
      </trkpt>
      <trkpt lat="42.98566" lon="-0.24606">
        <ele>1451.1999511719</ele>
        <time>2020-05-31T08:06:42Z</time>
      </trkpt>
      <trkpt lat="42.98575" lon="-0.24605">
        <ele>1450.5999755859</ele>
        <time>2020-05-31T08:06:43Z</time>
      </trkpt>
      <trkpt lat="42.98583" lon="-0.24603">
        <ele>1450.1999511719</ele>
        <time>2020-05-31T08:06:44Z</time>
      </trkpt>
      <trkpt lat="42.98591" lon="-0.24601">
        <ele>1449.5999755859</ele>
        <time>2020-05-31T08:06:45Z</time>
      </trkpt>
      <trkpt lat="42.98598" lon="-0.246">
        <ele>1449</ele>
        <time>2020-05-31T08:06:46Z</time>
      </trkpt>
      <trkpt lat="42.98606" lon="-0.24598">
        <ele>1448.4000244141</ele>
        <time>2020-05-31T08:06:47Z</time>
      </trkpt>
      <trkpt lat="42.98612" lon="-0.24596">
        <ele>1448</ele>
        <time>2020-05-31T08:06:48Z</time>
      </trkpt>
      <trkpt lat="42.98619" lon="-0.24592">
        <ele>1447.5999755859</ele>
        <time>2020-05-31T08:06:49Z</time>
      </trkpt>
      <trkpt lat="42.98624" lon="-0.24586">
        <ele>1447.1999511719</ele>
        <time>2020-05-31T08:06:50Z</time>
      </trkpt>
      <trkpt lat="42.98629" lon="-0.24578">
        <ele>1446.8000488281</ele>
        <time>2020-05-31T08:06:51Z</time>
      </trkpt>
      <trkpt lat="42.98632" lon="-0.2457">
        <ele>1446.4000244141</ele>
        <time>2020-05-31T08:06:52Z</time>
      </trkpt>
      <trkpt lat="42.98634" lon="-0.2456">
        <ele>1446</ele>
        <time>2020-05-31T08:06:53Z</time>
      </trkpt>
      <trkpt lat="42.98635" lon="-0.2455">
        <ele>1445.5999755859</ele>
        <time>2020-05-31T08:06:54Z</time>
      </trkpt>
      <trkpt lat="42.98635" lon="-0.2454">
        <ele>1445.1999511719</ele>
        <time>2020-05-31T08:06:55Z</time>
      </trkpt>
      <trkpt lat="42.98634" lon="-0.24529">
        <ele>1444.8000488281</ele>
        <time>2020-05-31T08:06:56Z</time>
      </trkpt>
      <trkpt lat="42.98632" lon="-0.24519">
        <ele>1444.4000244141</ele>
        <time>2020-05-31T08:06:57Z</time>
      </trkpt>
      <trkpt lat="42.98631" lon="-0.24508">
        <ele>1444</ele>
        <time>2020-05-31T08:06:58Z</time>
      </trkpt>
      <trkpt lat="42.98629" lon="-0.24498">
        <ele>1443.4000244141</ele>
        <time>2020-05-31T08:06:59Z</time>
      </trkpt>
      <trkpt lat="42.98627" lon="-0.24487">
        <ele>1443</ele>
        <time>2020-05-31T08:07:00Z</time>
      </trkpt>
      <trkpt lat="42.98627" lon="-0.24477">
        <ele>1442.5999755859</ele>
        <time>2020-05-31T08:07:01Z</time>
      </trkpt>
      <trkpt lat="42.98626" lon="-0.24466">
        <ele>1442.1999511719</ele>
        <time>2020-05-31T08:07:02Z</time>
      </trkpt>
      <trkpt lat="42.98625" lon="-0.24455">
        <ele>1442.1999511719</ele>
        <time>2020-05-31T08:07:03Z</time>
      </trkpt>
      <trkpt lat="42.98625" lon="-0.24445">
        <ele>1441.8000488281</ele>
        <time>2020-05-31T08:07:04Z</time>
      </trkpt>
      <trkpt lat="42.98624" lon="-0.24433">
        <ele>1441.1999511719</ele>
        <time>2020-05-31T08:07:05Z</time>
      </trkpt>
      <trkpt lat="42.98623" lon="-0.24423">
        <ele>1440.8000488281</ele>
        <time>2020-05-31T08:07:06Z</time>
      </trkpt>
      <trkpt lat="42.98622" lon="-0.24413">
        <ele>1440</ele>
        <time>2020-05-31T08:07:07Z</time>
      </trkpt>
      <trkpt lat="42.98621" lon="-0.24403">
        <ele>1440</ele>
        <time>2020-05-31T08:07:08Z</time>
      </trkpt>
      <trkpt lat="42.98621" lon="-0.2436">
        <ele>1440</ele>
        <time>2020-05-31T08:07:13Z</time>
      </trkpt>
      <trkpt lat="42.98623" lon="-0.24346">
        <ele>1440</ele>
        <time>2020-05-31T08:07:15Z</time>
      </trkpt>
      <trkpt lat="42.98624" lon="-0.24329">
        <ele>1440</ele>
        <time>2020-05-31T08:07:18Z</time>
      </trkpt>
      <trkpt lat="42.98625" lon="-0.24322">
        <ele>1440.4000244141</ele>
        <time>2020-05-31T08:07:20Z</time>
      </trkpt>
      <trkpt lat="42.98625" lon="-0.24318">
        <ele>1441</ele>
        <time>2020-05-31T08:07:21Z</time>
      </trkpt>
      <trkpt lat="42.98625" lon="-0.24314">
        <ele>1441.4000244141</ele>
        <time>2020-05-31T08:07:22Z</time>
      </trkpt>
      <trkpt lat="42.98626" lon="-0.24311">
        <ele>1441.8000488281</ele>
        <time>2020-05-31T08:07:23Z</time>
      </trkpt>
      <trkpt lat="42.98626" lon="-0.24308">
        <ele>1442.1999511719</ele>
        <time>2020-05-31T08:07:24Z</time>
      </trkpt>
      <trkpt lat="42.98628" lon="-0.24291">
        <ele>1442.5999755859</ele>
        <time>2020-05-31T08:07:29Z</time>
      </trkpt>
      <trkpt lat="42.98628" lon="-0.24288">
        <ele>1443</ele>
        <time>2020-05-31T08:07:30Z</time>
      </trkpt>
      <trkpt lat="42.98628" lon="-0.24285">
        <ele>1443.8000488281</ele>
        <time>2020-05-31T08:07:31Z</time>
      </trkpt>
      <trkpt lat="42.98629" lon="-0.24282">
        <ele>1444.1999511719</ele>
        <time>2020-05-31T08:07:32Z</time>
      </trkpt>
      <trkpt lat="42.98629" lon="-0.2428">
        <ele>1444.1999511719</ele>
        <time>2020-05-31T08:07:33Z</time>
      </trkpt>
      <trkpt lat="42.98629" lon="-0.24277">
        <ele>1444.1999511719</ele>
        <time>2020-05-31T08:07:34Z</time>
      </trkpt>
      <trkpt lat="42.9863" lon="-0.24263">
        <ele>1444.5999755859</ele>
        <time>2020-05-31T08:07:39Z</time>
      </trkpt>
      <trkpt lat="42.98629" lon="-0.24261">
        <ele>1445.1999511719</ele>
        <time>2020-05-31T08:07:40Z</time>
      </trkpt>
      <trkpt lat="42.98629" lon="-0.24258">
        <ele>1445.5999755859</ele>
        <time>2020-05-31T08:07:41Z</time>
      </trkpt>
      <trkpt lat="42.98629" lon="-0.24256">
        <ele>1446</ele>
        <time>2020-05-31T08:07:42Z</time>
      </trkpt>
      <trkpt lat="42.98629" lon="-0.24253">
        <ele>1446.4000244141</ele>
        <time>2020-05-31T08:07:43Z</time>
      </trkpt>
      <trkpt lat="42.98629" lon="-0.24251">
        <ele>1446.4000244141</ele>
        <time>2020-05-31T08:07:44Z</time>
      </trkpt>
      <trkpt lat="42.9863" lon="-0.24232">
        <ele>1446.4000244141</ele>
        <time>2020-05-31T08:07:51Z</time>
      </trkpt>
      <trkpt lat="42.9863" lon="-0.2423">
        <ele>1446.8000488281</ele>
        <time>2020-05-31T08:07:52Z</time>
      </trkpt>
      <trkpt lat="42.98631" lon="-0.24227">
        <ele>1447.1999511719</ele>
        <time>2020-05-31T08:07:53Z</time>
      </trkpt>
      <trkpt lat="42.98632" lon="-0.24224">
        <ele>1447.8000488281</ele>
        <time>2020-05-31T08:07:54Z</time>
      </trkpt>
      <trkpt lat="42.98632" lon="-0.24221">
        <ele>1448.1999511719</ele>
        <time>2020-05-31T08:07:55Z</time>
      </trkpt>
      <trkpt lat="42.98633" lon="-0.24219">
        <ele>1448.5999755859</ele>
        <time>2020-05-31T08:07:56Z</time>
      </trkpt>
      <trkpt lat="42.98633" lon="-0.24216">
        <ele>1448.5999755859</ele>
        <time>2020-05-31T08:07:57Z</time>
      </trkpt>
      <trkpt lat="42.98636" lon="-0.24201">
        <ele>1448.5999755859</ele>
        <time>2020-05-31T08:08:02Z</time>
      </trkpt>
      <trkpt lat="42.98638" lon="-0.24187">
        <ele>1448.5999755859</ele>
        <time>2020-05-31T08:08:08Z</time>
      </trkpt>
      <trkpt lat="42.98639" lon="-0.24182">
        <ele>1449</ele>
        <time>2020-05-31T08:08:10Z</time>
      </trkpt>
      <trkpt lat="42.98639" lon="-0.2418">
        <ele>1449.4000244141</ele>
        <time>2020-05-31T08:08:11Z</time>
      </trkpt>
      <trkpt lat="42.98639" lon="-0.24177">
        <ele>1449.8000488281</ele>
        <time>2020-05-31T08:08:12Z</time>
      </trkpt>
      <trkpt lat="42.9864" lon="-0.24175">
        <ele>1450.4000244141</ele>
        <time>2020-05-31T08:08:13Z</time>
      </trkpt>
      <trkpt lat="42.9864" lon="-0.24172">
        <ele>1450.8000488281</ele>
        <time>2020-05-31T08:08:14Z</time>
      </trkpt>
      <trkpt lat="42.98641" lon="-0.24166">
        <ele>1450.8000488281</ele>
        <time>2020-05-31T08:08:17Z</time>
      </trkpt>
      <trkpt lat="42.98642" lon="-0.24156">
        <ele>1450.8000488281</ele>
        <time>2020-05-31T08:08:21Z</time>
      </trkpt>
      <trkpt lat="42.98641" lon="-0.24151">
        <ele>1451.1999511719</ele>
        <time>2020-05-31T08:08:23Z</time>
      </trkpt>
      <trkpt lat="42.98641" lon="-0.24148">
        <ele>1451.5999755859</ele>
        <time>2020-05-31T08:08:24Z</time>
      </trkpt>
      <trkpt lat="42.9864" lon="-0.24146">
        <ele>1452</ele>
        <time>2020-05-31T08:08:25Z</time>
      </trkpt>
      <trkpt lat="42.9864" lon="-0.24145">
        <ele>1452.4000244141</ele>
        <time>2020-05-31T08:08:26Z</time>
      </trkpt>
      <trkpt lat="42.98639" lon="-0.24143">
        <ele>1452.8000488281</ele>
        <time>2020-05-31T08:08:27Z</time>
      </trkpt>
      <trkpt lat="42.9864" lon="-0.24141">
        <ele>1452.8000488281</ele>
        <time>2020-05-31T08:08:28Z</time>
      </trkpt>
      <trkpt lat="42.98641" lon="-0.24135">
        <ele>1452.8000488281</ele>
        <time>2020-05-31T08:08:31Z</time>
      </trkpt>
      <trkpt lat="42.98642" lon="-0.24133">
        <ele>1452.8000488281</ele>
        <time>2020-05-31T08:08:32Z</time>
      </trkpt>
      <trkpt lat="42.98641" lon="-0.24129">
        <ele>1452.8000488281</ele>
        <time>2020-05-31T08:08:35Z</time>
      </trkpt>
      <trkpt lat="42.98641" lon="-0.24124">
        <ele>1453.1999511719</ele>
        <time>2020-05-31T08:08:37Z</time>
      </trkpt>
      <trkpt lat="42.98641" lon="-0.24122">
        <ele>1453.5999755859</ele>
        <time>2020-05-31T08:08:38Z</time>
      </trkpt>
      <trkpt lat="42.98642" lon="-0.24119">
        <ele>1454</ele>
        <time>2020-05-31T08:08:39Z</time>
      </trkpt>
      <trkpt lat="42.98643" lon="-0.24117">
        <ele>1454.4000244141</ele>
        <time>2020-05-31T08:08:40Z</time>
      </trkpt>
      <trkpt lat="42.98643" lon="-0.24115">
        <ele>1454.8000488281</ele>
        <time>2020-05-31T08:08:41Z</time>
      </trkpt>
      <trkpt lat="42.98644" lon="-0.24112">
        <ele>1454.8000488281</ele>
        <time>2020-05-31T08:08:42Z</time>
      </trkpt>
      <trkpt lat="42.98645" lon="-0.24093">
        <ele>1455.1999511719</ele>
        <time>2020-05-31T08:08:50Z</time>
      </trkpt>
      <trkpt lat="42.98646" lon="-0.24091">
        <ele>1455.5999755859</ele>
        <time>2020-05-31T08:08:51Z</time>
      </trkpt>
      <trkpt lat="42.98647" lon="-0.24089">
        <ele>1456</ele>
        <time>2020-05-31T08:08:52Z</time>
      </trkpt>
      <trkpt lat="42.98648" lon="-0.24087">
        <ele>1456.4000244141</ele>
        <time>2020-05-31T08:08:53Z</time>
      </trkpt>
      <trkpt lat="42.98648" lon="-0.24085">
        <ele>1456.8000488281</ele>
        <time>2020-05-31T08:08:54Z</time>
      </trkpt>
      <trkpt lat="42.9865" lon="-0.24078">
        <ele>1456.8000488281</ele>
        <time>2020-05-31T08:08:57Z</time>
      </trkpt>
      <trkpt lat="42.98653" lon="-0.24059">
        <ele>1456.8000488281</ele>
        <time>2020-05-31T08:09:05Z</time>
      </trkpt>
      <trkpt lat="42.98653" lon="-0.24057">
        <ele>1457.1999511719</ele>
        <time>2020-05-31T08:09:06Z</time>
      </trkpt>
      <trkpt lat="42.98654" lon="-0.24055">
        <ele>1457.5999755859</ele>
        <time>2020-05-31T08:09:07Z</time>
      </trkpt>
      <trkpt lat="42.98654" lon="-0.24053">
        <ele>1458</ele>
        <time>2020-05-31T08:09:08Z</time>
      </trkpt>
      <trkpt lat="42.98654" lon="-0.24051">
        <ele>1458.4000244141</ele>
        <time>2020-05-31T08:09:09Z</time>
      </trkpt>
      <trkpt lat="42.98655" lon="-0.24049">
        <ele>1458.8000488281</ele>
        <time>2020-05-31T08:09:10Z</time>
      </trkpt>
      <trkpt lat="42.98655" lon="-0.24046">
        <ele>1458.8000488281</ele>
        <time>2020-05-31T08:09:11Z</time>
      </trkpt>
      <trkpt lat="42.98658" lon="-0.24031">
        <ele>1458.8000488281</ele>
        <time>2020-05-31T08:09:18Z</time>
      </trkpt>
      <trkpt lat="42.98659" lon="-0.24027">
        <ele>1459.1999511719</ele>
        <time>2020-05-31T08:09:20Z</time>
      </trkpt>
      <trkpt lat="42.98659" lon="-0.24024">
        <ele>1459.5999755859</ele>
        <time>2020-05-31T08:09:21Z</time>
      </trkpt>
      <trkpt lat="42.9866" lon="-0.24021">
        <ele>1460</ele>
        <time>2020-05-31T08:09:22Z</time>
      </trkpt>
      <trkpt lat="42.9866" lon="-0.24019">
        <ele>1460.4000244141</ele>
        <time>2020-05-31T08:09:23Z</time>
      </trkpt>
      <trkpt lat="42.98661" lon="-0.24017">
        <ele>1460.8000488281</ele>
        <time>2020-05-31T08:09:24Z</time>
      </trkpt>
      <trkpt lat="42.98661" lon="-0.24015">
        <ele>1460.8000488281</ele>
        <time>2020-05-31T08:09:25Z</time>
      </trkpt>
      <trkpt lat="42.98662" lon="-0.23994">
        <ele>1460.8000488281</ele>
        <time>2020-05-31T08:09:33Z</time>
      </trkpt>
      <trkpt lat="42.98663" lon="-0.23982">
        <ele>1461.1999511719</ele>
        <time>2020-05-31T08:09:38Z</time>
      </trkpt>
      <trkpt lat="42.98663" lon="-0.2398">
        <ele>1461.5999755859</ele>
        <time>2020-05-31T08:09:39Z</time>
      </trkpt>
      <trkpt lat="42.98663" lon="-0.23977">
        <ele>1462</ele>
        <time>2020-05-31T08:09:40Z</time>
      </trkpt>
      <trkpt lat="42.98663" lon="-0.23975">
        <ele>1462.4000244141</ele>
        <time>2020-05-31T08:09:41Z</time>
      </trkpt>
      <trkpt lat="42.98663" lon="-0.23972">
        <ele>1463</ele>
        <time>2020-05-31T08:09:42Z</time>
      </trkpt>
      <trkpt lat="42.98664" lon="-0.23957">
        <ele>1463</ele>
        <time>2020-05-31T08:09:48Z</time>
      </trkpt>
      <trkpt lat="42.98663" lon="-0.23934">
        <ele>1463.4000244141</ele>
        <time>2020-05-31T08:09:57Z</time>
      </trkpt>
      <trkpt lat="42.98662" lon="-0.23932">
        <ele>1463.8000488281</ele>
        <time>2020-05-31T08:09:58Z</time>
      </trkpt>
      <trkpt lat="42.98662" lon="-0.23929">
        <ele>1464.1999511719</ele>
        <time>2020-05-31T08:09:59Z</time>
      </trkpt>
      <trkpt lat="42.98662" lon="-0.23927">
        <ele>1465</ele>
        <time>2020-05-31T08:10:00Z</time>
      </trkpt>
      <trkpt lat="42.98659" lon="-0.23913">
        <ele>1465</ele>
        <time>2020-05-31T08:10:05Z</time>
      </trkpt>
      <trkpt lat="42.98649" lon="-0.23892">
        <ele>1465</ele>
        <time>2020-05-31T08:10:13Z</time>
      </trkpt>
      <trkpt lat="42.98639" lon="-0.23882">
        <ele>1465</ele>
        <time>2020-05-31T08:10:19Z</time>
      </trkpt>
      <trkpt lat="42.98625" lon="-0.23869">
        <ele>1465.4000244141</ele>
        <time>2020-05-31T08:10:27Z</time>
      </trkpt>
      <trkpt lat="42.98624" lon="-0.23868">
        <ele>1465.8000488281</ele>
        <time>2020-05-31T08:10:28Z</time>
      </trkpt>
      <trkpt lat="42.98622" lon="-0.23866">
        <ele>1466.1999511719</ele>
        <time>2020-05-31T08:10:29Z</time>
      </trkpt>
      <trkpt lat="42.98621" lon="-0.23864">
        <ele>1466.5999755859</ele>
        <time>2020-05-31T08:10:30Z</time>
      </trkpt>
      <trkpt lat="42.98619" lon="-0.23863">
        <ele>1467</ele>
        <time>2020-05-31T08:10:31Z</time>
      </trkpt>
      <trkpt lat="42.98612" lon="-0.23857">
        <ele>1467</ele>
        <time>2020-05-31T08:10:35Z</time>
      </trkpt>
      <trkpt lat="42.98603" lon="-0.23845">
        <ele>1467</ele>
        <time>2020-05-31T08:10:41Z</time>
      </trkpt>
      <trkpt lat="42.98593" lon="-0.23832">
        <ele>1467</ele>
        <time>2020-05-31T08:10:47Z</time>
      </trkpt>
      <trkpt lat="42.9859" lon="-0.23829">
        <ele>1467.8000488281</ele>
        <time>2020-05-31T08:10:49Z</time>
      </trkpt>
      <trkpt lat="42.98589" lon="-0.23827">
        <ele>1468.1999511719</ele>
        <time>2020-05-31T08:10:50Z</time>
      </trkpt>
      <trkpt lat="42.98587" lon="-0.23824">
        <ele>1468.5999755859</ele>
        <time>2020-05-31T08:10:51Z</time>
      </trkpt>
      <trkpt lat="42.98586" lon="-0.23822">
        <ele>1469</ele>
        <time>2020-05-31T08:10:52Z</time>
      </trkpt>
      <trkpt lat="42.98585" lon="-0.23819">
        <ele>1469</ele>
        <time>2020-05-31T08:10:53Z</time>
      </trkpt>
      <trkpt lat="42.98579" lon="-0.23799">
        <ele>1469</ele>
        <time>2020-05-31T08:11:00Z</time>
      </trkpt>
      <trkpt lat="42.98576" lon="-0.23778">
        <ele>1469</ele>
        <time>2020-05-31T08:11:07Z</time>
      </trkpt>
      <trkpt lat="42.98575" lon="-0.2377">
        <ele>1469.4000244141</ele>
        <time>2020-05-31T08:11:10Z</time>
      </trkpt>
      <trkpt lat="42.98575" lon="-0.23767">
        <ele>1469.8000488281</ele>
        <time>2020-05-31T08:11:11Z</time>
      </trkpt>
      <trkpt lat="42.98574" lon="-0.23764">
        <ele>1470.1999511719</ele>
        <time>2020-05-31T08:11:12Z</time>
      </trkpt>
      <trkpt lat="42.98573" lon="-0.23761">
        <ele>1470.5999755859</ele>
        <time>2020-05-31T08:11:13Z</time>
      </trkpt>
      <trkpt lat="42.98573" lon="-0.23759">
        <ele>1471</ele>
        <time>2020-05-31T08:11:14Z</time>
      </trkpt>
      <trkpt lat="42.98568" lon="-0.23746">
        <ele>1471</ele>
        <time>2020-05-31T08:11:19Z</time>
      </trkpt>
      <trkpt lat="42.98568" lon="-0.23743">
        <ele>1471</ele>
        <time>2020-05-31T08:11:20Z</time>
      </trkpt>
      <trkpt lat="42.98564" lon="-0.23725">
        <ele>1471.5999755859</ele>
        <time>2020-05-31T08:11:26Z</time>
      </trkpt>
      <trkpt lat="42.98564" lon="-0.23722">
        <ele>1472</ele>
        <time>2020-05-31T08:11:27Z</time>
      </trkpt>
      <trkpt lat="42.98563" lon="-0.23719">
        <ele>1472.4000244141</ele>
        <time>2020-05-31T08:11:28Z</time>
      </trkpt>
      <trkpt lat="42.98563" lon="-0.23716">
        <ele>1472.8000488281</ele>
        <time>2020-05-31T08:11:29Z</time>
      </trkpt>
      <trkpt lat="42.98562" lon="-0.23713">
        <ele>1473.1999511719</ele>
        <time>2020-05-31T08:11:30Z</time>
      </trkpt>
      <trkpt lat="42.98562" lon="-0.23708">
        <ele>1473.1999511719</ele>
        <time>2020-05-31T08:11:32Z</time>
      </trkpt>
      <trkpt lat="42.9856" lon="-0.23693">
        <ele>1473.5999755859</ele>
        <time>2020-05-31T08:11:38Z</time>
      </trkpt>
      <trkpt lat="42.9856" lon="-0.23692">
        <ele>1474.4000244141</ele>
        <time>2020-05-31T08:11:39Z</time>
      </trkpt>
      <trkpt lat="42.98559" lon="-0.23689">
        <ele>1475</ele>
        <time>2020-05-31T08:11:40Z</time>
      </trkpt>
      <trkpt lat="42.98559" lon="-0.23687">
        <ele>1475.4000244141</ele>
        <time>2020-05-31T08:11:41Z</time>
      </trkpt>
      <trkpt lat="42.98559" lon="-0.23677">
        <ele>1475.4000244141</ele>
        <time>2020-05-31T08:11:45Z</time>
      </trkpt>
      <trkpt lat="42.98559" lon="-0.23672">
        <ele>1475.8000488281</ele>
        <time>2020-05-31T08:11:47Z</time>
      </trkpt>
      <trkpt lat="42.98559" lon="-0.2367">
        <ele>1476.1999511719</ele>
        <time>2020-05-31T08:11:48Z</time>
      </trkpt>
      <trkpt lat="42.98559" lon="-0.23668">
        <ele>1476.5999755859</ele>
        <time>2020-05-31T08:11:49Z</time>
      </trkpt>
      <trkpt lat="42.98559" lon="-0.23666">
        <ele>1477</ele>
        <time>2020-05-31T08:11:50Z</time>
      </trkpt>
      <trkpt lat="42.98559" lon="-0.23663">
        <ele>1477.4000244141</ele>
        <time>2020-05-31T08:11:51Z</time>
      </trkpt>
      <trkpt lat="42.98559" lon="-0.23661">
        <ele>1477.4000244141</ele>
        <time>2020-05-31T08:11:52Z</time>
      </trkpt>
      <trkpt lat="42.98559" lon="-0.23659">
        <ele>1477.4000244141</ele>
        <time>2020-05-31T08:11:53Z</time>
      </trkpt>
      <trkpt lat="42.9856" lon="-0.23651">
        <ele>1477.4000244141</ele>
        <time>2020-05-31T08:11:56Z</time>
      </trkpt>
      <trkpt lat="42.9856" lon="-0.23649">
        <ele>1477.8000488281</ele>
        <time>2020-05-31T08:11:57Z</time>
      </trkpt>
      <trkpt lat="42.9856" lon="-0.23646">
        <ele>1478.1999511719</ele>
        <time>2020-05-31T08:11:58Z</time>
      </trkpt>
      <trkpt lat="42.98561" lon="-0.23643">
        <ele>1478.5999755859</ele>
        <time>2020-05-31T08:11:59Z</time>
      </trkpt>
      <trkpt lat="42.98561" lon="-0.2364">
        <ele>1479</ele>
        <time>2020-05-31T08:12:00Z</time>
      </trkpt>
      <trkpt lat="42.9856" lon="-0.23637">
        <ele>1479.4000244141</ele>
        <time>2020-05-31T08:12:01Z</time>
      </trkpt>
      <trkpt lat="42.98559" lon="-0.23635">
        <ele>1479.4000244141</ele>
        <time>2020-05-31T08:12:02Z</time>
      </trkpt>
      <trkpt lat="42.98551" lon="-0.23618">
        <ele>1479.4000244141</ele>
        <time>2020-05-31T08:12:09Z</time>
      </trkpt>
      <trkpt lat="42.9855" lon="-0.23609">
        <ele>1480</ele>
        <time>2020-05-31T08:12:13Z</time>
      </trkpt>
      <trkpt lat="42.98549" lon="-0.23607">
        <ele>1480.4000244141</ele>
        <time>2020-05-31T08:12:14Z</time>
      </trkpt>
      <trkpt lat="42.98549" lon="-0.23605">
        <ele>1480.8000488281</ele>
        <time>2020-05-31T08:12:15Z</time>
      </trkpt>
      <trkpt lat="42.98549" lon="-0.23602">
        <ele>1481.1999511719</ele>
        <time>2020-05-31T08:12:16Z</time>
      </trkpt>
      <trkpt lat="42.98549" lon="-0.236">
        <ele>1481.5999755859</ele>
        <time>2020-05-31T08:12:17Z</time>
      </trkpt>
      <trkpt lat="42.98548" lon="-0.23578">
        <ele>1481.5999755859</ele>
        <time>2020-05-31T08:12:25Z</time>
      </trkpt>
      <trkpt lat="42.9855" lon="-0.2357">
        <ele>1482</ele>
        <time>2020-05-31T08:12:28Z</time>
      </trkpt>
      <trkpt lat="42.9855" lon="-0.23568">
        <ele>1483</ele>
        <time>2020-05-31T08:12:29Z</time>
      </trkpt>
      <trkpt lat="42.9855" lon="-0.23565">
        <ele>1483.4000244141</ele>
        <time>2020-05-31T08:12:30Z</time>
      </trkpt>
      <trkpt lat="42.9855" lon="-0.23562">
        <ele>1483.8000488281</ele>
        <time>2020-05-31T08:12:31Z</time>
      </trkpt>
      <trkpt lat="42.9855" lon="-0.2356">
        <ele>1483.8000488281</ele>
        <time>2020-05-31T08:12:32Z</time>
      </trkpt>
      <trkpt lat="42.9855" lon="-0.23541">
        <ele>1484.1999511719</ele>
        <time>2020-05-31T08:12:39Z</time>
      </trkpt>
      <trkpt lat="42.98549" lon="-0.23539">
        <ele>1484.5999755859</ele>
        <time>2020-05-31T08:12:40Z</time>
      </trkpt>
      <trkpt lat="42.98549" lon="-0.23536">
        <ele>1485</ele>
        <time>2020-05-31T08:12:41Z</time>
      </trkpt>
      <trkpt lat="42.98548" lon="-0.23533">
        <ele>1485.4000244141</ele>
        <time>2020-05-31T08:12:42Z</time>
      </trkpt>
      <trkpt lat="42.98548" lon="-0.2353">
        <ele>1485.8000488281</ele>
        <time>2020-05-31T08:12:43Z</time>
      </trkpt>
      <trkpt lat="42.98549" lon="-0.23521">
        <ele>1485.8000488281</ele>
        <time>2020-05-31T08:12:46Z</time>
      </trkpt>
      <trkpt lat="42.98556" lon="-0.23509">
        <ele>1485.8000488281</ele>
        <time>2020-05-31T08:12:51Z</time>
      </trkpt>
      <trkpt lat="42.98564" lon="-0.23497">
        <ele>1485.8000488281</ele>
        <time>2020-05-31T08:12:57Z</time>
      </trkpt>
      <trkpt lat="42.98567" lon="-0.23493">
        <ele>1486.1999511719</ele>
        <time>2020-05-31T08:12:59Z</time>
      </trkpt>
      <trkpt lat="42.98567" lon="-0.2349">
        <ele>1486.5999755859</ele>
        <time>2020-05-31T08:13:00Z</time>
      </trkpt>
      <trkpt lat="42.98568" lon="-0.23488">
        <ele>1487</ele>
        <time>2020-05-31T08:13:01Z</time>
      </trkpt>
      <trkpt lat="42.98569" lon="-0.23486">
        <ele>1487.5999755859</ele>
        <time>2020-05-31T08:13:02Z</time>
      </trkpt>
      <trkpt lat="42.98569" lon="-0.23484">
        <ele>1488</ele>
        <time>2020-05-31T08:13:03Z</time>
      </trkpt>
      <trkpt lat="42.9857" lon="-0.23482">
        <ele>1488</ele>
        <time>2020-05-31T08:13:04Z</time>
      </trkpt>
      <trkpt lat="42.98575" lon="-0.23467">
        <ele>1488.4000244141</ele>
        <time>2020-05-31T08:13:10Z</time>
      </trkpt>
      <trkpt lat="42.98576" lon="-0.23464">
        <ele>1488.8000488281</ele>
        <time>2020-05-31T08:13:11Z</time>
      </trkpt>
      <trkpt lat="42.98576" lon="-0.23461">
        <ele>1489.1999511719</ele>
        <time>2020-05-31T08:13:12Z</time>
      </trkpt>
      <trkpt lat="42.98577" lon="-0.23459">
        <ele>1489.5999755859</ele>
        <time>2020-05-31T08:13:13Z</time>
      </trkpt>
      <trkpt lat="42.98578" lon="-0.23456">
        <ele>1490</ele>
        <time>2020-05-31T08:13:14Z</time>
      </trkpt>
      <trkpt lat="42.98581" lon="-0.23447">
        <ele>1490</ele>
        <time>2020-05-31T08:13:18Z</time>
      </trkpt>
      <trkpt lat="42.98585" lon="-0.23432">
        <ele>1490</ele>
        <time>2020-05-31T08:13:24Z</time>
      </trkpt>
      <trkpt lat="42.98585" lon="-0.23421">
        <ele>1490.4000244141</ele>
        <time>2020-05-31T08:13:28Z</time>
      </trkpt>
      <trkpt lat="42.98586" lon="-0.23419">
        <ele>1491</ele>
        <time>2020-05-31T08:13:29Z</time>
      </trkpt>
      <trkpt lat="42.98586" lon="-0.23417">
        <ele>1491.4000244141</ele>
        <time>2020-05-31T08:13:30Z</time>
      </trkpt>
      <trkpt lat="42.98586" lon="-0.23414">
        <ele>1491.8000488281</ele>
        <time>2020-05-31T08:13:31Z</time>
      </trkpt>
      <trkpt lat="42.98586" lon="-0.23412">
        <ele>1492.1999511719</ele>
        <time>2020-05-31T08:13:32Z</time>
      </trkpt>
      <trkpt lat="42.98585" lon="-0.23397">
        <ele>1492.1999511719</ele>
        <time>2020-05-31T08:13:38Z</time>
      </trkpt>
      <trkpt lat="42.98585" lon="-0.23394">
        <ele>1492.5999755859</ele>
        <time>2020-05-31T08:13:39Z</time>
      </trkpt>
      <trkpt lat="42.98585" lon="-0.23392">
        <ele>1493</ele>
        <time>2020-05-31T08:13:40Z</time>
      </trkpt>
      <trkpt lat="42.98585" lon="-0.23389">
        <ele>1493.4000244141</ele>
        <time>2020-05-31T08:13:41Z</time>
      </trkpt>
      <trkpt lat="42.98585" lon="-0.23387">
        <ele>1494</ele>
        <time>2020-05-31T08:13:42Z</time>
      </trkpt>
      <trkpt lat="42.98586" lon="-0.23384">
        <ele>1494.4000244141</ele>
        <time>2020-05-31T08:13:43Z</time>
      </trkpt>
      <trkpt lat="42.98586" lon="-0.23376">
        <ele>1494.4000244141</ele>
        <time>2020-05-31T08:13:46Z</time>
      </trkpt>
      <trkpt lat="42.98586" lon="-0.23361">
        <ele>1494.8000488281</ele>
        <time>2020-05-31T08:13:52Z</time>
      </trkpt>
      <trkpt lat="42.98585" lon="-0.23359">
        <ele>1495.1999511719</ele>
        <time>2020-05-31T08:13:53Z</time>
      </trkpt>
      <trkpt lat="42.98585" lon="-0.23356">
        <ele>1495.5999755859</ele>
        <time>2020-05-31T08:13:54Z</time>
      </trkpt>
      <trkpt lat="42.98585" lon="-0.23354">
        <ele>1496</ele>
        <time>2020-05-31T08:13:55Z</time>
      </trkpt>
      <trkpt lat="42.98584" lon="-0.23351">
        <ele>1496.4000244141</ele>
        <time>2020-05-31T08:13:56Z</time>
      </trkpt>
      <trkpt lat="42.98581" lon="-0.2334">
        <ele>1496.4000244141</ele>
        <time>2020-05-31T08:14:00Z</time>
      </trkpt>
      <trkpt lat="42.98572" lon="-0.23325">
        <ele>1496.4000244141</ele>
        <time>2020-05-31T08:14:07Z</time>
      </trkpt>
      <trkpt lat="42.98567" lon="-0.23311">
        <ele>1496.4000244141</ele>
        <time>2020-05-31T08:14:12Z</time>
      </trkpt>
      <trkpt lat="42.98566" lon="-0.23293">
        <ele>1496.4000244141</ele>
        <time>2020-05-31T08:14:18Z</time>
      </trkpt>
      <trkpt lat="42.98568" lon="-0.23271">
        <ele>1496.4000244141</ele>
        <time>2020-05-31T08:14:24Z</time>
      </trkpt>
      <trkpt lat="42.98574" lon="-0.23239">
        <ele>1496.4000244141</ele>
        <time>2020-05-31T08:14:30Z</time>
      </trkpt>
      <trkpt lat="42.98577" lon="-0.23204">
        <ele>1496.4000244141</ele>
        <time>2020-05-31T08:14:36Z</time>
      </trkpt>
      <trkpt lat="42.98579" lon="-0.23195">
        <ele>1496.4000244141</ele>
        <time>2020-05-31T08:14:38Z</time>
      </trkpt>
      <trkpt lat="42.9858" lon="-0.23181">
        <ele>1496.4000244141</ele>
        <time>2020-05-31T08:14:43Z</time>
      </trkpt>
      <trkpt lat="42.98581" lon="-0.23165">
        <ele>1496.8000488281</ele>
        <time>2020-05-31T08:14:49Z</time>
      </trkpt>
      <trkpt lat="42.98581" lon="-0.23162">
        <ele>1497.1999511719</ele>
        <time>2020-05-31T08:14:50Z</time>
      </trkpt>
      <trkpt lat="42.98581" lon="-0.2316">
        <ele>1497.5999755859</ele>
        <time>2020-05-31T08:14:51Z</time>
      </trkpt>
      <trkpt lat="42.98581" lon="-0.23157">
        <ele>1498.1999511719</ele>
        <time>2020-05-31T08:14:52Z</time>
      </trkpt>
      <trkpt lat="42.98581" lon="-0.23154">
        <ele>1498.5999755859</ele>
        <time>2020-05-31T08:14:53Z</time>
      </trkpt>
      <trkpt lat="42.9858" lon="-0.23145">
        <ele>1498.5999755859</ele>
        <time>2020-05-31T08:14:56Z</time>
      </trkpt>
      <trkpt lat="42.9858" lon="-0.23128">
        <ele>1499</ele>
        <time>2020-05-31T08:15:02Z</time>
      </trkpt>
      <trkpt lat="42.98579" lon="-0.23126">
        <ele>1499.4000244141</ele>
        <time>2020-05-31T08:15:03Z</time>
      </trkpt>
      <trkpt lat="42.98579" lon="-0.23123">
        <ele>1499.8000488281</ele>
        <time>2020-05-31T08:15:04Z</time>
      </trkpt>
      <trkpt lat="42.98578" lon="-0.23121">
        <ele>1500.1999511719</ele>
        <time>2020-05-31T08:15:05Z</time>
      </trkpt>
      <trkpt lat="42.98578" lon="-0.23118">
        <ele>1500.5999755859</ele>
        <time>2020-05-31T08:15:06Z</time>
      </trkpt>
      <trkpt lat="42.98578" lon="-0.23113">
        <ele>1500.5999755859</ele>
        <time>2020-05-31T08:15:08Z</time>
      </trkpt>
      <trkpt lat="42.98575" lon="-0.231">
        <ele>1501</ele>
        <time>2020-05-31T08:15:13Z</time>
      </trkpt>
      <trkpt lat="42.98575" lon="-0.23097">
        <ele>1501.4000244141</ele>
        <time>2020-05-31T08:15:14Z</time>
      </trkpt>
      <trkpt lat="42.98574" lon="-0.23095">
        <ele>1502</ele>
        <time>2020-05-31T08:15:15Z</time>
      </trkpt>
      <trkpt lat="42.98574" lon="-0.23093">
        <ele>1502.4000244141</ele>
        <time>2020-05-31T08:15:16Z</time>
      </trkpt>
      <trkpt lat="42.98574" lon="-0.2309">
        <ele>1502.8000488281</ele>
        <time>2020-05-31T08:15:17Z</time>
      </trkpt>
      <trkpt lat="42.98572" lon="-0.23079">
        <ele>1502.8000488281</ele>
        <time>2020-05-31T08:15:22Z</time>
      </trkpt>
      <trkpt lat="42.9857" lon="-0.23068">
        <ele>1503.1999511719</ele>
        <time>2020-05-31T08:15:26Z</time>
      </trkpt>
      <trkpt lat="42.98569" lon="-0.23066">
        <ele>1503.5999755859</ele>
        <time>2020-05-31T08:15:27Z</time>
      </trkpt>
      <trkpt lat="42.98569" lon="-0.23064">
        <ele>1504</ele>
        <time>2020-05-31T08:15:28Z</time>
      </trkpt>
      <trkpt lat="42.98568" lon="-0.23061">
        <ele>1504.4000244141</ele>
        <time>2020-05-31T08:15:29Z</time>
      </trkpt>
      <trkpt lat="42.98568" lon="-0.23059">
        <ele>1504.8000488281</ele>
        <time>2020-05-31T08:15:30Z</time>
      </trkpt>
      <trkpt lat="42.98564" lon="-0.2305">
        <ele>1504.8000488281</ele>
        <time>2020-05-31T08:15:34Z</time>
      </trkpt>
      <trkpt lat="42.98559" lon="-0.23034">
        <ele>1505.1999511719</ele>
        <time>2020-05-31T08:15:41Z</time>
      </trkpt>
      <trkpt lat="42.98558" lon="-0.23031">
        <ele>1505.5999755859</ele>
        <time>2020-05-31T08:15:42Z</time>
      </trkpt>
      <trkpt lat="42.98558" lon="-0.23029">
        <ele>1506.1999511719</ele>
        <time>2020-05-31T08:15:43Z</time>
      </trkpt>
      <trkpt lat="42.98556" lon="-0.23027">
        <ele>1506.5999755859</ele>
        <time>2020-05-31T08:15:44Z</time>
      </trkpt>
      <trkpt lat="42.98555" lon="-0.23024">
        <ele>1507</ele>
        <time>2020-05-31T08:15:45Z</time>
      </trkpt>
      <trkpt lat="42.98551" lon="-0.23017">
        <ele>1507</ele>
        <time>2020-05-31T08:15:48Z</time>
      </trkpt>
      <trkpt lat="42.98538" lon="-0.23004">
        <ele>1507.4000244141</ele>
        <time>2020-05-31T08:15:56Z</time>
      </trkpt>
      <trkpt lat="42.98537" lon="-0.23002">
        <ele>1507.8000488281</ele>
        <time>2020-05-31T08:15:57Z</time>
      </trkpt>
      <trkpt lat="42.98535" lon="-0.23">
        <ele>1508.1999511719</ele>
        <time>2020-05-31T08:15:58Z</time>
      </trkpt>
      <trkpt lat="42.98534" lon="-0.22998">
        <ele>1508.5999755859</ele>
        <time>2020-05-31T08:15:59Z</time>
      </trkpt>
      <trkpt lat="42.98533" lon="-0.22996">
        <ele>1509</ele>
        <time>2020-05-31T08:16:00Z</time>
      </trkpt>
      <trkpt lat="42.98531" lon="-0.22992">
        <ele>1509</ele>
        <time>2020-05-31T08:16:02Z</time>
      </trkpt>
      <trkpt lat="42.98527" lon="-0.22982">
        <ele>1509.4000244141</ele>
        <time>2020-05-31T08:16:06Z</time>
      </trkpt>
      <trkpt lat="42.98526" lon="-0.22979">
        <ele>1509.8000488281</ele>
        <time>2020-05-31T08:16:07Z</time>
      </trkpt>
      <trkpt lat="42.98526" lon="-0.22977">
        <ele>1510.1999511719</ele>
        <time>2020-05-31T08:16:08Z</time>
      </trkpt>
      <trkpt lat="42.98525" lon="-0.22974">
        <ele>1510.8000488281</ele>
        <time>2020-05-31T08:16:09Z</time>
      </trkpt>
      <trkpt lat="42.98525" lon="-0.22972">
        <ele>1511.1999511719</ele>
        <time>2020-05-31T08:16:10Z</time>
      </trkpt>
      <trkpt lat="42.98523" lon="-0.2296">
        <ele>1511.1999511719</ele>
        <time>2020-05-31T08:16:15Z</time>
      </trkpt>
      <trkpt lat="42.98522" lon="-0.22957">
        <ele>1511.5999755859</ele>
        <time>2020-05-31T08:16:16Z</time>
      </trkpt>
      <trkpt lat="42.98521" lon="-0.22955">
        <ele>1512</ele>
        <time>2020-05-31T08:16:17Z</time>
      </trkpt>
      <trkpt lat="42.98521" lon="-0.22953">
        <ele>1512.4000244141</ele>
        <time>2020-05-31T08:16:18Z</time>
      </trkpt>
      <trkpt lat="42.9852" lon="-0.2295">
        <ele>1512.8000488281</ele>
        <time>2020-05-31T08:16:19Z</time>
      </trkpt>
      <trkpt lat="42.9852" lon="-0.22948">
        <ele>1513.1999511719</ele>
        <time>2020-05-31T08:16:20Z</time>
      </trkpt>
      <trkpt lat="42.98519" lon="-0.22941">
        <ele>1513.1999511719</ele>
        <time>2020-05-31T08:16:23Z</time>
      </trkpt>
      <trkpt lat="42.98518" lon="-0.2293">
        <ele>1513.1999511719</ele>
        <time>2020-05-31T08:16:27Z</time>
      </trkpt>
      <trkpt lat="42.98519" lon="-0.22922">
        <ele>1513.1999511719</ele>
        <time>2020-05-31T08:16:30Z</time>
      </trkpt>
      <trkpt lat="42.9852" lon="-0.22919">
        <ele>1513.5999755859</ele>
        <time>2020-05-31T08:16:31Z</time>
      </trkpt>
      <trkpt lat="42.9852" lon="-0.22917">
        <ele>1514</ele>
        <time>2020-05-31T08:16:32Z</time>
      </trkpt>
      <trkpt lat="42.98521" lon="-0.22914">
        <ele>1514.4000244141</ele>
        <time>2020-05-31T08:16:33Z</time>
      </trkpt>
      <trkpt lat="42.98521" lon="-0.22912">
        <ele>1514.8000488281</ele>
        <time>2020-05-31T08:16:34Z</time>
      </trkpt>
      <trkpt lat="42.98522" lon="-0.22909">
        <ele>1515.1999511719</ele>
        <time>2020-05-31T08:16:35Z</time>
      </trkpt>
      <trkpt lat="42.98522" lon="-0.22907">
        <ele>1515.1999511719</ele>
        <time>2020-05-31T08:16:36Z</time>
      </trkpt>
      <trkpt lat="42.98525" lon="-0.22892">
        <ele>1515.1999511719</ele>
        <time>2020-05-31T08:16:42Z</time>
      </trkpt>
      <trkpt lat="42.98531" lon="-0.22878">
        <ele>1515.5999755859</ele>
        <time>2020-05-31T08:16:48Z</time>
      </trkpt>
      <trkpt lat="42.98533" lon="-0.22876">
        <ele>1516</ele>
        <time>2020-05-31T08:16:49Z</time>
      </trkpt>
      <trkpt lat="42.98534" lon="-0.22874">
        <ele>1516.4000244141</ele>
        <time>2020-05-31T08:16:50Z</time>
      </trkpt>
      <trkpt lat="42.98536" lon="-0.22871">
        <ele>1516.8000488281</ele>
        <time>2020-05-31T08:16:51Z</time>
      </trkpt>
      <trkpt lat="42.98538" lon="-0.2287">
        <ele>1517.1999511719</ele>
        <time>2020-05-31T08:16:52Z</time>
      </trkpt>
      <trkpt lat="42.98547" lon="-0.22861">
        <ele>1517.1999511719</ele>
        <time>2020-05-31T08:16:57Z</time>
      </trkpt>
      <trkpt lat="42.9855" lon="-0.2286">
        <ele>1517.1999511719</ele>
        <time>2020-05-31T08:16:58Z</time>
      </trkpt>
      <trkpt lat="42.98554" lon="-0.22856">
        <ele>1517.1999511719</ele>
        <time>2020-05-31T08:17:00Z</time>
      </trkpt>
      <trkpt lat="42.98567" lon="-0.22847">
        <ele>1517.1999511719</ele>
        <time>2020-05-31T08:17:06Z</time>
      </trkpt>
      <trkpt lat="42.98578" lon="-0.22841">
        <ele>1517.1999511719</ele>
        <time>2020-05-31T08:17:11Z</time>
      </trkpt>
      <trkpt lat="42.98588" lon="-0.22836">
        <ele>1517.1999511719</ele>
        <time>2020-05-31T08:17:15Z</time>
      </trkpt>
      <trkpt lat="42.98596" lon="-0.22834">
        <ele>1517.1999511719</ele>
        <time>2020-05-31T08:17:18Z</time>
      </trkpt>
      <trkpt lat="42.98612" lon="-0.22828">
        <ele>1517.1999511719</ele>
        <time>2020-05-31T08:17:24Z</time>
      </trkpt>
      <trkpt lat="42.98619" lon="-0.22826">
        <ele>1517.5999755859</ele>
        <time>2020-05-31T08:17:27Z</time>
      </trkpt>
      <trkpt lat="42.98621" lon="-0.22826">
        <ele>1518</ele>
        <time>2020-05-31T08:17:28Z</time>
      </trkpt>
      <trkpt lat="42.98623" lon="-0.22825">
        <ele>1518.4000244141</ele>
        <time>2020-05-31T08:17:29Z</time>
      </trkpt>
      <trkpt lat="42.98626" lon="-0.22824">
        <ele>1518.8000488281</ele>
        <time>2020-05-31T08:17:30Z</time>
      </trkpt>
      <trkpt lat="42.98629" lon="-0.22824">
        <ele>1519.1999511719</ele>
        <time>2020-05-31T08:17:31Z</time>
      </trkpt>
      <trkpt lat="42.98631" lon="-0.22824">
        <ele>1519.1999511719</ele>
        <time>2020-05-31T08:17:32Z</time>
      </trkpt>
      <trkpt lat="42.98646" lon="-0.22823">
        <ele>1519.1999511719</ele>
        <time>2020-05-31T08:17:38Z</time>
      </trkpt>
      <trkpt lat="42.98661" lon="-0.22823">
        <ele>1519.1999511719</ele>
        <time>2020-05-31T08:17:44Z</time>
      </trkpt>
      <trkpt lat="42.98685" lon="-0.22818">
        <ele>1519.1999511719</ele>
        <time>2020-05-31T08:17:52Z</time>
      </trkpt>
      <trkpt lat="42.987" lon="-0.22797">
        <ele>1519.1999511719</ele>
        <time>2020-05-31T08:17:58Z</time>
      </trkpt>
      <trkpt lat="42.9871" lon="-0.22775">
        <ele>1519.1999511719</ele>
        <time>2020-05-31T08:18:03Z</time>
      </trkpt>
      <trkpt lat="42.98713" lon="-0.22771">
        <ele>1519.1999511719</ele>
        <time>2020-05-31T08:18:04Z</time>
      </trkpt>
      <trkpt lat="42.98729" lon="-0.22759">
        <ele>1519.1999511719</ele>
        <time>2020-05-31T08:18:08Z</time>
      </trkpt>
      <trkpt lat="42.98738" lon="-0.22754">
        <ele>1519.1999511719</ele>
        <time>2020-05-31T08:18:10Z</time>
      </trkpt>
      <trkpt lat="42.98757" lon="-0.2275">
        <ele>1519.1999511719</ele>
        <time>2020-05-31T08:18:14Z</time>
      </trkpt>
      <trkpt lat="42.98761" lon="-0.22749">
        <ele>1519.1999511719</ele>
        <time>2020-05-31T08:18:15Z</time>
      </trkpt>
      <trkpt lat="42.98779" lon="-0.22742">
        <ele>1519.1999511719</ele>
        <time>2020-05-31T08:18:19Z</time>
      </trkpt>
      <trkpt lat="42.98796" lon="-0.22732">
        <ele>1519.1999511719</ele>
        <time>2020-05-31T08:18:23Z</time>
      </trkpt>
      <trkpt lat="42.98806" lon="-0.22725">
        <ele>1519.1999511719</ele>
        <time>2020-05-31T08:18:25Z</time>
      </trkpt>
      <trkpt lat="42.98821" lon="-0.22718">
        <ele>1519.1999511719</ele>
        <time>2020-05-31T08:18:28Z</time>
      </trkpt>
      <trkpt lat="42.9883" lon="-0.22713">
        <ele>1519.1999511719</ele>
        <time>2020-05-31T08:18:30Z</time>
      </trkpt>
      <trkpt lat="42.98839" lon="-0.22707">
        <ele>1519.1999511719</ele>
        <time>2020-05-31T08:18:32Z</time>
      </trkpt>
      <trkpt lat="42.98848" lon="-0.22703">
        <ele>1519.1999511719</ele>
        <time>2020-05-31T08:18:34Z</time>
      </trkpt>
      <trkpt lat="42.98858" lon="-0.22699">
        <ele>1519.1999511719</ele>
        <time>2020-05-31T08:18:36Z</time>
      </trkpt>
      <trkpt lat="42.98863" lon="-0.22698">
        <ele>1519.1999511719</ele>
        <time>2020-05-31T08:18:37Z</time>
      </trkpt>
      <trkpt lat="42.98884" lon="-0.22691">
        <ele>1519.1999511719</ele>
        <time>2020-05-31T08:18:41Z</time>
      </trkpt>
      <trkpt lat="42.989" lon="-0.22687">
        <ele>1518.8000488281</ele>
        <time>2020-05-31T08:18:44Z</time>
      </trkpt>
      <trkpt lat="42.98905" lon="-0.22685">
        <ele>1518.4000244141</ele>
        <time>2020-05-31T08:18:45Z</time>
      </trkpt>
      <trkpt lat="42.98911" lon="-0.22682">
        <ele>1518</ele>
        <time>2020-05-31T08:18:46Z</time>
      </trkpt>
      <trkpt lat="42.98916" lon="-0.22679">
        <ele>1517.4000244141</ele>
        <time>2020-05-31T08:18:47Z</time>
      </trkpt>
      <trkpt lat="42.98922" lon="-0.22676">
        <ele>1517</ele>
        <time>2020-05-31T08:18:48Z</time>
      </trkpt>
      <trkpt lat="42.98943" lon="-0.22671">
        <ele>1517</ele>
        <time>2020-05-31T08:18:52Z</time>
      </trkpt>
      <trkpt lat="42.98948" lon="-0.22671">
        <ele>1517</ele>
        <time>2020-05-31T08:18:53Z</time>
      </trkpt>
      <trkpt lat="42.98963" lon="-0.22674">
        <ele>1517</ele>
        <time>2020-05-31T08:18:56Z</time>
      </trkpt>
      <trkpt lat="42.98991" lon="-0.22687">
        <ele>1516.5999755859</ele>
        <time>2020-05-31T08:19:01Z</time>
      </trkpt>
      <trkpt lat="42.98996" lon="-0.22692">
        <ele>1516</ele>
        <time>2020-05-31T08:19:02Z</time>
      </trkpt>
      <trkpt lat="42.99001" lon="-0.22697">
        <ele>1515.5999755859</ele>
        <time>2020-05-31T08:19:03Z</time>
      </trkpt>
      <trkpt lat="42.99007" lon="-0.22701">
        <ele>1515.1999511719</ele>
        <time>2020-05-31T08:19:04Z</time>
      </trkpt>
      <trkpt lat="42.99013" lon="-0.22705">
        <ele>1514.1999511719</ele>
        <time>2020-05-31T08:19:05Z</time>
      </trkpt>
      <trkpt lat="42.9902" lon="-0.22708">
        <ele>1513.8000488281</ele>
        <time>2020-05-31T08:19:06Z</time>
      </trkpt>
      <trkpt lat="42.99026" lon="-0.22711">
        <ele>1513.4000244141</ele>
        <time>2020-05-31T08:19:07Z</time>
      </trkpt>
      <trkpt lat="42.99033" lon="-0.22714">
        <ele>1512.8000488281</ele>
        <time>2020-05-31T08:19:08Z</time>
      </trkpt>
      <trkpt lat="42.9904" lon="-0.22715">
        <ele>1512.4000244141</ele>
        <time>2020-05-31T08:19:09Z</time>
      </trkpt>
      <trkpt lat="42.99055" lon="-0.22713">
        <ele>1512.4000244141</ele>
        <time>2020-05-31T08:19:11Z</time>
      </trkpt>
      <trkpt lat="42.99081" lon="-0.22699">
        <ele>1512.4000244141</ele>
        <time>2020-05-31T08:19:15Z</time>
      </trkpt>
      <trkpt lat="42.99087" lon="-0.22694">
        <ele>1512.4000244141</ele>
        <time>2020-05-31T08:19:16Z</time>
      </trkpt>
      <trkpt lat="42.99108" lon="-0.22675">
        <ele>1512.4000244141</ele>
        <time>2020-05-31T08:19:20Z</time>
      </trkpt>
      <trkpt lat="42.99131" lon="-0.2265">
        <ele>1512.4000244141</ele>
        <time>2020-05-31T08:19:26Z</time>
      </trkpt>
      <trkpt lat="42.99143" lon="-0.2263">
        <ele>1512.4000244141</ele>
        <time>2020-05-31T08:19:32Z</time>
      </trkpt>
      <trkpt lat="42.99145" lon="-0.22623">
        <ele>1512.8000488281</ele>
        <time>2020-05-31T08:19:34Z</time>
      </trkpt>
      <trkpt lat="42.99146" lon="-0.2262">
        <ele>1513.1999511719</ele>
        <time>2020-05-31T08:19:35Z</time>
      </trkpt>
      <trkpt lat="42.99147" lon="-0.22617">
        <ele>1513.5999755859</ele>
        <time>2020-05-31T08:19:36Z</time>
      </trkpt>
      <trkpt lat="42.99147" lon="-0.22613">
        <ele>1514</ele>
        <time>2020-05-31T08:19:37Z</time>
      </trkpt>
      <trkpt lat="42.99148" lon="-0.2261">
        <ele>1514.4000244141</ele>
        <time>2020-05-31T08:19:38Z</time>
      </trkpt>
      <trkpt lat="42.99149" lon="-0.22581">
        <ele>1514.4000244141</ele>
        <time>2020-05-31T08:19:47Z</time>
      </trkpt>
      <trkpt lat="42.99148" lon="-0.22578">
        <ele>1514.8000488281</ele>
        <time>2020-05-31T08:19:51Z</time>
      </trkpt>
      <trkpt lat="42.99148" lon="-0.22578">
        <ele>1515.1999511719</ele>
        <time>2020-05-31T08:19:52Z</time>
      </trkpt>
      <trkpt lat="42.99148" lon="-0.22578">
        <ele>1515.8000488281</ele>
        <time>2020-05-31T08:19:53Z</time>
      </trkpt>
      <trkpt lat="42.99148" lon="-0.22578">
        <ele>1516.5999755859</ele>
        <time>2020-05-31T08:19:54Z</time>
      </trkpt>
      <trkpt lat="42.99148" lon="-0.22578">
        <ele>1516.5999755859</ele>
        <time>2020-05-31T08:20:03Z</time>
      </trkpt>
      <trkpt lat="42.99148" lon="-0.22578">
        <ele>1516.5999755859</ele>
        <time>2020-05-31T08:20:22Z</time>
      </trkpt>
      <trkpt lat="42.99147" lon="-0.22578">
        <ele>1516.5999755859</ele>
        <time>2020-05-31T08:20:38Z</time>
      </trkpt>
      <trkpt lat="42.99147" lon="-0.22578">
        <ele>1516.5999755859</ele>
        <time>2020-05-31T08:20:50Z</time>
      </trkpt>
      <trkpt lat="42.99147" lon="-0.22578">
        <ele>1516.5999755859</ele>
        <time>2020-05-31T08:21:02Z</time>
      </trkpt>
      <trkpt lat="42.99144" lon="-0.22572">
        <ele>1516.5999755859</ele>
        <time>2020-05-31T08:21:12Z</time>
      </trkpt>
      <trkpt lat="42.99134" lon="-0.22557">
        <ele>1516.5999755859</ele>
        <time>2020-05-31T08:21:18Z</time>
      </trkpt>
      <trkpt lat="42.99124" lon="-0.22543">
        <ele>1516.5999755859</ele>
        <time>2020-05-31T08:21:24Z</time>
      </trkpt>
      <trkpt lat="42.99109" lon="-0.22522">
        <ele>1516.5999755859</ele>
        <time>2020-05-31T08:21:31Z</time>
      </trkpt>
      <trkpt lat="42.99101" lon="-0.22502">
        <ele>1516.5999755859</ele>
        <time>2020-05-31T08:21:36Z</time>
      </trkpt>
      <trkpt lat="42.99095" lon="-0.22471">
        <ele>1516.5999755859</ele>
        <time>2020-05-31T08:21:42Z</time>
      </trkpt>
      <trkpt lat="42.99087" lon="-0.22446">
        <ele>1516.5999755859</ele>
        <time>2020-05-31T08:21:48Z</time>
      </trkpt>
      <trkpt lat="42.9908" lon="-0.22425">
        <ele>1516.5999755859</ele>
        <time>2020-05-31T08:21:54Z</time>
      </trkpt>
      <trkpt lat="42.99075" lon="-0.22415">
        <ele>1517</ele>
        <time>2020-05-31T08:21:57Z</time>
      </trkpt>
      <trkpt lat="42.99074" lon="-0.22411">
        <ele>1517.8000488281</ele>
        <time>2020-05-31T08:21:58Z</time>
      </trkpt>
      <trkpt lat="42.99073" lon="-0.22407">
        <ele>1518.1999511719</ele>
        <time>2020-05-31T08:21:59Z</time>
      </trkpt>
      <trkpt lat="42.99072" lon="-0.22403">
        <ele>1518.5999755859</ele>
        <time>2020-05-31T08:22:00Z</time>
      </trkpt>
      <trkpt lat="42.99064" lon="-0.2238">
        <ele>1518.5999755859</ele>
        <time>2020-05-31T08:22:06Z</time>
      </trkpt>
      <trkpt lat="42.99054" lon="-0.22352">
        <ele>1518.5999755859</ele>
        <time>2020-05-31T08:22:12Z</time>
      </trkpt>
      <trkpt lat="42.99045" lon="-0.22329">
        <ele>1518.5999755859</ele>
        <time>2020-05-31T08:22:18Z</time>
      </trkpt>
      <trkpt lat="42.99034" lon="-0.22308">
        <ele>1518.5999755859</ele>
        <time>2020-05-31T08:22:23Z</time>
      </trkpt>
      <trkpt lat="42.9903" lon="-0.22304">
        <ele>1518.5999755859</ele>
        <time>2020-05-31T08:22:24Z</time>
      </trkpt>
      <trkpt lat="42.9902" lon="-0.22291">
        <ele>1518.5999755859</ele>
        <time>2020-05-31T08:22:27Z</time>
      </trkpt>
      <trkpt lat="42.99007" lon="-0.2228">
        <ele>1518.5999755859</ele>
        <time>2020-05-31T08:22:30Z</time>
      </trkpt>
      <trkpt lat="42.98995" lon="-0.22269">
        <ele>1518.5999755859</ele>
        <time>2020-05-31T08:22:33Z</time>
      </trkpt>
      <trkpt lat="42.98983" lon="-0.22254">
        <ele>1518.5999755859</ele>
        <time>2020-05-31T08:22:36Z</time>
      </trkpt>
      <trkpt lat="42.98964" lon="-0.22228">
        <ele>1518.5999755859</ele>
        <time>2020-05-31T08:22:41Z</time>
      </trkpt>
      <trkpt lat="42.98957" lon="-0.22218">
        <ele>1518.5999755859</ele>
        <time>2020-05-31T08:22:43Z</time>
      </trkpt>
      <trkpt lat="42.98936" lon="-0.22194">
        <ele>1518.5999755859</ele>
        <time>2020-05-31T08:22:48Z</time>
      </trkpt>
      <trkpt lat="42.98931" lon="-0.2219">
        <ele>1518.5999755859</ele>
        <time>2020-05-31T08:22:49Z</time>
      </trkpt>
      <trkpt lat="42.98913" lon="-0.22184">
        <ele>1518.1999511719</ele>
        <time>2020-05-31T08:22:52Z</time>
      </trkpt>
      <trkpt lat="42.98907" lon="-0.22183">
        <ele>1517.5999755859</ele>
        <time>2020-05-31T08:22:53Z</time>
      </trkpt>
      <trkpt lat="42.98901" lon="-0.22184">
        <ele>1517.1999511719</ele>
        <time>2020-05-31T08:22:54Z</time>
      </trkpt>
      <trkpt lat="42.98896" lon="-0.22184">
        <ele>1516.8000488281</ele>
        <time>2020-05-31T08:22:55Z</time>
      </trkpt>
      <trkpt lat="42.98891" lon="-0.22183">
        <ele>1516.4000244141</ele>
        <time>2020-05-31T08:22:56Z</time>
      </trkpt>
      <trkpt lat="42.98886" lon="-0.2218">
        <ele>1516.4000244141</ele>
        <time>2020-05-31T08:22:57Z</time>
      </trkpt>
      <trkpt lat="42.98874" lon="-0.22161">
        <ele>1516.4000244141</ele>
        <time>2020-05-31T08:23:00Z</time>
      </trkpt>
      <trkpt lat="42.9887" lon="-0.22148">
        <ele>1516.4000244141</ele>
        <time>2020-05-31T08:23:02Z</time>
      </trkpt>
      <trkpt lat="42.98866" lon="-0.22133">
        <ele>1516.4000244141</ele>
        <time>2020-05-31T08:23:04Z</time>
      </trkpt>
      <trkpt lat="42.9886" lon="-0.22084">
        <ele>1516.4000244141</ele>
        <time>2020-05-31T08:23:10Z</time>
      </trkpt>
      <trkpt lat="42.98859" lon="-0.22037">
        <ele>1516.4000244141</ele>
        <time>2020-05-31T08:23:16Z</time>
      </trkpt>
      <trkpt lat="42.9886" lon="-0.22021">
        <ele>1516.4000244141</ele>
        <time>2020-05-31T08:23:18Z</time>
      </trkpt>
      <trkpt lat="42.98865" lon="-0.21986">
        <ele>1516.4000244141</ele>
        <time>2020-05-31T08:23:22Z</time>
      </trkpt>
      <trkpt lat="42.9887" lon="-0.21955">
        <ele>1515.8000488281</ele>
        <time>2020-05-31T08:23:25Z</time>
      </trkpt>
      <trkpt lat="42.98872" lon="-0.21945">
        <ele>1515.4000244141</ele>
        <time>2020-05-31T08:23:26Z</time>
      </trkpt>
      <trkpt lat="42.98874" lon="-0.21934">
        <ele>1514.8000488281</ele>
        <time>2020-05-31T08:23:27Z</time>
      </trkpt>
      <trkpt lat="42.98876" lon="-0.21923">
        <ele>1514.4000244141</ele>
        <time>2020-05-31T08:23:28Z</time>
      </trkpt>
      <trkpt lat="42.98878" lon="-0.21912">
        <ele>1513.8000488281</ele>
        <time>2020-05-31T08:23:29Z</time>
      </trkpt>
      <trkpt lat="42.98881" lon="-0.21899">
        <ele>1513.1999511719</ele>
        <time>2020-05-31T08:23:30Z</time>
      </trkpt>
      <trkpt lat="42.98884" lon="-0.21888">
        <ele>1512.5999755859</ele>
        <time>2020-05-31T08:23:31Z</time>
      </trkpt>
      <trkpt lat="42.98888" lon="-0.21876">
        <ele>1512</ele>
        <time>2020-05-31T08:23:32Z</time>
      </trkpt>
      <trkpt lat="42.98891" lon="-0.21866">
        <ele>1511.1999511719</ele>
        <time>2020-05-31T08:23:33Z</time>
      </trkpt>
      <trkpt lat="42.98894" lon="-0.21855">
        <ele>1510.5999755859</ele>
        <time>2020-05-31T08:23:34Z</time>
      </trkpt>
      <trkpt lat="42.98894" lon="-0.21845">
        <ele>1509.8000488281</ele>
        <time>2020-05-31T08:23:35Z</time>
      </trkpt>
      <trkpt lat="42.98893" lon="-0.21834">
        <ele>1509.1999511719</ele>
        <time>2020-05-31T08:23:36Z</time>
      </trkpt>
      <trkpt lat="42.98888" lon="-0.21803">
        <ele>1508.8000488281</ele>
        <time>2020-05-31T08:23:39Z</time>
      </trkpt>
      <trkpt lat="42.98887" lon="-0.21792">
        <ele>1508.4000244141</ele>
        <time>2020-05-31T08:23:40Z</time>
      </trkpt>
      <trkpt lat="42.98886" lon="-0.21779">
        <ele>1508</ele>
        <time>2020-05-31T08:23:41Z</time>
      </trkpt>
      <trkpt lat="42.98886" lon="-0.21767">
        <ele>1507.1999511719</ele>
        <time>2020-05-31T08:23:42Z</time>
      </trkpt>
      <trkpt lat="42.98886" lon="-0.21755">
        <ele>1506.5999755859</ele>
        <time>2020-05-31T08:23:43Z</time>
      </trkpt>
      <trkpt lat="42.98886" lon="-0.21741">
        <ele>1505.8000488281</ele>
        <time>2020-05-31T08:23:44Z</time>
      </trkpt>
      <trkpt lat="42.98885" lon="-0.21728">
        <ele>1505</ele>
        <time>2020-05-31T08:23:45Z</time>
      </trkpt>
      <trkpt lat="42.98884" lon="-0.21715">
        <ele>1504.1999511719</ele>
        <time>2020-05-31T08:23:46Z</time>
      </trkpt>
      <trkpt lat="42.98882" lon="-0.21703">
        <ele>1503.1999511719</ele>
        <time>2020-05-31T08:23:47Z</time>
      </trkpt>
      <trkpt lat="42.98878" lon="-0.2169">
        <ele>1502.4000244141</ele>
        <time>2020-05-31T08:23:48Z</time>
      </trkpt>
      <trkpt lat="42.98873" lon="-0.21678">
        <ele>1501.4000244141</ele>
        <time>2020-05-31T08:23:49Z</time>
      </trkpt>
      <trkpt lat="42.98868" lon="-0.21668">
        <ele>1500.5999755859</ele>
        <time>2020-05-31T08:23:50Z</time>
      </trkpt>
      <trkpt lat="42.98856" lon="-0.21656">
        <ele>1500.5999755859</ele>
        <time>2020-05-31T08:23:52Z</time>
      </trkpt>
      <trkpt lat="42.98839" lon="-0.21657">
        <ele>1500.5999755859</ele>
        <time>2020-05-31T08:23:55Z</time>
      </trkpt>
      <trkpt lat="42.98813" lon="-0.21668">
        <ele>1500.5999755859</ele>
        <time>2020-05-31T08:23:59Z</time>
      </trkpt>
      <trkpt lat="42.98806" lon="-0.21671">
        <ele>1500</ele>
        <time>2020-05-31T08:24:00Z</time>
      </trkpt>
      <trkpt lat="42.98798" lon="-0.21673">
        <ele>1499.5999755859</ele>
        <time>2020-05-31T08:24:01Z</time>
      </trkpt>
      <trkpt lat="42.9879" lon="-0.21675">
        <ele>1498.4000244141</ele>
        <time>2020-05-31T08:24:02Z</time>
      </trkpt>
      <trkpt lat="42.98782" lon="-0.21677">
        <ele>1497.8000488281</ele>
        <time>2020-05-31T08:24:03Z</time>
      </trkpt>
      <trkpt lat="42.98773" lon="-0.21679">
        <ele>1497.1999511719</ele>
        <time>2020-05-31T08:24:04Z</time>
      </trkpt>
      <trkpt lat="42.98764" lon="-0.21682">
        <ele>1496.4000244141</ele>
        <time>2020-05-31T08:24:05Z</time>
      </trkpt>
      <trkpt lat="42.98755" lon="-0.2168">
        <ele>1495.5999755859</ele>
        <time>2020-05-31T08:24:06Z</time>
      </trkpt>
      <trkpt lat="42.98745" lon="-0.21678">
        <ele>1494.8000488281</ele>
        <time>2020-05-31T08:24:07Z</time>
      </trkpt>
      <trkpt lat="42.98736" lon="-0.21675">
        <ele>1494</ele>
        <time>2020-05-31T08:24:08Z</time>
      </trkpt>
      <trkpt lat="42.98727" lon="-0.21671">
        <ele>1493.4000244141</ele>
        <time>2020-05-31T08:24:09Z</time>
      </trkpt>
      <trkpt lat="42.98718" lon="-0.21666">
        <ele>1492.5999755859</ele>
        <time>2020-05-31T08:24:10Z</time>
      </trkpt>
      <trkpt lat="42.98709" lon="-0.21661">
        <ele>1491.8000488281</ele>
        <time>2020-05-31T08:24:11Z</time>
      </trkpt>
      <trkpt lat="42.98701" lon="-0.21656">
        <ele>1491</ele>
        <time>2020-05-31T08:24:12Z</time>
      </trkpt>
      <trkpt lat="42.98694" lon="-0.21653">
        <ele>1490.4000244141</ele>
        <time>2020-05-31T08:24:13Z</time>
      </trkpt>
      <trkpt lat="42.98686" lon="-0.21651">
        <ele>1489.5999755859</ele>
        <time>2020-05-31T08:24:14Z</time>
      </trkpt>
      <trkpt lat="42.98677" lon="-0.2165">
        <ele>1488.8000488281</ele>
        <time>2020-05-31T08:24:15Z</time>
      </trkpt>
      <trkpt lat="42.98668" lon="-0.21651">
        <ele>1488.4000244141</ele>
        <time>2020-05-31T08:24:16Z</time>
      </trkpt>
      <trkpt lat="42.98659" lon="-0.21653">
        <ele>1488</ele>
        <time>2020-05-31T08:24:17Z</time>
      </trkpt>
      <trkpt lat="42.98654" lon="-0.21656">
        <ele>1487.5999755859</ele>
        <time>2020-05-31T08:24:18Z</time>
      </trkpt>
      <trkpt lat="42.98652" lon="-0.21658">
        <ele>1487.1999511719</ele>
        <time>2020-05-31T08:24:19Z</time>
      </trkpt>
      <trkpt lat="42.98651" lon="-0.21658">
        <ele>1486.8000488281</ele>
        <time>2020-05-31T08:24:20Z</time>
      </trkpt>
      <trkpt lat="42.98642" lon="-0.2166">
        <ele>1486.8000488281</ele>
        <time>2020-05-31T08:24:26Z</time>
      </trkpt>
      <trkpt lat="42.98629" lon="-0.21664">
        <ele>1486.8000488281</ele>
        <time>2020-05-31T08:24:32Z</time>
      </trkpt>
      <trkpt lat="42.98624" lon="-0.21654">
        <ele>1486.4000244141</ele>
        <time>2020-05-31T08:24:36Z</time>
      </trkpt>
      <trkpt lat="42.98624" lon="-0.2165">
        <ele>1486</ele>
        <time>2020-05-31T08:24:37Z</time>
      </trkpt>
      <trkpt lat="42.98626" lon="-0.21646">
        <ele>1485.5999755859</ele>
        <time>2020-05-31T08:24:38Z</time>
      </trkpt>
      <trkpt lat="42.98629" lon="-0.21641">
        <ele>1485.1999511719</ele>
        <time>2020-05-31T08:24:39Z</time>
      </trkpt>
      <trkpt lat="42.98633" lon="-0.21638">
        <ele>1484.8000488281</ele>
        <time>2020-05-31T08:24:40Z</time>
      </trkpt>
      <trkpt lat="42.98638" lon="-0.21636">
        <ele>1484.4000244141</ele>
        <time>2020-05-31T08:24:41Z</time>
      </trkpt>
      <trkpt lat="42.98643" lon="-0.21634">
        <ele>1484</ele>
        <time>2020-05-31T08:24:42Z</time>
      </trkpt>
      <trkpt lat="42.98648" lon="-0.21634">
        <ele>1483.4000244141</ele>
        <time>2020-05-31T08:24:43Z</time>
      </trkpt>
      <trkpt lat="42.98653" lon="-0.21633">
        <ele>1483</ele>
        <time>2020-05-31T08:24:44Z</time>
      </trkpt>
      <trkpt lat="42.98658" lon="-0.21631">
        <ele>1482.5999755859</ele>
        <time>2020-05-31T08:24:45Z</time>
      </trkpt>
      <trkpt lat="42.98669" lon="-0.21627">
        <ele>1482.5999755859</ele>
        <time>2020-05-31T08:24:47Z</time>
      </trkpt>
      <trkpt lat="42.98682" lon="-0.21626">
        <ele>1482.5999755859</ele>
        <time>2020-05-31T08:24:50Z</time>
      </trkpt>
      <trkpt lat="42.9869" lon="-0.21627">
        <ele>1482.5999755859</ele>
        <time>2020-05-31T08:24:52Z</time>
      </trkpt>
      <trkpt lat="42.98708" lon="-0.21634">
        <ele>1482.5999755859</ele>
        <time>2020-05-31T08:24:57Z</time>
      </trkpt>
      <trkpt lat="42.98719" lon="-0.21637">
        <ele>1482.5999755859</ele>
        <time>2020-05-31T08:24:59Z</time>
      </trkpt>
      <trkpt lat="42.98737" lon="-0.2164">
        <ele>1482.5999755859</ele>
        <time>2020-05-31T08:25:02Z</time>
      </trkpt>
      <trkpt lat="42.98757" lon="-0.2164">
        <ele>1482.1999511719</ele>
        <time>2020-05-31T08:25:05Z</time>
      </trkpt>
      <trkpt lat="42.98765" lon="-0.21639">
        <ele>1481.8000488281</ele>
        <time>2020-05-31T08:25:06Z</time>
      </trkpt>
      <trkpt lat="42.98771" lon="-0.21637">
        <ele>1481.1999511719</ele>
        <time>2020-05-31T08:25:07Z</time>
      </trkpt>
      <trkpt lat="42.98779" lon="-0.21635">
        <ele>1480.8000488281</ele>
        <time>2020-05-31T08:25:08Z</time>
      </trkpt>
      <trkpt lat="42.98786" lon="-0.21632">
        <ele>1480.4000244141</ele>
        <time>2020-05-31T08:25:09Z</time>
      </trkpt>
      <trkpt lat="42.988" lon="-0.21625">
        <ele>1480.4000244141</ele>
        <time>2020-05-31T08:25:11Z</time>
      </trkpt>
      <trkpt lat="42.98807" lon="-0.2162">
        <ele>1480</ele>
        <time>2020-05-31T08:25:12Z</time>
      </trkpt>
      <trkpt lat="42.98814" lon="-0.21615">
        <ele>1479.4000244141</ele>
        <time>2020-05-31T08:25:13Z</time>
      </trkpt>
      <trkpt lat="42.98821" lon="-0.21608">
        <ele>1478.8000488281</ele>
        <time>2020-05-31T08:25:14Z</time>
      </trkpt>
      <trkpt lat="42.98828" lon="-0.21601">
        <ele>1477.8000488281</ele>
        <time>2020-05-31T08:25:15Z</time>
      </trkpt>
      <trkpt lat="42.98834" lon="-0.21594">
        <ele>1477.1999511719</ele>
        <time>2020-05-31T08:25:16Z</time>
      </trkpt>
      <trkpt lat="42.9884" lon="-0.21588">
        <ele>1476.5999755859</ele>
        <time>2020-05-31T08:25:17Z</time>
      </trkpt>
      <trkpt lat="42.98846" lon="-0.21583">
        <ele>1476</ele>
        <time>2020-05-31T08:25:18Z</time>
      </trkpt>
      <trkpt lat="42.98852" lon="-0.21577">
        <ele>1475.4000244141</ele>
        <time>2020-05-31T08:25:19Z</time>
      </trkpt>
      <trkpt lat="42.98858" lon="-0.21571">
        <ele>1475</ele>
        <time>2020-05-31T08:25:20Z</time>
      </trkpt>
      <trkpt lat="42.98865" lon="-0.21564">
        <ele>1474.4000244141</ele>
        <time>2020-05-31T08:25:21Z</time>
      </trkpt>
      <trkpt lat="42.98871" lon="-0.21556">
        <ele>1473.8000488281</ele>
        <time>2020-05-31T08:25:22Z</time>
      </trkpt>
      <trkpt lat="42.98878" lon="-0.21547">
        <ele>1473</ele>
        <time>2020-05-31T08:25:23Z</time>
      </trkpt>
      <trkpt lat="42.98884" lon="-0.21536">
        <ele>1472.1999511719</ele>
        <time>2020-05-31T08:25:24Z</time>
      </trkpt>
      <trkpt lat="42.98889" lon="-0.21524">
        <ele>1471.1999511719</ele>
        <time>2020-05-31T08:25:25Z</time>
      </trkpt>
      <trkpt lat="42.98893" lon="-0.21512">
        <ele>1470.4000244141</ele>
        <time>2020-05-31T08:25:26Z</time>
      </trkpt>
      <trkpt lat="42.98896" lon="-0.215">
        <ele>1469.5999755859</ele>
        <time>2020-05-31T08:25:27Z</time>
      </trkpt>
      <trkpt lat="42.98899" lon="-0.21489">
        <ele>1468.8000488281</ele>
        <time>2020-05-31T08:25:28Z</time>
      </trkpt>
      <trkpt lat="42.98904" lon="-0.21479">
        <ele>1468</ele>
        <time>2020-05-31T08:25:29Z</time>
      </trkpt>
      <trkpt lat="42.98908" lon="-0.21468">
        <ele>1467.4000244141</ele>
        <time>2020-05-31T08:25:30Z</time>
      </trkpt>
      <trkpt lat="42.98913" lon="-0.21457">
        <ele>1466.5999755859</ele>
        <time>2020-05-31T08:25:31Z</time>
      </trkpt>
      <trkpt lat="42.98922" lon="-0.21436">
        <ele>1466.5999755859</ele>
        <time>2020-05-31T08:25:33Z</time>
      </trkpt>
      <trkpt lat="42.98928" lon="-0.21413">
        <ele>1466.1999511719</ele>
        <time>2020-05-31T08:25:35Z</time>
      </trkpt>
      <trkpt lat="42.98931" lon="-0.21402">
        <ele>1465.5999755859</ele>
        <time>2020-05-31T08:25:36Z</time>
      </trkpt>
      <trkpt lat="42.98933" lon="-0.21393">
        <ele>1465.1999511719</ele>
        <time>2020-05-31T08:25:37Z</time>
      </trkpt>
      <trkpt lat="42.98936" lon="-0.21384">
        <ele>1464.8000488281</ele>
        <time>2020-05-31T08:25:38Z</time>
      </trkpt>
      <trkpt lat="42.98942" lon="-0.21377">
        <ele>1464.1999511719</ele>
        <time>2020-05-31T08:25:39Z</time>
      </trkpt>
      <trkpt lat="42.98948" lon="-0.21372">
        <ele>1463.1999511719</ele>
        <time>2020-05-31T08:25:40Z</time>
      </trkpt>
      <trkpt lat="42.98954" lon="-0.21369">
        <ele>1462.8000488281</ele>
        <time>2020-05-31T08:25:41Z</time>
      </trkpt>
      <trkpt lat="42.98962" lon="-0.21367">
        <ele>1462.4000244141</ele>
        <time>2020-05-31T08:25:42Z</time>
      </trkpt>
      <trkpt lat="42.98969" lon="-0.21365">
        <ele>1461.5999755859</ele>
        <time>2020-05-31T08:25:43Z</time>
      </trkpt>
      <trkpt lat="42.98976" lon="-0.21363">
        <ele>1461</ele>
        <time>2020-05-31T08:25:44Z</time>
      </trkpt>
      <trkpt lat="42.98984" lon="-0.21359">
        <ele>1460.4000244141</ele>
        <time>2020-05-31T08:25:45Z</time>
      </trkpt>
      <trkpt lat="42.98991" lon="-0.21352">
        <ele>1459.8000488281</ele>
        <time>2020-05-31T08:25:46Z</time>
      </trkpt>
      <trkpt lat="42.98997" lon="-0.21344">
        <ele>1459.1999511719</ele>
        <time>2020-05-31T08:25:47Z</time>
      </trkpt>
      <trkpt lat="42.99002" lon="-0.21335">
        <ele>1458.5999755859</ele>
        <time>2020-05-31T08:25:48Z</time>
      </trkpt>
      <trkpt lat="42.99007" lon="-0.21324">
        <ele>1458.1999511719</ele>
        <time>2020-05-31T08:25:49Z</time>
      </trkpt>
      <trkpt lat="42.99009" lon="-0.21312">
        <ele>1457.4000244141</ele>
        <time>2020-05-31T08:25:50Z</time>
      </trkpt>
      <trkpt lat="42.99012" lon="-0.21299">
        <ele>1456.5999755859</ele>
        <time>2020-05-31T08:25:51Z</time>
      </trkpt>
      <trkpt lat="42.99015" lon="-0.21286">
        <ele>1455.8000488281</ele>
        <time>2020-05-31T08:25:52Z</time>
      </trkpt>
      <trkpt lat="42.99018" lon="-0.21275">
        <ele>1454.8000488281</ele>
        <time>2020-05-31T08:25:53Z</time>
      </trkpt>
      <trkpt lat="42.99022" lon="-0.21265">
        <ele>1453.8000488281</ele>
        <time>2020-05-31T08:25:54Z</time>
      </trkpt>
      <trkpt lat="42.99026" lon="-0.21254">
        <ele>1453</ele>
        <time>2020-05-31T08:25:55Z</time>
      </trkpt>
      <trkpt lat="42.99029" lon="-0.21244">
        <ele>1452</ele>
        <time>2020-05-31T08:25:56Z</time>
      </trkpt>
      <trkpt lat="42.99034" lon="-0.21235">
        <ele>1452</ele>
        <time>2020-05-31T08:25:57Z</time>
      </trkpt>
      <trkpt lat="42.99042" lon="-0.21221">
        <ele>1452</ele>
        <time>2020-05-31T08:25:59Z</time>
      </trkpt>
      <trkpt lat="42.99067" lon="-0.21179">
        <ele>1451.5999755859</ele>
        <time>2020-05-31T08:26:04Z</time>
      </trkpt>
      <trkpt lat="42.99073" lon="-0.2117">
        <ele>1450.4000244141</ele>
        <time>2020-05-31T08:26:05Z</time>
      </trkpt>
      <trkpt lat="42.99079" lon="-0.21164">
        <ele>1449.5999755859</ele>
        <time>2020-05-31T08:26:06Z</time>
      </trkpt>
      <trkpt lat="42.99084" lon="-0.21157">
        <ele>1448.8000488281</ele>
        <time>2020-05-31T08:26:07Z</time>
      </trkpt>
      <trkpt lat="42.99088" lon="-0.2115">
        <ele>1448.1999511719</ele>
        <time>2020-05-31T08:26:08Z</time>
      </trkpt>
      <trkpt lat="42.99092" lon="-0.21141">
        <ele>1447.4000244141</ele>
        <time>2020-05-31T08:26:09Z</time>
      </trkpt>
      <trkpt lat="42.99095" lon="-0.21133">
        <ele>1447</ele>
        <time>2020-05-31T08:26:10Z</time>
      </trkpt>
      <trkpt lat="42.99099" lon="-0.21125">
        <ele>1446.5999755859</ele>
        <time>2020-05-31T08:26:11Z</time>
      </trkpt>
      <trkpt lat="42.99102" lon="-0.21117">
        <ele>1446.1999511719</ele>
        <time>2020-05-31T08:26:12Z</time>
      </trkpt>
      <trkpt lat="42.99104" lon="-0.21108">
        <ele>1445.8000488281</ele>
        <time>2020-05-31T08:26:13Z</time>
      </trkpt>
      <trkpt lat="42.99105" lon="-0.21098">
        <ele>1445.1999511719</ele>
        <time>2020-05-31T08:26:14Z</time>
      </trkpt>
      <trkpt lat="42.99104" lon="-0.21089">
        <ele>1444.5999755859</ele>
        <time>2020-05-31T08:26:15Z</time>
      </trkpt>
      <trkpt lat="42.99104" lon="-0.21081">
        <ele>1444</ele>
        <time>2020-05-31T08:26:16Z</time>
      </trkpt>
      <trkpt lat="42.99104" lon="-0.21073">
        <ele>1443.4000244141</ele>
        <time>2020-05-31T08:26:17Z</time>
      </trkpt>
      <trkpt lat="42.99104" lon="-0.21067">
        <ele>1442.8000488281</ele>
        <time>2020-05-31T08:26:18Z</time>
      </trkpt>
      <trkpt lat="42.99105" lon="-0.21062">
        <ele>1442.8000488281</ele>
        <time>2020-05-31T08:26:19Z</time>
      </trkpt>
      <trkpt lat="42.99108" lon="-0.21044">
        <ele>1442.8000488281</ele>
        <time>2020-05-31T08:26:23Z</time>
      </trkpt>
      <trkpt lat="42.9911" lon="-0.21036">
        <ele>1442.4000244141</ele>
        <time>2020-05-31T08:26:24Z</time>
      </trkpt>
      <trkpt lat="42.99111" lon="-0.21028">
        <ele>1441.8000488281</ele>
        <time>2020-05-31T08:26:25Z</time>
      </trkpt>
      <trkpt lat="42.99111" lon="-0.21018">
        <ele>1441.4000244141</ele>
        <time>2020-05-31T08:26:26Z</time>
      </trkpt>
      <trkpt lat="42.99111" lon="-0.21007">
        <ele>1440.8000488281</ele>
        <time>2020-05-31T08:26:27Z</time>
      </trkpt>
      <trkpt lat="42.99109" lon="-0.20996">
        <ele>1440.1999511719</ele>
        <time>2020-05-31T08:26:28Z</time>
      </trkpt>
      <trkpt lat="42.99107" lon="-0.20985">
        <ele>1438.4000244141</ele>
        <time>2020-05-31T08:26:29Z</time>
      </trkpt>
      <trkpt lat="42.99101" lon="-0.20975">
        <ele>1437.1999511719</ele>
        <time>2020-05-31T08:26:30Z</time>
      </trkpt>
      <trkpt lat="42.99094" lon="-0.20965">
        <ele>1436.1999511719</ele>
        <time>2020-05-31T08:26:31Z</time>
      </trkpt>
      <trkpt lat="42.99088" lon="-0.20956">
        <ele>1435.1999511719</ele>
        <time>2020-05-31T08:26:32Z</time>
      </trkpt>
      <trkpt lat="42.99082" lon="-0.20948">
        <ele>1434</ele>
        <time>2020-05-31T08:26:33Z</time>
      </trkpt>
      <trkpt lat="42.99076" lon="-0.20939">
        <ele>1432.8000488281</ele>
        <time>2020-05-31T08:26:34Z</time>
      </trkpt>
      <trkpt lat="42.9907" lon="-0.20931">
        <ele>1431.5999755859</ele>
        <time>2020-05-31T08:26:35Z</time>
      </trkpt>
      <trkpt lat="42.99064" lon="-0.20923">
        <ele>1430.4000244141</ele>
        <time>2020-05-31T08:26:36Z</time>
      </trkpt>
      <trkpt lat="42.99059" lon="-0.20915">
        <ele>1429.1999511719</ele>
        <time>2020-05-31T08:26:37Z</time>
      </trkpt>
      <trkpt lat="42.99055" lon="-0.20906">
        <ele>1428</ele>
        <time>2020-05-31T08:26:38Z</time>
      </trkpt>
      <trkpt lat="42.99051" lon="-0.20896">
        <ele>1427</ele>
        <time>2020-05-31T08:26:39Z</time>
      </trkpt>
      <trkpt lat="42.99046" lon="-0.20883">
        <ele>1425.5999755859</ele>
        <time>2020-05-31T08:26:40Z</time>
      </trkpt>
      <trkpt lat="42.99041" lon="-0.20871">
        <ele>1424.1999511719</ele>
        <time>2020-05-31T08:26:41Z</time>
      </trkpt>
      <trkpt lat="42.99036" lon="-0.2086">
        <ele>1422.8000488281</ele>
        <time>2020-05-31T08:26:42Z</time>
      </trkpt>
      <trkpt lat="42.99031" lon="-0.20848">
        <ele>1421.4000244141</ele>
        <time>2020-05-31T08:26:43Z</time>
      </trkpt>
      <trkpt lat="42.99027" lon="-0.20839">
        <ele>1420</ele>
        <time>2020-05-31T08:26:44Z</time>
      </trkpt>
      <trkpt lat="42.99023" lon="-0.20828">
        <ele>1418.5999755859</ele>
        <time>2020-05-31T08:26:45Z</time>
      </trkpt>
      <trkpt lat="42.99019" lon="-0.20817">
        <ele>1417.1999511719</ele>
        <time>2020-05-31T08:26:46Z</time>
      </trkpt>
      <trkpt lat="42.99017" lon="-0.20806">
        <ele>1416</ele>
        <time>2020-05-31T08:26:47Z</time>
      </trkpt>
      <trkpt lat="42.99015" lon="-0.20797">
        <ele>1415</ele>
        <time>2020-05-31T08:26:48Z</time>
      </trkpt>
      <trkpt lat="42.99014" lon="-0.20788">
        <ele>1413.8000488281</ele>
        <time>2020-05-31T08:26:49Z</time>
      </trkpt>
      <trkpt lat="42.99014" lon="-0.20781">
        <ele>1413</ele>
        <time>2020-05-31T08:26:50Z</time>
      </trkpt>
      <trkpt lat="42.99014" lon="-0.20776">
        <ele>1412</ele>
        <time>2020-05-31T08:26:51Z</time>
      </trkpt>
      <trkpt lat="42.99015" lon="-0.20771">
        <ele>1411.1999511719</ele>
        <time>2020-05-31T08:26:52Z</time>
      </trkpt>
      <trkpt lat="42.99015" lon="-0.20766">
        <ele>1410.1999511719</ele>
        <time>2020-05-31T08:26:53Z</time>
      </trkpt>
      <trkpt lat="42.99017" lon="-0.2076">
        <ele>1409</ele>
        <time>2020-05-31T08:26:54Z</time>
      </trkpt>
      <trkpt lat="42.99017" lon="-0.20752">
        <ele>1408.4000244141</ele>
        <time>2020-05-31T08:26:55Z</time>
      </trkpt>
      <trkpt lat="42.99018" lon="-0.20744">
        <ele>1407.8000488281</ele>
        <time>2020-05-31T08:26:56Z</time>
      </trkpt>
      <trkpt lat="42.99018" lon="-0.20734">
        <ele>1407.1999511719</ele>
        <time>2020-05-31T08:26:57Z</time>
      </trkpt>
      <trkpt lat="42.99019" lon="-0.20725">
        <ele>1406.1999511719</ele>
        <time>2020-05-31T08:26:58Z</time>
      </trkpt>
      <trkpt lat="42.99019" lon="-0.20714">
        <ele>1405.4000244141</ele>
        <time>2020-05-31T08:26:59Z</time>
      </trkpt>
      <trkpt lat="42.99018" lon="-0.20703">
        <ele>1404.4000244141</ele>
        <time>2020-05-31T08:27:00Z</time>
      </trkpt>
      <trkpt lat="42.99016" lon="-0.20691">
        <ele>1403.4000244141</ele>
        <time>2020-05-31T08:27:01Z</time>
      </trkpt>
      <trkpt lat="42.99015" lon="-0.20679">
        <ele>1402.4000244141</ele>
        <time>2020-05-31T08:27:02Z</time>
      </trkpt>
      <trkpt lat="42.99014" lon="-0.20668">
        <ele>1401.1999511719</ele>
        <time>2020-05-31T08:27:03Z</time>
      </trkpt>
      <trkpt lat="42.99014" lon="-0.20658">
        <ele>1400.1999511719</ele>
        <time>2020-05-31T08:27:04Z</time>
      </trkpt>
      <trkpt lat="42.99017" lon="-0.20649">
        <ele>1399.1999511719</ele>
        <time>2020-05-31T08:27:05Z</time>
      </trkpt>
      <trkpt lat="42.9902" lon="-0.20643">
        <ele>1398</ele>
        <time>2020-05-31T08:27:06Z</time>
      </trkpt>
      <trkpt lat="42.99024" lon="-0.2064">
        <ele>1397</ele>
        <time>2020-05-31T08:27:07Z</time>
      </trkpt>
      <trkpt lat="42.99028" lon="-0.20639">
        <ele>1396.1999511719</ele>
        <time>2020-05-31T08:27:08Z</time>
      </trkpt>
      <trkpt lat="42.99031" lon="-0.20639">
        <ele>1395.5999755859</ele>
        <time>2020-05-31T08:27:09Z</time>
      </trkpt>
      <trkpt lat="42.99035" lon="-0.20638">
        <ele>1395</ele>
        <time>2020-05-31T08:27:10Z</time>
      </trkpt>
      <trkpt lat="42.99039" lon="-0.20635">
        <ele>1394.1999511719</ele>
        <time>2020-05-31T08:27:11Z</time>
      </trkpt>
      <trkpt lat="42.99047" lon="-0.20631">
        <ele>1393.5999755859</ele>
        <time>2020-05-31T08:27:12Z</time>
      </trkpt>
      <trkpt lat="42.99054" lon="-0.20624">
        <ele>1392.8000488281</ele>
        <time>2020-05-31T08:27:13Z</time>
      </trkpt>
      <trkpt lat="42.99059" lon="-0.20615">
        <ele>1392.1999511719</ele>
        <time>2020-05-31T08:27:14Z</time>
      </trkpt>
      <trkpt lat="42.99061" lon="-0.20606">
        <ele>1391.5999755859</ele>
        <time>2020-05-31T08:27:15Z</time>
      </trkpt>
      <trkpt lat="42.99064" lon="-0.20596">
        <ele>1390.8000488281</ele>
        <time>2020-05-31T08:27:16Z</time>
      </trkpt>
      <trkpt lat="42.99067" lon="-0.20585">
        <ele>1390.1999511719</ele>
        <time>2020-05-31T08:27:17Z</time>
      </trkpt>
      <trkpt lat="42.99068" lon="-0.20573">
        <ele>1389</ele>
        <time>2020-05-31T08:27:18Z</time>
      </trkpt>
      <trkpt lat="42.99069" lon="-0.20562">
        <ele>1388.4000244141</ele>
        <time>2020-05-31T08:27:19Z</time>
      </trkpt>
      <trkpt lat="42.99069" lon="-0.20551">
        <ele>1387.5999755859</ele>
        <time>2020-05-31T08:27:20Z</time>
      </trkpt>
      <trkpt lat="42.99069" lon="-0.2054">
        <ele>1387</ele>
        <time>2020-05-31T08:27:21Z</time>
      </trkpt>
      <trkpt lat="42.9907" lon="-0.20528">
        <ele>1386</ele>
        <time>2020-05-31T08:27:22Z</time>
      </trkpt>
      <trkpt lat="42.99069" lon="-0.20516">
        <ele>1385.1999511719</ele>
        <time>2020-05-31T08:27:23Z</time>
      </trkpt>
      <trkpt lat="42.99068" lon="-0.20505">
        <ele>1384</ele>
        <time>2020-05-31T08:27:24Z</time>
      </trkpt>
      <trkpt lat="42.99068" lon="-0.20492">
        <ele>1383</ele>
        <time>2020-05-31T08:27:25Z</time>
      </trkpt>
      <trkpt lat="42.99068" lon="-0.20478">
        <ele>1381.8000488281</ele>
        <time>2020-05-31T08:27:26Z</time>
      </trkpt>
      <trkpt lat="42.99068" lon="-0.20467">
        <ele>1380.5999755859</ele>
        <time>2020-05-31T08:27:27Z</time>
      </trkpt>
      <trkpt lat="42.99068" lon="-0.20456">
        <ele>1379.4000244141</ele>
        <time>2020-05-31T08:27:28Z</time>
      </trkpt>
      <trkpt lat="42.99069" lon="-0.20445">
        <ele>1378.4000244141</ele>
        <time>2020-05-31T08:27:29Z</time>
      </trkpt>
      <trkpt lat="42.99069" lon="-0.20435">
        <ele>1377.4000244141</ele>
        <time>2020-05-31T08:27:30Z</time>
      </trkpt>
      <trkpt lat="42.99068" lon="-0.20424">
        <ele>1376.4000244141</ele>
        <time>2020-05-31T08:27:31Z</time>
      </trkpt>
      <trkpt lat="42.99069" lon="-0.20411">
        <ele>1375.1999511719</ele>
        <time>2020-05-31T08:27:32Z</time>
      </trkpt>
      <trkpt lat="42.9907" lon="-0.20399">
        <ele>1374.1999511719</ele>
        <time>2020-05-31T08:27:33Z</time>
      </trkpt>
      <trkpt lat="42.9907" lon="-0.20386">
        <ele>1373</ele>
        <time>2020-05-31T08:27:34Z</time>
      </trkpt>
      <trkpt lat="42.99071" lon="-0.20373">
        <ele>1371.8000488281</ele>
        <time>2020-05-31T08:27:35Z</time>
      </trkpt>
      <trkpt lat="42.99074" lon="-0.2036">
        <ele>1370.5999755859</ele>
        <time>2020-05-31T08:27:36Z</time>
      </trkpt>
      <trkpt lat="42.99079" lon="-0.20348">
        <ele>1369.1999511719</ele>
        <time>2020-05-31T08:27:37Z</time>
      </trkpt>
      <trkpt lat="42.99083" lon="-0.20337">
        <ele>1367.8000488281</ele>
        <time>2020-05-31T08:27:38Z</time>
      </trkpt>
      <trkpt lat="42.99087" lon="-0.20325">
        <ele>1366.8000488281</ele>
        <time>2020-05-31T08:27:39Z</time>
      </trkpt>
      <trkpt lat="42.99092" lon="-0.20314">
        <ele>1365.8000488281</ele>
        <time>2020-05-31T08:27:40Z</time>
      </trkpt>
      <trkpt lat="42.99097" lon="-0.20304">
        <ele>1364.8000488281</ele>
        <time>2020-05-31T08:27:41Z</time>
      </trkpt>
      <trkpt lat="42.99101" lon="-0.20297">
        <ele>1364</ele>
        <time>2020-05-31T08:27:42Z</time>
      </trkpt>
      <trkpt lat="42.99102" lon="-0.20291">
        <ele>1362.5999755859</ele>
        <time>2020-05-31T08:27:43Z</time>
      </trkpt>
      <trkpt lat="42.99103" lon="-0.20285">
        <ele>1362</ele>
        <time>2020-05-31T08:27:44Z</time>
      </trkpt>
      <trkpt lat="42.99104" lon="-0.20282">
        <ele>1361.1999511719</ele>
        <time>2020-05-31T08:27:45Z</time>
      </trkpt>
      <trkpt lat="42.99103" lon="-0.20283">
        <ele>1360.5999755859</ele>
        <time>2020-05-31T08:27:46Z</time>
      </trkpt>
      <trkpt lat="42.99102" lon="-0.20282">
        <ele>1360.5999755859</ele>
        <time>2020-05-31T08:27:47Z</time>
      </trkpt>
      <trkpt lat="42.991" lon="-0.20281">
        <ele>1360.5999755859</ele>
        <time>2020-05-31T08:27:48Z</time>
      </trkpt>
      <trkpt lat="42.99092" lon="-0.20278">
        <ele>1360.1999511719</ele>
        <time>2020-05-31T08:27:51Z</time>
      </trkpt>
      <trkpt lat="42.9909" lon="-0.20275">
        <ele>1359.8000488281</ele>
        <time>2020-05-31T08:27:52Z</time>
      </trkpt>
      <trkpt lat="42.99088" lon="-0.20273">
        <ele>1359.4000244141</ele>
        <time>2020-05-31T08:27:53Z</time>
      </trkpt>
      <trkpt lat="42.99087" lon="-0.2027">
        <ele>1359</ele>
        <time>2020-05-31T08:27:54Z</time>
      </trkpt>
      <trkpt lat="42.99086" lon="-0.20267">
        <ele>1358.5999755859</ele>
        <time>2020-05-31T08:27:55Z</time>
      </trkpt>
      <trkpt lat="42.99078" lon="-0.20258">
        <ele>1358.5999755859</ele>
        <time>2020-05-31T08:27:58Z</time>
      </trkpt>
      <trkpt lat="42.99075" lon="-0.20255">
        <ele>1358.5999755859</ele>
        <time>2020-05-31T08:27:59Z</time>
      </trkpt>
      <trkpt lat="42.9906" lon="-0.20237">
        <ele>1358.5999755859</ele>
        <time>2020-05-31T08:28:05Z</time>
      </trkpt>
      <trkpt lat="42.99054" lon="-0.20224">
        <ele>1358.5999755859</ele>
        <time>2020-05-31T08:28:09Z</time>
      </trkpt>
      <trkpt lat="42.99056" lon="-0.20219">
        <ele>1358.5999755859</ele>
        <time>2020-05-31T08:28:11Z</time>
      </trkpt>
      <trkpt lat="42.9906" lon="-0.20217">
        <ele>1358.5999755859</ele>
        <time>2020-05-31T08:28:13Z</time>
      </trkpt>
      <trkpt lat="42.99061" lon="-0.2022">
        <ele>1359</ele>
        <time>2020-05-31T08:28:16Z</time>
      </trkpt>
      <trkpt lat="42.99061" lon="-0.2022">
        <ele>1359.4000244141</ele>
        <time>2020-05-31T08:28:17Z</time>
      </trkpt>
      <trkpt lat="42.99061" lon="-0.2022">
        <ele>1359.8000488281</ele>
        <time>2020-05-31T08:28:18Z</time>
      </trkpt>
      <trkpt lat="42.99061" lon="-0.2022">
        <ele>1360.1999511719</ele>
        <time>2020-05-31T08:28:19Z</time>
      </trkpt>
      <trkpt lat="42.99061" lon="-0.2022">
        <ele>1360.5999755859</ele>
        <time>2020-05-31T08:28:20Z</time>
      </trkpt>
      <trkpt lat="42.99061" lon="-0.2022">
        <ele>1360.5999755859</ele>
        <time>2020-05-31T08:28:23Z</time>
      </trkpt>
    </trkseg>
  </trk>
</gpx>